<?xml version="1.0" encoding="utf-8"?>
<gpx xmlns:xsi="http://www.w3.org/2001/XMLSchema-instance" xmlns:xsd="http://www.w3.org/2001/XMLSchema" version="1.1" creator="Shapelink.com" xmlns="http://www.topografix.com/GPX/1/1" xmlns:gpxtpx="http://www.garmin.com/xmlschemas/TrackPointExtension/v1">
  <metadata>
    <name>Sykling 19.12 km, 2013-04-17</name>
    <desc></desc>
    <author><name>Mikael Blom</name></author> 
    <time>2013-04-17T17:58:27Z</time>
  </metadata>
  <trk>
    <name>Sykling 19.12 km, 2013-04-17</name>
    <trkseg>
      <trkpt lat="59.978837" lon="17.7393191">
        <ele>38.5901</ele>
        <time>2013-04-17T17:58:27Z</time>
      </trkpt>
      <trkpt lat="59.9788084" lon="17.7393137">
        <ele>38.5901</ele>
        <time>2013-04-17T17:58:28Z</time>
      </trkpt>
      <trkpt lat="59.9787789" lon="17.7393041">
        <ele>38.5901</ele>
        <time>2013-04-17T17:58:29Z</time>
      </trkpt>
      <trkpt lat="59.9787478" lon="17.7392854">
        <ele>38.5901</ele>
        <time>2013-04-17T17:58:30Z</time>
      </trkpt>
      <trkpt lat="59.9787131" lon="17.7392666">
        <ele>38.5901</ele>
        <time>2013-04-17T17:58:31Z</time>
      </trkpt>
      <trkpt lat="59.9786733" lon="17.7392524">
        <ele>38.5901</ele>
        <time>2013-04-17T17:58:32Z</time>
      </trkpt>
      <trkpt lat="59.9786295" lon="17.7392399">
        <ele>38.5901</ele>
        <time>2013-04-17T17:58:33Z</time>
      </trkpt>
      <trkpt lat="59.9785829" lon="17.7392301">
        <ele>38.5901</ele>
        <time>2013-04-17T17:58:34Z</time>
      </trkpt>
      <trkpt lat="59.9785346" lon="17.7392192">
        <ele>38.5901</ele>
        <time>2013-04-17T17:58:35Z</time>
      </trkpt>
      <trkpt lat="59.9784849" lon="17.7392071">
        <ele>39.0707</ele>
        <time>2013-04-17T17:58:36Z</time>
      </trkpt>
      <trkpt lat="59.9784344" lon="17.7391984">
        <ele>38.5901</ele>
        <time>2013-04-17T17:58:37Z</time>
      </trkpt>
      <trkpt lat="59.9783832" lon="17.7391912">
        <ele>38.5901</ele>
        <time>2013-04-17T17:58:38Z</time>
      </trkpt>
      <trkpt lat="59.9783296" lon="17.7391834">
        <ele>38.5901</ele>
        <time>2013-04-17T17:58:39Z</time>
      </trkpt>
      <trkpt lat="59.9782744" lon="17.7391761">
        <ele>39.0707</ele>
        <time>2013-04-17T17:58:40Z</time>
      </trkpt>
      <trkpt lat="59.9782186" lon="17.7391635">
        <ele>39.0707</ele>
        <time>2013-04-17T17:58:41Z</time>
      </trkpt>
      <trkpt lat="59.9781601" lon="17.73915">
        <ele>39.0707</ele>
        <time>2013-04-17T17:58:42Z</time>
      </trkpt>
      <trkpt lat="59.9781005" lon="17.7391315">
        <ele>39.0707</ele>
        <time>2013-04-17T17:58:43Z</time>
      </trkpt>
      <trkpt lat="59.9780415" lon="17.7391051">
        <ele>39.0707</ele>
        <time>2013-04-17T17:58:44Z</time>
      </trkpt>
      <trkpt lat="59.9779829" lon="17.7390724">
        <ele>39.5513</ele>
        <time>2013-04-17T17:58:45Z</time>
      </trkpt>
      <trkpt lat="59.9779245" lon="17.7390373">
        <ele>39.5513</ele>
        <time>2013-04-17T17:58:46Z</time>
      </trkpt>
      <trkpt lat="59.9778662" lon="17.7390062">
        <ele>39.0707</ele>
        <time>2013-04-17T17:58:47Z</time>
      </trkpt>
      <trkpt lat="59.9778066" lon="17.7389799">
        <ele>39.0707</ele>
        <time>2013-04-17T17:58:48Z</time>
      </trkpt>
      <trkpt lat="59.977744" lon="17.7389613">
        <ele>39.0707</ele>
        <time>2013-04-17T17:58:49Z</time>
      </trkpt>
      <trkpt lat="59.9776794" lon="17.7389514">
        <ele>38.5901</ele>
        <time>2013-04-17T17:58:50Z</time>
      </trkpt>
      <trkpt lat="59.9776115" lon="17.7389499">
        <ele>38.1094</ele>
        <time>2013-04-17T17:58:51Z</time>
      </trkpt>
      <trkpt lat="59.9775411" lon="17.7389565">
        <ele>37.6287</ele>
        <time>2013-04-17T17:58:52Z</time>
      </trkpt>
      <trkpt lat="59.977468" lon="17.7389777">
        <ele>37.1481</ele>
        <time>2013-04-17T17:58:53Z</time>
      </trkpt>
      <trkpt lat="59.9773903" lon="17.7390145">
        <ele>37.1481</ele>
        <time>2013-04-17T17:58:54Z</time>
      </trkpt>
      <trkpt lat="59.9773105" lon="17.7390558">
        <ele>36.6675</ele>
        <time>2013-04-17T17:58:55Z</time>
      </trkpt>
      <trkpt lat="59.9772276" lon="17.739098">
        <ele>36.1868</ele>
        <time>2013-04-17T17:58:56Z</time>
      </trkpt>
      <trkpt lat="59.9771423" lon="17.7391429">
        <ele>35.7061</ele>
        <time>2013-04-17T17:58:57Z</time>
      </trkpt>
      <trkpt lat="59.9770573" lon="17.7391884">
        <ele>35.2255</ele>
        <time>2013-04-17T17:58:58Z</time>
      </trkpt>
      <trkpt lat="59.9769728" lon="17.7392326">
        <ele>35.2255</ele>
        <time>2013-04-17T17:58:59Z</time>
      </trkpt>
      <trkpt lat="59.9768889" lon="17.7392755">
        <ele>34.7449</ele>
        <time>2013-04-17T17:59:00Z</time>
      </trkpt>
      <trkpt lat="59.9768043" lon="17.7393175">
        <ele>34.7449</ele>
        <time>2013-04-17T17:59:01Z</time>
      </trkpt>
      <trkpt lat="59.9767207" lon="17.7393626">
        <ele>34.2642</ele>
        <time>2013-04-17T17:59:02Z</time>
      </trkpt>
      <trkpt lat="59.9766371" lon="17.7394149">
        <ele>33.7834</ele>
        <time>2013-04-17T17:59:03Z</time>
      </trkpt>
      <trkpt lat="59.9765549" lon="17.7394811">
        <ele>33.7834</ele>
        <time>2013-04-17T17:59:04Z</time>
      </trkpt>
      <trkpt lat="59.9764772" lon="17.7395714">
        <ele>33.7834</ele>
        <time>2013-04-17T17:59:05Z</time>
      </trkpt>
      <trkpt lat="59.9764035" lon="17.7396765">
        <ele>33.7834</ele>
        <time>2013-04-17T17:59:06Z</time>
      </trkpt>
      <trkpt lat="59.9763301" lon="17.7397481">
        <ele>33.7834</ele>
        <time>2013-04-17T17:59:07Z</time>
      </trkpt>
      <trkpt lat="59.9762511" lon="17.7397685">
        <ele>33.3029</ele>
        <time>2013-04-17T17:59:08Z</time>
      </trkpt>
      <trkpt lat="59.9761733" lon="17.7397351">
        <ele>33.3029</ele>
        <time>2013-04-17T17:59:09Z</time>
      </trkpt>
      <trkpt lat="59.9761046" lon="17.7396568">
        <ele>32.3416</ele>
        <time>2013-04-17T17:59:10Z</time>
      </trkpt>
      <trkpt lat="59.9760455" lon="17.7395479">
        <ele>31.8607</ele>
        <time>2013-04-17T17:59:11Z</time>
      </trkpt>
      <trkpt lat="59.9759884" lon="17.7394295">
        <ele>31.3801</ele>
        <time>2013-04-17T17:59:12Z</time>
      </trkpt>
      <trkpt lat="59.9759306" lon="17.7393113">
        <ele>30.8995</ele>
        <time>2013-04-17T17:59:13Z</time>
      </trkpt>
      <trkpt lat="59.9758715" lon="17.7391963">
        <ele>30.4188</ele>
        <time>2013-04-17T17:59:14Z</time>
      </trkpt>
      <trkpt lat="59.9758109" lon="17.7390845">
        <ele>29.9381</ele>
        <time>2013-04-17T17:59:15Z</time>
      </trkpt>
      <trkpt lat="59.9757517" lon="17.7389726">
        <ele>29.4575</ele>
        <time>2013-04-17T17:59:16Z</time>
      </trkpt>
      <trkpt lat="59.9756947" lon="17.7388615">
        <ele>28.9769</ele>
        <time>2013-04-17T17:59:17Z</time>
      </trkpt>
      <trkpt lat="59.9756382" lon="17.7387545">
        <ele>28.9769</ele>
        <time>2013-04-17T17:59:18Z</time>
      </trkpt>
      <trkpt lat="59.9755831" lon="17.7386494">
        <ele>28.4962</ele>
        <time>2013-04-17T17:59:19Z</time>
      </trkpt>
      <trkpt lat="59.9755287" lon="17.7385482">
        <ele>28.0155</ele>
        <time>2013-04-17T17:59:20Z</time>
      </trkpt>
      <trkpt lat="59.9754746" lon="17.7384522">
        <ele>28.0155</ele>
        <time>2013-04-17T17:59:21Z</time>
      </trkpt>
      <trkpt lat="59.975421" lon="17.7383617">
        <ele>28.0155</ele>
        <time>2013-04-17T17:59:22Z</time>
      </trkpt>
      <trkpt lat="59.9753695" lon="17.7382766">
        <ele>27.5349</ele>
        <time>2013-04-17T17:59:23Z</time>
      </trkpt>
      <trkpt lat="59.9753204" lon="17.7381939">
        <ele>27.5349</ele>
        <time>2013-04-17T17:59:24Z</time>
      </trkpt>
      <trkpt lat="59.9752733" lon="17.7381122">
        <ele>27.5349</ele>
        <time>2013-04-17T17:59:25Z</time>
      </trkpt>
      <trkpt lat="59.9752287" lon="17.7380307">
        <ele>27.5349</ele>
        <time>2013-04-17T17:59:26Z</time>
      </trkpt>
      <trkpt lat="59.9751867" lon="17.7379472">
        <ele>27.5349</ele>
        <time>2013-04-17T17:59:27Z</time>
      </trkpt>
      <trkpt lat="59.9751461" lon="17.7378648">
        <ele>27.5349</ele>
        <time>2013-04-17T17:59:28Z</time>
      </trkpt>
      <trkpt lat="59.9751043" lon="17.7377874">
        <ele>27.0543</ele>
        <time>2013-04-17T17:59:29Z</time>
      </trkpt>
      <trkpt lat="59.9750608" lon="17.7377147">
        <ele>27.0543</ele>
        <time>2013-04-17T17:59:30Z</time>
      </trkpt>
      <trkpt lat="59.9750174" lon="17.7376428">
        <ele>27.0543</ele>
        <time>2013-04-17T17:59:31Z</time>
      </trkpt>
      <trkpt lat="59.9749764" lon="17.7375665">
        <ele>27.0543</ele>
        <time>2013-04-17T17:59:32Z</time>
      </trkpt>
      <trkpt lat="59.9749355" lon="17.7374875">
        <ele>27.0543</ele>
        <time>2013-04-17T17:59:33Z</time>
      </trkpt>
      <trkpt lat="59.9748956" lon="17.7374045">
        <ele>27.0543</ele>
        <time>2013-04-17T17:59:34Z</time>
      </trkpt>
      <trkpt lat="59.9748574" lon="17.737318">
        <ele>27.0543</ele>
        <time>2013-04-17T17:59:35Z</time>
      </trkpt>
      <trkpt lat="59.9748205" lon="17.7372303">
        <ele>27.0543</ele>
        <time>2013-04-17T17:59:36Z</time>
      </trkpt>
      <trkpt lat="59.9747837" lon="17.7371414">
        <ele>27.0543</ele>
        <time>2013-04-17T17:59:37Z</time>
      </trkpt>
      <trkpt lat="59.9747465" lon="17.7370519">
        <ele>27.0543</ele>
        <time>2013-04-17T17:59:38Z</time>
      </trkpt>
      <trkpt lat="59.974711" lon="17.736959">
        <ele>27.0543</ele>
        <time>2013-04-17T17:59:39Z</time>
      </trkpt>
      <trkpt lat="59.9746773" lon="17.7368632">
        <ele>27.0543</ele>
        <time>2013-04-17T17:59:40Z</time>
      </trkpt>
      <trkpt lat="59.9746467" lon="17.7367651">
        <ele>27.0543</ele>
        <time>2013-04-17T17:59:41Z</time>
      </trkpt>
      <trkpt lat="59.9746174" lon="17.7366678">
        <ele>27.0543</ele>
        <time>2013-04-17T17:59:42Z</time>
      </trkpt>
      <trkpt lat="59.9745887" lon="17.736574">
        <ele>27.0543</ele>
        <time>2013-04-17T17:59:43Z</time>
      </trkpt>
      <trkpt lat="59.9745615" lon="17.7364809">
        <ele>27.0543</ele>
        <time>2013-04-17T17:59:44Z</time>
      </trkpt>
      <trkpt lat="59.9745366" lon="17.7363872">
        <ele>27.5349</ele>
        <time>2013-04-17T17:59:45Z</time>
      </trkpt>
      <trkpt lat="59.9745133" lon="17.736293">
        <ele>27.5349</ele>
        <time>2013-04-17T17:59:46Z</time>
      </trkpt>
      <trkpt lat="59.9744921" lon="17.7361992">
        <ele>27.5349</ele>
        <time>2013-04-17T17:59:47Z</time>
      </trkpt>
      <trkpt lat="59.9744719" lon="17.7361079">
        <ele>27.5349</ele>
        <time>2013-04-17T17:59:48Z</time>
      </trkpt>
      <trkpt lat="59.9744526" lon="17.7360183">
        <ele>27.5349</ele>
        <time>2013-04-17T17:59:49Z</time>
      </trkpt>
      <trkpt lat="59.9744342" lon="17.7359292">
        <ele>27.5349</ele>
        <time>2013-04-17T17:59:50Z</time>
      </trkpt>
      <trkpt lat="59.9744154" lon="17.7358401">
        <ele>27.5349</ele>
        <time>2013-04-17T17:59:51Z</time>
      </trkpt>
      <trkpt lat="59.9743968" lon="17.7357485">
        <ele>27.5349</ele>
        <time>2013-04-17T17:59:52Z</time>
      </trkpt>
      <trkpt lat="59.974382" lon="17.7356532">
        <ele>27.0543</ele>
        <time>2013-04-17T17:59:53Z</time>
      </trkpt>
      <trkpt lat="59.9743691" lon="17.7355553">
        <ele>27.0543</ele>
        <time>2013-04-17T17:59:54Z</time>
      </trkpt>
      <trkpt lat="59.9743563" lon="17.7354574">
        <ele>27.0543</ele>
        <time>2013-04-17T17:59:55Z</time>
      </trkpt>
      <trkpt lat="59.9743451" lon="17.7353588">
        <ele>27.0543</ele>
        <time>2013-04-17T17:59:56Z</time>
      </trkpt>
      <trkpt lat="59.9743342" lon="17.7352584">
        <ele>27.0543</ele>
        <time>2013-04-17T17:59:57Z</time>
      </trkpt>
      <trkpt lat="59.9743237" lon="17.735156">
        <ele>27.0543</ele>
        <time>2013-04-17T17:59:58Z</time>
      </trkpt>
      <trkpt lat="59.9743139" lon="17.7350529">
        <ele>27.0543</ele>
        <time>2013-04-17T17:59:59Z</time>
      </trkpt>
      <trkpt lat="59.9743066" lon="17.7349498">
        <ele>26.5736</ele>
        <time>2013-04-17T18:00:00Z</time>
      </trkpt>
      <trkpt lat="59.9743025" lon="17.734845">
        <ele>26.5736</ele>
        <time>2013-04-17T18:00:01Z</time>
      </trkpt>
      <trkpt lat="59.9742984" lon="17.734739">
        <ele>26.5736</ele>
        <time>2013-04-17T18:00:02Z</time>
      </trkpt>
      <trkpt lat="59.9742938" lon="17.7346325">
        <ele>26.5736</ele>
        <time>2013-04-17T18:00:03Z</time>
      </trkpt>
      <trkpt lat="59.9742898" lon="17.7345249">
        <ele>26.5736</ele>
        <time>2013-04-17T18:00:04Z</time>
      </trkpt>
      <trkpt lat="59.9742875" lon="17.7344167">
        <ele>26.5736</ele>
        <time>2013-04-17T18:00:05Z</time>
      </trkpt>
      <trkpt lat="59.9742894" lon="17.7343079">
        <ele>26.5736</ele>
        <time>2013-04-17T18:00:06Z</time>
      </trkpt>
      <trkpt lat="59.9742933" lon="17.7341971">
        <ele>26.5736</ele>
        <time>2013-04-17T18:00:07Z</time>
      </trkpt>
      <trkpt lat="59.9742974" lon="17.7340854">
        <ele>26.5736</ele>
        <time>2013-04-17T18:00:08Z</time>
      </trkpt>
      <trkpt lat="59.9743029" lon="17.7339735">
        <ele>26.5736</ele>
        <time>2013-04-17T18:00:09Z</time>
      </trkpt>
      <trkpt lat="59.9743095" lon="17.7338623">
        <ele>26.5736</ele>
        <time>2013-04-17T18:00:10Z</time>
      </trkpt>
      <trkpt lat="59.9743163" lon="17.7337526">
        <ele>26.5736</ele>
        <time>2013-04-17T18:00:11Z</time>
      </trkpt>
      <trkpt lat="59.9743223" lon="17.7336454">
        <ele>26.5736</ele>
        <time>2013-04-17T18:00:12Z</time>
      </trkpt>
      <trkpt lat="59.9743287" lon="17.7335427">
        <ele>26.5736</ele>
        <time>2013-04-17T18:00:13Z</time>
      </trkpt>
      <trkpt lat="59.9743344" lon="17.7334417">
        <ele>26.5736</ele>
        <time>2013-04-17T18:00:14Z</time>
      </trkpt>
      <trkpt lat="59.9743382" lon="17.7333418">
        <ele>26.5736</ele>
        <time>2013-04-17T18:00:15Z</time>
      </trkpt>
      <trkpt lat="59.9743414" lon="17.7332427">
        <ele>26.5736</ele>
        <time>2013-04-17T18:00:16Z</time>
      </trkpt>
      <trkpt lat="59.9743453" lon="17.7331439">
        <ele>26.5736</ele>
        <time>2013-04-17T18:00:17Z</time>
      </trkpt>
      <trkpt lat="59.9743496" lon="17.733044">
        <ele>26.5736</ele>
        <time>2013-04-17T18:00:18Z</time>
      </trkpt>
      <trkpt lat="59.9743521" lon="17.7329422">
        <ele>26.5736</ele>
        <time>2013-04-17T18:00:19Z</time>
      </trkpt>
      <trkpt lat="59.9743533" lon="17.7328388">
        <ele>26.5736</ele>
        <time>2013-04-17T18:00:20Z</time>
      </trkpt>
      <trkpt lat="59.9743548" lon="17.7327352">
        <ele>26.5736</ele>
        <time>2013-04-17T18:00:21Z</time>
      </trkpt>
      <trkpt lat="59.9743553" lon="17.7326322">
        <ele>26.5736</ele>
        <time>2013-04-17T18:00:22Z</time>
      </trkpt>
      <trkpt lat="59.9743542" lon="17.73253">
        <ele>26.5736</ele>
        <time>2013-04-17T18:00:23Z</time>
      </trkpt>
      <trkpt lat="59.9743527" lon="17.7324288">
        <ele>26.5736</ele>
        <time>2013-04-17T18:00:24Z</time>
      </trkpt>
      <trkpt lat="59.9743501" lon="17.732329">
        <ele>26.5736</ele>
        <time>2013-04-17T18:00:25Z</time>
      </trkpt>
      <trkpt lat="59.9743479" lon="17.7322304">
        <ele>26.5736</ele>
        <time>2013-04-17T18:00:26Z</time>
      </trkpt>
      <trkpt lat="59.974347" lon="17.7321316">
        <ele>26.5736</ele>
        <time>2013-04-17T18:00:27Z</time>
      </trkpt>
      <trkpt lat="59.9743453" lon="17.7320333">
        <ele>26.5736</ele>
        <time>2013-04-17T18:00:28Z</time>
      </trkpt>
      <trkpt lat="59.9743429" lon="17.7319333">
        <ele>26.5736</ele>
        <time>2013-04-17T18:00:29Z</time>
      </trkpt>
      <trkpt lat="59.9743413" lon="17.73183">
        <ele>26.5736</ele>
        <time>2013-04-17T18:00:30Z</time>
      </trkpt>
      <trkpt lat="59.9743398" lon="17.7317226">
        <ele>26.5736</ele>
        <time>2013-04-17T18:00:31Z</time>
      </trkpt>
      <trkpt lat="59.974339" lon="17.7316119">
        <ele>26.5736</ele>
        <time>2013-04-17T18:00:32Z</time>
      </trkpt>
      <trkpt lat="59.9743399" lon="17.7315003">
        <ele>26.5736</ele>
        <time>2013-04-17T18:00:33Z</time>
      </trkpt>
      <trkpt lat="59.9743424" lon="17.7313911">
        <ele>26.5736</ele>
        <time>2013-04-17T18:00:34Z</time>
      </trkpt>
      <trkpt lat="59.9743468" lon="17.7312833">
        <ele>27.0543</ele>
        <time>2013-04-17T18:00:35Z</time>
      </trkpt>
      <trkpt lat="59.9743523" lon="17.731177">
        <ele>26.5736</ele>
        <time>2013-04-17T18:00:36Z</time>
      </trkpt>
      <trkpt lat="59.9743559" lon="17.7310729">
        <ele>26.5736</ele>
        <time>2013-04-17T18:00:37Z</time>
      </trkpt>
      <trkpt lat="59.9743595" lon="17.7309722">
        <ele>26.5736</ele>
        <time>2013-04-17T18:00:38Z</time>
      </trkpt>
      <trkpt lat="59.9743656" lon="17.7308741">
        <ele>27.0543</ele>
        <time>2013-04-17T18:00:39Z</time>
      </trkpt>
      <trkpt lat="59.9743727" lon="17.7307771">
        <ele>26.5736</ele>
        <time>2013-04-17T18:00:40Z</time>
      </trkpt>
      <trkpt lat="59.974379" lon="17.73068">
        <ele>26.5736</ele>
        <time>2013-04-17T18:00:41Z</time>
      </trkpt>
      <trkpt lat="59.9743847" lon="17.7305834">
        <ele>27.0543</ele>
        <time>2013-04-17T18:00:42Z</time>
      </trkpt>
      <trkpt lat="59.9743915" lon="17.7304878">
        <ele>27.0543</ele>
        <time>2013-04-17T18:00:43Z</time>
      </trkpt>
      <trkpt lat="59.9743999" lon="17.7303937">
        <ele>27.0543</ele>
        <time>2013-04-17T18:00:44Z</time>
      </trkpt>
      <trkpt lat="59.9744081" lon="17.7302999">
        <ele>27.0543</ele>
        <time>2013-04-17T18:00:45Z</time>
      </trkpt>
      <trkpt lat="59.9744167" lon="17.7302062">
        <ele>27.0543</ele>
        <time>2013-04-17T18:00:46Z</time>
      </trkpt>
      <trkpt lat="59.9744246" lon="17.7301124">
        <ele>27.0543</ele>
        <time>2013-04-17T18:00:47Z</time>
      </trkpt>
      <trkpt lat="59.9744315" lon="17.7300188">
        <ele>27.0543</ele>
        <time>2013-04-17T18:00:48Z</time>
      </trkpt>
      <trkpt lat="59.9744392" lon="17.729926">
        <ele>27.0543</ele>
        <time>2013-04-17T18:00:49Z</time>
      </trkpt>
      <trkpt lat="59.9744469" lon="17.7298331">
        <ele>27.0543</ele>
        <time>2013-04-17T18:00:50Z</time>
      </trkpt>
      <trkpt lat="59.9744532" lon="17.7297389">
        <ele>27.0543</ele>
        <time>2013-04-17T18:00:51Z</time>
      </trkpt>
      <trkpt lat="59.9744587" lon="17.7296432">
        <ele>27.0543</ele>
        <time>2013-04-17T18:00:52Z</time>
      </trkpt>
      <trkpt lat="59.9744636" lon="17.7295463">
        <ele>27.0543</ele>
        <time>2013-04-17T18:00:53Z</time>
      </trkpt>
      <trkpt lat="59.9744672" lon="17.7294489">
        <ele>27.0543</ele>
        <time>2013-04-17T18:00:54Z</time>
      </trkpt>
      <trkpt lat="59.9744687" lon="17.7293513">
        <ele>27.0543</ele>
        <time>2013-04-17T18:00:55Z</time>
      </trkpt>
      <trkpt lat="59.974468" lon="17.7292536">
        <ele>27.0543</ele>
        <time>2013-04-17T18:00:56Z</time>
      </trkpt>
      <trkpt lat="59.9744672" lon="17.7291568">
        <ele>26.5736</ele>
        <time>2013-04-17T18:00:57Z</time>
      </trkpt>
      <trkpt lat="59.9744665" lon="17.7290604">
        <ele>26.5736</ele>
        <time>2013-04-17T18:00:58Z</time>
      </trkpt>
      <trkpt lat="59.9744641" lon="17.7289629">
        <ele>26.5736</ele>
        <time>2013-04-17T18:00:59Z</time>
      </trkpt>
      <trkpt lat="59.9744605" lon="17.7288631">
        <ele>26.5736</ele>
        <time>2013-04-17T18:01:00Z</time>
      </trkpt>
      <trkpt lat="59.9744569" lon="17.7287613">
        <ele>26.5736</ele>
        <time>2013-04-17T18:01:01Z</time>
      </trkpt>
      <trkpt lat="59.9744531" lon="17.7286577">
        <ele>26.5736</ele>
        <time>2013-04-17T18:01:02Z</time>
      </trkpt>
      <trkpt lat="59.9744495" lon="17.7285543">
        <ele>26.5736</ele>
        <time>2013-04-17T18:01:03Z</time>
      </trkpt>
      <trkpt lat="59.9744471" lon="17.7284515">
        <ele>26.5736</ele>
        <time>2013-04-17T18:01:04Z</time>
      </trkpt>
      <trkpt lat="59.9744444" lon="17.7283476">
        <ele>26.5736</ele>
        <time>2013-04-17T18:01:05Z</time>
      </trkpt>
      <trkpt lat="59.9744407" lon="17.7282443">
        <ele>26.5736</ele>
        <time>2013-04-17T18:01:06Z</time>
      </trkpt>
      <trkpt lat="59.9744386" lon="17.7281419">
        <ele>26.5736</ele>
        <time>2013-04-17T18:01:07Z</time>
      </trkpt>
      <trkpt lat="59.9744371" lon="17.7280399">
        <ele>26.5736</ele>
        <time>2013-04-17T18:01:08Z</time>
      </trkpt>
      <trkpt lat="59.9744351" lon="17.7279384">
        <ele>26.5736</ele>
        <time>2013-04-17T18:01:09Z</time>
      </trkpt>
      <trkpt lat="59.9744324" lon="17.7278377">
        <ele>27.0543</ele>
        <time>2013-04-17T18:01:10Z</time>
      </trkpt>
      <trkpt lat="59.9744292" lon="17.7277377">
        <ele>27.0543</ele>
        <time>2013-04-17T18:01:11Z</time>
      </trkpt>
      <trkpt lat="59.9744267" lon="17.727638">
        <ele>27.0543</ele>
        <time>2013-04-17T18:01:12Z</time>
      </trkpt>
      <trkpt lat="59.974425" lon="17.727538">
        <ele>27.5349</ele>
        <time>2013-04-17T18:01:13Z</time>
      </trkpt>
      <trkpt lat="59.9744237" lon="17.7274381">
        <ele>27.5349</ele>
        <time>2013-04-17T18:01:14Z</time>
      </trkpt>
      <trkpt lat="59.9744219" lon="17.7273406">
        <ele>27.5349</ele>
        <time>2013-04-17T18:01:15Z</time>
      </trkpt>
      <trkpt lat="59.974419" lon="17.7272457">
        <ele>28.0155</ele>
        <time>2013-04-17T18:01:16Z</time>
      </trkpt>
      <trkpt lat="59.9744155" lon="17.7271527">
        <ele>28.0155</ele>
        <time>2013-04-17T18:01:17Z</time>
      </trkpt>
      <trkpt lat="59.9744134" lon="17.7270619">
        <ele>28.0155</ele>
        <time>2013-04-17T18:01:18Z</time>
      </trkpt>
      <trkpt lat="59.9744133" lon="17.7269729">
        <ele>28.4962</ele>
        <time>2013-04-17T18:01:19Z</time>
      </trkpt>
      <trkpt lat="59.9744127" lon="17.7268868">
        <ele>28.4962</ele>
        <time>2013-04-17T18:01:20Z</time>
      </trkpt>
      <trkpt lat="59.9744112" lon="17.7268024">
        <ele>28.4962</ele>
        <time>2013-04-17T18:01:21Z</time>
      </trkpt>
      <trkpt lat="59.9744097" lon="17.7267193">
        <ele>28.4962</ele>
        <time>2013-04-17T18:01:22Z</time>
      </trkpt>
      <trkpt lat="59.9744081" lon="17.7266383">
        <ele>28.4962</ele>
        <time>2013-04-17T18:01:23Z</time>
      </trkpt>
      <trkpt lat="59.9744057" lon="17.7265585">
        <ele>28.9769</ele>
        <time>2013-04-17T18:01:24Z</time>
      </trkpt>
      <trkpt lat="59.9744025" lon="17.7264797">
        <ele>28.9769</ele>
        <time>2013-04-17T18:01:25Z</time>
      </trkpt>
      <trkpt lat="59.9743984" lon="17.7264018">
        <ele>28.9769</ele>
        <time>2013-04-17T18:01:26Z</time>
      </trkpt>
      <trkpt lat="59.9743941" lon="17.7263243">
        <ele>28.9769</ele>
        <time>2013-04-17T18:01:27Z</time>
      </trkpt>
      <trkpt lat="59.9743895" lon="17.7262466">
        <ele>28.9769</ele>
        <time>2013-04-17T18:01:28Z</time>
      </trkpt>
      <trkpt lat="59.9743854" lon="17.7261685">
        <ele>28.9769</ele>
        <time>2013-04-17T18:01:29Z</time>
      </trkpt>
      <trkpt lat="59.974382" lon="17.726089">
        <ele>28.9769</ele>
        <time>2013-04-17T18:01:30Z</time>
      </trkpt>
      <trkpt lat="59.974379" lon="17.7260078">
        <ele>28.9769</ele>
        <time>2013-04-17T18:01:31Z</time>
      </trkpt>
      <trkpt lat="59.9743746" lon="17.7259259">
        <ele>28.9769</ele>
        <time>2013-04-17T18:01:32Z</time>
      </trkpt>
      <trkpt lat="59.9743693" lon="17.7258436">
        <ele>28.9769</ele>
        <time>2013-04-17T18:01:33Z</time>
      </trkpt>
      <trkpt lat="59.9743632" lon="17.7257615">
        <ele>28.9769</ele>
        <time>2013-04-17T18:01:34Z</time>
      </trkpt>
      <trkpt lat="59.9743563" lon="17.7256794">
        <ele>28.9769</ele>
        <time>2013-04-17T18:01:35Z</time>
      </trkpt>
      <trkpt lat="59.9743494" lon="17.7255969">
        <ele>28.9769</ele>
        <time>2013-04-17T18:01:36Z</time>
      </trkpt>
      <trkpt lat="59.9743413" lon="17.7255145">
        <ele>28.9769</ele>
        <time>2013-04-17T18:01:37Z</time>
      </trkpt>
      <trkpt lat="59.9743336" lon="17.7254338">
        <ele>28.9769</ele>
        <time>2013-04-17T18:01:38Z</time>
      </trkpt>
      <trkpt lat="59.9743272" lon="17.7253592">
        <ele>28.9769</ele>
        <time>2013-04-17T18:01:39Z</time>
      </trkpt>
      <trkpt lat="59.9743235" lon="17.7253027">
        <ele>28.9769</ele>
        <time>2013-04-17T18:01:40Z</time>
      </trkpt>
      <trkpt lat="59.9743223" lon="17.7252732">
        <ele>28.9769</ele>
        <time>2013-04-17T18:01:41Z</time>
      </trkpt>
      <trkpt lat="59.9743197" lon="17.7252437">
        <ele>28.4962</ele>
        <time>2013-04-17T18:01:51Z</time>
      </trkpt>
      <trkpt lat="59.9743143" lon="17.7252157">
        <ele>28.0155</ele>
        <time>2013-04-17T18:01:52Z</time>
      </trkpt>
      <trkpt lat="59.9743061" lon="17.72518">
        <ele>28.0155</ele>
        <time>2013-04-17T18:01:53Z</time>
      </trkpt>
      <trkpt lat="59.9742987" lon="17.7251349">
        <ele>28.0155</ele>
        <time>2013-04-17T18:01:54Z</time>
      </trkpt>
      <trkpt lat="59.9742926" lon="17.7250791">
        <ele>28.0155</ele>
        <time>2013-04-17T18:01:55Z</time>
      </trkpt>
      <trkpt lat="59.9742853" lon="17.7250175">
        <ele>28.0155</ele>
        <time>2013-04-17T18:01:56Z</time>
      </trkpt>
      <trkpt lat="59.9742761" lon="17.7249526">
        <ele>28.0155</ele>
        <time>2013-04-17T18:01:57Z</time>
      </trkpt>
      <trkpt lat="59.9742661" lon="17.7248835">
        <ele>28.0155</ele>
        <time>2013-04-17T18:01:58Z</time>
      </trkpt>
      <trkpt lat="59.9742557" lon="17.7248101">
        <ele>27.5349</ele>
        <time>2013-04-17T18:01:59Z</time>
      </trkpt>
      <trkpt lat="59.9742455" lon="17.7247323">
        <ele>27.5349</ele>
        <time>2013-04-17T18:02:00Z</time>
      </trkpt>
      <trkpt lat="59.9742346" lon="17.7246505">
        <ele>27.5349</ele>
        <time>2013-04-17T18:02:01Z</time>
      </trkpt>
      <trkpt lat="59.9742223" lon="17.7245668">
        <ele>27.5349</ele>
        <time>2013-04-17T18:02:02Z</time>
      </trkpt>
      <trkpt lat="59.9742096" lon="17.7244812">
        <ele>27.5349</ele>
        <time>2013-04-17T18:02:03Z</time>
      </trkpt>
      <trkpt lat="59.9741971" lon="17.7243922">
        <ele>27.5349</ele>
        <time>2013-04-17T18:02:04Z</time>
      </trkpt>
      <trkpt lat="59.974185" lon="17.7243011">
        <ele>27.5349</ele>
        <time>2013-04-17T18:02:05Z</time>
      </trkpt>
      <trkpt lat="59.9741726" lon="17.7242112">
        <ele>27.5349</ele>
        <time>2013-04-17T18:02:06Z</time>
      </trkpt>
      <trkpt lat="59.9741596" lon="17.7241206">
        <ele>27.0543</ele>
        <time>2013-04-17T18:02:07Z</time>
      </trkpt>
      <trkpt lat="59.9741464" lon="17.7240283">
        <ele>27.0543</ele>
        <time>2013-04-17T18:02:08Z</time>
      </trkpt>
      <trkpt lat="59.974133" lon="17.7239363">
        <ele>27.0543</ele>
        <time>2013-04-17T18:02:09Z</time>
      </trkpt>
      <trkpt lat="59.97412" lon="17.7238441">
        <ele>27.0543</ele>
        <time>2013-04-17T18:02:10Z</time>
      </trkpt>
      <trkpt lat="59.9741077" lon="17.7237514">
        <ele>27.0543</ele>
        <time>2013-04-17T18:02:11Z</time>
      </trkpt>
      <trkpt lat="59.9740959" lon="17.723659">
        <ele>27.0543</ele>
        <time>2013-04-17T18:02:12Z</time>
      </trkpt>
      <trkpt lat="59.9740829" lon="17.723568">
        <ele>27.0543</ele>
        <time>2013-04-17T18:02:13Z</time>
      </trkpt>
      <trkpt lat="59.9740684" lon="17.7234797">
        <ele>27.5349</ele>
        <time>2013-04-17T18:02:14Z</time>
      </trkpt>
      <trkpt lat="59.974055" lon="17.7233922">
        <ele>27.5349</ele>
        <time>2013-04-17T18:02:15Z</time>
      </trkpt>
      <trkpt lat="59.9740428" lon="17.7233042">
        <ele>27.5349</ele>
        <time>2013-04-17T18:02:16Z</time>
      </trkpt>
      <trkpt lat="59.9740295" lon="17.7232171">
        <ele>27.5349</ele>
        <time>2013-04-17T18:02:17Z</time>
      </trkpt>
      <trkpt lat="59.9740133" lon="17.7231317">
        <ele>27.5349</ele>
        <time>2013-04-17T18:02:18Z</time>
      </trkpt>
      <trkpt lat="59.9739952" lon="17.7230457">
        <ele>27.5349</ele>
        <time>2013-04-17T18:02:19Z</time>
      </trkpt>
      <trkpt lat="59.9739762" lon="17.7229579">
        <ele>27.5349</ele>
        <time>2013-04-17T18:02:20Z</time>
      </trkpt>
      <trkpt lat="59.9739564" lon="17.7228701">
        <ele>27.5349</ele>
        <time>2013-04-17T18:02:21Z</time>
      </trkpt>
      <trkpt lat="59.9739356" lon="17.7227832">
        <ele>27.5349</ele>
        <time>2013-04-17T18:02:22Z</time>
      </trkpt>
      <trkpt lat="59.9739138" lon="17.7226955">
        <ele>27.5349</ele>
        <time>2013-04-17T18:02:23Z</time>
      </trkpt>
      <trkpt lat="59.9738904" lon="17.72261">
        <ele>27.5349</ele>
        <time>2013-04-17T18:02:24Z</time>
      </trkpt>
      <trkpt lat="59.9738664" lon="17.7225273">
        <ele>27.5349</ele>
        <time>2013-04-17T18:02:25Z</time>
      </trkpt>
      <trkpt lat="59.9738436" lon="17.7224457">
        <ele>27.5349</ele>
        <time>2013-04-17T18:02:26Z</time>
      </trkpt>
      <trkpt lat="59.9738213" lon="17.7223682">
        <ele>27.5349</ele>
        <time>2013-04-17T18:02:27Z</time>
      </trkpt>
      <trkpt lat="59.9737994" lon="17.7222945">
        <ele>27.5349</ele>
        <time>2013-04-17T18:02:28Z</time>
      </trkpt>
      <trkpt lat="59.9737767" lon="17.7222216">
        <ele>27.5349</ele>
        <time>2013-04-17T18:02:29Z</time>
      </trkpt>
      <trkpt lat="59.9737523" lon="17.7221466">
        <ele>27.5349</ele>
        <time>2013-04-17T18:02:30Z</time>
      </trkpt>
      <trkpt lat="59.9737268" lon="17.7220684">
        <ele>27.5349</ele>
        <time>2013-04-17T18:02:31Z</time>
      </trkpt>
      <trkpt lat="59.9737001" lon="17.7219889">
        <ele>27.5349</ele>
        <time>2013-04-17T18:02:32Z</time>
      </trkpt>
      <trkpt lat="59.9736715" lon="17.7219114">
        <ele>28.0155</ele>
        <time>2013-04-17T18:02:33Z</time>
      </trkpt>
      <trkpt lat="59.973641" lon="17.7218361">
        <ele>28.0155</ele>
        <time>2013-04-17T18:02:34Z</time>
      </trkpt>
      <trkpt lat="59.9736099" lon="17.7217607">
        <ele>28.0155</ele>
        <time>2013-04-17T18:02:35Z</time>
      </trkpt>
      <trkpt lat="59.9735788" lon="17.7216853">
        <ele>28.0155</ele>
        <time>2013-04-17T18:02:36Z</time>
      </trkpt>
      <trkpt lat="59.9735476" lon="17.7216114">
        <ele>28.0155</ele>
        <time>2013-04-17T18:02:37Z</time>
      </trkpt>
      <trkpt lat="59.9735149" lon="17.7215398">
        <ele>28.0155</ele>
        <time>2013-04-17T18:02:38Z</time>
      </trkpt>
      <trkpt lat="59.9734814" lon="17.7214674">
        <ele>28.0155</ele>
        <time>2013-04-17T18:02:39Z</time>
      </trkpt>
      <trkpt lat="59.9734476" lon="17.7213934">
        <ele>28.0155</ele>
        <time>2013-04-17T18:02:40Z</time>
      </trkpt>
      <trkpt lat="59.9734134" lon="17.7213208">
        <ele>28.0155</ele>
        <time>2013-04-17T18:02:41Z</time>
      </trkpt>
      <trkpt lat="59.9733778" lon="17.7212505">
        <ele>28.4962</ele>
        <time>2013-04-17T18:02:42Z</time>
      </trkpt>
      <trkpt lat="59.973341" lon="17.7211818">
        <ele>28.4962</ele>
        <time>2013-04-17T18:02:43Z</time>
      </trkpt>
      <trkpt lat="59.9733035" lon="17.721115">
        <ele>28.4962</ele>
        <time>2013-04-17T18:02:44Z</time>
      </trkpt>
      <trkpt lat="59.9732664" lon="17.7210489">
        <ele>28.4962</ele>
        <time>2013-04-17T18:02:45Z</time>
      </trkpt>
      <trkpt lat="59.9732293" lon="17.7209842">
        <ele>28.4962</ele>
        <time>2013-04-17T18:02:46Z</time>
      </trkpt>
      <trkpt lat="59.9731919" lon="17.7209221">
        <ele>28.4962</ele>
        <time>2013-04-17T18:02:47Z</time>
      </trkpt>
      <trkpt lat="59.973154" lon="17.720863">
        <ele>28.4962</ele>
        <time>2013-04-17T18:02:48Z</time>
      </trkpt>
      <trkpt lat="59.9731147" lon="17.7208076">
        <ele>28.4962</ele>
        <time>2013-04-17T18:02:49Z</time>
      </trkpt>
      <trkpt lat="59.9730748" lon="17.7207519">
        <ele>28.4962</ele>
        <time>2013-04-17T18:02:50Z</time>
      </trkpt>
      <trkpt lat="59.9730343" lon="17.7206964">
        <ele>28.4962</ele>
        <time>2013-04-17T18:02:51Z</time>
      </trkpt>
      <trkpt lat="59.9729929" lon="17.7206413">
        <ele>28.9769</ele>
        <time>2013-04-17T18:02:52Z</time>
      </trkpt>
      <trkpt lat="59.972951" lon="17.7205857">
        <ele>28.9769</ele>
        <time>2013-04-17T18:02:53Z</time>
      </trkpt>
      <trkpt lat="59.9729078" lon="17.7205317">
        <ele>28.9769</ele>
        <time>2013-04-17T18:02:54Z</time>
      </trkpt>
      <trkpt lat="59.9728639" lon="17.7204801">
        <ele>28.9769</ele>
        <time>2013-04-17T18:02:55Z</time>
      </trkpt>
      <trkpt lat="59.9728189" lon="17.7204303">
        <ele>28.9769</ele>
        <time>2013-04-17T18:02:56Z</time>
      </trkpt>
      <trkpt lat="59.9727728" lon="17.7203811">
        <ele>28.9769</ele>
        <time>2013-04-17T18:02:57Z</time>
      </trkpt>
      <trkpt lat="59.9727251" lon="17.7203325">
        <ele>28.9769</ele>
        <time>2013-04-17T18:02:58Z</time>
      </trkpt>
      <trkpt lat="59.9726768" lon="17.720283">
        <ele>28.9769</ele>
        <time>2013-04-17T18:02:59Z</time>
      </trkpt>
      <trkpt lat="59.9726288" lon="17.720235">
        <ele>28.9769</ele>
        <time>2013-04-17T18:03:00Z</time>
      </trkpt>
      <trkpt lat="59.9725805" lon="17.7201916">
        <ele>28.9769</ele>
        <time>2013-04-17T18:03:01Z</time>
      </trkpt>
      <trkpt lat="59.9725317" lon="17.7201489">
        <ele>28.9769</ele>
        <time>2013-04-17T18:03:02Z</time>
      </trkpt>
      <trkpt lat="59.972483" lon="17.720105">
        <ele>28.9769</ele>
        <time>2013-04-17T18:03:03Z</time>
      </trkpt>
      <trkpt lat="59.9724338" lon="17.7200615">
        <ele>28.9769</ele>
        <time>2013-04-17T18:03:04Z</time>
      </trkpt>
      <trkpt lat="59.9723838" lon="17.7200178">
        <ele>28.9769</ele>
        <time>2013-04-17T18:03:05Z</time>
      </trkpt>
      <trkpt lat="59.972334" lon="17.7199712">
        <ele>28.9769</ele>
        <time>2013-04-17T18:03:06Z</time>
      </trkpt>
      <trkpt lat="59.9722842" lon="17.7199248">
        <ele>28.9769</ele>
        <time>2013-04-17T18:03:07Z</time>
      </trkpt>
      <trkpt lat="59.9722344" lon="17.71988">
        <ele>28.9769</ele>
        <time>2013-04-17T18:03:08Z</time>
      </trkpt>
      <trkpt lat="59.9721843" lon="17.719834">
        <ele>28.9769</ele>
        <time>2013-04-17T18:03:09Z</time>
      </trkpt>
      <trkpt lat="59.9721339" lon="17.7197874">
        <ele>28.9769</ele>
        <time>2013-04-17T18:03:10Z</time>
      </trkpt>
      <trkpt lat="59.9720821" lon="17.719742">
        <ele>28.9769</ele>
        <time>2013-04-17T18:03:11Z</time>
      </trkpt>
      <trkpt lat="59.9720289" lon="17.7196962">
        <ele>28.9769</ele>
        <time>2013-04-17T18:03:12Z</time>
      </trkpt>
      <trkpt lat="59.9719749" lon="17.719647">
        <ele>28.9769</ele>
        <time>2013-04-17T18:03:13Z</time>
      </trkpt>
      <trkpt lat="59.9719202" lon="17.7195963">
        <ele>28.9769</ele>
        <time>2013-04-17T18:03:14Z</time>
      </trkpt>
      <trkpt lat="59.9718648" lon="17.7195461">
        <ele>28.9769</ele>
        <time>2013-04-17T18:03:15Z</time>
      </trkpt>
      <trkpt lat="59.9718092" lon="17.7194963">
        <ele>28.9769</ele>
        <time>2013-04-17T18:03:16Z</time>
      </trkpt>
      <trkpt lat="59.9717528" lon="17.7194476">
        <ele>28.9769</ele>
        <time>2013-04-17T18:03:17Z</time>
      </trkpt>
      <trkpt lat="59.9716958" lon="17.7193979">
        <ele>29.4575</ele>
        <time>2013-04-17T18:03:18Z</time>
      </trkpt>
      <trkpt lat="59.9716394" lon="17.7193461">
        <ele>29.4575</ele>
        <time>2013-04-17T18:03:19Z</time>
      </trkpt>
      <trkpt lat="59.971584" lon="17.719296">
        <ele>29.4575</ele>
        <time>2013-04-17T18:03:20Z</time>
      </trkpt>
      <trkpt lat="59.9715286" lon="17.7192481">
        <ele>29.4575</ele>
        <time>2013-04-17T18:03:21Z</time>
      </trkpt>
      <trkpt lat="59.9714736" lon="17.7192011">
        <ele>29.4575</ele>
        <time>2013-04-17T18:03:22Z</time>
      </trkpt>
      <trkpt lat="59.9714193" lon="17.7191528">
        <ele>29.4575</ele>
        <time>2013-04-17T18:03:23Z</time>
      </trkpt>
      <trkpt lat="59.9713657" lon="17.7191018">
        <ele>29.4575</ele>
        <time>2013-04-17T18:03:24Z</time>
      </trkpt>
      <trkpt lat="59.9713118" lon="17.7190505">
        <ele>29.9381</ele>
        <time>2013-04-17T18:03:25Z</time>
      </trkpt>
      <trkpt lat="59.971258" lon="17.7190001">
        <ele>29.9381</ele>
        <time>2013-04-17T18:03:26Z</time>
      </trkpt>
      <trkpt lat="59.9712035" lon="17.718951">
        <ele>29.9381</ele>
        <time>2013-04-17T18:03:27Z</time>
      </trkpt>
      <trkpt lat="59.9711479" lon="17.7189033">
        <ele>29.9381</ele>
        <time>2013-04-17T18:03:28Z</time>
      </trkpt>
      <trkpt lat="59.9710932" lon="17.7188547">
        <ele>29.9381</ele>
        <time>2013-04-17T18:03:29Z</time>
      </trkpt>
      <trkpt lat="59.9710395" lon="17.7188054">
        <ele>29.9381</ele>
        <time>2013-04-17T18:03:30Z</time>
      </trkpt>
      <trkpt lat="59.9709862" lon="17.7187563">
        <ele>29.9381</ele>
        <time>2013-04-17T18:03:31Z</time>
      </trkpt>
      <trkpt lat="59.9709337" lon="17.7187075">
        <ele>29.9381</ele>
        <time>2013-04-17T18:03:32Z</time>
      </trkpt>
      <trkpt lat="59.9708814" lon="17.7186596">
        <ele>29.9381</ele>
        <time>2013-04-17T18:03:33Z</time>
      </trkpt>
      <trkpt lat="59.9708286" lon="17.7186141">
        <ele>29.9381</ele>
        <time>2013-04-17T18:03:34Z</time>
      </trkpt>
      <trkpt lat="59.9707759" lon="17.7185705">
        <ele>29.9381</ele>
        <time>2013-04-17T18:03:35Z</time>
      </trkpt>
      <trkpt lat="59.9707257" lon="17.718524">
        <ele>29.9381</ele>
        <time>2013-04-17T18:03:36Z</time>
      </trkpt>
      <trkpt lat="59.9706764" lon="17.7184786">
        <ele>29.9381</ele>
        <time>2013-04-17T18:03:37Z</time>
      </trkpt>
      <trkpt lat="59.9706267" lon="17.7184355">
        <ele>29.9381</ele>
        <time>2013-04-17T18:03:38Z</time>
      </trkpt>
      <trkpt lat="59.9705774" lon="17.718391">
        <ele>29.9381</ele>
        <time>2013-04-17T18:03:39Z</time>
      </trkpt>
      <trkpt lat="59.9705278" lon="17.7183464">
        <ele>29.9381</ele>
        <time>2013-04-17T18:03:40Z</time>
      </trkpt>
      <trkpt lat="59.970478" lon="17.7183014">
        <ele>29.9381</ele>
        <time>2013-04-17T18:03:41Z</time>
      </trkpt>
      <trkpt lat="59.9704276" lon="17.7182567">
        <ele>29.9381</ele>
        <time>2013-04-17T18:03:42Z</time>
      </trkpt>
      <trkpt lat="59.9703773" lon="17.7182102">
        <ele>29.9381</ele>
        <time>2013-04-17T18:03:43Z</time>
      </trkpt>
      <trkpt lat="59.9703268" lon="17.7181619">
        <ele>29.9381</ele>
        <time>2013-04-17T18:03:44Z</time>
      </trkpt>
      <trkpt lat="59.9702755" lon="17.718115">
        <ele>29.9381</ele>
        <time>2013-04-17T18:03:45Z</time>
      </trkpt>
      <trkpt lat="59.9702229" lon="17.7180693">
        <ele>29.9381</ele>
        <time>2013-04-17T18:03:46Z</time>
      </trkpt>
      <trkpt lat="59.9701691" lon="17.7180225">
        <ele>29.9381</ele>
        <time>2013-04-17T18:03:47Z</time>
      </trkpt>
      <trkpt lat="59.970115" lon="17.7179746">
        <ele>29.9381</ele>
        <time>2013-04-17T18:03:48Z</time>
      </trkpt>
      <trkpt lat="59.9700615" lon="17.7179258">
        <ele>29.9381</ele>
        <time>2013-04-17T18:03:49Z</time>
      </trkpt>
      <trkpt lat="59.9700087" lon="17.7178767">
        <ele>29.9381</ele>
        <time>2013-04-17T18:03:50Z</time>
      </trkpt>
      <trkpt lat="59.9699565" lon="17.7178295">
        <ele>30.4188</ele>
        <time>2013-04-17T18:03:51Z</time>
      </trkpt>
      <trkpt lat="59.9699045" lon="17.7177843">
        <ele>30.4188</ele>
        <time>2013-04-17T18:03:52Z</time>
      </trkpt>
      <trkpt lat="59.969852" lon="17.7177402">
        <ele>30.4188</ele>
        <time>2013-04-17T18:03:53Z</time>
      </trkpt>
      <trkpt lat="59.9697999" lon="17.7176979">
        <ele>30.4188</ele>
        <time>2013-04-17T18:03:54Z</time>
      </trkpt>
      <trkpt lat="59.969748" lon="17.7176578">
        <ele>30.4188</ele>
        <time>2013-04-17T18:03:55Z</time>
      </trkpt>
      <trkpt lat="59.9696968" lon="17.7176176">
        <ele>30.4188</ele>
        <time>2013-04-17T18:03:56Z</time>
      </trkpt>
      <trkpt lat="59.9696461" lon="17.717579">
        <ele>30.4188</ele>
        <time>2013-04-17T18:03:57Z</time>
      </trkpt>
      <trkpt lat="59.9695962" lon="17.7175435">
        <ele>30.4188</ele>
        <time>2013-04-17T18:03:58Z</time>
      </trkpt>
      <trkpt lat="59.9695459" lon="17.7175117">
        <ele>30.8995</ele>
        <time>2013-04-17T18:03:59Z</time>
      </trkpt>
      <trkpt lat="59.9694948" lon="17.7174829">
        <ele>30.8995</ele>
        <time>2013-04-17T18:04:00Z</time>
      </trkpt>
      <trkpt lat="59.9694431" lon="17.7174556">
        <ele>30.8995</ele>
        <time>2013-04-17T18:04:01Z</time>
      </trkpt>
      <trkpt lat="59.9693916" lon="17.7174281">
        <ele>30.8995</ele>
        <time>2013-04-17T18:04:02Z</time>
      </trkpt>
      <trkpt lat="59.9693405" lon="17.7174005">
        <ele>31.3801</ele>
        <time>2013-04-17T18:04:03Z</time>
      </trkpt>
      <trkpt lat="59.9692897" lon="17.7173746">
        <ele>31.3801</ele>
        <time>2013-04-17T18:04:04Z</time>
      </trkpt>
      <trkpt lat="59.9692396" lon="17.7173514">
        <ele>31.3801</ele>
        <time>2013-04-17T18:04:05Z</time>
      </trkpt>
      <trkpt lat="59.9691892" lon="17.7173302">
        <ele>31.3801</ele>
        <time>2013-04-17T18:04:06Z</time>
      </trkpt>
      <trkpt lat="59.9691379" lon="17.7173108">
        <ele>31.8607</ele>
        <time>2013-04-17T18:04:07Z</time>
      </trkpt>
      <trkpt lat="59.9690851" lon="17.7172918">
        <ele>31.8607</ele>
        <time>2013-04-17T18:04:08Z</time>
      </trkpt>
      <trkpt lat="59.9690311" lon="17.7172717">
        <ele>31.8607</ele>
        <time>2013-04-17T18:04:09Z</time>
      </trkpt>
      <trkpt lat="59.9689766" lon="17.7172513">
        <ele>31.8607</ele>
        <time>2013-04-17T18:04:10Z</time>
      </trkpt>
      <trkpt lat="59.9689214" lon="17.7172297">
        <ele>31.8607</ele>
        <time>2013-04-17T18:04:11Z</time>
      </trkpt>
      <trkpt lat="59.968865" lon="17.7172084">
        <ele>31.8607</ele>
        <time>2013-04-17T18:04:12Z</time>
      </trkpt>
      <trkpt lat="59.968809" lon="17.7171861">
        <ele>31.8607</ele>
        <time>2013-04-17T18:04:13Z</time>
      </trkpt>
      <trkpt lat="59.9687528" lon="17.7171633">
        <ele>31.3801</ele>
        <time>2013-04-17T18:04:14Z</time>
      </trkpt>
      <trkpt lat="59.9686951" lon="17.7171398">
        <ele>31.3801</ele>
        <time>2013-04-17T18:04:15Z</time>
      </trkpt>
      <trkpt lat="59.968636" lon="17.7171151">
        <ele>31.3801</ele>
        <time>2013-04-17T18:04:16Z</time>
      </trkpt>
      <trkpt lat="59.968576" lon="17.7170871">
        <ele>31.3801</ele>
        <time>2013-04-17T18:04:17Z</time>
      </trkpt>
      <trkpt lat="59.9685157" lon="17.7170566">
        <ele>30.8995</ele>
        <time>2013-04-17T18:04:18Z</time>
      </trkpt>
      <trkpt lat="59.9684541" lon="17.7170245">
        <ele>30.8995</ele>
        <time>2013-04-17T18:04:19Z</time>
      </trkpt>
      <trkpt lat="59.9683915" lon="17.7169866">
        <ele>30.8995</ele>
        <time>2013-04-17T18:04:20Z</time>
      </trkpt>
      <trkpt lat="59.9683279" lon="17.7169404">
        <ele>30.4188</ele>
        <time>2013-04-17T18:04:21Z</time>
      </trkpt>
      <trkpt lat="59.9682641" lon="17.7168856">
        <ele>30.4188</ele>
        <time>2013-04-17T18:04:22Z</time>
      </trkpt>
      <trkpt lat="59.9682001" lon="17.71682">
        <ele>29.9381</ele>
        <time>2013-04-17T18:04:23Z</time>
      </trkpt>
      <trkpt lat="59.9681357" lon="17.7167442">
        <ele>29.4575</ele>
        <time>2013-04-17T18:04:24Z</time>
      </trkpt>
      <trkpt lat="59.9680722" lon="17.7166604">
        <ele>28.9769</ele>
        <time>2013-04-17T18:04:25Z</time>
      </trkpt>
      <trkpt lat="59.9680101" lon="17.7165695">
        <ele>28.4962</ele>
        <time>2013-04-17T18:04:26Z</time>
      </trkpt>
      <trkpt lat="59.9679487" lon="17.7164729">
        <ele>28.0155</ele>
        <time>2013-04-17T18:04:27Z</time>
      </trkpt>
      <trkpt lat="59.9678891" lon="17.7163687">
        <ele>27.5349</ele>
        <time>2013-04-17T18:04:28Z</time>
      </trkpt>
      <trkpt lat="59.9678321" lon="17.7162551">
        <ele>27.0543</ele>
        <time>2013-04-17T18:04:29Z</time>
      </trkpt>
      <trkpt lat="59.9677781" lon="17.7161322">
        <ele>26.5736</ele>
        <time>2013-04-17T18:04:30Z</time>
      </trkpt>
      <trkpt lat="59.9677288" lon="17.7159992">
        <ele>26.0929</ele>
        <time>2013-04-17T18:04:31Z</time>
      </trkpt>
      <trkpt lat="59.9676833" lon="17.7158588">
        <ele>25.6123</ele>
        <time>2013-04-17T18:04:32Z</time>
      </trkpt>
      <trkpt lat="59.9676409" lon="17.7157149">
        <ele>25.1317</ele>
        <time>2013-04-17T18:04:33Z</time>
      </trkpt>
      <trkpt lat="59.9676011" lon="17.7155657">
        <ele>25.1317</ele>
        <time>2013-04-17T18:04:34Z</time>
      </trkpt>
      <trkpt lat="59.9675632" lon="17.7154166">
        <ele>25.1317</ele>
        <time>2013-04-17T18:04:35Z</time>
      </trkpt>
      <trkpt lat="59.9675312" lon="17.7152653">
        <ele>24.651</ele>
        <time>2013-04-17T18:04:36Z</time>
      </trkpt>
      <trkpt lat="59.9675057" lon="17.7151112">
        <ele>24.1703</ele>
        <time>2013-04-17T18:04:37Z</time>
      </trkpt>
      <trkpt lat="59.967483" lon="17.7149576">
        <ele>23.6896</ele>
        <time>2013-04-17T18:04:38Z</time>
      </trkpt>
      <trkpt lat="59.9674606" lon="17.7148064">
        <ele>24.1703</ele>
        <time>2013-04-17T18:04:39Z</time>
      </trkpt>
      <trkpt lat="59.9674388" lon="17.7146603">
        <ele>24.1703</ele>
        <time>2013-04-17T18:04:40Z</time>
      </trkpt>
      <trkpt lat="59.9674195" lon="17.7145195">
        <ele>24.651</ele>
        <time>2013-04-17T18:04:41Z</time>
      </trkpt>
      <trkpt lat="59.9674024" lon="17.7143888">
        <ele>25.1317</ele>
        <time>2013-04-17T18:04:42Z</time>
      </trkpt>
      <trkpt lat="59.967386" lon="17.714268">
        <ele>25.1317</ele>
        <time>2013-04-17T18:04:43Z</time>
      </trkpt>
      <trkpt lat="59.9673701" lon="17.7141516">
        <ele>25.6123</ele>
        <time>2013-04-17T18:04:44Z</time>
      </trkpt>
      <trkpt lat="59.9673548" lon="17.7140392">
        <ele>26.0929</ele>
        <time>2013-04-17T18:04:45Z</time>
      </trkpt>
      <trkpt lat="59.9673395" lon="17.7139308">
        <ele>26.0929</ele>
        <time>2013-04-17T18:04:46Z</time>
      </trkpt>
      <trkpt lat="59.9673245" lon="17.7138263">
        <ele>26.5736</ele>
        <time>2013-04-17T18:04:47Z</time>
      </trkpt>
      <trkpt lat="59.9673094" lon="17.7137268">
        <ele>26.5736</ele>
        <time>2013-04-17T18:04:48Z</time>
      </trkpt>
      <trkpt lat="59.9672943" lon="17.7136302">
        <ele>27.0543</ele>
        <time>2013-04-17T18:04:49Z</time>
      </trkpt>
      <trkpt lat="59.9672797" lon="17.7135356">
        <ele>27.0543</ele>
        <time>2013-04-17T18:04:50Z</time>
      </trkpt>
      <trkpt lat="59.9672648" lon="17.7134433">
        <ele>27.5349</ele>
        <time>2013-04-17T18:04:51Z</time>
      </trkpt>
      <trkpt lat="59.9672503" lon="17.7133565">
        <ele>27.5349</ele>
        <time>2013-04-17T18:04:52Z</time>
      </trkpt>
      <trkpt lat="59.9672345" lon="17.7132746">
        <ele>28.0155</ele>
        <time>2013-04-17T18:04:53Z</time>
      </trkpt>
      <trkpt lat="59.9672182" lon="17.7131963">
        <ele>28.0155</ele>
        <time>2013-04-17T18:04:54Z</time>
      </trkpt>
      <trkpt lat="59.9672026" lon="17.7131195">
        <ele>28.0155</ele>
        <time>2013-04-17T18:04:55Z</time>
      </trkpt>
      <trkpt lat="59.9671871" lon="17.7130425">
        <ele>28.0155</ele>
        <time>2013-04-17T18:04:56Z</time>
      </trkpt>
      <trkpt lat="59.9671701" lon="17.7129648">
        <ele>28.0155</ele>
        <time>2013-04-17T18:04:57Z</time>
      </trkpt>
      <trkpt lat="59.9671511" lon="17.7128874">
        <ele>28.0155</ele>
        <time>2013-04-17T18:04:58Z</time>
      </trkpt>
      <trkpt lat="59.9671301" lon="17.7128099">
        <ele>28.0155</ele>
        <time>2013-04-17T18:04:59Z</time>
      </trkpt>
      <trkpt lat="59.9671082" lon="17.7127329">
        <ele>28.0155</ele>
        <time>2013-04-17T18:05:00Z</time>
      </trkpt>
      <trkpt lat="59.9670854" lon="17.7126535">
        <ele>28.4962</ele>
        <time>2013-04-17T18:05:01Z</time>
      </trkpt>
      <trkpt lat="59.9670621" lon="17.7125727">
        <ele>28.4962</ele>
        <time>2013-04-17T18:05:02Z</time>
      </trkpt>
      <trkpt lat="59.967037" lon="17.7124918">
        <ele>28.4962</ele>
        <time>2013-04-17T18:05:03Z</time>
      </trkpt>
      <trkpt lat="59.9670093" lon="17.7124095">
        <ele>28.4962</ele>
        <time>2013-04-17T18:05:04Z</time>
      </trkpt>
      <trkpt lat="59.9669778" lon="17.7123256">
        <ele>28.4962</ele>
        <time>2013-04-17T18:05:05Z</time>
      </trkpt>
      <trkpt lat="59.9669466" lon="17.7122391">
        <ele>28.4962</ele>
        <time>2013-04-17T18:05:06Z</time>
      </trkpt>
      <trkpt lat="59.9669171" lon="17.7121541">
        <ele>28.9769</ele>
        <time>2013-04-17T18:05:07Z</time>
      </trkpt>
      <trkpt lat="59.966887" lon="17.7120722">
        <ele>28.9769</ele>
        <time>2013-04-17T18:05:08Z</time>
      </trkpt>
      <trkpt lat="59.9668562" lon="17.7119945">
        <ele>28.9769</ele>
        <time>2013-04-17T18:05:09Z</time>
      </trkpt>
      <trkpt lat="59.966826" lon="17.7119157">
        <ele>28.9769</ele>
        <time>2013-04-17T18:05:10Z</time>
      </trkpt>
      <trkpt lat="59.966796" lon="17.7118375">
        <ele>28.9769</ele>
        <time>2013-04-17T18:05:11Z</time>
      </trkpt>
      <trkpt lat="59.9667666" lon="17.7117587">
        <ele>28.9769</ele>
        <time>2013-04-17T18:05:12Z</time>
      </trkpt>
      <trkpt lat="59.9667386" lon="17.7116766">
        <ele>28.9769</ele>
        <time>2013-04-17T18:05:13Z</time>
      </trkpt>
      <trkpt lat="59.9667103" lon="17.7115932">
        <ele>28.9769</ele>
        <time>2013-04-17T18:05:14Z</time>
      </trkpt>
      <trkpt lat="59.966681" lon="17.7115095">
        <ele>28.4962</ele>
        <time>2013-04-17T18:05:15Z</time>
      </trkpt>
      <trkpt lat="59.9666519" lon="17.7114242">
        <ele>28.9769</ele>
        <time>2013-04-17T18:05:16Z</time>
      </trkpt>
      <trkpt lat="59.9666245" lon="17.7113377">
        <ele>28.4962</ele>
        <time>2013-04-17T18:05:17Z</time>
      </trkpt>
      <trkpt lat="59.9665987" lon="17.7112492">
        <ele>28.4962</ele>
        <time>2013-04-17T18:05:18Z</time>
      </trkpt>
      <trkpt lat="59.9665727" lon="17.7111588">
        <ele>28.4962</ele>
        <time>2013-04-17T18:05:19Z</time>
      </trkpt>
      <trkpt lat="59.9665461" lon="17.7110673">
        <ele>28.4962</ele>
        <time>2013-04-17T18:05:20Z</time>
      </trkpt>
      <trkpt lat="59.9665197" lon="17.7109742">
        <ele>28.4962</ele>
        <time>2013-04-17T18:05:21Z</time>
      </trkpt>
      <trkpt lat="59.966493" lon="17.7108807">
        <ele>28.4962</ele>
        <time>2013-04-17T18:05:22Z</time>
      </trkpt>
      <trkpt lat="59.9664656" lon="17.7107865">
        <ele>28.4962</ele>
        <time>2013-04-17T18:05:23Z</time>
      </trkpt>
      <trkpt lat="59.9664389" lon="17.7106903">
        <ele>28.0155</ele>
        <time>2013-04-17T18:05:24Z</time>
      </trkpt>
      <trkpt lat="59.9664123" lon="17.7105924">
        <ele>28.4962</ele>
        <time>2013-04-17T18:05:25Z</time>
      </trkpt>
      <trkpt lat="59.9663862" lon="17.710495">
        <ele>28.4962</ele>
        <time>2013-04-17T18:05:26Z</time>
      </trkpt>
      <trkpt lat="59.9663601" lon="17.7103979">
        <ele>28.4962</ele>
        <time>2013-04-17T18:05:27Z</time>
      </trkpt>
      <trkpt lat="59.9663334" lon="17.710301">
        <ele>28.4962</ele>
        <time>2013-04-17T18:05:28Z</time>
      </trkpt>
      <trkpt lat="59.9663075" lon="17.7102027">
        <ele>28.0155</ele>
        <time>2013-04-17T18:05:29Z</time>
      </trkpt>
      <trkpt lat="59.9662811" lon="17.7101039">
        <ele>28.4962</ele>
        <time>2013-04-17T18:05:30Z</time>
      </trkpt>
      <trkpt lat="59.9662539" lon="17.7100065">
        <ele>28.4962</ele>
        <time>2013-04-17T18:05:31Z</time>
      </trkpt>
      <trkpt lat="59.9662268" lon="17.7099102">
        <ele>28.4962</ele>
        <time>2013-04-17T18:05:32Z</time>
      </trkpt>
      <trkpt lat="59.9661997" lon="17.7098151">
        <ele>28.4962</ele>
        <time>2013-04-17T18:05:33Z</time>
      </trkpt>
      <trkpt lat="59.9661726" lon="17.7097195">
        <ele>28.4962</ele>
        <time>2013-04-17T18:05:34Z</time>
      </trkpt>
      <trkpt lat="59.9661463" lon="17.7096226">
        <ele>28.4962</ele>
        <time>2013-04-17T18:05:35Z</time>
      </trkpt>
      <trkpt lat="59.9661188" lon="17.7095272">
        <ele>28.4962</ele>
        <time>2013-04-17T18:05:36Z</time>
      </trkpt>
      <trkpt lat="59.9660915" lon="17.7094313">
        <ele>28.4962</ele>
        <time>2013-04-17T18:05:37Z</time>
      </trkpt>
      <trkpt lat="59.9660651" lon="17.7093341">
        <ele>28.4962</ele>
        <time>2013-04-17T18:05:38Z</time>
      </trkpt>
      <trkpt lat="59.9660375" lon="17.7092382">
        <ele>28.4962</ele>
        <time>2013-04-17T18:05:39Z</time>
      </trkpt>
      <trkpt lat="59.9660074" lon="17.709144">
        <ele>28.4962</ele>
        <time>2013-04-17T18:05:40Z</time>
      </trkpt>
      <trkpt lat="59.965977" lon="17.7090487">
        <ele>28.4962</ele>
        <time>2013-04-17T18:05:41Z</time>
      </trkpt>
      <trkpt lat="59.9659478" lon="17.7089518">
        <ele>28.4962</ele>
        <time>2013-04-17T18:05:42Z</time>
      </trkpt>
      <trkpt lat="59.9659181" lon="17.7088564">
        <ele>28.4962</ele>
        <time>2013-04-17T18:05:43Z</time>
      </trkpt>
      <trkpt lat="59.9658873" lon="17.7087643">
        <ele>28.4962</ele>
        <time>2013-04-17T18:05:44Z</time>
      </trkpt>
      <trkpt lat="59.9658553" lon="17.708676">
        <ele>28.9769</ele>
        <time>2013-04-17T18:05:45Z</time>
      </trkpt>
      <trkpt lat="59.9658225" lon="17.7085902">
        <ele>28.9769</ele>
        <time>2013-04-17T18:05:46Z</time>
      </trkpt>
      <trkpt lat="59.9657883" lon="17.7085069">
        <ele>28.9769</ele>
        <time>2013-04-17T18:05:47Z</time>
      </trkpt>
      <trkpt lat="59.9657517" lon="17.708427">
        <ele>28.9769</ele>
        <time>2013-04-17T18:05:48Z</time>
      </trkpt>
      <trkpt lat="59.9657129" lon="17.70835">
        <ele>28.9769</ele>
        <time>2013-04-17T18:05:49Z</time>
      </trkpt>
      <trkpt lat="59.9656729" lon="17.7082772">
        <ele>28.9769</ele>
        <time>2013-04-17T18:05:50Z</time>
      </trkpt>
      <trkpt lat="59.965631" lon="17.7082124">
        <ele>28.9769</ele>
        <time>2013-04-17T18:05:51Z</time>
      </trkpt>
      <trkpt lat="59.965588" lon="17.7081539">
        <ele>29.4575</ele>
        <time>2013-04-17T18:05:52Z</time>
      </trkpt>
      <trkpt lat="59.965545" lon="17.7080976">
        <ele>29.4575</ele>
        <time>2013-04-17T18:05:53Z</time>
      </trkpt>
      <trkpt lat="59.9655016" lon="17.7080447">
        <ele>29.4575</ele>
        <time>2013-04-17T18:05:54Z</time>
      </trkpt>
      <trkpt lat="59.9654565" lon="17.7079975">
        <ele>29.4575</ele>
        <time>2013-04-17T18:05:55Z</time>
      </trkpt>
      <trkpt lat="59.9654091" lon="17.7079567">
        <ele>29.4575</ele>
        <time>2013-04-17T18:05:56Z</time>
      </trkpt>
      <trkpt lat="59.9653606" lon="17.707918">
        <ele>29.4575</ele>
        <time>2013-04-17T18:05:57Z</time>
      </trkpt>
      <trkpt lat="59.9653132" lon="17.7078788">
        <ele>29.4575</ele>
        <time>2013-04-17T18:05:58Z</time>
      </trkpt>
      <trkpt lat="59.9652668" lon="17.7078411">
        <ele>29.4575</ele>
        <time>2013-04-17T18:05:59Z</time>
      </trkpt>
      <trkpt lat="59.9652216" lon="17.707803">
        <ele>29.4575</ele>
        <time>2013-04-17T18:06:00Z</time>
      </trkpt>
      <trkpt lat="59.9651778" lon="17.707764">
        <ele>29.4575</ele>
        <time>2013-04-17T18:06:01Z</time>
      </trkpt>
      <trkpt lat="59.9651347" lon="17.7077267">
        <ele>29.9381</ele>
        <time>2013-04-17T18:06:02Z</time>
      </trkpt>
      <trkpt lat="59.9650912" lon="17.7076903">
        <ele>29.9381</ele>
        <time>2013-04-17T18:06:03Z</time>
      </trkpt>
      <trkpt lat="59.9650473" lon="17.7076552">
        <ele>29.9381</ele>
        <time>2013-04-17T18:06:04Z</time>
      </trkpt>
      <trkpt lat="59.9650029" lon="17.7076222">
        <ele>29.9381</ele>
        <time>2013-04-17T18:06:05Z</time>
      </trkpt>
      <trkpt lat="59.9649576" lon="17.7075914">
        <ele>29.9381</ele>
        <time>2013-04-17T18:06:06Z</time>
      </trkpt>
      <trkpt lat="59.9649121" lon="17.7075598">
        <ele>29.9381</ele>
        <time>2013-04-17T18:06:07Z</time>
      </trkpt>
      <trkpt lat="59.9648668" lon="17.7075273">
        <ele>29.9381</ele>
        <time>2013-04-17T18:06:08Z</time>
      </trkpt>
      <trkpt lat="59.9648217" lon="17.7074929">
        <ele>29.9381</ele>
        <time>2013-04-17T18:06:09Z</time>
      </trkpt>
      <trkpt lat="59.9647761" lon="17.7074578">
        <ele>29.9381</ele>
        <time>2013-04-17T18:06:10Z</time>
      </trkpt>
      <trkpt lat="59.9647286" lon="17.7074257">
        <ele>29.9381</ele>
        <time>2013-04-17T18:06:11Z</time>
      </trkpt>
      <trkpt lat="59.9646799" lon="17.7073957">
        <ele>30.4188</ele>
        <time>2013-04-17T18:06:12Z</time>
      </trkpt>
      <trkpt lat="59.9646307" lon="17.7073662">
        <ele>30.4188</ele>
        <time>2013-04-17T18:06:13Z</time>
      </trkpt>
      <trkpt lat="59.964581" lon="17.7073361">
        <ele>30.4188</ele>
        <time>2013-04-17T18:06:14Z</time>
      </trkpt>
      <trkpt lat="59.9645301" lon="17.7073059">
        <ele>30.4188</ele>
        <time>2013-04-17T18:06:15Z</time>
      </trkpt>
      <trkpt lat="59.9644774" lon="17.7072777">
        <ele>30.4188</ele>
        <time>2013-04-17T18:06:16Z</time>
      </trkpt>
      <trkpt lat="59.964425" lon="17.7072532">
        <ele>30.4188</ele>
        <time>2013-04-17T18:06:17Z</time>
      </trkpt>
      <trkpt lat="59.9643738" lon="17.7072324">
        <ele>30.4188</ele>
        <time>2013-04-17T18:06:18Z</time>
      </trkpt>
      <trkpt lat="59.9643226" lon="17.707216">
        <ele>30.4188</ele>
        <time>2013-04-17T18:06:19Z</time>
      </trkpt>
      <trkpt lat="59.9642708" lon="17.7072018">
        <ele>30.4188</ele>
        <time>2013-04-17T18:06:20Z</time>
      </trkpt>
      <trkpt lat="59.9642187" lon="17.7071883">
        <ele>30.8995</ele>
        <time>2013-04-17T18:06:21Z</time>
      </trkpt>
      <trkpt lat="59.9641666" lon="17.7071762">
        <ele>30.8995</ele>
        <time>2013-04-17T18:06:22Z</time>
      </trkpt>
      <trkpt lat="59.9641142" lon="17.7071652">
        <ele>30.8995</ele>
        <time>2013-04-17T18:06:23Z</time>
      </trkpt>
      <trkpt lat="59.9640609" lon="17.7071553">
        <ele>30.8995</ele>
        <time>2013-04-17T18:06:24Z</time>
      </trkpt>
      <trkpt lat="59.9640065" lon="17.7071458">
        <ele>30.8995</ele>
        <time>2013-04-17T18:06:25Z</time>
      </trkpt>
      <trkpt lat="59.9639512" lon="17.7071355">
        <ele>30.8995</ele>
        <time>2013-04-17T18:06:26Z</time>
      </trkpt>
      <trkpt lat="59.9638955" lon="17.7071249">
        <ele>30.8995</ele>
        <time>2013-04-17T18:06:27Z</time>
      </trkpt>
      <trkpt lat="59.9638385" lon="17.7071165">
        <ele>30.8995</ele>
        <time>2013-04-17T18:06:28Z</time>
      </trkpt>
      <trkpt lat="59.9637812" lon="17.7071099">
        <ele>30.8995</ele>
        <time>2013-04-17T18:06:29Z</time>
      </trkpt>
      <trkpt lat="59.9637241" lon="17.7071044">
        <ele>30.8995</ele>
        <time>2013-04-17T18:06:30Z</time>
      </trkpt>
      <trkpt lat="59.9636671" lon="17.7070978">
        <ele>30.8995</ele>
        <time>2013-04-17T18:06:31Z</time>
      </trkpt>
      <trkpt lat="59.9636101" lon="17.7070921">
        <ele>30.8995</ele>
        <time>2013-04-17T18:06:32Z</time>
      </trkpt>
      <trkpt lat="59.9635531" lon="17.7070875">
        <ele>30.8995</ele>
        <time>2013-04-17T18:06:33Z</time>
      </trkpt>
      <trkpt lat="59.9634955" lon="17.7070847">
        <ele>30.4188</ele>
        <time>2013-04-17T18:06:34Z</time>
      </trkpt>
      <trkpt lat="59.9634378" lon="17.7070814">
        <ele>30.8995</ele>
        <time>2013-04-17T18:06:35Z</time>
      </trkpt>
      <trkpt lat="59.9633806" lon="17.7070769">
        <ele>30.4188</ele>
        <time>2013-04-17T18:06:36Z</time>
      </trkpt>
      <trkpt lat="59.9633236" lon="17.707075">
        <ele>30.4188</ele>
        <time>2013-04-17T18:06:37Z</time>
      </trkpt>
      <trkpt lat="59.9632666" lon="17.7070756">
        <ele>30.4188</ele>
        <time>2013-04-17T18:06:38Z</time>
      </trkpt>
      <trkpt lat="59.9632093" lon="17.7070754">
        <ele>30.4188</ele>
        <time>2013-04-17T18:06:39Z</time>
      </trkpt>
      <trkpt lat="59.9631511" lon="17.7070762">
        <ele>30.4188</ele>
        <time>2013-04-17T18:06:40Z</time>
      </trkpt>
      <trkpt lat="59.9630912" lon="17.707079">
        <ele>30.4188</ele>
        <time>2013-04-17T18:06:41Z</time>
      </trkpt>
      <trkpt lat="59.9630311" lon="17.7070791">
        <ele>30.4188</ele>
        <time>2013-04-17T18:06:42Z</time>
      </trkpt>
      <trkpt lat="59.9629699" lon="17.707079">
        <ele>30.4188</ele>
        <time>2013-04-17T18:06:43Z</time>
      </trkpt>
      <trkpt lat="59.9629063" lon="17.7070812">
        <ele>30.4188</ele>
        <time>2013-04-17T18:06:44Z</time>
      </trkpt>
      <trkpt lat="59.962842" lon="17.7070834">
        <ele>30.4188</ele>
        <time>2013-04-17T18:06:45Z</time>
      </trkpt>
      <trkpt lat="59.9627778" lon="17.7070787">
        <ele>30.4188</ele>
        <time>2013-04-17T18:06:46Z</time>
      </trkpt>
      <trkpt lat="59.9627136" lon="17.7070678">
        <ele>30.4188</ele>
        <time>2013-04-17T18:06:47Z</time>
      </trkpt>
      <trkpt lat="59.9626483" lon="17.7070569">
        <ele>30.4188</ele>
        <time>2013-04-17T18:06:48Z</time>
      </trkpt>
      <trkpt lat="59.9625835" lon="17.7070418">
        <ele>30.8995</ele>
        <time>2013-04-17T18:06:49Z</time>
      </trkpt>
      <trkpt lat="59.9625194" lon="17.7070192">
        <ele>30.8995</ele>
        <time>2013-04-17T18:06:50Z</time>
      </trkpt>
      <trkpt lat="59.9624555" lon="17.7069932">
        <ele>30.8995</ele>
        <time>2013-04-17T18:06:51Z</time>
      </trkpt>
      <trkpt lat="59.9623919" lon="17.7069658">
        <ele>30.8995</ele>
        <time>2013-04-17T18:06:52Z</time>
      </trkpt>
      <trkpt lat="59.9623288" lon="17.7069387">
        <ele>30.8995</ele>
        <time>2013-04-17T18:06:53Z</time>
      </trkpt>
      <trkpt lat="59.9622665" lon="17.7069103">
        <ele>30.8995</ele>
        <time>2013-04-17T18:06:54Z</time>
      </trkpt>
      <trkpt lat="59.9622044" lon="17.706879">
        <ele>30.8995</ele>
        <time>2013-04-17T18:06:55Z</time>
      </trkpt>
      <trkpt lat="59.962143" lon="17.7068435">
        <ele>30.8995</ele>
        <time>2013-04-17T18:06:56Z</time>
      </trkpt>
      <trkpt lat="59.9620815" lon="17.7068066">
        <ele>30.8995</ele>
        <time>2013-04-17T18:06:57Z</time>
      </trkpt>
      <trkpt lat="59.9620197" lon="17.7067703">
        <ele>31.3801</ele>
        <time>2013-04-17T18:06:58Z</time>
      </trkpt>
      <trkpt lat="59.9619581" lon="17.7067311">
        <ele>31.3801</ele>
        <time>2013-04-17T18:06:59Z</time>
      </trkpt>
      <trkpt lat="59.961896" lon="17.7066882">
        <ele>31.3801</ele>
        <time>2013-04-17T18:07:00Z</time>
      </trkpt>
      <trkpt lat="59.9618351" lon="17.7066385">
        <ele>31.3801</ele>
        <time>2013-04-17T18:07:01Z</time>
      </trkpt>
      <trkpt lat="59.9617754" lon="17.7065838">
        <ele>31.3801</ele>
        <time>2013-04-17T18:07:02Z</time>
      </trkpt>
      <trkpt lat="59.9617159" lon="17.7065255">
        <ele>31.3801</ele>
        <time>2013-04-17T18:07:03Z</time>
      </trkpt>
      <trkpt lat="59.9616579" lon="17.7064621">
        <ele>31.3801</ele>
        <time>2013-04-17T18:07:04Z</time>
      </trkpt>
      <trkpt lat="59.9616017" lon="17.7063929">
        <ele>31.3801</ele>
        <time>2013-04-17T18:07:05Z</time>
      </trkpt>
      <trkpt lat="59.9615469" lon="17.7063185">
        <ele>31.3801</ele>
        <time>2013-04-17T18:07:06Z</time>
      </trkpt>
      <trkpt lat="59.9614943" lon="17.7062391">
        <ele>31.8607</ele>
        <time>2013-04-17T18:07:07Z</time>
      </trkpt>
      <trkpt lat="59.9614454" lon="17.706157">
        <ele>31.8607</ele>
        <time>2013-04-17T18:07:08Z</time>
      </trkpt>
      <trkpt lat="59.9613984" lon="17.7060753">
        <ele>31.8607</ele>
        <time>2013-04-17T18:07:09Z</time>
      </trkpt>
      <trkpt lat="59.9613527" lon="17.7059934">
        <ele>31.8607</ele>
        <time>2013-04-17T18:07:10Z</time>
      </trkpt>
      <trkpt lat="59.9613077" lon="17.705912">
        <ele>31.8607</ele>
        <time>2013-04-17T18:07:11Z</time>
      </trkpt>
      <trkpt lat="59.9612635" lon="17.7058323">
        <ele>31.8607</ele>
        <time>2013-04-17T18:07:12Z</time>
      </trkpt>
      <trkpt lat="59.9612199" lon="17.7057524">
        <ele>31.8607</ele>
        <time>2013-04-17T18:07:13Z</time>
      </trkpt>
      <trkpt lat="59.9611772" lon="17.7056705">
        <ele>31.8607</ele>
        <time>2013-04-17T18:07:14Z</time>
      </trkpt>
      <trkpt lat="59.961134" lon="17.705589">
        <ele>31.8607</ele>
        <time>2013-04-17T18:07:15Z</time>
      </trkpt>
      <trkpt lat="59.9610895" lon="17.7055107">
        <ele>32.3416</ele>
        <time>2013-04-17T18:07:16Z</time>
      </trkpt>
      <trkpt lat="59.9610441" lon="17.7054355">
        <ele>32.3416</ele>
        <time>2013-04-17T18:07:17Z</time>
      </trkpt>
      <trkpt lat="59.9609972" lon="17.7053638">
        <ele>32.3416</ele>
        <time>2013-04-17T18:07:18Z</time>
      </trkpt>
      <trkpt lat="59.9609502" lon="17.7052925">
        <ele>32.3416</ele>
        <time>2013-04-17T18:07:19Z</time>
      </trkpt>
      <trkpt lat="59.960904" lon="17.7052211">
        <ele>32.3416</ele>
        <time>2013-04-17T18:07:20Z</time>
      </trkpt>
      <trkpt lat="59.960857" lon="17.705153">
        <ele>32.8223</ele>
        <time>2013-04-17T18:07:21Z</time>
      </trkpt>
      <trkpt lat="59.9608095" lon="17.7050872">
        <ele>32.8223</ele>
        <time>2013-04-17T18:07:22Z</time>
      </trkpt>
      <trkpt lat="59.9607607" lon="17.7050227">
        <ele>32.8223</ele>
        <time>2013-04-17T18:07:23Z</time>
      </trkpt>
      <trkpt lat="59.9607115" lon="17.7049594">
        <ele>33.3029</ele>
        <time>2013-04-17T18:07:24Z</time>
      </trkpt>
      <trkpt lat="59.9606626" lon="17.7048968">
        <ele>33.3029</ele>
        <time>2013-04-17T18:07:25Z</time>
      </trkpt>
      <trkpt lat="59.9606141" lon="17.7048347">
        <ele>33.3029</ele>
        <time>2013-04-17T18:07:26Z</time>
      </trkpt>
      <trkpt lat="59.9605646" lon="17.7047745">
        <ele>33.3029</ele>
        <time>2013-04-17T18:07:27Z</time>
      </trkpt>
      <trkpt lat="59.9605132" lon="17.7047171">
        <ele>33.3029</ele>
        <time>2013-04-17T18:07:28Z</time>
      </trkpt>
      <trkpt lat="59.960461" lon="17.7046597">
        <ele>33.3029</ele>
        <time>2013-04-17T18:07:29Z</time>
      </trkpt>
      <trkpt lat="59.9604079" lon="17.7046009">
        <ele>33.3029</ele>
        <time>2013-04-17T18:07:30Z</time>
      </trkpt>
      <trkpt lat="59.9603535" lon="17.7045413">
        <ele>33.3029</ele>
        <time>2013-04-17T18:07:31Z</time>
      </trkpt>
      <trkpt lat="59.9602984" lon="17.7044798">
        <ele>33.3029</ele>
        <time>2013-04-17T18:07:32Z</time>
      </trkpt>
      <trkpt lat="59.9602437" lon="17.704414">
        <ele>33.7834</ele>
        <time>2013-04-17T18:07:33Z</time>
      </trkpt>
      <trkpt lat="59.9601908" lon="17.7043425">
        <ele>33.7834</ele>
        <time>2013-04-17T18:07:34Z</time>
      </trkpt>
      <trkpt lat="59.9601402" lon="17.7042653">
        <ele>33.7834</ele>
        <time>2013-04-17T18:07:35Z</time>
      </trkpt>
      <trkpt lat="59.9600928" lon="17.7041825">
        <ele>34.2642</ele>
        <time>2013-04-17T18:07:36Z</time>
      </trkpt>
      <trkpt lat="59.9600473" lon="17.7040947">
        <ele>34.2642</ele>
        <time>2013-04-17T18:07:37Z</time>
      </trkpt>
      <trkpt lat="59.9600038" lon="17.7039986">
        <ele>34.2642</ele>
        <time>2013-04-17T18:07:38Z</time>
      </trkpt>
      <trkpt lat="59.9599644" lon="17.7038939">
        <ele>34.2642</ele>
        <time>2013-04-17T18:07:39Z</time>
      </trkpt>
      <trkpt lat="59.959929" lon="17.703785">
        <ele>34.2642</ele>
        <time>2013-04-17T18:07:40Z</time>
      </trkpt>
      <trkpt lat="59.9598956" lon="17.7036753">
        <ele>34.7449</ele>
        <time>2013-04-17T18:07:41Z</time>
      </trkpt>
      <trkpt lat="59.9598635" lon="17.7035698">
        <ele>34.7449</ele>
        <time>2013-04-17T18:07:42Z</time>
      </trkpt>
      <trkpt lat="59.9598323" lon="17.7034664">
        <ele>35.2255</ele>
        <time>2013-04-17T18:07:43Z</time>
      </trkpt>
      <trkpt lat="59.9598026" lon="17.7033645">
        <ele>35.2255</ele>
        <time>2013-04-17T18:07:44Z</time>
      </trkpt>
      <trkpt lat="59.9597728" lon="17.703265">
        <ele>35.2255</ele>
        <time>2013-04-17T18:07:45Z</time>
      </trkpt>
      <trkpt lat="59.9597437" lon="17.703166">
        <ele>35.7061</ele>
        <time>2013-04-17T18:07:46Z</time>
      </trkpt>
      <trkpt lat="59.9597143" lon="17.7030675">
        <ele>35.7061</ele>
        <time>2013-04-17T18:07:47Z</time>
      </trkpt>
      <trkpt lat="59.9596848" lon="17.7029672">
        <ele>36.1868</ele>
        <time>2013-04-17T18:07:48Z</time>
      </trkpt>
      <trkpt lat="59.9596546" lon="17.7028676">
        <ele>36.1868</ele>
        <time>2013-04-17T18:07:49Z</time>
      </trkpt>
      <trkpt lat="59.9596245" lon="17.70277">
        <ele>36.1868</ele>
        <time>2013-04-17T18:07:50Z</time>
      </trkpt>
      <trkpt lat="59.9595946" lon="17.7026739">
        <ele>36.1868</ele>
        <time>2013-04-17T18:07:51Z</time>
      </trkpt>
      <trkpt lat="59.9595649" lon="17.7025769">
        <ele>35.7061</ele>
        <time>2013-04-17T18:07:52Z</time>
      </trkpt>
      <trkpt lat="59.959537" lon="17.7024759">
        <ele>35.7061</ele>
        <time>2013-04-17T18:07:53Z</time>
      </trkpt>
      <trkpt lat="59.9595091" lon="17.7023735">
        <ele>35.7061</ele>
        <time>2013-04-17T18:07:54Z</time>
      </trkpt>
      <trkpt lat="59.9594795" lon="17.7022703">
        <ele>35.7061</ele>
        <time>2013-04-17T18:07:55Z</time>
      </trkpt>
      <trkpt lat="59.9594501" lon="17.7021644">
        <ele>35.7061</ele>
        <time>2013-04-17T18:07:56Z</time>
      </trkpt>
      <trkpt lat="59.9594212" lon="17.702057">
        <ele>35.7061</ele>
        <time>2013-04-17T18:07:57Z</time>
      </trkpt>
      <trkpt lat="59.9593704" lon="17.7018383">
        <ele>35.7061</ele>
        <time>2013-04-17T18:07:58Z</time>
      </trkpt>
      <trkpt lat="59.9593455" lon="17.7017329">
        <ele>35.7061</ele>
        <time>2013-04-17T18:07:59Z</time>
      </trkpt>
      <trkpt lat="59.9593221" lon="17.7016281">
        <ele>35.7061</ele>
        <time>2013-04-17T18:08:00Z</time>
      </trkpt>
      <trkpt lat="59.9593015" lon="17.7015225">
        <ele>35.7061</ele>
        <time>2013-04-17T18:08:01Z</time>
      </trkpt>
      <trkpt lat="59.9592833" lon="17.7014171">
        <ele>35.7061</ele>
        <time>2013-04-17T18:08:02Z</time>
      </trkpt>
      <trkpt lat="59.9592665" lon="17.7013107">
        <ele>35.2255</ele>
        <time>2013-04-17T18:08:03Z</time>
      </trkpt>
      <trkpt lat="59.9592501" lon="17.7012013">
        <ele>35.2255</ele>
        <time>2013-04-17T18:08:04Z</time>
      </trkpt>
      <trkpt lat="59.9592351" lon="17.7010879">
        <ele>34.7449</ele>
        <time>2013-04-17T18:08:05Z</time>
      </trkpt>
      <trkpt lat="59.9592206" lon="17.7009723">
        <ele>34.7449</ele>
        <time>2013-04-17T18:08:06Z</time>
      </trkpt>
      <trkpt lat="59.9592071" lon="17.7008543">
        <ele>34.2642</ele>
        <time>2013-04-17T18:08:07Z</time>
      </trkpt>
      <trkpt lat="59.9591937" lon="17.7007334">
        <ele>34.2642</ele>
        <time>2013-04-17T18:08:08Z</time>
      </trkpt>
      <trkpt lat="59.9591802" lon="17.7006108">
        <ele>33.7834</ele>
        <time>2013-04-17T18:08:09Z</time>
      </trkpt>
      <trkpt lat="59.9591683" lon="17.700487">
        <ele>33.7834</ele>
        <time>2013-04-17T18:08:10Z</time>
      </trkpt>
      <trkpt lat="59.9591594" lon="17.7003637">
        <ele>33.3029</ele>
        <time>2013-04-17T18:08:11Z</time>
      </trkpt>
      <trkpt lat="59.9591498" lon="17.7002409">
        <ele>33.3029</ele>
        <time>2013-04-17T18:08:12Z</time>
      </trkpt>
      <trkpt lat="59.9591372" lon="17.7001203">
        <ele>32.8223</ele>
        <time>2013-04-17T18:08:13Z</time>
      </trkpt>
      <trkpt lat="59.9591237" lon="17.7000016">
        <ele>32.8223</ele>
        <time>2013-04-17T18:08:14Z</time>
      </trkpt>
      <trkpt lat="59.9591123" lon="17.6998825">
        <ele>32.8223</ele>
        <time>2013-04-17T18:08:15Z</time>
      </trkpt>
      <trkpt lat="59.9591026" lon="17.6997634">
        <ele>32.8223</ele>
        <time>2013-04-17T18:08:16Z</time>
      </trkpt>
      <trkpt lat="59.9590931" lon="17.6996437">
        <ele>32.8223</ele>
        <time>2013-04-17T18:08:17Z</time>
      </trkpt>
      <trkpt lat="59.9590845" lon="17.6995249">
        <ele>32.8223</ele>
        <time>2013-04-17T18:08:18Z</time>
      </trkpt>
      <trkpt lat="59.9590778" lon="17.6994084">
        <ele>32.8223</ele>
        <time>2013-04-17T18:08:19Z</time>
      </trkpt>
      <trkpt lat="59.9590721" lon="17.6992959">
        <ele>32.8223</ele>
        <time>2013-04-17T18:08:20Z</time>
      </trkpt>
      <trkpt lat="59.9590678" lon="17.6991856">
        <ele>32.8223</ele>
        <time>2013-04-17T18:08:21Z</time>
      </trkpt>
      <trkpt lat="59.9590643" lon="17.6990764">
        <ele>32.8223</ele>
        <time>2013-04-17T18:08:22Z</time>
      </trkpt>
      <trkpt lat="59.9590616" lon="17.6989687">
        <ele>33.3029</ele>
        <time>2013-04-17T18:08:23Z</time>
      </trkpt>
      <trkpt lat="59.9590595" lon="17.6988624">
        <ele>33.3029</ele>
        <time>2013-04-17T18:08:24Z</time>
      </trkpt>
      <trkpt lat="59.9590574" lon="17.6987563">
        <ele>33.3029</ele>
        <time>2013-04-17T18:08:25Z</time>
      </trkpt>
      <trkpt lat="59.9590559" lon="17.6986495">
        <ele>33.3029</ele>
        <time>2013-04-17T18:08:26Z</time>
      </trkpt>
      <trkpt lat="59.9590544" lon="17.6985415">
        <ele>33.3029</ele>
        <time>2013-04-17T18:08:27Z</time>
      </trkpt>
      <trkpt lat="59.9590532" lon="17.6984349">
        <ele>33.3029</ele>
        <time>2013-04-17T18:08:28Z</time>
      </trkpt>
      <trkpt lat="59.9590513" lon="17.6983284">
        <ele>33.3029</ele>
        <time>2013-04-17T18:08:29Z</time>
      </trkpt>
      <trkpt lat="59.9590485" lon="17.6982197">
        <ele>32.8223</ele>
        <time>2013-04-17T18:08:30Z</time>
      </trkpt>
      <trkpt lat="59.9590425" lon="17.6981104">
        <ele>32.8223</ele>
        <time>2013-04-17T18:08:31Z</time>
      </trkpt>
      <trkpt lat="59.9590342" lon="17.6980005">
        <ele>32.3416</ele>
        <time>2013-04-17T18:08:32Z</time>
      </trkpt>
      <trkpt lat="59.9590243" lon="17.697889">
        <ele>32.3416</ele>
        <time>2013-04-17T18:08:33Z</time>
      </trkpt>
      <trkpt lat="59.9590123" lon="17.6977773">
        <ele>31.8607</ele>
        <time>2013-04-17T18:08:34Z</time>
      </trkpt>
      <trkpt lat="59.9589994" lon="17.6976631">
        <ele>31.3801</ele>
        <time>2013-04-17T18:08:35Z</time>
      </trkpt>
      <trkpt lat="59.9589844" lon="17.6975457">
        <ele>30.8995</ele>
        <time>2013-04-17T18:08:36Z</time>
      </trkpt>
      <trkpt lat="59.9589648" lon="17.6974281">
        <ele>30.4188</ele>
        <time>2013-04-17T18:08:37Z</time>
      </trkpt>
      <trkpt lat="59.9589423" lon="17.697309">
        <ele>30.4188</ele>
        <time>2013-04-17T18:08:38Z</time>
      </trkpt>
      <trkpt lat="59.9589182" lon="17.6971863">
        <ele>29.9381</ele>
        <time>2013-04-17T18:08:39Z</time>
      </trkpt>
      <trkpt lat="59.9588927" lon="17.6970649">
        <ele>29.9381</ele>
        <time>2013-04-17T18:08:40Z</time>
      </trkpt>
      <trkpt lat="59.9588661" lon="17.6969443">
        <ele>29.4575</ele>
        <time>2013-04-17T18:08:41Z</time>
      </trkpt>
      <trkpt lat="59.9588394" lon="17.6968283">
        <ele>29.4575</ele>
        <time>2013-04-17T18:08:42Z</time>
      </trkpt>
      <trkpt lat="59.9588128" lon="17.6967159">
        <ele>29.4575</ele>
        <time>2013-04-17T18:08:43Z</time>
      </trkpt>
      <trkpt lat="59.9587853" lon="17.6966074">
        <ele>29.4575</ele>
        <time>2013-04-17T18:08:44Z</time>
      </trkpt>
      <trkpt lat="59.9587555" lon="17.696504">
        <ele>29.9381</ele>
        <time>2013-04-17T18:08:45Z</time>
      </trkpt>
      <trkpt lat="59.9587233" lon="17.6964052">
        <ele>29.9381</ele>
        <time>2013-04-17T18:08:46Z</time>
      </trkpt>
      <trkpt lat="59.9586907" lon="17.6963082">
        <ele>29.4575</ele>
        <time>2013-04-17T18:08:47Z</time>
      </trkpt>
      <trkpt lat="59.9586575" lon="17.6962135">
        <ele>29.9381</ele>
        <time>2013-04-17T18:08:48Z</time>
      </trkpt>
      <trkpt lat="59.958624" lon="17.6961194">
        <ele>29.9381</ele>
        <time>2013-04-17T18:08:49Z</time>
      </trkpt>
      <trkpt lat="59.9585893" lon="17.696026">
        <ele>29.9381</ele>
        <time>2013-04-17T18:08:50Z</time>
      </trkpt>
      <trkpt lat="59.9585532" lon="17.6959357">
        <ele>29.4575</ele>
        <time>2013-04-17T18:08:51Z</time>
      </trkpt>
      <trkpt lat="59.9585161" lon="17.6958459">
        <ele>29.4575</ele>
        <time>2013-04-17T18:08:52Z</time>
      </trkpt>
      <trkpt lat="59.9584783" lon="17.6957554">
        <ele>29.4575</ele>
        <time>2013-04-17T18:08:53Z</time>
      </trkpt>
      <trkpt lat="59.9584405" lon="17.6956637">
        <ele>29.4575</ele>
        <time>2013-04-17T18:08:54Z</time>
      </trkpt>
      <trkpt lat="59.9584028" lon="17.6955712">
        <ele>29.4575</ele>
        <time>2013-04-17T18:08:55Z</time>
      </trkpt>
      <trkpt lat="59.9583654" lon="17.6954769">
        <ele>29.4575</ele>
        <time>2013-04-17T18:08:56Z</time>
      </trkpt>
      <trkpt lat="59.9583277" lon="17.6953805">
        <ele>29.4575</ele>
        <time>2013-04-17T18:08:57Z</time>
      </trkpt>
      <trkpt lat="59.9582906" lon="17.6952815">
        <ele>29.4575</ele>
        <time>2013-04-17T18:08:58Z</time>
      </trkpt>
      <trkpt lat="59.9582536" lon="17.695181">
        <ele>29.4575</ele>
        <time>2013-04-17T18:08:59Z</time>
      </trkpt>
      <trkpt lat="59.9582158" lon="17.6950809">
        <ele>29.4575</ele>
        <time>2013-04-17T18:09:00Z</time>
      </trkpt>
      <trkpt lat="59.958178" lon="17.6949815">
        <ele>29.4575</ele>
        <time>2013-04-17T18:09:01Z</time>
      </trkpt>
      <trkpt lat="59.9581415" lon="17.6948827">
        <ele>29.4575</ele>
        <time>2013-04-17T18:09:02Z</time>
      </trkpt>
      <trkpt lat="59.9581059" lon="17.6947859">
        <ele>29.4575</ele>
        <time>2013-04-17T18:09:03Z</time>
      </trkpt>
      <trkpt lat="59.9580712" lon="17.6946902">
        <ele>29.4575</ele>
        <time>2013-04-17T18:09:04Z</time>
      </trkpt>
      <trkpt lat="59.9580371" lon="17.6945931">
        <ele>29.4575</ele>
        <time>2013-04-17T18:09:05Z</time>
      </trkpt>
      <trkpt lat="59.9580028" lon="17.6944957">
        <ele>29.4575</ele>
        <time>2013-04-17T18:09:06Z</time>
      </trkpt>
      <trkpt lat="59.9579685" lon="17.6943993">
        <ele>29.4575</ele>
        <time>2013-04-17T18:09:07Z</time>
      </trkpt>
      <trkpt lat="59.9579348" lon="17.6943025">
        <ele>29.4575</ele>
        <time>2013-04-17T18:09:08Z</time>
      </trkpt>
      <trkpt lat="59.9579018" lon="17.6942046">
        <ele>29.4575</ele>
        <time>2013-04-17T18:09:09Z</time>
      </trkpt>
      <trkpt lat="59.9578684" lon="17.6941062">
        <ele>29.4575</ele>
        <time>2013-04-17T18:09:10Z</time>
      </trkpt>
      <trkpt lat="59.9578332" lon="17.6940097">
        <ele>29.4575</ele>
        <time>2013-04-17T18:09:11Z</time>
      </trkpt>
      <trkpt lat="59.9577977" lon="17.6939123">
        <ele>29.4575</ele>
        <time>2013-04-17T18:09:12Z</time>
      </trkpt>
      <trkpt lat="59.9577629" lon="17.6938134">
        <ele>28.9769</ele>
        <time>2013-04-17T18:09:13Z</time>
      </trkpt>
      <trkpt lat="59.9577286" lon="17.6937135">
        <ele>28.9769</ele>
        <time>2013-04-17T18:09:14Z</time>
      </trkpt>
      <trkpt lat="59.9576944" lon="17.6936138">
        <ele>28.9769</ele>
        <time>2013-04-17T18:09:15Z</time>
      </trkpt>
      <trkpt lat="59.9576602" lon="17.6935156">
        <ele>28.9769</ele>
        <time>2013-04-17T18:09:16Z</time>
      </trkpt>
      <trkpt lat="59.957626" lon="17.6934193">
        <ele>28.9769</ele>
        <time>2013-04-17T18:09:17Z</time>
      </trkpt>
      <trkpt lat="59.9575924" lon="17.6933233">
        <ele>28.9769</ele>
        <time>2013-04-17T18:09:18Z</time>
      </trkpt>
      <trkpt lat="59.9575587" lon="17.6932272">
        <ele>28.9769</ele>
        <time>2013-04-17T18:09:19Z</time>
      </trkpt>
      <trkpt lat="59.9575248" lon="17.6931316">
        <ele>28.9769</ele>
        <time>2013-04-17T18:09:20Z</time>
      </trkpt>
      <trkpt lat="59.9574913" lon="17.6930364">
        <ele>28.9769</ele>
        <time>2013-04-17T18:09:21Z</time>
      </trkpt>
      <trkpt lat="59.9574572" lon="17.6929427">
        <ele>28.9769</ele>
        <time>2013-04-17T18:09:22Z</time>
      </trkpt>
      <trkpt lat="59.9574235" lon="17.692848">
        <ele>28.9769</ele>
        <time>2013-04-17T18:09:23Z</time>
      </trkpt>
      <trkpt lat="59.9573905" lon="17.6927515">
        <ele>28.9769</ele>
        <time>2013-04-17T18:09:24Z</time>
      </trkpt>
      <trkpt lat="59.957358" lon="17.6926556">
        <ele>28.9769</ele>
        <time>2013-04-17T18:09:25Z</time>
      </trkpt>
      <trkpt lat="59.9573258" lon="17.6925602">
        <ele>28.9769</ele>
        <time>2013-04-17T18:09:26Z</time>
      </trkpt>
      <trkpt lat="59.9572924" lon="17.6924675">
        <ele>28.4962</ele>
        <time>2013-04-17T18:09:27Z</time>
      </trkpt>
      <trkpt lat="59.9572574" lon="17.6923755">
        <ele>28.9769</ele>
        <time>2013-04-17T18:09:28Z</time>
      </trkpt>
      <trkpt lat="59.9572241" lon="17.6922806">
        <ele>28.9769</ele>
        <time>2013-04-17T18:09:29Z</time>
      </trkpt>
      <trkpt lat="59.9571896" lon="17.6921848">
        <ele>28.9769</ele>
        <time>2013-04-17T18:09:30Z</time>
      </trkpt>
      <trkpt lat="59.9571556" lon="17.6920885">
        <ele>28.9769</ele>
        <time>2013-04-17T18:09:31Z</time>
      </trkpt>
      <trkpt lat="59.9571222" lon="17.6919897">
        <ele>28.9769</ele>
        <time>2013-04-17T18:09:32Z</time>
      </trkpt>
      <trkpt lat="59.957088" lon="17.6918905">
        <ele>29.4575</ele>
        <time>2013-04-17T18:09:33Z</time>
      </trkpt>
      <trkpt lat="59.9570527" lon="17.6917904">
        <ele>29.4575</ele>
        <time>2013-04-17T18:09:34Z</time>
      </trkpt>
      <trkpt lat="59.9570175" lon="17.6916874">
        <ele>29.4575</ele>
        <time>2013-04-17T18:09:35Z</time>
      </trkpt>
      <trkpt lat="59.9569824" lon="17.6915834">
        <ele>29.4575</ele>
        <time>2013-04-17T18:09:36Z</time>
      </trkpt>
      <trkpt lat="59.9569465" lon="17.6914809">
        <ele>29.4575</ele>
        <time>2013-04-17T18:09:37Z</time>
      </trkpt>
      <trkpt lat="59.9569113" lon="17.6913804">
        <ele>29.9381</ele>
        <time>2013-04-17T18:09:38Z</time>
      </trkpt>
      <trkpt lat="59.9568782" lon="17.691281">
        <ele>29.9381</ele>
        <time>2013-04-17T18:09:39Z</time>
      </trkpt>
      <trkpt lat="59.956847" lon="17.6911864">
        <ele>29.9381</ele>
        <time>2013-04-17T18:09:40Z</time>
      </trkpt>
      <trkpt lat="59.9568168" lon="17.6910994">
        <ele>30.4188</ele>
        <time>2013-04-17T18:09:41Z</time>
      </trkpt>
      <trkpt lat="59.9567886" lon="17.6910181">
        <ele>30.4188</ele>
        <time>2013-04-17T18:09:42Z</time>
      </trkpt>
      <trkpt lat="59.956762" lon="17.6909412">
        <ele>30.8995</ele>
        <time>2013-04-17T18:09:43Z</time>
      </trkpt>
      <trkpt lat="59.9567362" lon="17.6908681">
        <ele>30.8995</ele>
        <time>2013-04-17T18:09:44Z</time>
      </trkpt>
      <trkpt lat="59.9567109" lon="17.6907955">
        <ele>31.3801</ele>
        <time>2013-04-17T18:09:45Z</time>
      </trkpt>
      <trkpt lat="59.9566855" lon="17.690721">
        <ele>31.3801</ele>
        <time>2013-04-17T18:09:46Z</time>
      </trkpt>
      <trkpt lat="59.9566591" lon="17.6906439">
        <ele>31.8607</ele>
        <time>2013-04-17T18:09:47Z</time>
      </trkpt>
      <trkpt lat="59.9566326" lon="17.6905692">
        <ele>32.3416</ele>
        <time>2013-04-17T18:09:48Z</time>
      </trkpt>
      <trkpt lat="59.9566067" lon="17.690495">
        <ele>32.3416</ele>
        <time>2013-04-17T18:09:49Z</time>
      </trkpt>
      <trkpt lat="59.9565808" lon="17.69042">
        <ele>32.8223</ele>
        <time>2013-04-17T18:09:50Z</time>
      </trkpt>
      <trkpt lat="59.9565549" lon="17.6903432">
        <ele>32.8223</ele>
        <time>2013-04-17T18:09:51Z</time>
      </trkpt>
      <trkpt lat="59.9565299" lon="17.6902649">
        <ele>32.8223</ele>
        <time>2013-04-17T18:09:52Z</time>
      </trkpt>
      <trkpt lat="59.9565047" lon="17.6901873">
        <ele>33.3029</ele>
        <time>2013-04-17T18:09:53Z</time>
      </trkpt>
      <trkpt lat="59.9564786" lon="17.6901061">
        <ele>33.3029</ele>
        <time>2013-04-17T18:09:54Z</time>
      </trkpt>
      <trkpt lat="59.9564519" lon="17.6900241">
        <ele>33.3029</ele>
        <time>2013-04-17T18:09:55Z</time>
      </trkpt>
      <trkpt lat="59.956427" lon="17.6899404">
        <ele>33.3029</ele>
        <time>2013-04-17T18:09:56Z</time>
      </trkpt>
      <trkpt lat="59.9564016" lon="17.6898572">
        <ele>33.3029</ele>
        <time>2013-04-17T18:09:57Z</time>
      </trkpt>
      <trkpt lat="59.9563737" lon="17.6897777">
        <ele>33.3029</ele>
        <time>2013-04-17T18:09:58Z</time>
      </trkpt>
      <trkpt lat="59.956343" lon="17.6897025">
        <ele>33.3029</ele>
        <time>2013-04-17T18:09:59Z</time>
      </trkpt>
      <trkpt lat="59.9563097" lon="17.6896311">
        <ele>33.3029</ele>
        <time>2013-04-17T18:10:00Z</time>
      </trkpt>
      <trkpt lat="59.9562764" lon="17.689562">
        <ele>32.8223</ele>
        <time>2013-04-17T18:10:01Z</time>
      </trkpt>
      <trkpt lat="59.956243" lon="17.6894921">
        <ele>32.8223</ele>
        <time>2013-04-17T18:10:02Z</time>
      </trkpt>
      <trkpt lat="59.9562098" lon="17.6894207">
        <ele>32.3416</ele>
        <time>2013-04-17T18:10:03Z</time>
      </trkpt>
      <trkpt lat="59.9561745" lon="17.6893424">
        <ele>32.3416</ele>
        <time>2013-04-17T18:10:04Z</time>
      </trkpt>
      <trkpt lat="59.9561437" lon="17.6892534">
        <ele>32.3416</ele>
        <time>2013-04-17T18:10:05Z</time>
      </trkpt>
      <trkpt lat="59.9561208" lon="17.6891585">
        <ele>32.3416</ele>
        <time>2013-04-17T18:10:06Z</time>
      </trkpt>
      <trkpt lat="59.9561022" lon="17.6890628">
        <ele>31.8607</ele>
        <time>2013-04-17T18:10:07Z</time>
      </trkpt>
      <trkpt lat="59.9560868" lon="17.6889696">
        <ele>31.8607</ele>
        <time>2013-04-17T18:10:08Z</time>
      </trkpt>
      <trkpt lat="59.9560756" lon="17.6888784">
        <ele>31.8607</ele>
        <time>2013-04-17T18:10:09Z</time>
      </trkpt>
      <trkpt lat="59.9560654" lon="17.6887851">
        <ele>31.3801</ele>
        <time>2013-04-17T18:10:10Z</time>
      </trkpt>
      <trkpt lat="59.956053" lon="17.6886886">
        <ele>31.3801</ele>
        <time>2013-04-17T18:10:11Z</time>
      </trkpt>
      <trkpt lat="59.9560385" lon="17.6885872">
        <ele>30.8995</ele>
        <time>2013-04-17T18:10:12Z</time>
      </trkpt>
      <trkpt lat="59.9560228" lon="17.6884832">
        <ele>30.8995</ele>
        <time>2013-04-17T18:10:13Z</time>
      </trkpt>
      <trkpt lat="59.956007" lon="17.6883804">
        <ele>30.4188</ele>
        <time>2013-04-17T18:10:14Z</time>
      </trkpt>
      <trkpt lat="59.9559908" lon="17.6882771">
        <ele>30.4188</ele>
        <time>2013-04-17T18:10:15Z</time>
      </trkpt>
      <trkpt lat="59.9559727" lon="17.6881728">
        <ele>30.4188</ele>
        <time>2013-04-17T18:10:16Z</time>
      </trkpt>
      <trkpt lat="59.9559533" lon="17.6880667">
        <ele>29.9381</ele>
        <time>2013-04-17T18:10:17Z</time>
      </trkpt>
      <trkpt lat="59.9559324" lon="17.6879585">
        <ele>29.9381</ele>
        <time>2013-04-17T18:10:18Z</time>
      </trkpt>
      <trkpt lat="59.9559104" lon="17.6878494">
        <ele>29.9381</ele>
        <time>2013-04-17T18:10:19Z</time>
      </trkpt>
      <trkpt lat="59.9558894" lon="17.6877373">
        <ele>29.9381</ele>
        <time>2013-04-17T18:10:20Z</time>
      </trkpt>
      <trkpt lat="59.9558716" lon="17.6876243">
        <ele>29.9381</ele>
        <time>2013-04-17T18:10:21Z</time>
      </trkpt>
      <trkpt lat="59.9558581" lon="17.6875096">
        <ele>29.9381</ele>
        <time>2013-04-17T18:10:22Z</time>
      </trkpt>
      <trkpt lat="59.9558468" lon="17.6873941">
        <ele>29.9381</ele>
        <time>2013-04-17T18:10:23Z</time>
      </trkpt>
      <trkpt lat="59.9558333" lon="17.6872813">
        <ele>29.9381</ele>
        <time>2013-04-17T18:10:24Z</time>
      </trkpt>
      <trkpt lat="59.9558176" lon="17.687171">
        <ele>29.9381</ele>
        <time>2013-04-17T18:10:25Z</time>
      </trkpt>
      <trkpt lat="59.9558002" lon="17.6870615">
        <ele>29.9381</ele>
        <time>2013-04-17T18:10:26Z</time>
      </trkpt>
      <trkpt lat="59.9557827" lon="17.6869514">
        <ele>29.9381</ele>
        <time>2013-04-17T18:10:27Z</time>
      </trkpt>
      <trkpt lat="59.9557664" lon="17.6868401">
        <ele>29.9381</ele>
        <time>2013-04-17T18:10:28Z</time>
      </trkpt>
      <trkpt lat="59.9557506" lon="17.6867292">
        <ele>29.4575</ele>
        <time>2013-04-17T18:10:29Z</time>
      </trkpt>
      <trkpt lat="59.955734" lon="17.6866188">
        <ele>29.4575</ele>
        <time>2013-04-17T18:10:30Z</time>
      </trkpt>
      <trkpt lat="59.9557177" lon="17.6865078">
        <ele>29.4575</ele>
        <time>2013-04-17T18:10:31Z</time>
      </trkpt>
      <trkpt lat="59.9557022" lon="17.6863971">
        <ele>28.9769</ele>
        <time>2013-04-17T18:10:32Z</time>
      </trkpt>
      <trkpt lat="59.9556876" lon="17.6862847">
        <ele>28.9769</ele>
        <time>2013-04-17T18:10:33Z</time>
      </trkpt>
      <trkpt lat="59.9556734" lon="17.6861728">
        <ele>28.9769</ele>
        <time>2013-04-17T18:10:34Z</time>
      </trkpt>
      <trkpt lat="59.9556587" lon="17.6860625">
        <ele>28.9769</ele>
        <time>2013-04-17T18:10:35Z</time>
      </trkpt>
      <trkpt lat="59.9556432" lon="17.6859536">
        <ele>28.9769</ele>
        <time>2013-04-17T18:10:36Z</time>
      </trkpt>
      <trkpt lat="59.9556271" lon="17.685846">
        <ele>28.9769</ele>
        <time>2013-04-17T18:10:37Z</time>
      </trkpt>
      <trkpt lat="59.9556111" lon="17.6857388">
        <ele>28.9769</ele>
        <time>2013-04-17T18:10:38Z</time>
      </trkpt>
      <trkpt lat="59.9555965" lon="17.6856314">
        <ele>28.9769</ele>
        <time>2013-04-17T18:10:39Z</time>
      </trkpt>
      <trkpt lat="59.9555817" lon="17.6855244">
        <ele>28.9769</ele>
        <time>2013-04-17T18:10:40Z</time>
      </trkpt>
      <trkpt lat="59.9555671" lon="17.6854176">
        <ele>28.9769</ele>
        <time>2013-04-17T18:10:41Z</time>
      </trkpt>
      <trkpt lat="59.9555526" lon="17.6853109">
        <ele>28.4962</ele>
        <time>2013-04-17T18:10:42Z</time>
      </trkpt>
      <trkpt lat="59.9555384" lon="17.6852051">
        <ele>28.4962</ele>
        <time>2013-04-17T18:10:43Z</time>
      </trkpt>
      <trkpt lat="59.955524" lon="17.6851003">
        <ele>28.4962</ele>
        <time>2013-04-17T18:10:44Z</time>
      </trkpt>
      <trkpt lat="59.955509" lon="17.684997">
        <ele>28.4962</ele>
        <time>2013-04-17T18:10:45Z</time>
      </trkpt>
      <trkpt lat="59.9554939" lon="17.684895">
        <ele>28.4962</ele>
        <time>2013-04-17T18:10:46Z</time>
      </trkpt>
      <trkpt lat="59.955479" lon="17.6847938">
        <ele>28.4962</ele>
        <time>2013-04-17T18:10:47Z</time>
      </trkpt>
      <trkpt lat="59.9554633" lon="17.6846923">
        <ele>28.4962</ele>
        <time>2013-04-17T18:10:48Z</time>
      </trkpt>
      <trkpt lat="59.9554462" lon="17.6845897">
        <ele>28.4962</ele>
        <time>2013-04-17T18:10:49Z</time>
      </trkpt>
      <trkpt lat="59.9554278" lon="17.6844865">
        <ele>28.4962</ele>
        <time>2013-04-17T18:10:50Z</time>
      </trkpt>
      <trkpt lat="59.9554087" lon="17.684384">
        <ele>28.4962</ele>
        <time>2013-04-17T18:10:51Z</time>
      </trkpt>
      <trkpt lat="59.9553899" lon="17.684281">
        <ele>28.4962</ele>
        <time>2013-04-17T18:10:52Z</time>
      </trkpt>
      <trkpt lat="59.9553718" lon="17.684177">
        <ele>28.4962</ele>
        <time>2013-04-17T18:10:53Z</time>
      </trkpt>
      <trkpt lat="59.9553535" lon="17.6840737">
        <ele>28.4962</ele>
        <time>2013-04-17T18:10:54Z</time>
      </trkpt>
      <trkpt lat="59.9553341" lon="17.6839718">
        <ele>28.4962</ele>
        <time>2013-04-17T18:10:55Z</time>
      </trkpt>
      <trkpt lat="59.9553137" lon="17.6838708">
        <ele>28.4962</ele>
        <time>2013-04-17T18:10:56Z</time>
      </trkpt>
      <trkpt lat="59.9552915" lon="17.6837712">
        <ele>28.4962</ele>
        <time>2013-04-17T18:10:57Z</time>
      </trkpt>
      <trkpt lat="59.9552687" lon="17.6836725">
        <ele>28.4962</ele>
        <time>2013-04-17T18:10:58Z</time>
      </trkpt>
      <trkpt lat="59.9552467" lon="17.6835739">
        <ele>28.0155</ele>
        <time>2013-04-17T18:10:59Z</time>
      </trkpt>
      <trkpt lat="59.9552245" lon="17.6834767">
        <ele>28.0155</ele>
        <time>2013-04-17T18:11:00Z</time>
      </trkpt>
      <trkpt lat="59.9552019" lon="17.6833802">
        <ele>28.0155</ele>
        <time>2013-04-17T18:11:01Z</time>
      </trkpt>
      <trkpt lat="59.955179" lon="17.6832849">
        <ele>28.0155</ele>
        <time>2013-04-17T18:11:02Z</time>
      </trkpt>
      <trkpt lat="59.9551558" lon="17.6831918">
        <ele>28.0155</ele>
        <time>2013-04-17T18:11:03Z</time>
      </trkpt>
      <trkpt lat="59.9551335" lon="17.6831005">
        <ele>28.0155</ele>
        <time>2013-04-17T18:11:04Z</time>
      </trkpt>
      <trkpt lat="59.9551108" lon="17.6830087">
        <ele>28.0155</ele>
        <time>2013-04-17T18:11:05Z</time>
      </trkpt>
      <trkpt lat="59.9550869" lon="17.6829186">
        <ele>28.0155</ele>
        <time>2013-04-17T18:11:06Z</time>
      </trkpt>
      <trkpt lat="59.9550621" lon="17.6828301">
        <ele>28.0155</ele>
        <time>2013-04-17T18:11:07Z</time>
      </trkpt>
      <trkpt lat="59.9550373" lon="17.6827423">
        <ele>28.0155</ele>
        <time>2013-04-17T18:11:08Z</time>
      </trkpt>
      <trkpt lat="59.9550124" lon="17.6826548">
        <ele>28.0155</ele>
        <time>2013-04-17T18:11:09Z</time>
      </trkpt>
      <trkpt lat="59.9549873" lon="17.6825671">
        <ele>28.0155</ele>
        <time>2013-04-17T18:11:10Z</time>
      </trkpt>
      <trkpt lat="59.9549619" lon="17.6824792">
        <ele>28.0155</ele>
        <time>2013-04-17T18:11:11Z</time>
      </trkpt>
      <trkpt lat="59.9549361" lon="17.6823906">
        <ele>28.0155</ele>
        <time>2013-04-17T18:11:12Z</time>
      </trkpt>
      <trkpt lat="59.9549088" lon="17.6823022">
        <ele>27.5349</ele>
        <time>2013-04-17T18:11:13Z</time>
      </trkpt>
      <trkpt lat="59.9548805" lon="17.6822143">
        <ele>27.5349</ele>
        <time>2013-04-17T18:11:14Z</time>
      </trkpt>
      <trkpt lat="59.9548512" lon="17.6821286">
        <ele>27.5349</ele>
        <time>2013-04-17T18:11:15Z</time>
      </trkpt>
      <trkpt lat="59.9548191" lon="17.6820472">
        <ele>27.5349</ele>
        <time>2013-04-17T18:11:16Z</time>
      </trkpt>
      <trkpt lat="59.9547805" lon="17.6819794">
        <ele>27.5349</ele>
        <time>2013-04-17T18:11:17Z</time>
      </trkpt>
      <trkpt lat="59.9547372" lon="17.6819251">
        <ele>27.5349</ele>
        <time>2013-04-17T18:11:18Z</time>
      </trkpt>
      <trkpt lat="59.954694" lon="17.6818717">
        <ele>27.5349</ele>
        <time>2013-04-17T18:11:19Z</time>
      </trkpt>
      <trkpt lat="59.954656" lon="17.681807">
        <ele>27.5349</ele>
        <time>2013-04-17T18:11:20Z</time>
      </trkpt>
      <trkpt lat="59.9546238" lon="17.681733">
        <ele>28.0155</ele>
        <time>2013-04-17T18:11:21Z</time>
      </trkpt>
      <trkpt lat="59.9545947" lon="17.681655">
        <ele>28.0155</ele>
        <time>2013-04-17T18:11:22Z</time>
      </trkpt>
      <trkpt lat="59.9545664" lon="17.6815742">
        <ele>28.0155</ele>
        <time>2013-04-17T18:11:23Z</time>
      </trkpt>
      <trkpt lat="59.9545384" lon="17.6814921">
        <ele>28.0155</ele>
        <time>2013-04-17T18:11:24Z</time>
      </trkpt>
      <trkpt lat="59.9545114" lon="17.6814074">
        <ele>27.5349</ele>
        <time>2013-04-17T18:11:25Z</time>
      </trkpt>
      <trkpt lat="59.9544844" lon="17.68132">
        <ele>27.5349</ele>
        <time>2013-04-17T18:11:26Z</time>
      </trkpt>
      <trkpt lat="59.9544565" lon="17.6812324">
        <ele>27.5349</ele>
        <time>2013-04-17T18:11:27Z</time>
      </trkpt>
      <trkpt lat="59.9544289" lon="17.6811445">
        <ele>27.5349</ele>
        <time>2013-04-17T18:11:28Z</time>
      </trkpt>
      <trkpt lat="59.9544022" lon="17.6810543">
        <ele>27.5349</ele>
        <time>2013-04-17T18:11:29Z</time>
      </trkpt>
      <trkpt lat="59.9543767" lon="17.680964">
        <ele>27.5349</ele>
        <time>2013-04-17T18:11:30Z</time>
      </trkpt>
      <trkpt lat="59.9543509" lon="17.6808787">
        <ele>27.5349</ele>
        <time>2013-04-17T18:11:31Z</time>
      </trkpt>
      <trkpt lat="59.9543249" lon="17.6807969">
        <ele>27.5349</ele>
        <time>2013-04-17T18:11:32Z</time>
      </trkpt>
      <trkpt lat="59.9542994" lon="17.6807157">
        <ele>27.5349</ele>
        <time>2013-04-17T18:11:33Z</time>
      </trkpt>
      <trkpt lat="59.9542739" lon="17.6806354">
        <ele>27.5349</ele>
        <time>2013-04-17T18:11:34Z</time>
      </trkpt>
      <trkpt lat="59.9542475" lon="17.6805575">
        <ele>27.5349</ele>
        <time>2013-04-17T18:11:35Z</time>
      </trkpt>
      <trkpt lat="59.9542211" lon="17.6804816">
        <ele>28.0155</ele>
        <time>2013-04-17T18:11:36Z</time>
      </trkpt>
      <trkpt lat="59.954195" lon="17.6804075">
        <ele>28.0155</ele>
        <time>2013-04-17T18:11:37Z</time>
      </trkpt>
      <trkpt lat="59.9541694" lon="17.6803353">
        <ele>28.0155</ele>
        <time>2013-04-17T18:11:38Z</time>
      </trkpt>
      <trkpt lat="59.9541436" lon="17.6802639">
        <ele>28.0155</ele>
        <time>2013-04-17T18:11:39Z</time>
      </trkpt>
      <trkpt lat="59.9541183" lon="17.6801924">
        <ele>28.0155</ele>
        <time>2013-04-17T18:11:40Z</time>
      </trkpt>
      <trkpt lat="59.954094" lon="17.6801205">
        <ele>28.0155</ele>
        <time>2013-04-17T18:11:41Z</time>
      </trkpt>
      <trkpt lat="59.95407" lon="17.6800494">
        <ele>28.0155</ele>
        <time>2013-04-17T18:11:42Z</time>
      </trkpt>
      <trkpt lat="59.9540451" lon="17.6799788">
        <ele>28.0155</ele>
        <time>2013-04-17T18:11:43Z</time>
      </trkpt>
      <trkpt lat="59.9540188" lon="17.6799055">
        <ele>28.0155</ele>
        <time>2013-04-17T18:11:44Z</time>
      </trkpt>
      <trkpt lat="59.9539923" lon="17.6798283">
        <ele>28.4962</ele>
        <time>2013-04-17T18:11:45Z</time>
      </trkpt>
      <trkpt lat="59.9539659" lon="17.6797498">
        <ele>28.4962</ele>
        <time>2013-04-17T18:11:46Z</time>
      </trkpt>
      <trkpt lat="59.9539398" lon="17.6796724">
        <ele>28.4962</ele>
        <time>2013-04-17T18:11:47Z</time>
      </trkpt>
      <trkpt lat="59.953915" lon="17.6795968">
        <ele>28.4962</ele>
        <time>2013-04-17T18:11:48Z</time>
      </trkpt>
      <trkpt lat="59.9538901" lon="17.6795234">
        <ele>28.4962</ele>
        <time>2013-04-17T18:11:49Z</time>
      </trkpt>
      <trkpt lat="59.9538653" lon="17.6794502">
        <ele>28.4962</ele>
        <time>2013-04-17T18:11:50Z</time>
      </trkpt>
      <trkpt lat="59.9538411" lon="17.6793755">
        <ele>28.4962</ele>
        <time>2013-04-17T18:11:51Z</time>
      </trkpt>
      <trkpt lat="59.9538177" lon="17.6792973">
        <ele>28.4962</ele>
        <time>2013-04-17T18:11:52Z</time>
      </trkpt>
      <trkpt lat="59.9537942" lon="17.6792185">
        <ele>28.4962</ele>
        <time>2013-04-17T18:11:53Z</time>
      </trkpt>
      <trkpt lat="59.9537696" lon="17.6791422">
        <ele>28.4962</ele>
        <time>2013-04-17T18:11:54Z</time>
      </trkpt>
      <trkpt lat="59.9537442" lon="17.6790683">
        <ele>28.4962</ele>
        <time>2013-04-17T18:11:55Z</time>
      </trkpt>
      <trkpt lat="59.9537191" lon="17.6789946">
        <ele>28.4962</ele>
        <time>2013-04-17T18:11:56Z</time>
      </trkpt>
      <trkpt lat="59.9536925" lon="17.6789216">
        <ele>28.4962</ele>
        <time>2013-04-17T18:11:57Z</time>
      </trkpt>
      <trkpt lat="59.953665" lon="17.6788482">
        <ele>28.4962</ele>
        <time>2013-04-17T18:11:58Z</time>
      </trkpt>
      <trkpt lat="59.9536385" lon="17.6787725">
        <ele>28.4962</ele>
        <time>2013-04-17T18:11:59Z</time>
      </trkpt>
      <trkpt lat="59.9536132" lon="17.6786958">
        <ele>28.0155</ele>
        <time>2013-04-17T18:12:00Z</time>
      </trkpt>
      <trkpt lat="59.9535872" lon="17.6786213">
        <ele>28.0155</ele>
        <time>2013-04-17T18:12:01Z</time>
      </trkpt>
      <trkpt lat="59.9535614" lon="17.6785462">
        <ele>28.0155</ele>
        <time>2013-04-17T18:12:02Z</time>
      </trkpt>
      <trkpt lat="59.953537" lon="17.6784712">
        <ele>28.0155</ele>
        <time>2013-04-17T18:12:03Z</time>
      </trkpt>
      <trkpt lat="59.953512" lon="17.6784">
        <ele>28.0155</ele>
        <time>2013-04-17T18:12:04Z</time>
      </trkpt>
      <trkpt lat="59.9534861" lon="17.6783299">
        <ele>28.0155</ele>
        <time>2013-04-17T18:12:05Z</time>
      </trkpt>
      <trkpt lat="59.9534591" lon="17.6782587">
        <ele>28.0155</ele>
        <time>2013-04-17T18:12:06Z</time>
      </trkpt>
      <trkpt lat="59.9534313" lon="17.6781867">
        <ele>28.0155</ele>
        <time>2013-04-17T18:12:07Z</time>
      </trkpt>
      <trkpt lat="59.9534044" lon="17.6781105">
        <ele>28.0155</ele>
        <time>2013-04-17T18:12:08Z</time>
      </trkpt>
      <trkpt lat="59.9533784" lon="17.6780308">
        <ele>28.0155</ele>
        <time>2013-04-17T18:12:09Z</time>
      </trkpt>
      <trkpt lat="59.953354" lon="17.6779477">
        <ele>28.0155</ele>
        <time>2013-04-17T18:12:10Z</time>
      </trkpt>
      <trkpt lat="59.9533284" lon="17.6778655">
        <ele>28.0155</ele>
        <time>2013-04-17T18:12:11Z</time>
      </trkpt>
      <trkpt lat="59.9533006" lon="17.6777873">
        <ele>28.0155</ele>
        <time>2013-04-17T18:12:12Z</time>
      </trkpt>
      <trkpt lat="59.9532717" lon="17.677712">
        <ele>28.0155</ele>
        <time>2013-04-17T18:12:13Z</time>
      </trkpt>
      <trkpt lat="59.9532431" lon="17.6776372">
        <ele>28.0155</ele>
        <time>2013-04-17T18:12:14Z</time>
      </trkpt>
      <trkpt lat="59.9532158" lon="17.6775609">
        <ele>28.0155</ele>
        <time>2013-04-17T18:12:15Z</time>
      </trkpt>
      <trkpt lat="59.9531898" lon="17.6774822">
        <ele>28.0155</ele>
        <time>2013-04-17T18:12:16Z</time>
      </trkpt>
      <trkpt lat="59.953164" lon="17.677403">
        <ele>28.0155</ele>
        <time>2013-04-17T18:12:17Z</time>
      </trkpt>
      <trkpt lat="59.9531366" lon="17.6773247">
        <ele>27.5349</ele>
        <time>2013-04-17T18:12:18Z</time>
      </trkpt>
      <trkpt lat="59.9531085" lon="17.6772457">
        <ele>28.0155</ele>
        <time>2013-04-17T18:12:19Z</time>
      </trkpt>
      <trkpt lat="59.9530795" lon="17.6771662">
        <ele>28.0155</ele>
        <time>2013-04-17T18:12:20Z</time>
      </trkpt>
      <trkpt lat="59.9530494" lon="17.6770854">
        <ele>28.0155</ele>
        <time>2013-04-17T18:12:21Z</time>
      </trkpt>
      <trkpt lat="59.9530184" lon="17.677003">
        <ele>28.0155</ele>
        <time>2013-04-17T18:12:22Z</time>
      </trkpt>
      <trkpt lat="59.9529858" lon="17.6769213">
        <ele>28.0155</ele>
        <time>2013-04-17T18:12:23Z</time>
      </trkpt>
      <trkpt lat="59.9529532" lon="17.6768409">
        <ele>28.0155</ele>
        <time>2013-04-17T18:12:24Z</time>
      </trkpt>
      <trkpt lat="59.9529211" lon="17.6767625">
        <ele>28.0155</ele>
        <time>2013-04-17T18:12:25Z</time>
      </trkpt>
      <trkpt lat="59.9528893" lon="17.6766848">
        <ele>28.0155</ele>
        <time>2013-04-17T18:12:26Z</time>
      </trkpt>
      <trkpt lat="59.9528565" lon="17.6766099">
        <ele>28.0155</ele>
        <time>2013-04-17T18:12:27Z</time>
      </trkpt>
      <trkpt lat="59.9528232" lon="17.6765385">
        <ele>28.0155</ele>
        <time>2013-04-17T18:12:28Z</time>
      </trkpt>
      <trkpt lat="59.9527926" lon="17.6764664">
        <ele>28.0155</ele>
        <time>2013-04-17T18:12:29Z</time>
      </trkpt>
      <trkpt lat="59.9527662" lon="17.6763907">
        <ele>28.0155</ele>
        <time>2013-04-17T18:12:30Z</time>
      </trkpt>
      <trkpt lat="59.9527408" lon="17.6763131">
        <ele>28.0155</ele>
        <time>2013-04-17T18:12:31Z</time>
      </trkpt>
      <trkpt lat="59.9527149" lon="17.676232">
        <ele>28.0155</ele>
        <time>2013-04-17T18:12:32Z</time>
      </trkpt>
      <trkpt lat="59.9526878" lon="17.6761493">
        <ele>28.4962</ele>
        <time>2013-04-17T18:12:33Z</time>
      </trkpt>
      <trkpt lat="59.9526595" lon="17.6760659">
        <ele>28.4962</ele>
        <time>2013-04-17T18:12:34Z</time>
      </trkpt>
      <trkpt lat="59.9526313" lon="17.675981">
        <ele>28.9769</ele>
        <time>2013-04-17T18:12:35Z</time>
      </trkpt>
      <trkpt lat="59.9526025" lon="17.6758976">
        <ele>28.9769</ele>
        <time>2013-04-17T18:12:36Z</time>
      </trkpt>
      <trkpt lat="59.9525724" lon="17.6758176">
        <ele>29.4575</ele>
        <time>2013-04-17T18:12:37Z</time>
      </trkpt>
      <trkpt lat="59.9525413" lon="17.6757437">
        <ele>29.9381</ele>
        <time>2013-04-17T18:12:38Z</time>
      </trkpt>
      <trkpt lat="59.9525111" lon="17.6756739">
        <ele>29.9381</ele>
        <time>2013-04-17T18:12:39Z</time>
      </trkpt>
      <trkpt lat="59.9524835" lon="17.6756054">
        <ele>30.4188</ele>
        <time>2013-04-17T18:12:40Z</time>
      </trkpt>
      <trkpt lat="59.9524579" lon="17.6755401">
        <ele>30.8995</ele>
        <time>2013-04-17T18:12:41Z</time>
      </trkpt>
      <trkpt lat="59.9524331" lon="17.6754764">
        <ele>30.8995</ele>
        <time>2013-04-17T18:12:42Z</time>
      </trkpt>
      <trkpt lat="59.9524089" lon="17.6754118">
        <ele>31.3801</ele>
        <time>2013-04-17T18:12:43Z</time>
      </trkpt>
      <trkpt lat="59.9523851" lon="17.675346">
        <ele>31.8607</ele>
        <time>2013-04-17T18:12:44Z</time>
      </trkpt>
      <trkpt lat="59.9523623" lon="17.6752787">
        <ele>31.8607</ele>
        <time>2013-04-17T18:12:45Z</time>
      </trkpt>
      <trkpt lat="59.9523417" lon="17.6752076">
        <ele>31.8607</ele>
        <time>2013-04-17T18:12:46Z</time>
      </trkpt>
      <trkpt lat="59.9523224" lon="17.6751344">
        <ele>31.8607</ele>
        <time>2013-04-17T18:12:47Z</time>
      </trkpt>
      <trkpt lat="59.9523045" lon="17.6750618">
        <ele>32.3416</ele>
        <time>2013-04-17T18:12:48Z</time>
      </trkpt>
      <trkpt lat="59.9522876" lon="17.6749855">
        <ele>31.8607</ele>
        <time>2013-04-17T18:12:49Z</time>
      </trkpt>
      <trkpt lat="59.952272" lon="17.6749017">
        <ele>31.8607</ele>
        <time>2013-04-17T18:12:50Z</time>
      </trkpt>
      <trkpt lat="59.9522569" lon="17.6748096">
        <ele>31.3801</ele>
        <time>2013-04-17T18:12:51Z</time>
      </trkpt>
      <trkpt lat="59.9522405" lon="17.6747111">
        <ele>31.3801</ele>
        <time>2013-04-17T18:12:52Z</time>
      </trkpt>
      <trkpt lat="59.9522233" lon="17.6746077">
        <ele>30.8995</ele>
        <time>2013-04-17T18:12:53Z</time>
      </trkpt>
      <trkpt lat="59.9522063" lon="17.6745015">
        <ele>30.4188</ele>
        <time>2013-04-17T18:12:54Z</time>
      </trkpt>
      <trkpt lat="59.9521885" lon="17.6743939">
        <ele>29.9381</ele>
        <time>2013-04-17T18:12:55Z</time>
      </trkpt>
      <trkpt lat="59.9521667" lon="17.6742881">
        <ele>29.9381</ele>
        <time>2013-04-17T18:12:56Z</time>
      </trkpt>
      <trkpt lat="59.952144" lon="17.674184">
        <ele>29.9381</ele>
        <time>2013-04-17T18:12:57Z</time>
      </trkpt>
      <trkpt lat="59.9521218" lon="17.6740804">
        <ele>29.4575</ele>
        <time>2013-04-17T18:12:58Z</time>
      </trkpt>
      <trkpt lat="59.9521001" lon="17.6739771">
        <ele>29.4575</ele>
        <time>2013-04-17T18:12:59Z</time>
      </trkpt>
      <trkpt lat="59.9520791" lon="17.6738723">
        <ele>28.9769</ele>
        <time>2013-04-17T18:13:00Z</time>
      </trkpt>
      <trkpt lat="59.9520582" lon="17.6737652">
        <ele>28.9769</ele>
        <time>2013-04-17T18:13:01Z</time>
      </trkpt>
      <trkpt lat="59.9520388" lon="17.6736547">
        <ele>28.9769</ele>
        <time>2013-04-17T18:13:02Z</time>
      </trkpt>
      <trkpt lat="59.9520202" lon="17.6735443">
        <ele>28.9769</ele>
        <time>2013-04-17T18:13:03Z</time>
      </trkpt>
      <trkpt lat="59.952002" lon="17.6734324">
        <ele>28.9769</ele>
        <time>2013-04-17T18:13:04Z</time>
      </trkpt>
      <trkpt lat="59.951984" lon="17.6733187">
        <ele>28.9769</ele>
        <time>2013-04-17T18:13:05Z</time>
      </trkpt>
      <trkpt lat="59.9519659" lon="17.6732029">
        <ele>28.9769</ele>
        <time>2013-04-17T18:13:06Z</time>
      </trkpt>
      <trkpt lat="59.9519488" lon="17.6730864">
        <ele>28.9769</ele>
        <time>2013-04-17T18:13:07Z</time>
      </trkpt>
      <trkpt lat="59.9519325" lon="17.6729716">
        <ele>28.9769</ele>
        <time>2013-04-17T18:13:08Z</time>
      </trkpt>
      <trkpt lat="59.9519172" lon="17.6728569">
        <ele>28.9769</ele>
        <time>2013-04-17T18:13:09Z</time>
      </trkpt>
      <trkpt lat="59.9519028" lon="17.6727412">
        <ele>28.4962</ele>
        <time>2013-04-17T18:13:10Z</time>
      </trkpt>
      <trkpt lat="59.9518891" lon="17.6726236">
        <ele>28.4962</ele>
        <time>2013-04-17T18:13:11Z</time>
      </trkpt>
      <trkpt lat="59.9518757" lon="17.6725031">
        <ele>28.4962</ele>
        <time>2013-04-17T18:13:12Z</time>
      </trkpt>
      <trkpt lat="59.9518632" lon="17.6723803">
        <ele>28.4962</ele>
        <time>2013-04-17T18:13:13Z</time>
      </trkpt>
      <trkpt lat="59.9518507" lon="17.6722558">
        <ele>28.0155</ele>
        <time>2013-04-17T18:13:14Z</time>
      </trkpt>
      <trkpt lat="59.9518374" lon="17.67213">
        <ele>28.0155</ele>
        <time>2013-04-17T18:13:15Z</time>
      </trkpt>
      <trkpt lat="59.9518255" lon="17.6720046">
        <ele>28.0155</ele>
        <time>2013-04-17T18:13:16Z</time>
      </trkpt>
      <trkpt lat="59.9518186" lon="17.671881">
        <ele>28.0155</ele>
        <time>2013-04-17T18:13:17Z</time>
      </trkpt>
      <trkpt lat="59.9518161" lon="17.6717574">
        <ele>28.0155</ele>
        <time>2013-04-17T18:13:18Z</time>
      </trkpt>
      <trkpt lat="59.951814" lon="17.6716319">
        <ele>28.0155</ele>
        <time>2013-04-17T18:13:19Z</time>
      </trkpt>
      <trkpt lat="59.9518115" lon="17.6715037">
        <ele>28.0155</ele>
        <time>2013-04-17T18:13:20Z</time>
      </trkpt>
      <trkpt lat="59.9518041" lon="17.6713738">
        <ele>27.5349</ele>
        <time>2013-04-17T18:13:21Z</time>
      </trkpt>
      <trkpt lat="59.9517844" lon="17.6712482">
        <ele>27.0543</ele>
        <time>2013-04-17T18:13:22Z</time>
      </trkpt>
      <trkpt lat="59.9517574" lon="17.6711241">
        <ele>27.0543</ele>
        <time>2013-04-17T18:13:23Z</time>
      </trkpt>
      <trkpt lat="59.951735" lon="17.6709929">
        <ele>26.5736</ele>
        <time>2013-04-17T18:13:24Z</time>
      </trkpt>
      <trkpt lat="59.9517245" lon="17.6708561">
        <ele>26.0929</ele>
        <time>2013-04-17T18:13:25Z</time>
      </trkpt>
      <trkpt lat="59.9517255" lon="17.6707195">
        <ele>25.6123</ele>
        <time>2013-04-17T18:13:26Z</time>
      </trkpt>
      <trkpt lat="59.9517336" lon="17.670586">
        <ele>25.6123</ele>
        <time>2013-04-17T18:13:27Z</time>
      </trkpt>
      <trkpt lat="59.9517442" lon="17.6704538">
        <ele>25.1317</ele>
        <time>2013-04-17T18:13:28Z</time>
      </trkpt>
      <trkpt lat="59.9517556" lon="17.6703243">
        <ele>25.1317</ele>
        <time>2013-04-17T18:13:29Z</time>
      </trkpt>
      <trkpt lat="59.9517664" lon="17.6701962">
        <ele>25.1317</ele>
        <time>2013-04-17T18:13:30Z</time>
      </trkpt>
      <trkpt lat="59.9517763" lon="17.6700669">
        <ele>25.1317</ele>
        <time>2013-04-17T18:13:31Z</time>
      </trkpt>
      <trkpt lat="59.9517851" lon="17.6699367">
        <ele>24.651</ele>
        <time>2013-04-17T18:13:32Z</time>
      </trkpt>
      <trkpt lat="59.9517913" lon="17.6698057">
        <ele>24.651</ele>
        <time>2013-04-17T18:13:33Z</time>
      </trkpt>
      <trkpt lat="59.9517964" lon="17.6696755">
        <ele>24.651</ele>
        <time>2013-04-17T18:13:34Z</time>
      </trkpt>
      <trkpt lat="59.9518026" lon="17.6695478">
        <ele>24.651</ele>
        <time>2013-04-17T18:13:35Z</time>
      </trkpt>
      <trkpt lat="59.9518084" lon="17.6694233">
        <ele>24.651</ele>
        <time>2013-04-17T18:13:36Z</time>
      </trkpt>
      <trkpt lat="59.9518131" lon="17.6693041">
        <ele>24.651</ele>
        <time>2013-04-17T18:13:37Z</time>
      </trkpt>
      <trkpt lat="59.9518162" lon="17.6691926">
        <ele>24.651</ele>
        <time>2013-04-17T18:13:38Z</time>
      </trkpt>
      <trkpt lat="59.9518183" lon="17.6690889">
        <ele>24.651</ele>
        <time>2013-04-17T18:13:39Z</time>
      </trkpt>
      <trkpt lat="59.9518204" lon="17.66899">
        <ele>24.651</ele>
        <time>2013-04-17T18:13:40Z</time>
      </trkpt>
      <trkpt lat="59.9518217" lon="17.668893">
        <ele>24.651</ele>
        <time>2013-04-17T18:13:41Z</time>
      </trkpt>
      <trkpt lat="59.9518184" lon="17.6687946">
        <ele>24.1703</ele>
        <time>2013-04-17T18:13:42Z</time>
      </trkpt>
      <trkpt lat="59.9518079" lon="17.6686967">
        <ele>24.1703</ele>
        <time>2013-04-17T18:13:43Z</time>
      </trkpt>
      <trkpt lat="59.9517921" lon="17.6686038">
        <ele>24.1703</ele>
        <time>2013-04-17T18:13:44Z</time>
      </trkpt>
      <trkpt lat="59.951778" lon="17.668516">
        <ele>23.6896</ele>
        <time>2013-04-17T18:13:45Z</time>
      </trkpt>
      <trkpt lat="59.9517804" lon="17.6684375">
        <ele>23.6896</ele>
        <time>2013-04-17T18:13:46Z</time>
      </trkpt>
      <trkpt lat="59.9518135" lon="17.6683966">
        <ele>23.209</ele>
        <time>2013-04-17T18:13:47Z</time>
      </trkpt>
      <trkpt lat="59.9518545" lon="17.6683821">
        <ele>23.209</ele>
        <time>2013-04-17T18:13:48Z</time>
      </trkpt>
      <trkpt lat="59.9518838" lon="17.6683863">
        <ele>23.209</ele>
        <time>2013-04-17T18:13:49Z</time>
      </trkpt>
      <trkpt lat="59.9518991" lon="17.6683919">
        <ele>23.209</ele>
        <time>2013-04-17T18:13:50Z</time>
      </trkpt>
      <trkpt lat="59.9519094" lon="17.6683966">
        <ele>23.209</ele>
        <time>2013-04-17T18:13:51Z</time>
      </trkpt>
      <trkpt lat="59.9519421" lon="17.6683962">
        <ele>22.7283</ele>
        <time>2013-04-17T18:13:57Z</time>
      </trkpt>
      <trkpt lat="59.9519664" lon="17.6684109">
        <ele>22.2476</ele>
        <time>2013-04-17T18:13:58Z</time>
      </trkpt>
      <trkpt lat="59.9519968" lon="17.6684356">
        <ele>22.2476</ele>
        <time>2013-04-17T18:13:59Z</time>
      </trkpt>
      <trkpt lat="59.9520333" lon="17.6684656">
        <ele>22.2476</ele>
        <time>2013-04-17T18:14:00Z</time>
      </trkpt>
      <trkpt lat="59.9520741" lon="17.6684839">
        <ele>21.767</ele>
        <time>2013-04-17T18:14:01Z</time>
      </trkpt>
      <trkpt lat="59.9521204" lon="17.6684797">
        <ele>21.767</ele>
        <time>2013-04-17T18:14:02Z</time>
      </trkpt>
      <trkpt lat="59.9521691" lon="17.668451">
        <ele>21.767</ele>
        <time>2013-04-17T18:14:03Z</time>
      </trkpt>
      <trkpt lat="59.952214" lon="17.6683947">
        <ele>21.2864</ele>
        <time>2013-04-17T18:14:04Z</time>
      </trkpt>
      <trkpt lat="59.9522533" lon="17.6683149">
        <ele>20.8057</ele>
        <time>2013-04-17T18:14:05Z</time>
      </trkpt>
      <trkpt lat="59.9522819" lon="17.6682192">
        <ele>20.8057</ele>
        <time>2013-04-17T18:14:06Z</time>
      </trkpt>
      <trkpt lat="59.9523021" lon="17.6681141">
        <ele>20.8057</ele>
        <time>2013-04-17T18:14:07Z</time>
      </trkpt>
      <trkpt lat="59.9523378" lon="17.6680138">
        <ele>20.325</ele>
        <time>2013-04-17T18:14:08Z</time>
      </trkpt>
      <trkpt lat="59.9523911" lon="17.6679612">
        <ele>20.325</ele>
        <time>2013-04-17T18:14:09Z</time>
      </trkpt>
      <trkpt lat="59.9524513" lon="17.6679342">
        <ele>19.8444</ele>
        <time>2013-04-17T18:14:10Z</time>
      </trkpt>
      <trkpt lat="59.9525145" lon="17.667913">
        <ele>19.8444</ele>
        <time>2013-04-17T18:14:11Z</time>
      </trkpt>
      <trkpt lat="59.9525802" lon="17.6678876">
        <ele>19.3638</ele>
        <time>2013-04-17T18:14:12Z</time>
      </trkpt>
      <trkpt lat="59.9526486" lon="17.6678611">
        <ele>19.3638</ele>
        <time>2013-04-17T18:14:13Z</time>
      </trkpt>
      <trkpt lat="59.9527201" lon="17.6678426">
        <ele>18.8831</ele>
        <time>2013-04-17T18:14:14Z</time>
      </trkpt>
      <trkpt lat="59.9527947" lon="17.6678342">
        <ele>18.8831</ele>
        <time>2013-04-17T18:14:15Z</time>
      </trkpt>
      <trkpt lat="59.9528715" lon="17.6678337">
        <ele>18.8831</ele>
        <time>2013-04-17T18:14:16Z</time>
      </trkpt>
      <trkpt lat="59.9529497" lon="17.667838">
        <ele>18.4023</ele>
        <time>2013-04-17T18:14:17Z</time>
      </trkpt>
      <trkpt lat="59.9530292" lon="17.6678442">
        <ele>18.4023</ele>
        <time>2013-04-17T18:14:18Z</time>
      </trkpt>
      <trkpt lat="59.9531103" lon="17.6678501">
        <ele>18.4023</ele>
        <time>2013-04-17T18:14:19Z</time>
      </trkpt>
      <trkpt lat="59.953193" lon="17.6678578">
        <ele>18.4023</ele>
        <time>2013-04-17T18:14:20Z</time>
      </trkpt>
      <trkpt lat="59.9532773" lon="17.6678689">
        <ele>17.9218</ele>
        <time>2013-04-17T18:14:21Z</time>
      </trkpt>
      <trkpt lat="59.953363" lon="17.6678819">
        <ele>17.9218</ele>
        <time>2013-04-17T18:14:22Z</time>
      </trkpt>
      <trkpt lat="59.9534504" lon="17.6678943">
        <ele>17.9218</ele>
        <time>2013-04-17T18:14:23Z</time>
      </trkpt>
      <trkpt lat="59.9535391" lon="17.6679057">
        <ele>17.9218</ele>
        <time>2013-04-17T18:14:24Z</time>
      </trkpt>
      <trkpt lat="59.9536292" lon="17.6679187">
        <ele>17.4412</ele>
        <time>2013-04-17T18:14:25Z</time>
      </trkpt>
      <trkpt lat="59.9537199" lon="17.6679347">
        <ele>17.4412</ele>
        <time>2013-04-17T18:14:26Z</time>
      </trkpt>
      <trkpt lat="59.9538114" lon="17.6679508">
        <ele>17.4412</ele>
        <time>2013-04-17T18:14:27Z</time>
      </trkpt>
      <trkpt lat="59.9539031" lon="17.6679666">
        <ele>17.4412</ele>
        <time>2013-04-17T18:14:28Z</time>
      </trkpt>
      <trkpt lat="59.953994" lon="17.667982">
        <ele>17.4412</ele>
        <time>2013-04-17T18:14:29Z</time>
      </trkpt>
      <trkpt lat="59.9540847" lon="17.6679962">
        <ele>17.4412</ele>
        <time>2013-04-17T18:14:30Z</time>
      </trkpt>
      <trkpt lat="59.9541757" lon="17.6680115">
        <ele>17.4412</ele>
        <time>2013-04-17T18:14:31Z</time>
      </trkpt>
      <trkpt lat="59.9542658" lon="17.6680285">
        <ele>17.4412</ele>
        <time>2013-04-17T18:14:32Z</time>
      </trkpt>
      <trkpt lat="59.9543549" lon="17.6680438">
        <ele>17.9218</ele>
        <time>2013-04-17T18:14:33Z</time>
      </trkpt>
      <trkpt lat="59.9544431" lon="17.668057">
        <ele>17.9218</ele>
        <time>2013-04-17T18:14:34Z</time>
      </trkpt>
      <trkpt lat="59.9545304" lon="17.6680703">
        <ele>18.4023</ele>
        <time>2013-04-17T18:14:35Z</time>
      </trkpt>
      <trkpt lat="59.954616" lon="17.6680849">
        <ele>18.4023</ele>
        <time>2013-04-17T18:14:36Z</time>
      </trkpt>
      <trkpt lat="59.9547003" lon="17.6681">
        <ele>18.8831</ele>
        <time>2013-04-17T18:14:37Z</time>
      </trkpt>
      <trkpt lat="59.9547834" lon="17.6681135">
        <ele>18.8831</ele>
        <time>2013-04-17T18:14:38Z</time>
      </trkpt>
      <trkpt lat="59.9548657" lon="17.668127">
        <ele>19.3638</ele>
        <time>2013-04-17T18:14:39Z</time>
      </trkpt>
      <trkpt lat="59.9549465" lon="17.6681417">
        <ele>19.3638</ele>
        <time>2013-04-17T18:14:40Z</time>
      </trkpt>
      <trkpt lat="59.9550267" lon="17.6681567">
        <ele>19.8444</ele>
        <time>2013-04-17T18:14:41Z</time>
      </trkpt>
      <trkpt lat="59.9551061" lon="17.6681703">
        <ele>19.8444</ele>
        <time>2013-04-17T18:14:42Z</time>
      </trkpt>
      <trkpt lat="59.9551853" lon="17.6681826">
        <ele>20.325</ele>
        <time>2013-04-17T18:14:43Z</time>
      </trkpt>
      <trkpt lat="59.9552641" lon="17.6681959">
        <ele>20.325</ele>
        <time>2013-04-17T18:14:44Z</time>
      </trkpt>
      <trkpt lat="59.9553426" lon="17.6682094">
        <ele>20.325</ele>
        <time>2013-04-17T18:14:45Z</time>
      </trkpt>
      <trkpt lat="59.9554214" lon="17.6682225">
        <ele>20.8057</ele>
        <time>2013-04-17T18:14:46Z</time>
      </trkpt>
      <trkpt lat="59.9555003" lon="17.6682353">
        <ele>20.8057</ele>
        <time>2013-04-17T18:14:47Z</time>
      </trkpt>
      <trkpt lat="59.9555793" lon="17.668249">
        <ele>21.2864</ele>
        <time>2013-04-17T18:14:48Z</time>
      </trkpt>
      <trkpt lat="59.9556591" lon="17.668263">
        <ele>21.2864</ele>
        <time>2013-04-17T18:14:49Z</time>
      </trkpt>
      <trkpt lat="59.955739" lon="17.6682761">
        <ele>21.767</ele>
        <time>2013-04-17T18:14:50Z</time>
      </trkpt>
      <trkpt lat="59.955819" lon="17.6682902">
        <ele>21.767</ele>
        <time>2013-04-17T18:14:51Z</time>
      </trkpt>
      <trkpt lat="59.9558997" lon="17.668303">
        <ele>21.767</ele>
        <time>2013-04-17T18:14:52Z</time>
      </trkpt>
      <trkpt lat="59.9559702" lon="17.6683233">
        <ele>22.2476</ele>
        <time>2013-04-17T18:14:53Z</time>
      </trkpt>
      <trkpt lat="59.9560494" lon="17.66833">
        <ele>22.2476</ele>
        <time>2013-04-17T18:14:54Z</time>
      </trkpt>
      <trkpt lat="59.9561343" lon="17.6683402">
        <ele>22.2476</ele>
        <time>2013-04-17T18:14:55Z</time>
      </trkpt>
      <trkpt lat="59.9562172" lon="17.668351">
        <ele>22.2476</ele>
        <time>2013-04-17T18:14:56Z</time>
      </trkpt>
      <trkpt lat="59.9562997" lon="17.6683639">
        <ele>22.2476</ele>
        <time>2013-04-17T18:14:57Z</time>
      </trkpt>
      <trkpt lat="59.9563796" lon="17.6683849">
        <ele>22.2476</ele>
        <time>2013-04-17T18:14:58Z</time>
      </trkpt>
      <trkpt lat="59.9564611" lon="17.6684087">
        <ele>22.2476</ele>
        <time>2013-04-17T18:14:59Z</time>
      </trkpt>
      <trkpt lat="59.9565423" lon="17.6684339">
        <ele>22.2476</ele>
        <time>2013-04-17T18:15:00Z</time>
      </trkpt>
      <trkpt lat="59.9566231" lon="17.66846">
        <ele>22.2476</ele>
        <time>2013-04-17T18:15:01Z</time>
      </trkpt>
      <trkpt lat="59.9567024" lon="17.668488">
        <ele>22.2476</ele>
        <time>2013-04-17T18:15:02Z</time>
      </trkpt>
      <trkpt lat="59.9567817" lon="17.668518">
        <ele>22.2476</ele>
        <time>2013-04-17T18:15:03Z</time>
      </trkpt>
      <trkpt lat="59.9568626" lon="17.6685482">
        <ele>22.2476</ele>
        <time>2013-04-17T18:15:04Z</time>
      </trkpt>
      <trkpt lat="59.956944" lon="17.668579">
        <ele>22.2476</ele>
        <time>2013-04-17T18:15:05Z</time>
      </trkpt>
      <trkpt lat="59.9570261" lon="17.6686152">
        <ele>21.767</ele>
        <time>2013-04-17T18:15:06Z</time>
      </trkpt>
      <trkpt lat="59.957109" lon="17.6686525">
        <ele>21.767</ele>
        <time>2013-04-17T18:15:07Z</time>
      </trkpt>
      <trkpt lat="59.9571925" lon="17.668689">
        <ele>21.767</ele>
        <time>2013-04-17T18:15:08Z</time>
      </trkpt>
      <trkpt lat="59.9572766" lon="17.6687286">
        <ele>21.767</ele>
        <time>2013-04-17T18:15:09Z</time>
      </trkpt>
      <trkpt lat="59.957362" lon="17.6687708">
        <ele>21.767</ele>
        <time>2013-04-17T18:15:10Z</time>
      </trkpt>
      <trkpt lat="59.9574484" lon="17.6688144">
        <ele>21.767</ele>
        <time>2013-04-17T18:15:11Z</time>
      </trkpt>
      <trkpt lat="59.9575355" lon="17.6688584">
        <ele>21.767</ele>
        <time>2013-04-17T18:15:12Z</time>
      </trkpt>
      <trkpt lat="59.9576231" lon="17.6689075">
        <ele>21.767</ele>
        <time>2013-04-17T18:15:13Z</time>
      </trkpt>
      <trkpt lat="59.9577114" lon="17.6689609">
        <ele>21.767</ele>
        <time>2013-04-17T18:15:14Z</time>
      </trkpt>
      <trkpt lat="59.9578006" lon="17.6690142">
        <ele>21.767</ele>
        <time>2013-04-17T18:15:15Z</time>
      </trkpt>
      <trkpt lat="59.9578904" lon="17.669069">
        <ele>22.2476</ele>
        <time>2013-04-17T18:15:16Z</time>
      </trkpt>
      <trkpt lat="59.9579805" lon="17.6691259">
        <ele>22.2476</ele>
        <time>2013-04-17T18:15:17Z</time>
      </trkpt>
      <trkpt lat="59.9580702" lon="17.6691842">
        <ele>22.2476</ele>
        <time>2013-04-17T18:15:18Z</time>
      </trkpt>
      <trkpt lat="59.9581598" lon="17.6692444">
        <ele>22.2476</ele>
        <time>2013-04-17T18:15:19Z</time>
      </trkpt>
      <trkpt lat="59.9582493" lon="17.669309">
        <ele>22.7283</ele>
        <time>2013-04-17T18:15:20Z</time>
      </trkpt>
      <trkpt lat="59.9583386" lon="17.6693779">
        <ele>22.7283</ele>
        <time>2013-04-17T18:15:21Z</time>
      </trkpt>
      <trkpt lat="59.9584273" lon="17.669449">
        <ele>22.7283</ele>
        <time>2013-04-17T18:15:22Z</time>
      </trkpt>
      <trkpt lat="59.9585159" lon="17.6695219">
        <ele>22.7283</ele>
        <time>2013-04-17T18:15:23Z</time>
      </trkpt>
      <trkpt lat="59.9586053" lon="17.6695953">
        <ele>22.7283</ele>
        <time>2013-04-17T18:15:24Z</time>
      </trkpt>
      <trkpt lat="59.9586952" lon="17.6696693">
        <ele>22.7283</ele>
        <time>2013-04-17T18:15:25Z</time>
      </trkpt>
      <trkpt lat="59.9587845" lon="17.6697448">
        <ele>22.7283</ele>
        <time>2013-04-17T18:15:26Z</time>
      </trkpt>
      <trkpt lat="59.9588735" lon="17.6698223">
        <ele>22.7283</ele>
        <time>2013-04-17T18:15:27Z</time>
      </trkpt>
      <trkpt lat="59.9589621" lon="17.6699026">
        <ele>22.7283</ele>
        <time>2013-04-17T18:15:28Z</time>
      </trkpt>
      <trkpt lat="59.9590502" lon="17.6699855">
        <ele>22.7283</ele>
        <time>2013-04-17T18:15:29Z</time>
      </trkpt>
      <trkpt lat="59.9591382" lon="17.6700698">
        <ele>22.7283</ele>
        <time>2013-04-17T18:15:30Z</time>
      </trkpt>
      <trkpt lat="59.9592257" lon="17.670157">
        <ele>22.7283</ele>
        <time>2013-04-17T18:15:31Z</time>
      </trkpt>
      <trkpt lat="59.9593128" lon="17.6702476">
        <ele>22.7283</ele>
        <time>2013-04-17T18:15:32Z</time>
      </trkpt>
      <trkpt lat="59.9594" lon="17.6703391">
        <ele>22.7283</ele>
        <time>2013-04-17T18:15:33Z</time>
      </trkpt>
      <trkpt lat="59.9594878" lon="17.670431">
        <ele>23.209</ele>
        <time>2013-04-17T18:15:34Z</time>
      </trkpt>
      <trkpt lat="59.9595748" lon="17.6705243">
        <ele>23.209</ele>
        <time>2013-04-17T18:15:35Z</time>
      </trkpt>
      <trkpt lat="59.9596592" lon="17.6706196">
        <ele>23.209</ele>
        <time>2013-04-17T18:15:36Z</time>
      </trkpt>
      <trkpt lat="59.9597408" lon="17.6707163">
        <ele>23.209</ele>
        <time>2013-04-17T18:15:37Z</time>
      </trkpt>
      <trkpt lat="59.9598209" lon="17.6708133">
        <ele>23.209</ele>
        <time>2013-04-17T18:15:38Z</time>
      </trkpt>
      <trkpt lat="59.9599001" lon="17.6709122">
        <ele>23.209</ele>
        <time>2013-04-17T18:15:39Z</time>
      </trkpt>
      <trkpt lat="59.9599789" lon="17.6710117">
        <ele>23.209</ele>
        <time>2013-04-17T18:15:40Z</time>
      </trkpt>
      <trkpt lat="59.9600571" lon="17.6711111">
        <ele>23.209</ele>
        <time>2013-04-17T18:15:41Z</time>
      </trkpt>
      <trkpt lat="59.9601345" lon="17.6712118">
        <ele>23.6896</ele>
        <time>2013-04-17T18:15:42Z</time>
      </trkpt>
      <trkpt lat="59.9602116" lon="17.6713136">
        <ele>23.6896</ele>
        <time>2013-04-17T18:15:43Z</time>
      </trkpt>
      <trkpt lat="59.9602881" lon="17.6714161">
        <ele>23.6896</ele>
        <time>2013-04-17T18:15:44Z</time>
      </trkpt>
      <trkpt lat="59.9603633" lon="17.6715208">
        <ele>23.6896</ele>
        <time>2013-04-17T18:15:45Z</time>
      </trkpt>
      <trkpt lat="59.9604373" lon="17.6716287">
        <ele>23.6896</ele>
        <time>2013-04-17T18:15:46Z</time>
      </trkpt>
      <trkpt lat="59.9605111" lon="17.6717362">
        <ele>24.1703</ele>
        <time>2013-04-17T18:15:47Z</time>
      </trkpt>
      <trkpt lat="59.9605841" lon="17.6718445">
        <ele>24.1703</ele>
        <time>2013-04-17T18:15:48Z</time>
      </trkpt>
      <trkpt lat="59.9606564" lon="17.671956">
        <ele>24.1703</ele>
        <time>2013-04-17T18:15:49Z</time>
      </trkpt>
      <trkpt lat="59.9607278" lon="17.6720703">
        <ele>24.1703</ele>
        <time>2013-04-17T18:15:50Z</time>
      </trkpt>
      <trkpt lat="59.9607984" lon="17.6721855">
        <ele>24.1703</ele>
        <time>2013-04-17T18:15:51Z</time>
      </trkpt>
      <trkpt lat="59.9608687" lon="17.6723">
        <ele>24.651</ele>
        <time>2013-04-17T18:15:52Z</time>
      </trkpt>
      <trkpt lat="59.9609382" lon="17.6724155">
        <ele>24.651</ele>
        <time>2013-04-17T18:15:53Z</time>
      </trkpt>
      <trkpt lat="59.9610067" lon="17.6725334">
        <ele>24.651</ele>
        <time>2013-04-17T18:15:54Z</time>
      </trkpt>
      <trkpt lat="59.9610745" lon="17.6726542">
        <ele>24.651</ele>
        <time>2013-04-17T18:15:55Z</time>
      </trkpt>
      <trkpt lat="59.9611423" lon="17.6727748">
        <ele>24.651</ele>
        <time>2013-04-17T18:15:56Z</time>
      </trkpt>
      <trkpt lat="59.9612099" lon="17.6728957">
        <ele>24.651</ele>
        <time>2013-04-17T18:15:57Z</time>
      </trkpt>
      <trkpt lat="59.9612766" lon="17.673019">
        <ele>24.651</ele>
        <time>2013-04-17T18:15:58Z</time>
      </trkpt>
      <trkpt lat="59.9613422" lon="17.6731434">
        <ele>25.1317</ele>
        <time>2013-04-17T18:15:59Z</time>
      </trkpt>
      <trkpt lat="59.9614069" lon="17.6732691">
        <ele>25.1317</ele>
        <time>2013-04-17T18:16:00Z</time>
      </trkpt>
      <trkpt lat="59.9614704" lon="17.6733951">
        <ele>25.1317</ele>
        <time>2013-04-17T18:16:01Z</time>
      </trkpt>
      <trkpt lat="59.9615331" lon="17.6735211">
        <ele>25.1317</ele>
        <time>2013-04-17T18:16:02Z</time>
      </trkpt>
      <trkpt lat="59.9615946" lon="17.6736479">
        <ele>25.1317</ele>
        <time>2013-04-17T18:16:03Z</time>
      </trkpt>
      <trkpt lat="59.9616553" lon="17.6737742">
        <ele>25.6123</ele>
        <time>2013-04-17T18:16:04Z</time>
      </trkpt>
      <trkpt lat="59.961716" lon="17.6739">
        <ele>25.6123</ele>
        <time>2013-04-17T18:16:05Z</time>
      </trkpt>
      <trkpt lat="59.9617757" lon="17.6740284">
        <ele>25.6123</ele>
        <time>2013-04-17T18:16:06Z</time>
      </trkpt>
      <trkpt lat="59.9618335" lon="17.6741596">
        <ele>25.6123</ele>
        <time>2013-04-17T18:16:07Z</time>
      </trkpt>
      <trkpt lat="59.9618905" lon="17.6742907">
        <ele>26.0929</ele>
        <time>2013-04-17T18:16:08Z</time>
      </trkpt>
      <trkpt lat="59.9619472" lon="17.6744207">
        <ele>26.0929</ele>
        <time>2013-04-17T18:16:09Z</time>
      </trkpt>
      <trkpt lat="59.9620024" lon="17.6745502">
        <ele>26.0929</ele>
        <time>2013-04-17T18:16:10Z</time>
      </trkpt>
      <trkpt lat="59.962056" lon="17.6746802">
        <ele>26.5736</ele>
        <time>2013-04-17T18:16:11Z</time>
      </trkpt>
      <trkpt lat="59.9621085" lon="17.6748103">
        <ele>26.5736</ele>
        <time>2013-04-17T18:16:12Z</time>
      </trkpt>
      <trkpt lat="59.9621609" lon="17.6749391">
        <ele>26.5736</ele>
        <time>2013-04-17T18:16:13Z</time>
      </trkpt>
      <trkpt lat="59.9622131" lon="17.6750667">
        <ele>26.5736</ele>
        <time>2013-04-17T18:16:14Z</time>
      </trkpt>
      <trkpt lat="59.9622644" lon="17.6751951">
        <ele>27.0543</ele>
        <time>2013-04-17T18:16:15Z</time>
      </trkpt>
      <trkpt lat="59.9623155" lon="17.6753236">
        <ele>27.0543</ele>
        <time>2013-04-17T18:16:16Z</time>
      </trkpt>
      <trkpt lat="59.9623664" lon="17.6754521">
        <ele>27.0543</ele>
        <time>2013-04-17T18:16:17Z</time>
      </trkpt>
      <trkpt lat="59.9624172" lon="17.6755812">
        <ele>27.5349</ele>
        <time>2013-04-17T18:16:18Z</time>
      </trkpt>
      <trkpt lat="59.9624685" lon="17.6757094">
        <ele>27.5349</ele>
        <time>2013-04-17T18:16:19Z</time>
      </trkpt>
      <trkpt lat="59.9625203" lon="17.6758371">
        <ele>27.5349</ele>
        <time>2013-04-17T18:16:20Z</time>
      </trkpt>
      <trkpt lat="59.9625716" lon="17.6759681">
        <ele>28.0155</ele>
        <time>2013-04-17T18:16:21Z</time>
      </trkpt>
      <trkpt lat="59.9626239" lon="17.6760996">
        <ele>28.0155</ele>
        <time>2013-04-17T18:16:22Z</time>
      </trkpt>
      <trkpt lat="59.9626769" lon="17.6762311">
        <ele>28.0155</ele>
        <time>2013-04-17T18:16:23Z</time>
      </trkpt>
      <trkpt lat="59.9627296" lon="17.6763648">
        <ele>28.0155</ele>
        <time>2013-04-17T18:16:24Z</time>
      </trkpt>
      <trkpt lat="59.9627814" lon="17.6764994">
        <ele>28.4962</ele>
        <time>2013-04-17T18:16:25Z</time>
      </trkpt>
      <trkpt lat="59.962833" lon="17.6766345">
        <ele>28.4962</ele>
        <time>2013-04-17T18:16:26Z</time>
      </trkpt>
      <trkpt lat="59.9628855" lon="17.676769">
        <ele>28.4962</ele>
        <time>2013-04-17T18:16:27Z</time>
      </trkpt>
      <trkpt lat="59.9629395" lon="17.676902">
        <ele>28.4962</ele>
        <time>2013-04-17T18:16:28Z</time>
      </trkpt>
      <trkpt lat="59.9629928" lon="17.6770346">
        <ele>28.9769</ele>
        <time>2013-04-17T18:16:29Z</time>
      </trkpt>
      <trkpt lat="59.9630446" lon="17.6771665">
        <ele>28.9769</ele>
        <time>2013-04-17T18:16:30Z</time>
      </trkpt>
      <trkpt lat="59.9630968" lon="17.6772962">
        <ele>28.9769</ele>
        <time>2013-04-17T18:16:31Z</time>
      </trkpt>
      <trkpt lat="59.9631488" lon="17.6774251">
        <ele>28.9769</ele>
        <time>2013-04-17T18:16:32Z</time>
      </trkpt>
      <trkpt lat="59.9632008" lon="17.6775534">
        <ele>28.9769</ele>
        <time>2013-04-17T18:16:33Z</time>
      </trkpt>
      <trkpt lat="59.9632527" lon="17.6776816">
        <ele>28.9769</ele>
        <time>2013-04-17T18:16:34Z</time>
      </trkpt>
      <trkpt lat="59.9633047" lon="17.6778101">
        <ele>28.9769</ele>
        <time>2013-04-17T18:16:35Z</time>
      </trkpt>
      <trkpt lat="59.9633568" lon="17.6779391">
        <ele>28.9769</ele>
        <time>2013-04-17T18:16:36Z</time>
      </trkpt>
      <trkpt lat="59.9634085" lon="17.6780692">
        <ele>29.4575</ele>
        <time>2013-04-17T18:16:37Z</time>
      </trkpt>
      <trkpt lat="59.9634605" lon="17.6781995">
        <ele>29.4575</ele>
        <time>2013-04-17T18:16:38Z</time>
      </trkpt>
      <trkpt lat="59.9635123" lon="17.6783305">
        <ele>29.4575</ele>
        <time>2013-04-17T18:16:39Z</time>
      </trkpt>
      <trkpt lat="59.9635647" lon="17.6784617">
        <ele>29.4575</ele>
        <time>2013-04-17T18:16:40Z</time>
      </trkpt>
      <trkpt lat="59.9636175" lon="17.6785933">
        <ele>29.4575</ele>
        <time>2013-04-17T18:16:41Z</time>
      </trkpt>
      <trkpt lat="59.9636702" lon="17.6787267">
        <ele>29.4575</ele>
        <time>2013-04-17T18:16:42Z</time>
      </trkpt>
      <trkpt lat="59.9637226" lon="17.6788609">
        <ele>29.4575</ele>
        <time>2013-04-17T18:16:43Z</time>
      </trkpt>
      <trkpt lat="59.9637755" lon="17.6789937">
        <ele>29.9381</ele>
        <time>2013-04-17T18:16:44Z</time>
      </trkpt>
      <trkpt lat="59.9638288" lon="17.6791246">
        <ele>29.9381</ele>
        <time>2013-04-17T18:16:45Z</time>
      </trkpt>
      <trkpt lat="59.9638817" lon="17.6792563">
        <ele>29.9381</ele>
        <time>2013-04-17T18:16:46Z</time>
      </trkpt>
      <trkpt lat="59.963934" lon="17.6793895">
        <ele>29.9381</ele>
        <time>2013-04-17T18:16:47Z</time>
      </trkpt>
      <trkpt lat="59.9639872" lon="17.6795236">
        <ele>29.9381</ele>
        <time>2013-04-17T18:16:48Z</time>
      </trkpt>
      <trkpt lat="59.9640407" lon="17.6796599">
        <ele>29.9381</ele>
        <time>2013-04-17T18:16:49Z</time>
      </trkpt>
      <trkpt lat="59.9640954" lon="17.6797978">
        <ele>29.9381</ele>
        <time>2013-04-17T18:16:50Z</time>
      </trkpt>
      <trkpt lat="59.9641513" lon="17.679936">
        <ele>29.9381</ele>
        <time>2013-04-17T18:16:51Z</time>
      </trkpt>
      <trkpt lat="59.9642073" lon="17.6800742">
        <ele>29.9381</ele>
        <time>2013-04-17T18:16:52Z</time>
      </trkpt>
      <trkpt lat="59.9642634" lon="17.6802126">
        <ele>29.9381</ele>
        <time>2013-04-17T18:16:53Z</time>
      </trkpt>
      <trkpt lat="59.9643199" lon="17.6803523">
        <ele>29.9381</ele>
        <time>2013-04-17T18:16:54Z</time>
      </trkpt>
      <trkpt lat="59.9643757" lon="17.6804952">
        <ele>29.9381</ele>
        <time>2013-04-17T18:16:55Z</time>
      </trkpt>
      <trkpt lat="59.9644322" lon="17.6806398">
        <ele>30.4188</ele>
        <time>2013-04-17T18:16:56Z</time>
      </trkpt>
      <trkpt lat="59.9644898" lon="17.6807832">
        <ele>29.9381</ele>
        <time>2013-04-17T18:16:57Z</time>
      </trkpt>
      <trkpt lat="59.9645478" lon="17.6809265">
        <ele>30.4188</ele>
        <time>2013-04-17T18:16:58Z</time>
      </trkpt>
      <trkpt lat="59.9646056" lon="17.6810719">
        <ele>30.4188</ele>
        <time>2013-04-17T18:16:59Z</time>
      </trkpt>
      <trkpt lat="59.9646644" lon="17.6812182">
        <ele>29.9381</ele>
        <time>2013-04-17T18:17:00Z</time>
      </trkpt>
      <trkpt lat="59.9647237" lon="17.6813658">
        <ele>29.9381</ele>
        <time>2013-04-17T18:17:01Z</time>
      </trkpt>
      <trkpt lat="59.9647826" lon="17.6815159">
        <ele>29.9381</ele>
        <time>2013-04-17T18:17:02Z</time>
      </trkpt>
      <trkpt lat="59.9648426" lon="17.681666">
        <ele>29.9381</ele>
        <time>2013-04-17T18:17:03Z</time>
      </trkpt>
      <trkpt lat="59.9649023" lon="17.6818149">
        <ele>29.9381</ele>
        <time>2013-04-17T18:17:04Z</time>
      </trkpt>
      <trkpt lat="59.9649613" lon="17.6819635">
        <ele>29.9381</ele>
        <time>2013-04-17T18:17:05Z</time>
      </trkpt>
      <trkpt lat="59.9650208" lon="17.6821111">
        <ele>29.4575</ele>
        <time>2013-04-17T18:17:06Z</time>
      </trkpt>
      <trkpt lat="59.9650801" lon="17.6822592">
        <ele>29.4575</ele>
        <time>2013-04-17T18:17:07Z</time>
      </trkpt>
      <trkpt lat="59.9651377" lon="17.68241">
        <ele>29.4575</ele>
        <time>2013-04-17T18:17:08Z</time>
      </trkpt>
      <trkpt lat="59.9651953" lon="17.6825618">
        <ele>29.4575</ele>
        <time>2013-04-17T18:17:09Z</time>
      </trkpt>
      <trkpt lat="59.9652547" lon="17.6827124">
        <ele>29.4575</ele>
        <time>2013-04-17T18:17:10Z</time>
      </trkpt>
      <trkpt lat="59.9653151" lon="17.6828626">
        <ele>29.4575</ele>
        <time>2013-04-17T18:17:11Z</time>
      </trkpt>
      <trkpt lat="59.9653756" lon="17.6830133">
        <ele>28.9769</ele>
        <time>2013-04-17T18:17:12Z</time>
      </trkpt>
      <trkpt lat="59.9654366" lon="17.6831645">
        <ele>28.9769</ele>
        <time>2013-04-17T18:17:13Z</time>
      </trkpt>
      <trkpt lat="59.9654977" lon="17.6833174">
        <ele>28.9769</ele>
        <time>2013-04-17T18:17:14Z</time>
      </trkpt>
      <trkpt lat="59.9655593" lon="17.6834714">
        <ele>28.9769</ele>
        <time>2013-04-17T18:17:15Z</time>
      </trkpt>
      <trkpt lat="59.9656217" lon="17.6836252">
        <ele>28.9769</ele>
        <time>2013-04-17T18:17:16Z</time>
      </trkpt>
      <trkpt lat="59.9656843" lon="17.6837796">
        <ele>28.9769</ele>
        <time>2013-04-17T18:17:17Z</time>
      </trkpt>
      <trkpt lat="59.9657469" lon="17.683935">
        <ele>28.9769</ele>
        <time>2013-04-17T18:17:18Z</time>
      </trkpt>
      <trkpt lat="59.9658097" lon="17.6840909">
        <ele>28.9769</ele>
        <time>2013-04-17T18:17:19Z</time>
      </trkpt>
      <trkpt lat="59.9658725" lon="17.6842475">
        <ele>28.4962</ele>
        <time>2013-04-17T18:17:20Z</time>
      </trkpt>
      <trkpt lat="59.9659356" lon="17.6844048">
        <ele>28.4962</ele>
        <time>2013-04-17T18:17:21Z</time>
      </trkpt>
      <trkpt lat="59.9659987" lon="17.6845624">
        <ele>28.4962</ele>
        <time>2013-04-17T18:17:22Z</time>
      </trkpt>
      <trkpt lat="59.9660618" lon="17.6847211">
        <ele>28.4962</ele>
        <time>2013-04-17T18:17:23Z</time>
      </trkpt>
      <trkpt lat="59.9661247" lon="17.6848783">
        <ele>28.4962</ele>
        <time>2013-04-17T18:17:24Z</time>
      </trkpt>
      <trkpt lat="59.9661868" lon="17.6850333">
        <ele>28.4962</ele>
        <time>2013-04-17T18:17:25Z</time>
      </trkpt>
      <trkpt lat="59.9662479" lon="17.6851876">
        <ele>28.4962</ele>
        <time>2013-04-17T18:17:26Z</time>
      </trkpt>
      <trkpt lat="59.9663095" lon="17.6853414">
        <ele>28.4962</ele>
        <time>2013-04-17T18:17:27Z</time>
      </trkpt>
      <trkpt lat="59.9663715" lon="17.6854958">
        <ele>28.4962</ele>
        <time>2013-04-17T18:17:28Z</time>
      </trkpt>
      <trkpt lat="59.9664339" lon="17.6856507">
        <ele>28.4962</ele>
        <time>2013-04-17T18:17:29Z</time>
      </trkpt>
      <trkpt lat="59.9664961" lon="17.685806">
        <ele>28.4962</ele>
        <time>2013-04-17T18:17:30Z</time>
      </trkpt>
      <trkpt lat="59.9665588" lon="17.6859618">
        <ele>28.4962</ele>
        <time>2013-04-17T18:17:31Z</time>
      </trkpt>
      <trkpt lat="59.9666225" lon="17.6861177">
        <ele>28.4962</ele>
        <time>2013-04-17T18:17:32Z</time>
      </trkpt>
      <trkpt lat="59.9666867" lon="17.6862728">
        <ele>28.4962</ele>
        <time>2013-04-17T18:17:33Z</time>
      </trkpt>
      <trkpt lat="59.9667508" lon="17.6864288">
        <ele>28.0155</ele>
        <time>2013-04-17T18:17:34Z</time>
      </trkpt>
      <trkpt lat="59.966815" lon="17.6865861">
        <ele>28.0155</ele>
        <time>2013-04-17T18:17:35Z</time>
      </trkpt>
      <trkpt lat="59.9668799" lon="17.6867433">
        <ele>28.0155</ele>
        <time>2013-04-17T18:17:36Z</time>
      </trkpt>
      <trkpt lat="59.9669453" lon="17.6869002">
        <ele>28.0155</ele>
        <time>2013-04-17T18:17:37Z</time>
      </trkpt>
      <trkpt lat="59.9670113" lon="17.6870576">
        <ele>28.0155</ele>
        <time>2013-04-17T18:17:38Z</time>
      </trkpt>
      <trkpt lat="59.9670776" lon="17.6872155">
        <ele>28.0155</ele>
        <time>2013-04-17T18:17:39Z</time>
      </trkpt>
      <trkpt lat="59.9671444" lon="17.6873736">
        <ele>27.5349</ele>
        <time>2013-04-17T18:17:40Z</time>
      </trkpt>
      <trkpt lat="59.967211" lon="17.6875336">
        <ele>27.5349</ele>
        <time>2013-04-17T18:17:41Z</time>
      </trkpt>
      <trkpt lat="59.9672784" lon="17.6876946">
        <ele>27.5349</ele>
        <time>2013-04-17T18:17:42Z</time>
      </trkpt>
      <trkpt lat="59.9673473" lon="17.6878557">
        <ele>27.5349</ele>
        <time>2013-04-17T18:17:43Z</time>
      </trkpt>
      <trkpt lat="59.9674167" lon="17.6880154">
        <ele>27.5349</ele>
        <time>2013-04-17T18:17:44Z</time>
      </trkpt>
      <trkpt lat="59.9674856" lon="17.6881713">
        <ele>27.5349</ele>
        <time>2013-04-17T18:17:45Z</time>
      </trkpt>
      <trkpt lat="59.9675539" lon="17.6883237">
        <ele>27.5349</ele>
        <time>2013-04-17T18:17:46Z</time>
      </trkpt>
      <trkpt lat="59.9676217" lon="17.6884721">
        <ele>27.5349</ele>
        <time>2013-04-17T18:17:47Z</time>
      </trkpt>
      <trkpt lat="59.967689" lon="17.6886173">
        <ele>27.5349</ele>
        <time>2013-04-17T18:17:48Z</time>
      </trkpt>
      <trkpt lat="59.9677557" lon="17.6887625">
        <ele>27.5349</ele>
        <time>2013-04-17T18:17:49Z</time>
      </trkpt>
      <trkpt lat="59.9678227" lon="17.6889088">
        <ele>27.0543</ele>
        <time>2013-04-17T18:17:50Z</time>
      </trkpt>
      <trkpt lat="59.9678903" lon="17.6890562">
        <ele>27.0543</ele>
        <time>2013-04-17T18:17:51Z</time>
      </trkpt>
      <trkpt lat="59.9679583" lon="17.6892051">
        <ele>27.0543</ele>
        <time>2013-04-17T18:17:52Z</time>
      </trkpt>
      <trkpt lat="59.9680273" lon="17.689354">
        <ele>27.0543</ele>
        <time>2013-04-17T18:17:53Z</time>
      </trkpt>
      <trkpt lat="59.9680972" lon="17.6895036">
        <ele>27.0543</ele>
        <time>2013-04-17T18:17:54Z</time>
      </trkpt>
      <trkpt lat="59.9681677" lon="17.6896536">
        <ele>27.0543</ele>
        <time>2013-04-17T18:17:55Z</time>
      </trkpt>
      <trkpt lat="59.9682385" lon="17.6898035">
        <ele>27.0543</ele>
        <time>2013-04-17T18:17:56Z</time>
      </trkpt>
      <trkpt lat="59.9683094" lon="17.6899532">
        <ele>27.0543</ele>
        <time>2013-04-17T18:17:57Z</time>
      </trkpt>
      <trkpt lat="59.9683806" lon="17.6901025">
        <ele>26.5736</ele>
        <time>2013-04-17T18:17:58Z</time>
      </trkpt>
      <trkpt lat="59.9684519" lon="17.6902511">
        <ele>26.5736</ele>
        <time>2013-04-17T18:17:59Z</time>
      </trkpt>
      <trkpt lat="59.9685228" lon="17.6903993">
        <ele>26.5736</ele>
        <time>2013-04-17T18:18:00Z</time>
      </trkpt>
      <trkpt lat="59.9685933" lon="17.6905469">
        <ele>26.5736</ele>
        <time>2013-04-17T18:18:01Z</time>
      </trkpt>
      <trkpt lat="59.968664" lon="17.690693">
        <ele>26.5736</ele>
        <time>2013-04-17T18:18:02Z</time>
      </trkpt>
      <trkpt lat="59.9687349" lon="17.6908383">
        <ele>26.5736</ele>
        <time>2013-04-17T18:18:03Z</time>
      </trkpt>
      <trkpt lat="59.9688059" lon="17.6909831">
        <ele>26.5736</ele>
        <time>2013-04-17T18:18:04Z</time>
      </trkpt>
      <trkpt lat="59.9688768" lon="17.6911271">
        <ele>26.5736</ele>
        <time>2013-04-17T18:18:05Z</time>
      </trkpt>
      <trkpt lat="59.9689467" lon="17.69127">
        <ele>26.0929</ele>
        <time>2013-04-17T18:18:06Z</time>
      </trkpt>
      <trkpt lat="59.9690156" lon="17.6914098">
        <ele>26.0929</ele>
        <time>2013-04-17T18:18:07Z</time>
      </trkpt>
      <trkpt lat="59.969084" lon="17.6915461">
        <ele>26.0929</ele>
        <time>2013-04-17T18:18:08Z</time>
      </trkpt>
      <trkpt lat="59.9691514" lon="17.6916804">
        <ele>26.0929</ele>
        <time>2013-04-17T18:18:09Z</time>
      </trkpt>
      <trkpt lat="59.9692177" lon="17.6918119">
        <ele>26.0929</ele>
        <time>2013-04-17T18:18:10Z</time>
      </trkpt>
      <trkpt lat="59.9692835" lon="17.6919414">
        <ele>26.0929</ele>
        <time>2013-04-17T18:18:11Z</time>
      </trkpt>
      <trkpt lat="59.9693493" lon="17.6920703">
        <ele>26.0929</ele>
        <time>2013-04-17T18:18:12Z</time>
      </trkpt>
      <trkpt lat="59.9694155" lon="17.6921989">
        <ele>26.0929</ele>
        <time>2013-04-17T18:18:13Z</time>
      </trkpt>
      <trkpt lat="59.9694819" lon="17.6923281">
        <ele>25.6123</ele>
        <time>2013-04-17T18:18:14Z</time>
      </trkpt>
      <trkpt lat="59.969549" lon="17.6924579">
        <ele>25.6123</ele>
        <time>2013-04-17T18:18:15Z</time>
      </trkpt>
      <trkpt lat="59.9696167" lon="17.6925878">
        <ele>25.6123</ele>
        <time>2013-04-17T18:18:16Z</time>
      </trkpt>
      <trkpt lat="59.969685" lon="17.6927169">
        <ele>25.6123</ele>
        <time>2013-04-17T18:18:17Z</time>
      </trkpt>
      <trkpt lat="59.9697536" lon="17.6928463">
        <ele>25.6123</ele>
        <time>2013-04-17T18:18:18Z</time>
      </trkpt>
      <trkpt lat="59.9698223" lon="17.6929754">
        <ele>25.6123</ele>
        <time>2013-04-17T18:18:19Z</time>
      </trkpt>
      <trkpt lat="59.9698916" lon="17.6931048">
        <ele>25.6123</ele>
        <time>2013-04-17T18:18:20Z</time>
      </trkpt>
      <trkpt lat="59.9699611" lon="17.6932348">
        <ele>25.6123</ele>
        <time>2013-04-17T18:18:21Z</time>
      </trkpt>
      <trkpt lat="59.9700315" lon="17.6933649">
        <ele>25.6123</ele>
        <time>2013-04-17T18:18:22Z</time>
      </trkpt>
      <trkpt lat="59.9701025" lon="17.6934952">
        <ele>25.6123</ele>
        <time>2013-04-17T18:18:23Z</time>
      </trkpt>
      <trkpt lat="59.9701738" lon="17.6936261">
        <ele>25.6123</ele>
        <time>2013-04-17T18:18:24Z</time>
      </trkpt>
      <trkpt lat="59.9702454" lon="17.6937578">
        <ele>25.6123</ele>
        <time>2013-04-17T18:18:25Z</time>
      </trkpt>
      <trkpt lat="59.9703175" lon="17.6938891">
        <ele>25.6123</ele>
        <time>2013-04-17T18:18:26Z</time>
      </trkpt>
      <trkpt lat="59.9703913" lon="17.6940202">
        <ele>25.6123</ele>
        <time>2013-04-17T18:18:27Z</time>
      </trkpt>
      <trkpt lat="59.9704646" lon="17.6941521">
        <ele>25.6123</ele>
        <time>2013-04-17T18:18:28Z</time>
      </trkpt>
      <trkpt lat="59.9705384" lon="17.6942842">
        <ele>25.6123</ele>
        <time>2013-04-17T18:18:29Z</time>
      </trkpt>
      <trkpt lat="59.9706122" lon="17.6944162">
        <ele>25.6123</ele>
        <time>2013-04-17T18:18:30Z</time>
      </trkpt>
      <trkpt lat="59.970686" lon="17.6945466">
        <ele>25.6123</ele>
        <time>2013-04-17T18:18:31Z</time>
      </trkpt>
      <trkpt lat="59.9707598" lon="17.694676">
        <ele>25.6123</ele>
        <time>2013-04-17T18:18:32Z</time>
      </trkpt>
      <trkpt lat="59.9708332" lon="17.6948034">
        <ele>25.6123</ele>
        <time>2013-04-17T18:18:33Z</time>
      </trkpt>
      <trkpt lat="59.9709055" lon="17.6949282">
        <ele>25.6123</ele>
        <time>2013-04-17T18:18:34Z</time>
      </trkpt>
      <trkpt lat="59.9709769" lon="17.6950511">
        <ele>26.0929</ele>
        <time>2013-04-17T18:18:35Z</time>
      </trkpt>
      <trkpt lat="59.9710477" lon="17.6951727">
        <ele>26.0929</ele>
        <time>2013-04-17T18:18:36Z</time>
      </trkpt>
      <trkpt lat="59.9711178" lon="17.6952934">
        <ele>26.0929</ele>
        <time>2013-04-17T18:18:37Z</time>
      </trkpt>
      <trkpt lat="59.9711883" lon="17.6954122">
        <ele>26.0929</ele>
        <time>2013-04-17T18:18:38Z</time>
      </trkpt>
      <trkpt lat="59.9712587" lon="17.6955291">
        <ele>26.5736</ele>
        <time>2013-04-17T18:18:39Z</time>
      </trkpt>
      <trkpt lat="59.9713281" lon="17.6956452">
        <ele>26.5736</ele>
        <time>2013-04-17T18:18:40Z</time>
      </trkpt>
      <trkpt lat="59.9713975" lon="17.6957599">
        <ele>26.0929</ele>
        <time>2013-04-17T18:18:41Z</time>
      </trkpt>
      <trkpt lat="59.9714662" lon="17.6958741">
        <ele>26.5736</ele>
        <time>2013-04-17T18:18:42Z</time>
      </trkpt>
      <trkpt lat="59.9715345" lon="17.6959885">
        <ele>26.5736</ele>
        <time>2013-04-17T18:18:43Z</time>
      </trkpt>
      <trkpt lat="59.9716031" lon="17.6961015">
        <ele>26.5736</ele>
        <time>2013-04-17T18:18:44Z</time>
      </trkpt>
      <trkpt lat="59.9716725" lon="17.6962139">
        <ele>26.5736</ele>
        <time>2013-04-17T18:18:45Z</time>
      </trkpt>
      <trkpt lat="59.971742" lon="17.6963263">
        <ele>26.5736</ele>
        <time>2013-04-17T18:18:46Z</time>
      </trkpt>
      <trkpt lat="59.9718117" lon="17.6964382">
        <ele>26.5736</ele>
        <time>2013-04-17T18:18:47Z</time>
      </trkpt>
      <trkpt lat="59.9718813" lon="17.6965492">
        <ele>26.5736</ele>
        <time>2013-04-17T18:18:48Z</time>
      </trkpt>
      <trkpt lat="59.9719507" lon="17.6966604">
        <ele>26.5736</ele>
        <time>2013-04-17T18:18:49Z</time>
      </trkpt>
      <trkpt lat="59.9720201" lon="17.6967711">
        <ele>26.5736</ele>
        <time>2013-04-17T18:18:50Z</time>
      </trkpt>
      <trkpt lat="59.9720898" lon="17.6968821">
        <ele>26.5736</ele>
        <time>2013-04-17T18:18:51Z</time>
      </trkpt>
      <trkpt lat="59.9721598" lon="17.6969934">
        <ele>26.5736</ele>
        <time>2013-04-17T18:18:52Z</time>
      </trkpt>
      <trkpt lat="59.9722303" lon="17.6971043">
        <ele>26.5736</ele>
        <time>2013-04-17T18:18:53Z</time>
      </trkpt>
      <trkpt lat="59.972301" lon="17.6972155">
        <ele>26.5736</ele>
        <time>2013-04-17T18:18:54Z</time>
      </trkpt>
      <trkpt lat="59.9723717" lon="17.6973271">
        <ele>26.5736</ele>
        <time>2013-04-17T18:18:55Z</time>
      </trkpt>
      <trkpt lat="59.9724421" lon="17.6974376">
        <ele>27.0543</ele>
        <time>2013-04-17T18:18:56Z</time>
      </trkpt>
      <trkpt lat="59.9725125" lon="17.6975468">
        <ele>27.0543</ele>
        <time>2013-04-17T18:18:57Z</time>
      </trkpt>
      <trkpt lat="59.9725827" lon="17.697655">
        <ele>27.0543</ele>
        <time>2013-04-17T18:18:58Z</time>
      </trkpt>
      <trkpt lat="59.9726526" lon="17.6977624">
        <ele>27.0543</ele>
        <time>2013-04-17T18:18:59Z</time>
      </trkpt>
      <trkpt lat="59.972722" lon="17.6978684">
        <ele>27.0543</ele>
        <time>2013-04-17T18:19:00Z</time>
      </trkpt>
      <trkpt lat="59.9727912" lon="17.6979726">
        <ele>27.0543</ele>
        <time>2013-04-17T18:19:01Z</time>
      </trkpt>
      <trkpt lat="59.9728603" lon="17.698076">
        <ele>27.5349</ele>
        <time>2013-04-17T18:19:02Z</time>
      </trkpt>
      <trkpt lat="59.9729292" lon="17.6981791">
        <ele>27.5349</ele>
        <time>2013-04-17T18:19:03Z</time>
      </trkpt>
      <trkpt lat="59.9729979" lon="17.6982816">
        <ele>27.5349</ele>
        <time>2013-04-17T18:19:04Z</time>
      </trkpt>
      <trkpt lat="59.9730663" lon="17.6983829">
        <ele>27.5349</ele>
        <time>2013-04-17T18:19:05Z</time>
      </trkpt>
      <trkpt lat="59.9731348" lon="17.6984828">
        <ele>27.5349</ele>
        <time>2013-04-17T18:19:06Z</time>
      </trkpt>
      <trkpt lat="59.9732028" lon="17.6985821">
        <ele>27.5349</ele>
        <time>2013-04-17T18:19:07Z</time>
      </trkpt>
      <trkpt lat="59.9732716" lon="17.6986803">
        <ele>28.0155</ele>
        <time>2013-04-17T18:19:08Z</time>
      </trkpt>
      <trkpt lat="59.9733401" lon="17.6987781">
        <ele>28.4962</ele>
        <time>2013-04-17T18:19:09Z</time>
      </trkpt>
      <trkpt lat="59.9734087" lon="17.6988764">
        <ele>28.4962</ele>
        <time>2013-04-17T18:19:10Z</time>
      </trkpt>
      <trkpt lat="59.9734772" lon="17.6989732">
        <ele>28.9769</ele>
        <time>2013-04-17T18:19:11Z</time>
      </trkpt>
      <trkpt lat="59.9735441" lon="17.6990687">
        <ele>28.9769</ele>
        <time>2013-04-17T18:19:12Z</time>
      </trkpt>
      <trkpt lat="59.9736099" lon="17.6991635">
        <ele>28.9769</ele>
        <time>2013-04-17T18:19:13Z</time>
      </trkpt>
      <trkpt lat="59.9736752" lon="17.699257">
        <ele>28.9769</ele>
        <time>2013-04-17T18:19:14Z</time>
      </trkpt>
      <trkpt lat="59.9737404" lon="17.6993493">
        <ele>28.9769</ele>
        <time>2013-04-17T18:19:15Z</time>
      </trkpt>
      <trkpt lat="59.973807" lon="17.6994399">
        <ele>29.4575</ele>
        <time>2013-04-17T18:19:16Z</time>
      </trkpt>
      <trkpt lat="59.973874" lon="17.6995298">
        <ele>29.4575</ele>
        <time>2013-04-17T18:19:17Z</time>
      </trkpt>
      <trkpt lat="59.9739412" lon="17.6996215">
        <ele>29.9381</ele>
        <time>2013-04-17T18:19:18Z</time>
      </trkpt>
      <trkpt lat="59.9740086" lon="17.6997141">
        <ele>29.9381</ele>
        <time>2013-04-17T18:19:19Z</time>
      </trkpt>
      <trkpt lat="59.9740752" lon="17.6998063">
        <ele>30.4188</ele>
        <time>2013-04-17T18:19:20Z</time>
      </trkpt>
      <trkpt lat="59.9741414" lon="17.6998974">
        <ele>30.4188</ele>
        <time>2013-04-17T18:19:21Z</time>
      </trkpt>
      <trkpt lat="59.9742082" lon="17.6999887">
        <ele>30.4188</ele>
        <time>2013-04-17T18:19:22Z</time>
      </trkpt>
      <trkpt lat="59.9742756" lon="17.7000797">
        <ele>30.8995</ele>
        <time>2013-04-17T18:19:23Z</time>
      </trkpt>
      <trkpt lat="59.9743434" lon="17.7001684">
        <ele>30.8995</ele>
        <time>2013-04-17T18:19:24Z</time>
      </trkpt>
      <trkpt lat="59.9744113" lon="17.7002574">
        <ele>31.3801</ele>
        <time>2013-04-17T18:19:25Z</time>
      </trkpt>
      <trkpt lat="59.9744796" lon="17.7003466">
        <ele>31.3801</ele>
        <time>2013-04-17T18:19:26Z</time>
      </trkpt>
      <trkpt lat="59.9745476" lon="17.7004357">
        <ele>31.8607</ele>
        <time>2013-04-17T18:19:27Z</time>
      </trkpt>
      <trkpt lat="59.9746153" lon="17.7005241">
        <ele>31.8607</ele>
        <time>2013-04-17T18:19:28Z</time>
      </trkpt>
      <trkpt lat="59.9746832" lon="17.7006104">
        <ele>31.8607</ele>
        <time>2013-04-17T18:19:29Z</time>
      </trkpt>
      <trkpt lat="59.9747512" lon="17.7006962">
        <ele>32.3416</ele>
        <time>2013-04-17T18:19:30Z</time>
      </trkpt>
      <trkpt lat="59.9748189" lon="17.7007829">
        <ele>32.3416</ele>
        <time>2013-04-17T18:19:31Z</time>
      </trkpt>
      <trkpt lat="59.9748861" lon="17.7008706">
        <ele>32.3416</ele>
        <time>2013-04-17T18:19:32Z</time>
      </trkpt>
      <trkpt lat="59.9749535" lon="17.7009579">
        <ele>32.8223</ele>
        <time>2013-04-17T18:19:33Z</time>
      </trkpt>
      <trkpt lat="59.9750216" lon="17.701044">
        <ele>32.8223</ele>
        <time>2013-04-17T18:19:34Z</time>
      </trkpt>
      <trkpt lat="59.9750903" lon="17.7011297">
        <ele>33.3029</ele>
        <time>2013-04-17T18:19:35Z</time>
      </trkpt>
      <trkpt lat="59.9751587" lon="17.7012156">
        <ele>33.3029</ele>
        <time>2013-04-17T18:19:36Z</time>
      </trkpt>
      <trkpt lat="59.9752275" lon="17.7013019">
        <ele>33.3029</ele>
        <time>2013-04-17T18:19:37Z</time>
      </trkpt>
      <trkpt lat="59.9752964" lon="17.7013882">
        <ele>33.7834</ele>
        <time>2013-04-17T18:19:38Z</time>
      </trkpt>
      <trkpt lat="59.9753658" lon="17.7014728">
        <ele>33.7834</ele>
        <time>2013-04-17T18:19:39Z</time>
      </trkpt>
      <trkpt lat="59.975435" lon="17.7015572">
        <ele>34.2642</ele>
        <time>2013-04-17T18:19:40Z</time>
      </trkpt>
      <trkpt lat="59.9755041" lon="17.7016419">
        <ele>34.2642</ele>
        <time>2013-04-17T18:19:41Z</time>
      </trkpt>
      <trkpt lat="59.9755727" lon="17.7017262">
        <ele>34.2642</ele>
        <time>2013-04-17T18:19:42Z</time>
      </trkpt>
      <trkpt lat="59.9756416" lon="17.7018101">
        <ele>34.7449</ele>
        <time>2013-04-17T18:19:43Z</time>
      </trkpt>
      <trkpt lat="59.9757108" lon="17.701893">
        <ele>34.7449</ele>
        <time>2013-04-17T18:19:44Z</time>
      </trkpt>
      <trkpt lat="59.9757791" lon="17.7019764">
        <ele>34.7449</ele>
        <time>2013-04-17T18:19:45Z</time>
      </trkpt>
      <trkpt lat="59.9758471" lon="17.7020586">
        <ele>34.7449</ele>
        <time>2013-04-17T18:19:46Z</time>
      </trkpt>
      <trkpt lat="59.9759155" lon="17.7021389">
        <ele>35.2255</ele>
        <time>2013-04-17T18:19:47Z</time>
      </trkpt>
      <trkpt lat="59.9759834" lon="17.7022187">
        <ele>35.2255</ele>
        <time>2013-04-17T18:19:48Z</time>
      </trkpt>
      <trkpt lat="59.9760513" lon="17.702298">
        <ele>35.2255</ele>
        <time>2013-04-17T18:19:49Z</time>
      </trkpt>
      <trkpt lat="59.9761187" lon="17.702377">
        <ele>35.7061</ele>
        <time>2013-04-17T18:19:50Z</time>
      </trkpt>
      <trkpt lat="59.9761857" lon="17.7024553">
        <ele>35.7061</ele>
        <time>2013-04-17T18:19:51Z</time>
      </trkpt>
      <trkpt lat="59.9762517" lon="17.7025325">
        <ele>35.7061</ele>
        <time>2013-04-17T18:19:52Z</time>
      </trkpt>
      <trkpt lat="59.9763175" lon="17.7026077">
        <ele>36.1868</ele>
        <time>2013-04-17T18:19:53Z</time>
      </trkpt>
      <trkpt lat="59.9763833" lon="17.7026817">
        <ele>36.1868</ele>
        <time>2013-04-17T18:19:54Z</time>
      </trkpt>
      <trkpt lat="59.9764486" lon="17.7027555">
        <ele>36.1868</ele>
        <time>2013-04-17T18:19:55Z</time>
      </trkpt>
      <trkpt lat="59.9765136" lon="17.7028285">
        <ele>36.6675</ele>
        <time>2013-04-17T18:19:56Z</time>
      </trkpt>
      <trkpt lat="59.9765782" lon="17.7029014">
        <ele>36.6675</ele>
        <time>2013-04-17T18:19:57Z</time>
      </trkpt>
      <trkpt lat="59.9766428" lon="17.7029746">
        <ele>36.6675</ele>
        <time>2013-04-17T18:19:58Z</time>
      </trkpt>
      <trkpt lat="59.9767077" lon="17.7030475">
        <ele>37.1481</ele>
        <time>2013-04-17T18:19:59Z</time>
      </trkpt>
      <trkpt lat="59.976773" lon="17.7031204">
        <ele>37.1481</ele>
        <time>2013-04-17T18:20:00Z</time>
      </trkpt>
      <trkpt lat="59.9768387" lon="17.703193">
        <ele>37.1481</ele>
        <time>2013-04-17T18:20:01Z</time>
      </trkpt>
      <trkpt lat="59.9769047" lon="17.7032661">
        <ele>37.6287</ele>
        <time>2013-04-17T18:20:02Z</time>
      </trkpt>
      <trkpt lat="59.9769709" lon="17.7033402">
        <ele>37.6287</ele>
        <time>2013-04-17T18:20:03Z</time>
      </trkpt>
      <trkpt lat="59.9770376" lon="17.7034143">
        <ele>37.6287</ele>
        <time>2013-04-17T18:20:04Z</time>
      </trkpt>
      <trkpt lat="59.9771049" lon="17.7034886">
        <ele>38.1094</ele>
        <time>2013-04-17T18:20:05Z</time>
      </trkpt>
      <trkpt lat="59.9771722" lon="17.7035627">
        <ele>38.1094</ele>
        <time>2013-04-17T18:20:06Z</time>
      </trkpt>
      <trkpt lat="59.977239" lon="17.7036361">
        <ele>38.1094</ele>
        <time>2013-04-17T18:20:07Z</time>
      </trkpt>
      <trkpt lat="59.9773052" lon="17.7037094">
        <ele>38.1094</ele>
        <time>2013-04-17T18:20:08Z</time>
      </trkpt>
      <trkpt lat="59.9773715" lon="17.7037822">
        <ele>38.5901</ele>
        <time>2013-04-17T18:20:09Z</time>
      </trkpt>
      <trkpt lat="59.9774378" lon="17.703855">
        <ele>38.5901</ele>
        <time>2013-04-17T18:20:10Z</time>
      </trkpt>
      <trkpt lat="59.9775046" lon="17.7039276">
        <ele>38.5901</ele>
        <time>2013-04-17T18:20:11Z</time>
      </trkpt>
      <trkpt lat="59.9775715" lon="17.7039999">
        <ele>38.5901</ele>
        <time>2013-04-17T18:20:12Z</time>
      </trkpt>
      <trkpt lat="59.9776379" lon="17.7040725">
        <ele>38.5901</ele>
        <time>2013-04-17T18:20:13Z</time>
      </trkpt>
      <trkpt lat="59.9777035" lon="17.7041448">
        <ele>38.5901</ele>
        <time>2013-04-17T18:20:14Z</time>
      </trkpt>
      <trkpt lat="59.9777695" lon="17.704217">
        <ele>39.0707</ele>
        <time>2013-04-17T18:20:15Z</time>
      </trkpt>
      <trkpt lat="59.9778354" lon="17.7042888">
        <ele>39.0707</ele>
        <time>2013-04-17T18:20:16Z</time>
      </trkpt>
      <trkpt lat="59.9779014" lon="17.7043601">
        <ele>39.0707</ele>
        <time>2013-04-17T18:20:17Z</time>
      </trkpt>
      <trkpt lat="59.9779674" lon="17.704432">
        <ele>39.0707</ele>
        <time>2013-04-17T18:20:18Z</time>
      </trkpt>
      <trkpt lat="59.9780314" lon="17.7045052">
        <ele>39.0707</ele>
        <time>2013-04-17T18:20:19Z</time>
      </trkpt>
      <trkpt lat="59.9780957" lon="17.7045782">
        <ele>39.0707</ele>
        <time>2013-04-17T18:20:20Z</time>
      </trkpt>
      <trkpt lat="59.9781614" lon="17.7046505">
        <ele>38.5901</ele>
        <time>2013-04-17T18:20:21Z</time>
      </trkpt>
      <trkpt lat="59.978229" lon="17.7047237">
        <ele>38.5901</ele>
        <time>2013-04-17T18:20:22Z</time>
      </trkpt>
      <trkpt lat="59.9782992" lon="17.7047952">
        <ele>38.5901</ele>
        <time>2013-04-17T18:20:23Z</time>
      </trkpt>
      <trkpt lat="59.9783698" lon="17.7048658">
        <ele>38.5901</ele>
        <time>2013-04-17T18:20:24Z</time>
      </trkpt>
      <trkpt lat="59.9784394" lon="17.7049382">
        <ele>38.5901</ele>
        <time>2013-04-17T18:20:25Z</time>
      </trkpt>
      <trkpt lat="59.9785097" lon="17.7050113">
        <ele>38.5901</ele>
        <time>2013-04-17T18:20:26Z</time>
      </trkpt>
      <trkpt lat="59.9785808" lon="17.7050839">
        <ele>38.5901</ele>
        <time>2013-04-17T18:20:27Z</time>
      </trkpt>
      <trkpt lat="59.9786532" lon="17.7051558">
        <ele>38.1094</ele>
        <time>2013-04-17T18:20:28Z</time>
      </trkpt>
      <trkpt lat="59.9787268" lon="17.7052273">
        <ele>38.1094</ele>
        <time>2013-04-17T18:20:29Z</time>
      </trkpt>
      <trkpt lat="59.9788015" lon="17.7052988">
        <ele>38.1094</ele>
        <time>2013-04-17T18:20:30Z</time>
      </trkpt>
      <trkpt lat="59.9788778" lon="17.7053707">
        <ele>37.6287</ele>
        <time>2013-04-17T18:20:31Z</time>
      </trkpt>
      <trkpt lat="59.978955" lon="17.7054423">
        <ele>37.6287</ele>
        <time>2013-04-17T18:20:32Z</time>
      </trkpt>
      <trkpt lat="59.9790335" lon="17.7055126">
        <ele>37.6287</ele>
        <time>2013-04-17T18:20:33Z</time>
      </trkpt>
      <trkpt lat="59.9791127" lon="17.7055833">
        <ele>37.1481</ele>
        <time>2013-04-17T18:20:34Z</time>
      </trkpt>
      <trkpt lat="59.9791915" lon="17.7056552">
        <ele>36.6675</ele>
        <time>2013-04-17T18:20:35Z</time>
      </trkpt>
      <trkpt lat="59.9792708" lon="17.7057261">
        <ele>36.6675</ele>
        <time>2013-04-17T18:20:36Z</time>
      </trkpt>
      <trkpt lat="59.9793514" lon="17.7057944">
        <ele>36.1868</ele>
        <time>2013-04-17T18:20:37Z</time>
      </trkpt>
      <trkpt lat="59.979433" lon="17.7058614">
        <ele>36.1868</ele>
        <time>2013-04-17T18:20:38Z</time>
      </trkpt>
      <trkpt lat="59.9795157" lon="17.7059282">
        <ele>35.7061</ele>
        <time>2013-04-17T18:20:39Z</time>
      </trkpt>
      <trkpt lat="59.9795996" lon="17.705995">
        <ele>35.7061</ele>
        <time>2013-04-17T18:20:40Z</time>
      </trkpt>
      <trkpt lat="59.9796842" lon="17.7060623">
        <ele>35.2255</ele>
        <time>2013-04-17T18:20:41Z</time>
      </trkpt>
      <trkpt lat="59.9797695" lon="17.7061291">
        <ele>35.2255</ele>
        <time>2013-04-17T18:20:42Z</time>
      </trkpt>
      <trkpt lat="59.9798557" lon="17.7061955">
        <ele>35.2255</ele>
        <time>2013-04-17T18:20:43Z</time>
      </trkpt>
      <trkpt lat="59.9799432" lon="17.7062612">
        <ele>34.7449</ele>
        <time>2013-04-17T18:20:44Z</time>
      </trkpt>
      <trkpt lat="59.9800323" lon="17.7063259">
        <ele>34.2642</ele>
        <time>2013-04-17T18:20:45Z</time>
      </trkpt>
      <trkpt lat="59.9801224" lon="17.7063898">
        <ele>34.2642</ele>
        <time>2013-04-17T18:20:46Z</time>
      </trkpt>
      <trkpt lat="59.9802143" lon="17.7064529">
        <ele>34.2642</ele>
        <time>2013-04-17T18:20:47Z</time>
      </trkpt>
      <trkpt lat="59.9803067" lon="17.7065151">
        <ele>34.2642</ele>
        <time>2013-04-17T18:20:48Z</time>
      </trkpt>
      <trkpt lat="59.9803995" lon="17.706576">
        <ele>34.2642</ele>
        <time>2013-04-17T18:20:49Z</time>
      </trkpt>
      <trkpt lat="59.9804926" lon="17.7066342">
        <ele>33.7834</ele>
        <time>2013-04-17T18:20:50Z</time>
      </trkpt>
      <trkpt lat="59.9805848" lon="17.7066922">
        <ele>33.7834</ele>
        <time>2013-04-17T18:20:51Z</time>
      </trkpt>
      <trkpt lat="59.9806766" lon="17.7067491">
        <ele>33.7834</ele>
        <time>2013-04-17T18:20:52Z</time>
      </trkpt>
      <trkpt lat="59.9807679" lon="17.7068031">
        <ele>33.3029</ele>
        <time>2013-04-17T18:20:53Z</time>
      </trkpt>
      <trkpt lat="59.9808594" lon="17.7068552">
        <ele>33.3029</ele>
        <time>2013-04-17T18:20:54Z</time>
      </trkpt>
      <trkpt lat="59.9809511" lon="17.7069056">
        <ele>33.3029</ele>
        <time>2013-04-17T18:20:55Z</time>
      </trkpt>
      <trkpt lat="59.9810427" lon="17.7069564">
        <ele>32.8223</ele>
        <time>2013-04-17T18:20:56Z</time>
      </trkpt>
      <trkpt lat="59.9811345" lon="17.7070063">
        <ele>32.8223</ele>
        <time>2013-04-17T18:20:57Z</time>
      </trkpt>
      <trkpt lat="59.9812262" lon="17.7070548">
        <ele>32.8223</ele>
        <time>2013-04-17T18:20:58Z</time>
      </trkpt>
      <trkpt lat="59.9813182" lon="17.7071007">
        <ele>32.8223</ele>
        <time>2013-04-17T18:20:59Z</time>
      </trkpt>
      <trkpt lat="59.9814101" lon="17.7071453">
        <ele>32.8223</ele>
        <time>2013-04-17T18:21:00Z</time>
      </trkpt>
      <trkpt lat="59.9815031" lon="17.707188">
        <ele>32.8223</ele>
        <time>2013-04-17T18:21:01Z</time>
      </trkpt>
      <trkpt lat="59.9815964" lon="17.7072288">
        <ele>32.3416</ele>
        <time>2013-04-17T18:21:02Z</time>
      </trkpt>
      <trkpt lat="59.9816891" lon="17.7072683">
        <ele>32.3416</ele>
        <time>2013-04-17T18:21:03Z</time>
      </trkpt>
      <trkpt lat="59.9817805" lon="17.7073065">
        <ele>32.3416</ele>
        <time>2013-04-17T18:21:04Z</time>
      </trkpt>
      <trkpt lat="59.9818697" lon="17.7073422">
        <ele>32.3416</ele>
        <time>2013-04-17T18:21:05Z</time>
      </trkpt>
      <trkpt lat="59.9819572" lon="17.707376">
        <ele>31.8607</ele>
        <time>2013-04-17T18:21:06Z</time>
      </trkpt>
      <trkpt lat="59.9820442" lon="17.7074098">
        <ele>31.8607</ele>
        <time>2013-04-17T18:21:07Z</time>
      </trkpt>
      <trkpt lat="59.9821301" lon="17.7074427">
        <ele>31.3801</ele>
        <time>2013-04-17T18:21:08Z</time>
      </trkpt>
      <trkpt lat="59.9822159" lon="17.7074729">
        <ele>31.3801</ele>
        <time>2013-04-17T18:21:09Z</time>
      </trkpt>
      <trkpt lat="59.9823016" lon="17.7075006">
        <ele>30.8995</ele>
        <time>2013-04-17T18:21:10Z</time>
      </trkpt>
      <trkpt lat="59.982387" lon="17.7075278">
        <ele>30.8995</ele>
        <time>2013-04-17T18:21:11Z</time>
      </trkpt>
      <trkpt lat="59.9824716" lon="17.7075543">
        <ele>30.4188</ele>
        <time>2013-04-17T18:21:12Z</time>
      </trkpt>
      <trkpt lat="59.9825564" lon="17.7075796">
        <ele>30.4188</ele>
        <time>2013-04-17T18:21:13Z</time>
      </trkpt>
      <trkpt lat="59.9826415" lon="17.7076039">
        <ele>29.9381</ele>
        <time>2013-04-17T18:21:14Z</time>
      </trkpt>
      <trkpt lat="59.9827269" lon="17.7076276">
        <ele>29.9381</ele>
        <time>2013-04-17T18:21:15Z</time>
      </trkpt>
      <trkpt lat="59.9828124" lon="17.7076505">
        <ele>29.4575</ele>
        <time>2013-04-17T18:21:16Z</time>
      </trkpt>
      <trkpt lat="59.9828977" lon="17.7076736">
        <ele>29.4575</ele>
        <time>2013-04-17T18:21:17Z</time>
      </trkpt>
      <trkpt lat="59.9829828" lon="17.7076966">
        <ele>29.4575</ele>
        <time>2013-04-17T18:21:18Z</time>
      </trkpt>
      <trkpt lat="59.9830683" lon="17.707718">
        <ele>28.9769</ele>
        <time>2013-04-17T18:21:19Z</time>
      </trkpt>
      <trkpt lat="59.9831547" lon="17.7077374">
        <ele>28.9769</ele>
        <time>2013-04-17T18:21:20Z</time>
      </trkpt>
      <trkpt lat="59.9832418" lon="17.7077543">
        <ele>28.4962</ele>
        <time>2013-04-17T18:21:21Z</time>
      </trkpt>
      <trkpt lat="59.9833301" lon="17.7077707">
        <ele>28.4962</ele>
        <time>2013-04-17T18:21:22Z</time>
      </trkpt>
      <trkpt lat="59.9834187" lon="17.7077877">
        <ele>28.4962</ele>
        <time>2013-04-17T18:21:23Z</time>
      </trkpt>
      <trkpt lat="59.9835075" lon="17.7078039">
        <ele>28.4962</ele>
        <time>2013-04-17T18:21:24Z</time>
      </trkpt>
      <trkpt lat="59.9835971" lon="17.7078184">
        <ele>28.0155</ele>
        <time>2013-04-17T18:21:25Z</time>
      </trkpt>
      <trkpt lat="59.9836872" lon="17.7078317">
        <ele>28.0155</ele>
        <time>2013-04-17T18:21:26Z</time>
      </trkpt>
      <trkpt lat="59.9837779" lon="17.7078446">
        <ele>28.0155</ele>
        <time>2013-04-17T18:21:27Z</time>
      </trkpt>
      <trkpt lat="59.9838699" lon="17.7078553">
        <ele>28.0155</ele>
        <time>2013-04-17T18:21:28Z</time>
      </trkpt>
      <trkpt lat="59.9839624" lon="17.7078633">
        <ele>27.5349</ele>
        <time>2013-04-17T18:21:29Z</time>
      </trkpt>
      <trkpt lat="59.9840555" lon="17.7078696">
        <ele>27.5349</ele>
        <time>2013-04-17T18:21:30Z</time>
      </trkpt>
      <trkpt lat="59.9841486" lon="17.7078754">
        <ele>27.5349</ele>
        <time>2013-04-17T18:21:31Z</time>
      </trkpt>
      <trkpt lat="59.984241" lon="17.7078801">
        <ele>27.5349</ele>
        <time>2013-04-17T18:21:32Z</time>
      </trkpt>
      <trkpt lat="59.9843326" lon="17.707883">
        <ele>27.5349</ele>
        <time>2013-04-17T18:21:33Z</time>
      </trkpt>
      <trkpt lat="59.9844238" lon="17.7078845">
        <ele>27.5349</ele>
        <time>2013-04-17T18:21:34Z</time>
      </trkpt>
      <trkpt lat="59.9845146" lon="17.7078857">
        <ele>27.0543</ele>
        <time>2013-04-17T18:21:35Z</time>
      </trkpt>
      <trkpt lat="59.9846047" lon="17.7078872">
        <ele>27.0543</ele>
        <time>2013-04-17T18:21:36Z</time>
      </trkpt>
      <trkpt lat="59.9846936" lon="17.7078879">
        <ele>27.0543</ele>
        <time>2013-04-17T18:21:37Z</time>
      </trkpt>
      <trkpt lat="59.9847807" lon="17.7078883">
        <ele>27.0543</ele>
        <time>2013-04-17T18:21:38Z</time>
      </trkpt>
      <trkpt lat="59.9848676" lon="17.7078877">
        <ele>27.0543</ele>
        <time>2013-04-17T18:21:39Z</time>
      </trkpt>
      <trkpt lat="59.9849522" lon="17.70789">
        <ele>27.0543</ele>
        <time>2013-04-17T18:21:40Z</time>
      </trkpt>
      <trkpt lat="59.9850376" lon="17.7078931">
        <ele>27.5349</ele>
        <time>2013-04-17T18:21:41Z</time>
      </trkpt>
      <trkpt lat="59.9851242" lon="17.7078959">
        <ele>27.5349</ele>
        <time>2013-04-17T18:21:42Z</time>
      </trkpt>
      <trkpt lat="59.985211" lon="17.7078982">
        <ele>27.0543</ele>
        <time>2013-04-17T18:21:43Z</time>
      </trkpt>
      <trkpt lat="59.9852973" lon="17.7078996">
        <ele>27.0543</ele>
        <time>2013-04-17T18:21:44Z</time>
      </trkpt>
      <trkpt lat="59.9853835" lon="17.7079011">
        <ele>27.0543</ele>
        <time>2013-04-17T18:21:45Z</time>
      </trkpt>
      <trkpt lat="59.9854691" lon="17.7079039">
        <ele>27.0543</ele>
        <time>2013-04-17T18:21:46Z</time>
      </trkpt>
      <trkpt lat="59.9855542" lon="17.7079063">
        <ele>27.0543</ele>
        <time>2013-04-17T18:21:47Z</time>
      </trkpt>
      <trkpt lat="59.9856392" lon="17.7079079">
        <ele>27.0543</ele>
        <time>2013-04-17T18:21:48Z</time>
      </trkpt>
      <trkpt lat="59.9857241" lon="17.70791">
        <ele>27.0543</ele>
        <time>2013-04-17T18:21:49Z</time>
      </trkpt>
      <trkpt lat="59.9858085" lon="17.707915">
        <ele>27.0543</ele>
        <time>2013-04-17T18:21:50Z</time>
      </trkpt>
      <trkpt lat="59.9858927" lon="17.707922">
        <ele>27.0543</ele>
        <time>2013-04-17T18:21:51Z</time>
      </trkpt>
      <trkpt lat="59.9859767" lon="17.7079282">
        <ele>26.5736</ele>
        <time>2013-04-17T18:21:52Z</time>
      </trkpt>
      <trkpt lat="59.9860601" lon="17.7079348">
        <ele>26.5736</ele>
        <time>2013-04-17T18:21:53Z</time>
      </trkpt>
      <trkpt lat="59.9861429" lon="17.7079431">
        <ele>26.5736</ele>
        <time>2013-04-17T18:21:54Z</time>
      </trkpt>
      <trkpt lat="59.9862251" lon="17.7079532">
        <ele>26.5736</ele>
        <time>2013-04-17T18:21:55Z</time>
      </trkpt>
      <trkpt lat="59.9863071" lon="17.707964">
        <ele>26.5736</ele>
        <time>2013-04-17T18:21:56Z</time>
      </trkpt>
      <trkpt lat="59.9863887" lon="17.7079744">
        <ele>26.5736</ele>
        <time>2013-04-17T18:21:57Z</time>
      </trkpt>
      <trkpt lat="59.9864708" lon="17.7079857">
        <ele>26.5736</ele>
        <time>2013-04-17T18:21:58Z</time>
      </trkpt>
      <trkpt lat="59.9865534" lon="17.7079988">
        <ele>26.5736</ele>
        <time>2013-04-17T18:21:59Z</time>
      </trkpt>
      <trkpt lat="59.9866366" lon="17.7080133">
        <ele>26.5736</ele>
        <time>2013-04-17T18:22:00Z</time>
      </trkpt>
      <trkpt lat="59.9867197" lon="17.7080288">
        <ele>26.5736</ele>
        <time>2013-04-17T18:22:01Z</time>
      </trkpt>
      <trkpt lat="59.9868024" lon="17.7080458">
        <ele>26.5736</ele>
        <time>2013-04-17T18:22:02Z</time>
      </trkpt>
      <trkpt lat="59.9868844" lon="17.7080633">
        <ele>26.5736</ele>
        <time>2013-04-17T18:22:03Z</time>
      </trkpt>
      <trkpt lat="59.9869657" lon="17.7080806">
        <ele>26.5736</ele>
        <time>2013-04-17T18:22:04Z</time>
      </trkpt>
      <trkpt lat="59.9870459" lon="17.7080987">
        <ele>26.5736</ele>
        <time>2013-04-17T18:22:05Z</time>
      </trkpt>
      <trkpt lat="59.9871249" lon="17.7081183">
        <ele>26.5736</ele>
        <time>2013-04-17T18:22:06Z</time>
      </trkpt>
      <trkpt lat="59.9872029" lon="17.708139">
        <ele>26.5736</ele>
        <time>2013-04-17T18:22:07Z</time>
      </trkpt>
      <trkpt lat="59.9872803" lon="17.7081607">
        <ele>26.5736</ele>
        <time>2013-04-17T18:22:08Z</time>
      </trkpt>
      <trkpt lat="59.9873579" lon="17.7081831">
        <ele>26.5736</ele>
        <time>2013-04-17T18:22:09Z</time>
      </trkpt>
      <trkpt lat="59.9874351" lon="17.7082065">
        <ele>26.5736</ele>
        <time>2013-04-17T18:22:10Z</time>
      </trkpt>
      <trkpt lat="59.9875118" lon="17.7082312">
        <ele>26.5736</ele>
        <time>2013-04-17T18:22:11Z</time>
      </trkpt>
      <trkpt lat="59.9875874" lon="17.7082569">
        <ele>26.5736</ele>
        <time>2013-04-17T18:22:12Z</time>
      </trkpt>
      <trkpt lat="59.9876623" lon="17.7082839">
        <ele>26.5736</ele>
        <time>2013-04-17T18:22:13Z</time>
      </trkpt>
      <trkpt lat="59.9877365" lon="17.708311">
        <ele>26.5736</ele>
        <time>2013-04-17T18:22:14Z</time>
      </trkpt>
      <trkpt lat="59.9878107" lon="17.7083377">
        <ele>27.0543</ele>
        <time>2013-04-17T18:22:15Z</time>
      </trkpt>
      <trkpt lat="59.9878846" lon="17.708365">
        <ele>27.0543</ele>
        <time>2013-04-17T18:22:16Z</time>
      </trkpt>
      <trkpt lat="59.987958" lon="17.7083939">
        <ele>27.0543</ele>
        <time>2013-04-17T18:22:17Z</time>
      </trkpt>
      <trkpt lat="59.9880308" lon="17.7084243">
        <ele>27.5349</ele>
        <time>2013-04-17T18:22:18Z</time>
      </trkpt>
      <trkpt lat="59.9881027" lon="17.7084539">
        <ele>27.5349</ele>
        <time>2013-04-17T18:22:19Z</time>
      </trkpt>
      <trkpt lat="59.9881738" lon="17.7084826">
        <ele>27.5349</ele>
        <time>2013-04-17T18:22:20Z</time>
      </trkpt>
      <trkpt lat="59.9882447" lon="17.7085119">
        <ele>27.5349</ele>
        <time>2013-04-17T18:22:21Z</time>
      </trkpt>
      <trkpt lat="59.9883155" lon="17.7085424">
        <ele>28.0155</ele>
        <time>2013-04-17T18:22:22Z</time>
      </trkpt>
      <trkpt lat="59.9883862" lon="17.7085741">
        <ele>28.0155</ele>
        <time>2013-04-17T18:22:23Z</time>
      </trkpt>
      <trkpt lat="59.9884584" lon="17.7086081">
        <ele>28.0155</ele>
        <time>2013-04-17T18:22:24Z</time>
      </trkpt>
      <trkpt lat="59.9885321" lon="17.7086436">
        <ele>28.0155</ele>
        <time>2013-04-17T18:22:25Z</time>
      </trkpt>
      <trkpt lat="59.9886061" lon="17.7086784">
        <ele>28.4962</ele>
        <time>2013-04-17T18:22:26Z</time>
      </trkpt>
      <trkpt lat="59.9886798" lon="17.7087141">
        <ele>28.4962</ele>
        <time>2013-04-17T18:22:27Z</time>
      </trkpt>
      <trkpt lat="59.9887529" lon="17.7087517">
        <ele>28.4962</ele>
        <time>2013-04-17T18:22:28Z</time>
      </trkpt>
      <trkpt lat="59.9888262" lon="17.7087891">
        <ele>28.9769</ele>
        <time>2013-04-17T18:22:29Z</time>
      </trkpt>
      <trkpt lat="59.9888999" lon="17.708827">
        <ele>28.9769</ele>
        <time>2013-04-17T18:22:30Z</time>
      </trkpt>
      <trkpt lat="59.9889737" lon="17.7088666">
        <ele>28.9769</ele>
        <time>2013-04-17T18:22:31Z</time>
      </trkpt>
      <trkpt lat="59.9890467" lon="17.7089086">
        <ele>28.9769</ele>
        <time>2013-04-17T18:22:32Z</time>
      </trkpt>
      <trkpt lat="59.9891194" lon="17.7089518">
        <ele>29.4575</ele>
        <time>2013-04-17T18:22:33Z</time>
      </trkpt>
      <trkpt lat="59.9891922" lon="17.7089943">
        <ele>29.4575</ele>
        <time>2013-04-17T18:22:34Z</time>
      </trkpt>
      <trkpt lat="59.9892652" lon="17.7090378">
        <ele>29.4575</ele>
        <time>2013-04-17T18:22:35Z</time>
      </trkpt>
      <trkpt lat="59.9893382" lon="17.709083">
        <ele>29.9381</ele>
        <time>2013-04-17T18:22:36Z</time>
      </trkpt>
      <trkpt lat="59.9894109" lon="17.7091284">
        <ele>29.9381</ele>
        <time>2013-04-17T18:22:37Z</time>
      </trkpt>
      <trkpt lat="59.9894841" lon="17.7091734">
        <ele>29.9381</ele>
        <time>2013-04-17T18:22:38Z</time>
      </trkpt>
      <trkpt lat="59.9895568" lon="17.70922">
        <ele>29.9381</ele>
        <time>2013-04-17T18:22:39Z</time>
      </trkpt>
      <trkpt lat="59.9896292" lon="17.7092673">
        <ele>30.4188</ele>
        <time>2013-04-17T18:22:40Z</time>
      </trkpt>
      <trkpt lat="59.9897008" lon="17.7093149">
        <ele>30.4188</ele>
        <time>2013-04-17T18:22:41Z</time>
      </trkpt>
      <trkpt lat="59.9897714" lon="17.7093636">
        <ele>30.4188</ele>
        <time>2013-04-17T18:22:42Z</time>
      </trkpt>
      <trkpt lat="59.9898418" lon="17.7094121">
        <ele>30.4188</ele>
        <time>2013-04-17T18:22:43Z</time>
      </trkpt>
      <trkpt lat="59.9899118" lon="17.7094611">
        <ele>30.8995</ele>
        <time>2013-04-17T18:22:44Z</time>
      </trkpt>
      <trkpt lat="59.9899816" lon="17.7095121">
        <ele>30.8995</ele>
        <time>2013-04-17T18:22:45Z</time>
      </trkpt>
      <trkpt lat="59.9900513" lon="17.7095629">
        <ele>30.8995</ele>
        <time>2013-04-17T18:22:46Z</time>
      </trkpt>
      <trkpt lat="59.9901205" lon="17.709615">
        <ele>30.8995</ele>
        <time>2013-04-17T18:22:47Z</time>
      </trkpt>
      <trkpt lat="59.9901898" lon="17.7096681">
        <ele>30.8995</ele>
        <time>2013-04-17T18:22:48Z</time>
      </trkpt>
      <trkpt lat="59.9902598" lon="17.7097199">
        <ele>30.8995</ele>
        <time>2013-04-17T18:22:49Z</time>
      </trkpt>
      <trkpt lat="59.9903302" lon="17.7097738">
        <ele>30.8995</ele>
        <time>2013-04-17T18:22:50Z</time>
      </trkpt>
      <trkpt lat="59.9904012" lon="17.7098306">
        <ele>30.8995</ele>
        <time>2013-04-17T18:22:51Z</time>
      </trkpt>
      <trkpt lat="59.9904727" lon="17.709889">
        <ele>30.8995</ele>
        <time>2013-04-17T18:22:52Z</time>
      </trkpt>
      <trkpt lat="59.9905452" lon="17.7099474">
        <ele>30.8995</ele>
        <time>2013-04-17T18:22:53Z</time>
      </trkpt>
      <trkpt lat="59.9906186" lon="17.7100074">
        <ele>30.8995</ele>
        <time>2013-04-17T18:22:54Z</time>
      </trkpt>
      <trkpt lat="59.9906922" lon="17.7100691">
        <ele>30.8995</ele>
        <time>2013-04-17T18:22:55Z</time>
      </trkpt>
      <trkpt lat="59.9907659" lon="17.7101297">
        <ele>30.8995</ele>
        <time>2013-04-17T18:22:56Z</time>
      </trkpt>
      <trkpt lat="59.99084" lon="17.7101886">
        <ele>30.8995</ele>
        <time>2013-04-17T18:22:57Z</time>
      </trkpt>
      <trkpt lat="59.9909139" lon="17.7102487">
        <ele>30.8995</ele>
        <time>2013-04-17T18:22:58Z</time>
      </trkpt>
      <trkpt lat="59.9909881" lon="17.7103103">
        <ele>30.8995</ele>
        <time>2013-04-17T18:22:59Z</time>
      </trkpt>
      <trkpt lat="59.9910623" lon="17.7103725">
        <ele>30.8995</ele>
        <time>2013-04-17T18:23:00Z</time>
      </trkpt>
      <trkpt lat="59.9911372" lon="17.7104336">
        <ele>30.8995</ele>
        <time>2013-04-17T18:23:01Z</time>
      </trkpt>
      <trkpt lat="59.9912124" lon="17.7104932">
        <ele>30.8995</ele>
        <time>2013-04-17T18:23:02Z</time>
      </trkpt>
      <trkpt lat="59.9912883" lon="17.7105535">
        <ele>30.8995</ele>
        <time>2013-04-17T18:23:03Z</time>
      </trkpt>
      <trkpt lat="59.9913641" lon="17.7106163">
        <ele>30.8995</ele>
        <time>2013-04-17T18:23:04Z</time>
      </trkpt>
      <trkpt lat="59.9914398" lon="17.7106799">
        <ele>30.8995</ele>
        <time>2013-04-17T18:23:05Z</time>
      </trkpt>
      <trkpt lat="59.9915164" lon="17.7107425">
        <ele>30.8995</ele>
        <time>2013-04-17T18:23:06Z</time>
      </trkpt>
      <trkpt lat="59.991593" lon="17.7108032">
        <ele>30.8995</ele>
        <time>2013-04-17T18:23:07Z</time>
      </trkpt>
      <trkpt lat="59.9916681" lon="17.7108638">
        <ele>30.8995</ele>
        <time>2013-04-17T18:23:08Z</time>
      </trkpt>
      <trkpt lat="59.9917424" lon="17.7109254">
        <ele>30.8995</ele>
        <time>2013-04-17T18:23:09Z</time>
      </trkpt>
      <trkpt lat="59.9918169" lon="17.7109866">
        <ele>30.8995</ele>
        <time>2013-04-17T18:23:10Z</time>
      </trkpt>
      <trkpt lat="59.9918914" lon="17.7110481">
        <ele>30.8995</ele>
        <time>2013-04-17T18:23:11Z</time>
      </trkpt>
      <trkpt lat="59.991966" lon="17.7111098">
        <ele>30.8995</ele>
        <time>2013-04-17T18:23:12Z</time>
      </trkpt>
      <trkpt lat="59.9920412" lon="17.7111704">
        <ele>30.8995</ele>
        <time>2013-04-17T18:23:13Z</time>
      </trkpt>
      <trkpt lat="59.9921164" lon="17.7112316">
        <ele>30.8995</ele>
        <time>2013-04-17T18:23:14Z</time>
      </trkpt>
      <trkpt lat="59.992192" lon="17.7112932">
        <ele>30.8995</ele>
        <time>2013-04-17T18:23:15Z</time>
      </trkpt>
      <trkpt lat="59.992268" lon="17.7113551">
        <ele>30.8995</ele>
        <time>2013-04-17T18:23:16Z</time>
      </trkpt>
      <trkpt lat="59.9923433" lon="17.7114179">
        <ele>30.8995</ele>
        <time>2013-04-17T18:23:17Z</time>
      </trkpt>
      <trkpt lat="59.9924184" lon="17.7114793">
        <ele>30.8995</ele>
        <time>2013-04-17T18:23:18Z</time>
      </trkpt>
      <trkpt lat="59.9924934" lon="17.7115396">
        <ele>30.8995</ele>
        <time>2013-04-17T18:23:19Z</time>
      </trkpt>
      <trkpt lat="59.992568" lon="17.7116007">
        <ele>30.8995</ele>
        <time>2013-04-17T18:23:20Z</time>
      </trkpt>
      <trkpt lat="59.9926421" lon="17.7116619">
        <ele>30.8995</ele>
        <time>2013-04-17T18:23:21Z</time>
      </trkpt>
      <trkpt lat="59.9927176" lon="17.7117216">
        <ele>30.8995</ele>
        <time>2013-04-17T18:23:22Z</time>
      </trkpt>
      <trkpt lat="59.9927934" lon="17.7117822">
        <ele>30.8995</ele>
        <time>2013-04-17T18:23:23Z</time>
      </trkpt>
      <trkpt lat="59.992869" lon="17.7118434">
        <ele>30.8995</ele>
        <time>2013-04-17T18:23:24Z</time>
      </trkpt>
      <trkpt lat="59.9929449" lon="17.7119039">
        <ele>30.8995</ele>
        <time>2013-04-17T18:23:25Z</time>
      </trkpt>
      <trkpt lat="59.9930197" lon="17.7119654">
        <ele>30.8995</ele>
        <time>2013-04-17T18:23:26Z</time>
      </trkpt>
      <trkpt lat="59.9930932" lon="17.7120292">
        <ele>30.8995</ele>
        <time>2013-04-17T18:23:27Z</time>
      </trkpt>
      <trkpt lat="59.9931675" lon="17.7120915">
        <ele>30.8995</ele>
        <time>2013-04-17T18:23:28Z</time>
      </trkpt>
      <trkpt lat="59.9932428" lon="17.7121531">
        <ele>30.8995</ele>
        <time>2013-04-17T18:23:29Z</time>
      </trkpt>
      <trkpt lat="59.9933184" lon="17.712215">
        <ele>30.8995</ele>
        <time>2013-04-17T18:23:30Z</time>
      </trkpt>
      <trkpt lat="59.9933948" lon="17.7122753">
        <ele>30.4188</ele>
        <time>2013-04-17T18:23:31Z</time>
      </trkpt>
      <trkpt lat="59.9934714" lon="17.7123352">
        <ele>30.4188</ele>
        <time>2013-04-17T18:23:32Z</time>
      </trkpt>
      <trkpt lat="59.9935477" lon="17.7123969">
        <ele>30.4188</ele>
        <time>2013-04-17T18:23:33Z</time>
      </trkpt>
      <trkpt lat="59.9936241" lon="17.7124595">
        <ele>30.4188</ele>
        <time>2013-04-17T18:23:34Z</time>
      </trkpt>
      <trkpt lat="59.9937003" lon="17.7125217">
        <ele>30.4188</ele>
        <time>2013-04-17T18:23:35Z</time>
      </trkpt>
      <trkpt lat="59.9937765" lon="17.712583">
        <ele>30.4188</ele>
        <time>2013-04-17T18:23:36Z</time>
      </trkpt>
      <trkpt lat="59.9938521" lon="17.7126441">
        <ele>30.4188</ele>
        <time>2013-04-17T18:23:37Z</time>
      </trkpt>
      <trkpt lat="59.9939273" lon="17.7127043">
        <ele>30.4188</ele>
        <time>2013-04-17T18:23:38Z</time>
      </trkpt>
      <trkpt lat="59.9940027" lon="17.7127638">
        <ele>30.4188</ele>
        <time>2013-04-17T18:23:39Z</time>
      </trkpt>
      <trkpt lat="59.9940778" lon="17.7128227">
        <ele>30.4188</ele>
        <time>2013-04-17T18:23:40Z</time>
      </trkpt>
      <trkpt lat="59.9941529" lon="17.712881">
        <ele>30.4188</ele>
        <time>2013-04-17T18:23:41Z</time>
      </trkpt>
      <trkpt lat="59.9942287" lon="17.7129385">
        <ele>30.8995</ele>
        <time>2013-04-17T18:23:42Z</time>
      </trkpt>
      <trkpt lat="59.9943047" lon="17.7129949">
        <ele>30.8995</ele>
        <time>2013-04-17T18:23:43Z</time>
      </trkpt>
      <trkpt lat="59.9943803" lon="17.7130493">
        <ele>30.8995</ele>
        <time>2013-04-17T18:23:44Z</time>
      </trkpt>
      <trkpt lat="59.9944554" lon="17.7131036">
        <ele>30.8995</ele>
        <time>2013-04-17T18:23:45Z</time>
      </trkpt>
      <trkpt lat="59.9945297" lon="17.713158">
        <ele>31.3801</ele>
        <time>2013-04-17T18:23:46Z</time>
      </trkpt>
      <trkpt lat="59.9946033" lon="17.713211">
        <ele>31.3801</ele>
        <time>2013-04-17T18:23:47Z</time>
      </trkpt>
      <trkpt lat="59.9946763" lon="17.713264">
        <ele>31.3801</ele>
        <time>2013-04-17T18:23:48Z</time>
      </trkpt>
      <trkpt lat="59.9947494" lon="17.7133161">
        <ele>31.3801</ele>
        <time>2013-04-17T18:23:49Z</time>
      </trkpt>
      <trkpt lat="59.9948227" lon="17.7133682">
        <ele>31.3801</ele>
        <time>2013-04-17T18:23:50Z</time>
      </trkpt>
      <trkpt lat="59.994896" lon="17.7134202">
        <ele>31.3801</ele>
        <time>2013-04-17T18:23:51Z</time>
      </trkpt>
      <trkpt lat="59.9949696" lon="17.7134709">
        <ele>31.8607</ele>
        <time>2013-04-17T18:23:52Z</time>
      </trkpt>
      <trkpt lat="59.9950431" lon="17.713521">
        <ele>31.8607</ele>
        <time>2013-04-17T18:23:53Z</time>
      </trkpt>
      <trkpt lat="59.9951166" lon="17.7135705">
        <ele>31.8607</ele>
        <time>2013-04-17T18:23:54Z</time>
      </trkpt>
      <trkpt lat="59.9951896" lon="17.71362">
        <ele>31.8607</ele>
        <time>2013-04-17T18:23:55Z</time>
      </trkpt>
      <trkpt lat="59.9952628" lon="17.7136694">
        <ele>32.3416</ele>
        <time>2013-04-17T18:23:56Z</time>
      </trkpt>
      <trkpt lat="59.9953367" lon="17.7137183">
        <ele>32.3416</ele>
        <time>2013-04-17T18:23:57Z</time>
      </trkpt>
      <trkpt lat="59.9954114" lon="17.7137672">
        <ele>32.3416</ele>
        <time>2013-04-17T18:23:58Z</time>
      </trkpt>
      <trkpt lat="59.995487" lon="17.7138176">
        <ele>32.3416</ele>
        <time>2013-04-17T18:23:59Z</time>
      </trkpt>
      <trkpt lat="59.9955633" lon="17.7138682">
        <ele>32.3416</ele>
        <time>2013-04-17T18:24:00Z</time>
      </trkpt>
      <trkpt lat="59.9956403" lon="17.7139178">
        <ele>32.3416</ele>
        <time>2013-04-17T18:24:01Z</time>
      </trkpt>
      <trkpt lat="59.9957178" lon="17.7139666">
        <ele>32.3416</ele>
        <time>2013-04-17T18:24:02Z</time>
      </trkpt>
      <trkpt lat="59.9957953" lon="17.7140147">
        <ele>32.8223</ele>
        <time>2013-04-17T18:24:03Z</time>
      </trkpt>
      <trkpt lat="59.9958729" lon="17.7140617">
        <ele>32.8223</ele>
        <time>2013-04-17T18:24:04Z</time>
      </trkpt>
      <trkpt lat="59.9959505" lon="17.7141082">
        <ele>32.8223</ele>
        <time>2013-04-17T18:24:05Z</time>
      </trkpt>
      <trkpt lat="59.9960283" lon="17.7141542">
        <ele>32.8223</ele>
        <time>2013-04-17T18:24:06Z</time>
      </trkpt>
      <trkpt lat="59.996106" lon="17.7141992">
        <ele>32.8223</ele>
        <time>2013-04-17T18:24:07Z</time>
      </trkpt>
      <trkpt lat="59.9961841" lon="17.7142448">
        <ele>32.8223</ele>
        <time>2013-04-17T18:24:08Z</time>
      </trkpt>
      <trkpt lat="59.996262" lon="17.7142915">
        <ele>32.8223</ele>
        <time>2013-04-17T18:24:09Z</time>
      </trkpt>
      <trkpt lat="59.9963397" lon="17.7143374">
        <ele>32.3416</ele>
        <time>2013-04-17T18:24:10Z</time>
      </trkpt>
      <trkpt lat="59.9964183" lon="17.714382">
        <ele>32.3416</ele>
        <time>2013-04-17T18:24:11Z</time>
      </trkpt>
      <trkpt lat="59.9964975" lon="17.7144264">
        <ele>32.3416</ele>
        <time>2013-04-17T18:24:12Z</time>
      </trkpt>
      <trkpt lat="59.9965759" lon="17.7144707">
        <ele>31.8607</ele>
        <time>2013-04-17T18:24:13Z</time>
      </trkpt>
      <trkpt lat="59.9966544" lon="17.7145153">
        <ele>31.8607</ele>
        <time>2013-04-17T18:24:14Z</time>
      </trkpt>
      <trkpt lat="59.9967332" lon="17.7145613">
        <ele>31.8607</ele>
        <time>2013-04-17T18:24:15Z</time>
      </trkpt>
      <trkpt lat="59.996813" lon="17.714608">
        <ele>31.3801</ele>
        <time>2013-04-17T18:24:16Z</time>
      </trkpt>
      <trkpt lat="59.9968935" lon="17.7146546">
        <ele>31.3801</ele>
        <time>2013-04-17T18:24:17Z</time>
      </trkpt>
      <trkpt lat="59.9969747" lon="17.7147012">
        <ele>30.8995</ele>
        <time>2013-04-17T18:24:18Z</time>
      </trkpt>
      <trkpt lat="59.9970561" lon="17.7147499">
        <ele>30.8995</ele>
        <time>2013-04-17T18:24:19Z</time>
      </trkpt>
      <trkpt lat="59.9971405" lon="17.7148012">
        <ele>30.8995</ele>
        <time>2013-04-17T18:24:20Z</time>
      </trkpt>
      <trkpt lat="59.9972259" lon="17.7148525">
        <ele>30.8995</ele>
        <time>2013-04-17T18:24:21Z</time>
      </trkpt>
      <trkpt lat="59.9973121" lon="17.7149046">
        <ele>30.4188</ele>
        <time>2013-04-17T18:24:22Z</time>
      </trkpt>
      <trkpt lat="59.9973985" lon="17.7149597">
        <ele>30.4188</ele>
        <time>2013-04-17T18:24:23Z</time>
      </trkpt>
      <trkpt lat="59.9974865" lon="17.7150176">
        <ele>29.9381</ele>
        <time>2013-04-17T18:24:24Z</time>
      </trkpt>
      <trkpt lat="59.997575" lon="17.7150768">
        <ele>29.9381</ele>
        <time>2013-04-17T18:24:25Z</time>
      </trkpt>
      <trkpt lat="59.9976627" lon="17.7151368">
        <ele>29.9381</ele>
        <time>2013-04-17T18:24:26Z</time>
      </trkpt>
      <trkpt lat="59.9977492" lon="17.715199">
        <ele>29.4575</ele>
        <time>2013-04-17T18:24:27Z</time>
      </trkpt>
      <trkpt lat="59.9978355" lon="17.7152632">
        <ele>29.4575</ele>
        <time>2013-04-17T18:24:28Z</time>
      </trkpt>
      <trkpt lat="59.9979227" lon="17.7153279">
        <ele>28.9769</ele>
        <time>2013-04-17T18:24:29Z</time>
      </trkpt>
      <trkpt lat="59.9980107" lon="17.7153949">
        <ele>28.9769</ele>
        <time>2013-04-17T18:24:30Z</time>
      </trkpt>
      <trkpt lat="59.9980987" lon="17.7154667">
        <ele>28.4962</ele>
        <time>2013-04-17T18:24:31Z</time>
      </trkpt>
      <trkpt lat="59.9981868" lon="17.7155414">
        <ele>28.0155</ele>
        <time>2013-04-17T18:24:32Z</time>
      </trkpt>
      <trkpt lat="59.9982748" lon="17.7156182">
        <ele>28.0155</ele>
        <time>2013-04-17T18:24:33Z</time>
      </trkpt>
      <trkpt lat="59.9983625" lon="17.7156964">
        <ele>27.5349</ele>
        <time>2013-04-17T18:24:34Z</time>
      </trkpt>
      <trkpt lat="59.9984493" lon="17.7157766">
        <ele>27.5349</ele>
        <time>2013-04-17T18:24:35Z</time>
      </trkpt>
      <trkpt lat="59.9985355" lon="17.7158579">
        <ele>27.0543</ele>
        <time>2013-04-17T18:24:36Z</time>
      </trkpt>
      <trkpt lat="59.9986221" lon="17.7159401">
        <ele>27.0543</ele>
        <time>2013-04-17T18:24:37Z</time>
      </trkpt>
      <trkpt lat="59.9987089" lon="17.7160241">
        <ele>26.5736</ele>
        <time>2013-04-17T18:24:38Z</time>
      </trkpt>
      <trkpt lat="59.9987954" lon="17.7161111">
        <ele>26.5736</ele>
        <time>2013-04-17T18:24:39Z</time>
      </trkpt>
      <trkpt lat="59.9988809" lon="17.7162027">
        <ele>26.0929</ele>
        <time>2013-04-17T18:24:40Z</time>
      </trkpt>
      <trkpt lat="59.9989658" lon="17.7162982">
        <ele>26.0929</ele>
        <time>2013-04-17T18:24:41Z</time>
      </trkpt>
      <trkpt lat="59.9990514" lon="17.7163943">
        <ele>25.6123</ele>
        <time>2013-04-17T18:24:42Z</time>
      </trkpt>
      <trkpt lat="59.9991369" lon="17.7164914">
        <ele>25.6123</ele>
        <time>2013-04-17T18:24:43Z</time>
      </trkpt>
      <trkpt lat="59.9992215" lon="17.7165914">
        <ele>25.1317</ele>
        <time>2013-04-17T18:24:44Z</time>
      </trkpt>
      <trkpt lat="59.9993052" lon="17.716693">
        <ele>25.1317</ele>
        <time>2013-04-17T18:24:45Z</time>
      </trkpt>
      <trkpt lat="59.9993876" lon="17.7167951">
        <ele>25.1317</ele>
        <time>2013-04-17T18:24:46Z</time>
      </trkpt>
      <trkpt lat="59.9994695" lon="17.716896">
        <ele>24.651</ele>
        <time>2013-04-17T18:24:47Z</time>
      </trkpt>
      <trkpt lat="59.9995509" lon="17.716999">
        <ele>24.651</ele>
        <time>2013-04-17T18:24:48Z</time>
      </trkpt>
      <trkpt lat="59.9996311" lon="17.7171068">
        <ele>24.651</ele>
        <time>2013-04-17T18:24:49Z</time>
      </trkpt>
      <trkpt lat="59.999711" lon="17.7172167">
        <ele>24.1703</ele>
        <time>2013-04-17T18:24:50Z</time>
      </trkpt>
      <trkpt lat="59.999792" lon="17.717327">
        <ele>24.1703</ele>
        <time>2013-04-17T18:24:51Z</time>
      </trkpt>
      <trkpt lat="59.999873" lon="17.7174399">
        <ele>24.1703</ele>
        <time>2013-04-17T18:24:52Z</time>
      </trkpt>
      <trkpt lat="59.9999541" lon="17.7175568">
        <ele>23.6896</ele>
        <time>2013-04-17T18:24:53Z</time>
      </trkpt>
      <trkpt lat="60.0000346" lon="17.7176778">
        <ele>23.6896</ele>
        <time>2013-04-17T18:24:54Z</time>
      </trkpt>
      <trkpt lat="60.0001149" lon="17.7178016">
        <ele>23.6896</ele>
        <time>2013-04-17T18:24:55Z</time>
      </trkpt>
      <trkpt lat="60.0001953" lon="17.7179266">
        <ele>23.6896</ele>
        <time>2013-04-17T18:24:56Z</time>
      </trkpt>
      <trkpt lat="60.0002755" lon="17.7180538">
        <ele>23.209</ele>
        <time>2013-04-17T18:24:57Z</time>
      </trkpt>
      <trkpt lat="60.0003551" lon="17.7181841">
        <ele>23.209</ele>
        <time>2013-04-17T18:24:58Z</time>
      </trkpt>
      <trkpt lat="60.000434" lon="17.7183164">
        <ele>23.209</ele>
        <time>2013-04-17T18:24:59Z</time>
      </trkpt>
      <trkpt lat="60.0005122" lon="17.7184511">
        <ele>23.209</ele>
        <time>2013-04-17T18:25:00Z</time>
      </trkpt>
      <trkpt lat="60.0005903" lon="17.7185879">
        <ele>23.209</ele>
        <time>2013-04-17T18:25:01Z</time>
      </trkpt>
      <trkpt lat="60.0006675" lon="17.7187265">
        <ele>22.7283</ele>
        <time>2013-04-17T18:25:02Z</time>
      </trkpt>
      <trkpt lat="60.0007444" lon="17.7188675">
        <ele>22.7283</ele>
        <time>2013-04-17T18:25:03Z</time>
      </trkpt>
      <trkpt lat="60.0008206" lon="17.719012">
        <ele>22.7283</ele>
        <time>2013-04-17T18:25:04Z</time>
      </trkpt>
      <trkpt lat="60.0008959" lon="17.7191596">
        <ele>22.7283</ele>
        <time>2013-04-17T18:25:05Z</time>
      </trkpt>
      <trkpt lat="60.0009705" lon="17.7193098">
        <ele>22.2476</ele>
        <time>2013-04-17T18:25:06Z</time>
      </trkpt>
      <trkpt lat="60.0010451" lon="17.7194607">
        <ele>22.2476</ele>
        <time>2013-04-17T18:25:07Z</time>
      </trkpt>
      <trkpt lat="60.0011194" lon="17.7196109">
        <ele>22.2476</ele>
        <time>2013-04-17T18:25:08Z</time>
      </trkpt>
      <trkpt lat="60.0011925" lon="17.7197615">
        <ele>22.2476</ele>
        <time>2013-04-17T18:25:09Z</time>
      </trkpt>
      <trkpt lat="60.0012647" lon="17.7199139">
        <ele>22.2476</ele>
        <time>2013-04-17T18:25:10Z</time>
      </trkpt>
      <trkpt lat="60.0013347" lon="17.7200671">
        <ele>22.2476</ele>
        <time>2013-04-17T18:25:11Z</time>
      </trkpt>
      <trkpt lat="60.0014017" lon="17.7202201">
        <ele>22.2476</ele>
        <time>2013-04-17T18:25:12Z</time>
      </trkpt>
      <trkpt lat="60.0014662" lon="17.7203733">
        <ele>22.2476</ele>
        <time>2013-04-17T18:25:13Z</time>
      </trkpt>
      <trkpt lat="60.0015302" lon="17.7205253">
        <ele>22.2476</ele>
        <time>2013-04-17T18:25:14Z</time>
      </trkpt>
      <trkpt lat="60.0015936" lon="17.7206774">
        <ele>22.2476</ele>
        <time>2013-04-17T18:25:15Z</time>
      </trkpt>
      <trkpt lat="60.0016556" lon="17.7208301">
        <ele>22.2476</ele>
        <time>2013-04-17T18:25:16Z</time>
      </trkpt>
      <trkpt lat="60.0017171" lon="17.720984">
        <ele>22.2476</ele>
        <time>2013-04-17T18:25:17Z</time>
      </trkpt>
      <trkpt lat="60.0017777" lon="17.7211399">
        <ele>22.2476</ele>
        <time>2013-04-17T18:25:18Z</time>
      </trkpt>
      <trkpt lat="60.0018368" lon="17.7212992">
        <ele>22.2476</ele>
        <time>2013-04-17T18:25:19Z</time>
      </trkpt>
      <trkpt lat="60.0018948" lon="17.7214617">
        <ele>22.2476</ele>
        <time>2013-04-17T18:25:20Z</time>
      </trkpt>
      <trkpt lat="60.0019523" lon="17.7216263">
        <ele>22.2476</ele>
        <time>2013-04-17T18:25:21Z</time>
      </trkpt>
      <trkpt lat="60.0020088" lon="17.7217926">
        <ele>22.2476</ele>
        <time>2013-04-17T18:25:22Z</time>
      </trkpt>
      <trkpt lat="60.0020656" lon="17.721958">
        <ele>22.2476</ele>
        <time>2013-04-17T18:25:23Z</time>
      </trkpt>
      <trkpt lat="60.002122" lon="17.722123">
        <ele>22.2476</ele>
        <time>2013-04-17T18:25:24Z</time>
      </trkpt>
      <trkpt lat="60.0021767" lon="17.7222885">
        <ele>22.7283</ele>
        <time>2013-04-17T18:25:25Z</time>
      </trkpt>
      <trkpt lat="60.0022301" lon="17.7224527">
        <ele>22.7283</ele>
        <time>2013-04-17T18:25:26Z</time>
      </trkpt>
      <trkpt lat="60.0022812" lon="17.7226151">
        <ele>23.209</ele>
        <time>2013-04-17T18:25:27Z</time>
      </trkpt>
      <trkpt lat="60.00233" lon="17.722776">
        <ele>23.209</ele>
        <time>2013-04-17T18:25:28Z</time>
      </trkpt>
      <trkpt lat="60.0023772" lon="17.7229366">
        <ele>23.6896</ele>
        <time>2013-04-17T18:25:29Z</time>
      </trkpt>
      <trkpt lat="60.0024237" lon="17.7230961">
        <ele>23.6896</ele>
        <time>2013-04-17T18:25:30Z</time>
      </trkpt>
      <trkpt lat="60.0024703" lon="17.7232515">
        <ele>24.1703</ele>
        <time>2013-04-17T18:25:31Z</time>
      </trkpt>
      <trkpt lat="60.002516" lon="17.7234049">
        <ele>24.1703</ele>
        <time>2013-04-17T18:25:32Z</time>
      </trkpt>
      <trkpt lat="60.002561" lon="17.723557">
        <ele>24.651</ele>
        <time>2013-04-17T18:25:33Z</time>
      </trkpt>
      <trkpt lat="60.0026056" lon="17.7237069">
        <ele>25.1317</ele>
        <time>2013-04-17T18:25:34Z</time>
      </trkpt>
      <trkpt lat="60.0026489" lon="17.7238561">
        <ele>25.1317</ele>
        <time>2013-04-17T18:25:35Z</time>
      </trkpt>
      <trkpt lat="60.002692" lon="17.7240014">
        <ele>25.6123</ele>
        <time>2013-04-17T18:25:36Z</time>
      </trkpt>
      <trkpt lat="60.0027349" lon="17.7241424">
        <ele>26.0929</ele>
        <time>2013-04-17T18:25:37Z</time>
      </trkpt>
      <trkpt lat="60.0027763" lon="17.724281">
        <ele>26.5736</ele>
        <time>2013-04-17T18:25:38Z</time>
      </trkpt>
      <trkpt lat="60.0028163" lon="17.7244174">
        <ele>26.5736</ele>
        <time>2013-04-17T18:25:39Z</time>
      </trkpt>
      <trkpt lat="60.0028556" lon="17.7245517">
        <ele>27.0543</ele>
        <time>2013-04-17T18:25:40Z</time>
      </trkpt>
      <trkpt lat="60.0028943" lon="17.7246832">
        <ele>27.5349</ele>
        <time>2013-04-17T18:25:41Z</time>
      </trkpt>
      <trkpt lat="60.0029319" lon="17.7248095">
        <ele>28.0155</ele>
        <time>2013-04-17T18:25:42Z</time>
      </trkpt>
      <trkpt lat="60.0029689" lon="17.7249333">
        <ele>28.0155</ele>
        <time>2013-04-17T18:25:43Z</time>
      </trkpt>
      <trkpt lat="60.0030057" lon="17.7250577">
        <ele>28.4962</ele>
        <time>2013-04-17T18:25:44Z</time>
      </trkpt>
      <trkpt lat="60.0030423" lon="17.7251809">
        <ele>28.9769</ele>
        <time>2013-04-17T18:25:45Z</time>
      </trkpt>
      <trkpt lat="60.0030794" lon="17.7253032">
        <ele>29.4575</ele>
        <time>2013-04-17T18:25:46Z</time>
      </trkpt>
      <trkpt lat="60.0031167" lon="17.7254261">
        <ele>29.4575</ele>
        <time>2013-04-17T18:25:47Z</time>
      </trkpt>
      <trkpt lat="60.0031531" lon="17.7255488">
        <ele>29.9381</ele>
        <time>2013-04-17T18:25:48Z</time>
      </trkpt>
      <trkpt lat="60.0031894" lon="17.7256711">
        <ele>30.4188</ele>
        <time>2013-04-17T18:25:49Z</time>
      </trkpt>
      <trkpt lat="60.0032261" lon="17.7257936">
        <ele>30.8995</ele>
        <time>2013-04-17T18:25:50Z</time>
      </trkpt>
      <trkpt lat="60.0032613" lon="17.7259144">
        <ele>30.8995</ele>
        <time>2013-04-17T18:25:51Z</time>
      </trkpt>
      <trkpt lat="60.0032969" lon="17.7260346">
        <ele>31.3801</ele>
        <time>2013-04-17T18:25:52Z</time>
      </trkpt>
      <trkpt lat="60.0033324" lon="17.7261548">
        <ele>31.3801</ele>
        <time>2013-04-17T18:25:53Z</time>
      </trkpt>
      <trkpt lat="60.0033683" lon="17.7262751">
        <ele>31.8607</ele>
        <time>2013-04-17T18:25:54Z</time>
      </trkpt>
      <trkpt lat="60.0034043" lon="17.7263942">
        <ele>32.3416</ele>
        <time>2013-04-17T18:25:55Z</time>
      </trkpt>
      <trkpt lat="60.0034404" lon="17.7265127">
        <ele>32.8223</ele>
        <time>2013-04-17T18:25:56Z</time>
      </trkpt>
      <trkpt lat="60.0034753" lon="17.7266315">
        <ele>33.3029</ele>
        <time>2013-04-17T18:25:57Z</time>
      </trkpt>
      <trkpt lat="60.00351" lon="17.7267495">
        <ele>33.3029</ele>
        <time>2013-04-17T18:25:58Z</time>
      </trkpt>
      <trkpt lat="60.0035441" lon="17.7268638">
        <ele>33.3029</ele>
        <time>2013-04-17T18:25:59Z</time>
      </trkpt>
      <trkpt lat="60.0035753" lon="17.7269763">
        <ele>33.7834</ele>
        <time>2013-04-17T18:26:00Z</time>
      </trkpt>
      <trkpt lat="60.0036049" lon="17.7270877">
        <ele>33.7834</ele>
        <time>2013-04-17T18:26:01Z</time>
      </trkpt>
      <trkpt lat="60.0036344" lon="17.7271965">
        <ele>34.2642</ele>
        <time>2013-04-17T18:26:02Z</time>
      </trkpt>
      <trkpt lat="60.0036638" lon="17.7273026">
        <ele>34.2642</ele>
        <time>2013-04-17T18:26:03Z</time>
      </trkpt>
      <trkpt lat="60.0036932" lon="17.7274069">
        <ele>34.2642</ele>
        <time>2013-04-17T18:26:04Z</time>
      </trkpt>
      <trkpt lat="60.0037228" lon="17.7275094">
        <ele>34.2642</ele>
        <time>2013-04-17T18:26:05Z</time>
      </trkpt>
      <trkpt lat="60.0037528" lon="17.7276091">
        <ele>34.7449</ele>
        <time>2013-04-17T18:26:06Z</time>
      </trkpt>
      <trkpt lat="60.0037829" lon="17.7277067">
        <ele>35.2255</ele>
        <time>2013-04-17T18:26:07Z</time>
      </trkpt>
      <trkpt lat="60.003812" lon="17.7278032">
        <ele>35.2255</ele>
        <time>2013-04-17T18:26:08Z</time>
      </trkpt>
      <trkpt lat="60.00384" lon="17.7278994">
        <ele>35.7061</ele>
        <time>2013-04-17T18:26:09Z</time>
      </trkpt>
      <trkpt lat="60.003868" lon="17.7279941">
        <ele>35.7061</ele>
        <time>2013-04-17T18:26:10Z</time>
      </trkpt>
      <trkpt lat="60.003896" lon="17.7280861">
        <ele>36.1868</ele>
        <time>2013-04-17T18:26:11Z</time>
      </trkpt>
      <trkpt lat="60.0039236" lon="17.7281771">
        <ele>36.6675</ele>
        <time>2013-04-17T18:26:12Z</time>
      </trkpt>
      <trkpt lat="60.0039495" lon="17.7282684">
        <ele>36.6675</ele>
        <time>2013-04-17T18:26:13Z</time>
      </trkpt>
      <trkpt lat="60.0039741" lon="17.7283605">
        <ele>37.1481</ele>
        <time>2013-04-17T18:26:14Z</time>
      </trkpt>
      <trkpt lat="60.0039906" lon="17.728459">
        <ele>37.1481</ele>
        <time>2013-04-17T18:26:15Z</time>
      </trkpt>
      <trkpt lat="60.0039903" lon="17.7285652">
        <ele>37.6287</ele>
        <time>2013-04-17T18:26:16Z</time>
      </trkpt>
      <trkpt lat="60.0039871" lon="17.7286564">
        <ele>37.1481</ele>
        <time>2013-04-17T18:26:17Z</time>
      </trkpt>
      <trkpt lat="60.0039652" lon="17.7287303">
        <ele>37.1481</ele>
        <time>2013-04-17T18:26:18Z</time>
      </trkpt>
      <trkpt lat="60.0039321" lon="17.7287903">
        <ele>37.1481</ele>
        <time>2013-04-17T18:26:19Z</time>
      </trkpt>
      <trkpt lat="60.0039011" lon="17.7288491">
        <ele>37.1481</ele>
        <time>2013-04-17T18:26:20Z</time>
      </trkpt>
      <trkpt lat="60.0038731" lon="17.7289071">
        <ele>37.1481</ele>
        <time>2013-04-17T18:26:21Z</time>
      </trkpt>
      <trkpt lat="60.0038373" lon="17.7289733">
        <ele>37.1481</ele>
        <time>2013-04-17T18:26:22Z</time>
      </trkpt>
      <trkpt lat="60.0038062" lon="17.7290319">
        <ele>36.6675</ele>
        <time>2013-04-17T18:26:23Z</time>
      </trkpt>
      <trkpt lat="60.0037731" lon="17.729091">
        <ele>36.6675</ele>
        <time>2013-04-17T18:26:24Z</time>
      </trkpt>
      <trkpt lat="60.0037384" lon="17.7291498">
        <ele>36.1868</ele>
        <time>2013-04-17T18:26:25Z</time>
      </trkpt>
      <trkpt lat="60.0037027" lon="17.7292075">
        <ele>36.1868</ele>
        <time>2013-04-17T18:26:26Z</time>
      </trkpt>
      <trkpt lat="60.0036701" lon="17.7292614">
        <ele>35.7061</ele>
        <time>2013-04-17T18:26:27Z</time>
      </trkpt>
      <trkpt lat="60.0036356" lon="17.7293195">
        <ele>35.2255</ele>
        <time>2013-04-17T18:26:28Z</time>
      </trkpt>
      <trkpt lat="60.0036001" lon="17.7293809">
        <ele>35.2255</ele>
        <time>2013-04-17T18:26:29Z</time>
      </trkpt>
      <trkpt lat="60.0035638" lon="17.729443">
        <ele>35.2255</ele>
        <time>2013-04-17T18:26:30Z</time>
      </trkpt>
      <trkpt lat="60.0035276" lon="17.7295041">
        <ele>35.2255</ele>
        <time>2013-04-17T18:26:31Z</time>
      </trkpt>
      <trkpt lat="60.0034923" lon="17.7295653">
        <ele>35.2255</ele>
        <time>2013-04-17T18:26:32Z</time>
      </trkpt>
      <trkpt lat="60.003457" lon="17.7296286">
        <ele>35.2255</ele>
        <time>2013-04-17T18:26:33Z</time>
      </trkpt>
      <trkpt lat="60.0034206" lon="17.7296906">
        <ele>35.2255</ele>
        <time>2013-04-17T18:26:34Z</time>
      </trkpt>
      <trkpt lat="60.003388" lon="17.7297483">
        <ele>35.2255</ele>
        <time>2013-04-17T18:26:35Z</time>
      </trkpt>
      <trkpt lat="60.0033531" lon="17.7298017">
        <ele>35.7061</ele>
        <time>2013-04-17T18:26:36Z</time>
      </trkpt>
      <trkpt lat="60.0033177" lon="17.7298644">
        <ele>35.7061</ele>
        <time>2013-04-17T18:26:37Z</time>
      </trkpt>
      <trkpt lat="60.0032804" lon="17.7299323">
        <ele>35.7061</ele>
        <time>2013-04-17T18:26:38Z</time>
      </trkpt>
      <trkpt lat="60.0032437" lon="17.72999">
        <ele>35.7061</ele>
        <time>2013-04-17T18:26:39Z</time>
      </trkpt>
      <trkpt lat="60.003206" lon="17.7300525">
        <ele>35.7061</ele>
        <time>2013-04-17T18:26:40Z</time>
      </trkpt>
      <trkpt lat="60.0031676" lon="17.7301161">
        <ele>35.7061</ele>
        <time>2013-04-17T18:26:41Z</time>
      </trkpt>
      <trkpt lat="60.0031295" lon="17.7301829">
        <ele>35.7061</ele>
        <time>2013-04-17T18:26:42Z</time>
      </trkpt>
      <trkpt lat="60.0030867" lon="17.7302555">
        <ele>36.1868</ele>
        <time>2013-04-17T18:26:43Z</time>
      </trkpt>
      <trkpt lat="60.0030458" lon="17.7303245">
        <ele>36.1868</ele>
        <time>2013-04-17T18:26:44Z</time>
      </trkpt>
      <trkpt lat="60.0030047" lon="17.7303899">
        <ele>36.6675</ele>
        <time>2013-04-17T18:26:45Z</time>
      </trkpt>
      <trkpt lat="60.0029646" lon="17.730456">
        <ele>36.6675</ele>
        <time>2013-04-17T18:26:46Z</time>
      </trkpt>
      <trkpt lat="60.002926" lon="17.7305233">
        <ele>36.6675</ele>
        <time>2013-04-17T18:26:47Z</time>
      </trkpt>
      <trkpt lat="60.0028882" lon="17.7305926">
        <ele>36.6675</ele>
        <time>2013-04-17T18:26:48Z</time>
      </trkpt>
      <trkpt lat="60.00285" lon="17.7306637">
        <ele>36.6675</ele>
        <time>2013-04-17T18:26:49Z</time>
      </trkpt>
      <trkpt lat="60.002812" lon="17.7307351">
        <ele>36.6675</ele>
        <time>2013-04-17T18:26:50Z</time>
      </trkpt>
      <trkpt lat="60.0027738" lon="17.7308091">
        <ele>36.6675</ele>
        <time>2013-04-17T18:26:51Z</time>
      </trkpt>
      <trkpt lat="60.0027374" lon="17.7308854">
        <ele>36.6675</ele>
        <time>2013-04-17T18:26:52Z</time>
      </trkpt>
      <trkpt lat="60.0027028" lon="17.7309646">
        <ele>36.6675</ele>
        <time>2013-04-17T18:26:53Z</time>
      </trkpt>
      <trkpt lat="60.0026708" lon="17.7310468">
        <ele>36.6675</ele>
        <time>2013-04-17T18:26:54Z</time>
      </trkpt>
      <trkpt lat="60.0026395" lon="17.7311313">
        <ele>36.6675</ele>
        <time>2013-04-17T18:26:55Z</time>
      </trkpt>
      <trkpt lat="60.0026086" lon="17.7312163">
        <ele>36.6675</ele>
        <time>2013-04-17T18:26:56Z</time>
      </trkpt>
      <trkpt lat="60.0025796" lon="17.7313034">
        <ele>36.6675</ele>
        <time>2013-04-17T18:26:57Z</time>
      </trkpt>
      <trkpt lat="60.0025512" lon="17.7313915">
        <ele>36.6675</ele>
        <time>2013-04-17T18:26:58Z</time>
      </trkpt>
      <trkpt lat="60.00252" lon="17.7314832">
        <ele>36.6675</ele>
        <time>2013-04-17T18:26:59Z</time>
      </trkpt>
      <trkpt lat="60.002489" lon="17.7315744">
        <ele>37.1481</ele>
        <time>2013-04-17T18:27:00Z</time>
      </trkpt>
      <trkpt lat="60.002461" lon="17.7316634">
        <ele>36.6675</ele>
        <time>2013-04-17T18:27:01Z</time>
      </trkpt>
      <trkpt lat="60.0024351" lon="17.7317508">
        <ele>36.6675</ele>
        <time>2013-04-17T18:27:02Z</time>
      </trkpt>
      <trkpt lat="60.0024105" lon="17.7318414">
        <ele>36.6675</ele>
        <time>2013-04-17T18:27:03Z</time>
      </trkpt>
      <trkpt lat="60.002386" lon="17.731936">
        <ele>36.6675</ele>
        <time>2013-04-17T18:27:04Z</time>
      </trkpt>
      <trkpt lat="60.0023614" lon="17.7320347">
        <ele>36.6675</ele>
        <time>2013-04-17T18:27:05Z</time>
      </trkpt>
      <trkpt lat="60.0023367" lon="17.7321337">
        <ele>37.1481</ele>
        <time>2013-04-17T18:27:06Z</time>
      </trkpt>
      <trkpt lat="60.0023137" lon="17.7322309">
        <ele>37.1481</ele>
        <time>2013-04-17T18:27:07Z</time>
      </trkpt>
      <trkpt lat="60.0022922" lon="17.7323255">
        <ele>37.6287</ele>
        <time>2013-04-17T18:27:08Z</time>
      </trkpt>
      <trkpt lat="60.0022714" lon="17.7324214">
        <ele>38.1094</ele>
        <time>2013-04-17T18:27:09Z</time>
      </trkpt>
      <trkpt lat="60.0022527" lon="17.732515">
        <ele>38.1094</ele>
        <time>2013-04-17T18:27:10Z</time>
      </trkpt>
      <trkpt lat="60.0022376" lon="17.7326114">
        <ele>38.1094</ele>
        <time>2013-04-17T18:27:11Z</time>
      </trkpt>
      <trkpt lat="60.0022214" lon="17.7327072">
        <ele>38.5901</ele>
        <time>2013-04-17T18:27:12Z</time>
      </trkpt>
      <trkpt lat="60.0022123" lon="17.7328036">
        <ele>38.1094</ele>
        <time>2013-04-17T18:27:13Z</time>
      </trkpt>
      <trkpt lat="60.0022107" lon="17.7329003">
        <ele>38.5901</ele>
        <time>2013-04-17T18:27:14Z</time>
      </trkpt>
      <trkpt lat="60.0022158" lon="17.7329946">
        <ele>39.0707</ele>
        <time>2013-04-17T18:27:15Z</time>
      </trkpt>
      <trkpt lat="60.0022256" lon="17.7330868">
        <ele>39.5513</ele>
        <time>2013-04-17T18:27:16Z</time>
      </trkpt>
      <trkpt lat="60.0022388" lon="17.7331745">
        <ele>40.9934</ele>
        <time>2013-04-17T18:27:17Z</time>
      </trkpt>
      <trkpt lat="60.0022603" lon="17.7332605">
        <ele>42.4354</ele>
        <time>2013-04-17T18:27:18Z</time>
      </trkpt>
      <trkpt lat="60.0022813" lon="17.7333515">
        <ele>43.3966</ele>
        <time>2013-04-17T18:27:19Z</time>
      </trkpt>
      <trkpt lat="60.0022933" lon="17.7334484">
        <ele>44.8386</ele>
        <time>2013-04-17T18:27:20Z</time>
      </trkpt>
      <trkpt lat="60.0022994" lon="17.7335477">
        <ele>45.3192</ele>
        <time>2013-04-17T18:27:21Z</time>
      </trkpt>
      <trkpt lat="60.0022968" lon="17.7336469">
        <ele>45.3192</ele>
        <time>2013-04-17T18:27:22Z</time>
      </trkpt>
      <trkpt lat="60.00229" lon="17.7337413">
        <ele>45.7999</ele>
        <time>2013-04-17T18:27:23Z</time>
      </trkpt>
      <trkpt lat="60.0022805" lon="17.7338345">
        <ele>46.2806</ele>
        <time>2013-04-17T18:27:24Z</time>
      </trkpt>
      <trkpt lat="60.0022666" lon="17.7339246">
        <ele>46.7612</ele>
        <time>2013-04-17T18:27:25Z</time>
      </trkpt>
      <trkpt lat="60.0022496" lon="17.7340105">
        <ele>46.7612</ele>
        <time>2013-04-17T18:27:26Z</time>
      </trkpt>
      <trkpt lat="60.0022315" lon="17.7340923">
        <ele>46.7612</ele>
        <time>2013-04-17T18:27:27Z</time>
      </trkpt>
      <trkpt lat="60.002216" lon="17.7341742">
        <ele>46.2806</ele>
        <time>2013-04-17T18:27:28Z</time>
      </trkpt>
      <trkpt lat="60.0022024" lon="17.7342576">
        <ele>46.7612</ele>
        <time>2013-04-17T18:27:29Z</time>
      </trkpt>
      <trkpt lat="60.0021868" lon="17.7343421">
        <ele>46.7612</ele>
        <time>2013-04-17T18:27:30Z</time>
      </trkpt>
      <trkpt lat="60.0021708" lon="17.7344256">
        <ele>46.7612</ele>
        <time>2013-04-17T18:27:31Z</time>
      </trkpt>
      <trkpt lat="60.0021536" lon="17.7345104">
        <ele>46.7612</ele>
        <time>2013-04-17T18:27:32Z</time>
      </trkpt>
      <trkpt lat="60.0021357" lon="17.7345962">
        <ele>47.2418</ele>
        <time>2013-04-17T18:27:33Z</time>
      </trkpt>
      <trkpt lat="60.0021158" lon="17.7346829">
        <ele>47.2418</ele>
        <time>2013-04-17T18:27:34Z</time>
      </trkpt>
      <trkpt lat="60.0020978" lon="17.7347601">
        <ele>46.7612</ele>
        <time>2013-04-17T18:27:35Z</time>
      </trkpt>
      <trkpt lat="60.0020809" lon="17.734832">
        <ele>46.2806</ele>
        <time>2013-04-17T18:27:36Z</time>
      </trkpt>
      <trkpt lat="60.0020629" lon="17.7349102">
        <ele>46.2806</ele>
        <time>2013-04-17T18:27:37Z</time>
      </trkpt>
      <trkpt lat="60.0020445" lon="17.7349812">
        <ele>46.2806</ele>
        <time>2013-04-17T18:27:38Z</time>
      </trkpt>
      <trkpt lat="60.0020236" lon="17.7350502">
        <ele>46.2806</ele>
        <time>2013-04-17T18:27:39Z</time>
      </trkpt>
      <trkpt lat="60.0020046" lon="17.7351109">
        <ele>46.2806</ele>
        <time>2013-04-17T18:27:40Z</time>
      </trkpt>
      <trkpt lat="60.0019816" lon="17.735174">
        <ele>46.2806</ele>
        <time>2013-04-17T18:27:41Z</time>
      </trkpt>
      <trkpt lat="60.0019612" lon="17.735229">
        <ele>46.2806</ele>
        <time>2013-04-17T18:27:42Z</time>
      </trkpt>
      <trkpt lat="60.0019414" lon="17.7352864">
        <ele>46.2806</ele>
        <time>2013-04-17T18:27:43Z</time>
      </trkpt>
      <trkpt lat="60.0019191" lon="17.7353422">
        <ele>46.7612</ele>
        <time>2013-04-17T18:27:44Z</time>
      </trkpt>
      <trkpt lat="60.0018946" lon="17.7353935">
        <ele>46.7612</ele>
        <time>2013-04-17T18:27:45Z</time>
      </trkpt>
      <trkpt lat="60.0018706" lon="17.7354405">
        <ele>47.2418</ele>
        <time>2013-04-17T18:27:46Z</time>
      </trkpt>
      <trkpt lat="60.0018456" lon="17.7354801">
        <ele>47.2418</ele>
        <time>2013-04-17T18:27:47Z</time>
      </trkpt>
      <trkpt lat="60.0018248" lon="17.7355112">
        <ele>47.7225</ele>
        <time>2013-04-17T18:27:48Z</time>
      </trkpt>
      <trkpt lat="60.0018013" lon="17.7355414">
        <ele>48.2034</ele>
        <time>2013-04-17T18:27:49Z</time>
      </trkpt>
      <trkpt lat="60.0017791" lon="17.7355796">
        <ele>48.2034</ele>
        <time>2013-04-17T18:27:50Z</time>
      </trkpt>
      <trkpt lat="60.0017581" lon="17.7356182">
        <ele>47.7225</ele>
        <time>2013-04-17T18:27:51Z</time>
      </trkpt>
      <trkpt lat="60.0017346" lon="17.7356464">
        <ele>47.7225</ele>
        <time>2013-04-17T18:27:52Z</time>
      </trkpt>
      <trkpt lat="60.0017094" lon="17.7356729">
        <ele>47.2418</ele>
        <time>2013-04-17T18:27:53Z</time>
      </trkpt>
      <trkpt lat="60.0016825" lon="17.7357019">
        <ele>47.2418</ele>
        <time>2013-04-17T18:27:54Z</time>
      </trkpt>
      <trkpt lat="60.0016565" lon="17.735737">
        <ele>47.2418</ele>
        <time>2013-04-17T18:27:55Z</time>
      </trkpt>
      <trkpt lat="60.0016286" lon="17.7357789">
        <ele>47.2418</ele>
        <time>2013-04-17T18:27:56Z</time>
      </trkpt>
      <trkpt lat="60.0016004" lon="17.7358256">
        <ele>47.2418</ele>
        <time>2013-04-17T18:27:57Z</time>
      </trkpt>
      <trkpt lat="60.0015677" lon="17.735868">
        <ele>47.7225</ele>
        <time>2013-04-17T18:27:58Z</time>
      </trkpt>
      <trkpt lat="60.0015337" lon="17.7359019">
        <ele>47.7225</ele>
        <time>2013-04-17T18:27:59Z</time>
      </trkpt>
      <trkpt lat="60.0015004" lon="17.7359406">
        <ele>47.2418</ele>
        <time>2013-04-17T18:28:00Z</time>
      </trkpt>
      <trkpt lat="60.0014667" lon="17.7359806">
        <ele>47.2418</ele>
        <time>2013-04-17T18:28:01Z</time>
      </trkpt>
      <trkpt lat="60.0014331" lon="17.7360186">
        <ele>46.7612</ele>
        <time>2013-04-17T18:28:02Z</time>
      </trkpt>
      <trkpt lat="60.001396" lon="17.7360577">
        <ele>46.2806</ele>
        <time>2013-04-17T18:28:03Z</time>
      </trkpt>
      <trkpt lat="60.001354" lon="17.7360925">
        <ele>45.7999</ele>
        <time>2013-04-17T18:28:04Z</time>
      </trkpt>
      <trkpt lat="60.0013104" lon="17.7361239">
        <ele>45.7999</ele>
        <time>2013-04-17T18:28:05Z</time>
      </trkpt>
      <trkpt lat="60.0012634" lon="17.7361542">
        <ele>45.7999</ele>
        <time>2013-04-17T18:28:06Z</time>
      </trkpt>
      <trkpt lat="60.0012141" lon="17.7361785">
        <ele>45.3192</ele>
        <time>2013-04-17T18:28:07Z</time>
      </trkpt>
      <trkpt lat="60.0011648" lon="17.7362033">
        <ele>45.3192</ele>
        <time>2013-04-17T18:28:08Z</time>
      </trkpt>
      <trkpt lat="60.0011151" lon="17.7362271">
        <ele>45.3192</ele>
        <time>2013-04-17T18:28:09Z</time>
      </trkpt>
      <trkpt lat="60.0010639" lon="17.7362534">
        <ele>45.7999</ele>
        <time>2013-04-17T18:28:10Z</time>
      </trkpt>
      <trkpt lat="60.0010147" lon="17.7362785">
        <ele>46.2806</ele>
        <time>2013-04-17T18:28:11Z</time>
      </trkpt>
      <trkpt lat="60.000967" lon="17.7363031">
        <ele>46.2806</ele>
        <time>2013-04-17T18:28:12Z</time>
      </trkpt>
      <trkpt lat="60.0009178" lon="17.736331">
        <ele>46.2806</ele>
        <time>2013-04-17T18:28:13Z</time>
      </trkpt>
      <trkpt lat="60.0008676" lon="17.7363649">
        <ele>46.7612</ele>
        <time>2013-04-17T18:28:14Z</time>
      </trkpt>
      <trkpt lat="60.0008189" lon="17.7364023">
        <ele>46.7612</ele>
        <time>2013-04-17T18:28:15Z</time>
      </trkpt>
      <trkpt lat="60.0007676" lon="17.7364441">
        <ele>46.2806</ele>
        <time>2013-04-17T18:28:16Z</time>
      </trkpt>
      <trkpt lat="60.0007117" lon="17.7364924">
        <ele>46.7612</ele>
        <time>2013-04-17T18:28:17Z</time>
      </trkpt>
      <trkpt lat="60.0006573" lon="17.7365387">
        <ele>47.2418</ele>
        <time>2013-04-17T18:28:18Z</time>
      </trkpt>
      <trkpt lat="60.000604" lon="17.7365846">
        <ele>47.7225</ele>
        <time>2013-04-17T18:28:19Z</time>
      </trkpt>
      <trkpt lat="60.0005511" lon="17.7366276">
        <ele>48.2034</ele>
        <time>2013-04-17T18:28:20Z</time>
      </trkpt>
      <trkpt lat="60.0004993" lon="17.7366638">
        <ele>48.684</ele>
        <time>2013-04-17T18:28:21Z</time>
      </trkpt>
      <trkpt lat="60.0004479" lon="17.7366978">
        <ele>49.1646</ele>
        <time>2013-04-17T18:28:22Z</time>
      </trkpt>
      <trkpt lat="60.0003993" lon="17.736727">
        <ele>50.126</ele>
        <time>2013-04-17T18:28:23Z</time>
      </trkpt>
      <trkpt lat="60.0003535" lon="17.7367493">
        <ele>50.126</ele>
        <time>2013-04-17T18:28:24Z</time>
      </trkpt>
      <trkpt lat="60.0003077" lon="17.7367689">
        <ele>50.6066</ele>
        <time>2013-04-17T18:28:25Z</time>
      </trkpt>
      <trkpt lat="60.0002635" lon="17.7367874">
        <ele>51.0872</ele>
        <time>2013-04-17T18:28:26Z</time>
      </trkpt>
      <trkpt lat="60.0002168" lon="17.7368094">
        <ele>52.0486</ele>
        <time>2013-04-17T18:28:27Z</time>
      </trkpt>
      <trkpt lat="60.0001677" lon="17.7368321">
        <ele>53.4905</ele>
        <time>2013-04-17T18:28:28Z</time>
      </trkpt>
      <trkpt lat="60.000121" lon="17.7368486">
        <ele>54.4518</ele>
        <time>2013-04-17T18:28:29Z</time>
      </trkpt>
      <trkpt lat="60.0000832" lon="17.7368488">
        <ele>54.9324</ele>
        <time>2013-04-17T18:28:30Z</time>
      </trkpt>
      <trkpt lat="60.0000474" lon="17.7368487">
        <ele>54.9324</ele>
        <time>2013-04-17T18:28:31Z</time>
      </trkpt>
      <trkpt lat="60.0000129" lon="17.7368509">
        <ele>55.8938</ele>
        <time>2013-04-17T18:28:32Z</time>
      </trkpt>
      <trkpt lat="59.9999691" lon="17.7368615">
        <ele>56.3745</ele>
        <time>2013-04-17T18:28:33Z</time>
      </trkpt>
      <trkpt lat="59.9999335" lon="17.7368596">
        <ele>56.3745</ele>
        <time>2013-04-17T18:28:34Z</time>
      </trkpt>
      <trkpt lat="59.9998956" lon="17.7368602">
        <ele>56.8551</ele>
        <time>2013-04-17T18:28:35Z</time>
      </trkpt>
      <trkpt lat="59.9998559" lon="17.7368575">
        <ele>56.8551</ele>
        <time>2013-04-17T18:28:36Z</time>
      </trkpt>
      <trkpt lat="59.9998143" lon="17.7368508">
        <ele>56.3745</ele>
        <time>2013-04-17T18:28:37Z</time>
      </trkpt>
      <trkpt lat="59.9997715" lon="17.7368424">
        <ele>56.3745</ele>
        <time>2013-04-17T18:28:38Z</time>
      </trkpt>
      <trkpt lat="59.9997262" lon="17.7368383">
        <ele>56.8551</ele>
        <time>2013-04-17T18:28:39Z</time>
      </trkpt>
      <trkpt lat="59.9996786" lon="17.736835">
        <ele>56.8551</ele>
        <time>2013-04-17T18:28:40Z</time>
      </trkpt>
      <trkpt lat="59.9996207" lon="17.7368435">
        <ele>57.3358</ele>
        <time>2013-04-17T18:28:41Z</time>
      </trkpt>
      <trkpt lat="59.9995571" lon="17.7368517">
        <ele>57.8165</ele>
        <time>2013-04-17T18:28:42Z</time>
      </trkpt>
      <trkpt lat="59.9994897" lon="17.7368568">
        <ele>57.8165</ele>
        <time>2013-04-17T18:28:43Z</time>
      </trkpt>
      <trkpt lat="59.9994235" lon="17.7368557">
        <ele>57.8165</ele>
        <time>2013-04-17T18:28:44Z</time>
      </trkpt>
      <trkpt lat="59.9993641" lon="17.7368477">
        <ele>57.3358</ele>
        <time>2013-04-17T18:28:45Z</time>
      </trkpt>
      <trkpt lat="59.9993006" lon="17.736842">
        <ele>56.8551</ele>
        <time>2013-04-17T18:28:46Z</time>
      </trkpt>
      <trkpt lat="59.9992307" lon="17.7368398">
        <ele>56.8551</ele>
        <time>2013-04-17T18:28:47Z</time>
      </trkpt>
      <trkpt lat="59.9991633" lon="17.7368316">
        <ele>56.3745</ele>
        <time>2013-04-17T18:28:48Z</time>
      </trkpt>
      <trkpt lat="59.9990955" lon="17.7368237">
        <ele>55.8938</ele>
        <time>2013-04-17T18:28:49Z</time>
      </trkpt>
      <trkpt lat="59.9990275" lon="17.7368151">
        <ele>55.4131</ele>
        <time>2013-04-17T18:28:50Z</time>
      </trkpt>
      <trkpt lat="59.9989555" lon="17.7368109">
        <ele>55.8938</ele>
        <time>2013-04-17T18:28:51Z</time>
      </trkpt>
      <trkpt lat="59.9988865" lon="17.7368027">
        <ele>55.4131</ele>
        <time>2013-04-17T18:28:52Z</time>
      </trkpt>
      <trkpt lat="59.9988183" lon="17.7367922">
        <ele>55.4131</ele>
        <time>2013-04-17T18:28:53Z</time>
      </trkpt>
      <trkpt lat="59.9987506" lon="17.7367802">
        <ele>55.4131</ele>
        <time>2013-04-17T18:28:54Z</time>
      </trkpt>
      <trkpt lat="59.9986822" lon="17.7367688">
        <ele>54.9324</ele>
        <time>2013-04-17T18:28:55Z</time>
      </trkpt>
      <trkpt lat="59.9986145" lon="17.7367599">
        <ele>54.9324</ele>
        <time>2013-04-17T18:28:56Z</time>
      </trkpt>
      <trkpt lat="59.9985485" lon="17.7367497">
        <ele>54.9324</ele>
        <time>2013-04-17T18:28:57Z</time>
      </trkpt>
      <trkpt lat="59.9984739" lon="17.7367508">
        <ele>54.9324</ele>
        <time>2013-04-17T18:28:58Z</time>
      </trkpt>
      <trkpt lat="59.9984077" lon="17.7367408">
        <ele>54.9324</ele>
        <time>2013-04-17T18:28:59Z</time>
      </trkpt>
      <trkpt lat="59.9983436" lon="17.7367283">
        <ele>55.4131</ele>
        <time>2013-04-17T18:29:00Z</time>
      </trkpt>
      <trkpt lat="59.9982896" lon="17.7367057">
        <ele>55.4131</ele>
        <time>2013-04-17T18:29:01Z</time>
      </trkpt>
      <trkpt lat="59.9982378" lon="17.7366804">
        <ele>55.8938</ele>
        <time>2013-04-17T18:29:02Z</time>
      </trkpt>
      <trkpt lat="59.9981846" lon="17.7366648">
        <ele>55.8938</ele>
        <time>2013-04-17T18:29:03Z</time>
      </trkpt>
      <trkpt lat="59.9981266" lon="17.7366618">
        <ele>55.8938</ele>
        <time>2013-04-17T18:29:04Z</time>
      </trkpt>
      <trkpt lat="59.9980672" lon="17.7366576">
        <ele>55.4131</ele>
        <time>2013-04-17T18:29:05Z</time>
      </trkpt>
      <trkpt lat="59.9980103" lon="17.7366513">
        <ele>54.9324</ele>
        <time>2013-04-17T18:29:06Z</time>
      </trkpt>
      <trkpt lat="59.9979411" lon="17.736663">
        <ele>54.4518</ele>
        <time>2013-04-17T18:29:07Z</time>
      </trkpt>
      <trkpt lat="59.997874" lon="17.7366726">
        <ele>54.4518</ele>
        <time>2013-04-17T18:29:08Z</time>
      </trkpt>
      <trkpt lat="59.997814" lon="17.7366746">
        <ele>54.4518</ele>
        <time>2013-04-17T18:29:09Z</time>
      </trkpt>
      <trkpt lat="59.997757" lon="17.7366705">
        <ele>54.4518</ele>
        <time>2013-04-17T18:29:10Z</time>
      </trkpt>
      <trkpt lat="59.997701" lon="17.7366637">
        <ele>54.4518</ele>
        <time>2013-04-17T18:29:11Z</time>
      </trkpt>
      <trkpt lat="59.9976451" lon="17.7366522">
        <ele>54.4518</ele>
        <time>2013-04-17T18:29:12Z</time>
      </trkpt>
      <trkpt lat="59.9975887" lon="17.7366466">
        <ele>54.4518</ele>
        <time>2013-04-17T18:29:13Z</time>
      </trkpt>
      <trkpt lat="59.9975326" lon="17.7366408">
        <ele>53.4905</ele>
        <time>2013-04-17T18:29:14Z</time>
      </trkpt>
      <trkpt lat="59.9974777" lon="17.7366342">
        <ele>53.0098</ele>
        <time>2013-04-17T18:29:15Z</time>
      </trkpt>
      <trkpt lat="59.9974255" lon="17.7366292">
        <ele>53.0098</ele>
        <time>2013-04-17T18:29:16Z</time>
      </trkpt>
      <trkpt lat="59.9973736" lon="17.7366182">
        <ele>52.5292</ele>
        <time>2013-04-17T18:29:17Z</time>
      </trkpt>
      <trkpt lat="59.9973131" lon="17.7366051">
        <ele>52.0486</ele>
        <time>2013-04-17T18:29:18Z</time>
      </trkpt>
      <trkpt lat="59.9972439" lon="17.736586">
        <ele>51.5679</ele>
        <time>2013-04-17T18:29:19Z</time>
      </trkpt>
      <trkpt lat="59.9971715" lon="17.7365669">
        <ele>51.0872</ele>
        <time>2013-04-17T18:29:20Z</time>
      </trkpt>
      <trkpt lat="59.9970976" lon="17.7365496">
        <ele>50.6066</ele>
        <time>2013-04-17T18:29:21Z</time>
      </trkpt>
      <trkpt lat="59.9970211" lon="17.736533">
        <ele>50.126</ele>
        <time>2013-04-17T18:29:22Z</time>
      </trkpt>
      <trkpt lat="59.9969457" lon="17.7365135">
        <ele>50.126</ele>
        <time>2013-04-17T18:29:23Z</time>
      </trkpt>
      <trkpt lat="59.9968763" lon="17.7364859">
        <ele>49.6453</ele>
        <time>2013-04-17T18:29:24Z</time>
      </trkpt>
      <trkpt lat="59.9968068" lon="17.7364566">
        <ele>49.1646</ele>
        <time>2013-04-17T18:29:25Z</time>
      </trkpt>
      <trkpt lat="59.996737" lon="17.7364201">
        <ele>49.1646</ele>
        <time>2013-04-17T18:29:26Z</time>
      </trkpt>
      <trkpt lat="59.9966572" lon="17.7363959">
        <ele>49.1646</ele>
        <time>2013-04-17T18:29:27Z</time>
      </trkpt>
      <trkpt lat="59.9965855" lon="17.7363607">
        <ele>49.1646</ele>
        <time>2013-04-17T18:29:28Z</time>
      </trkpt>
      <trkpt lat="59.9965192" lon="17.7363206">
        <ele>48.684</ele>
        <time>2013-04-17T18:29:29Z</time>
      </trkpt>
      <trkpt lat="59.9964515" lon="17.7362779">
        <ele>48.2034</ele>
        <time>2013-04-17T18:29:30Z</time>
      </trkpt>
      <trkpt lat="59.9963842" lon="17.7362355">
        <ele>48.2034</ele>
        <time>2013-04-17T18:29:31Z</time>
      </trkpt>
      <trkpt lat="59.9963146" lon="17.7361976">
        <ele>48.2034</ele>
        <time>2013-04-17T18:29:32Z</time>
      </trkpt>
      <trkpt lat="59.996245" lon="17.7361669">
        <ele>48.684</ele>
        <time>2013-04-17T18:29:33Z</time>
      </trkpt>
      <trkpt lat="59.9961738" lon="17.7361452">
        <ele>48.684</ele>
        <time>2013-04-17T18:29:34Z</time>
      </trkpt>
      <trkpt lat="59.9961014" lon="17.7361305">
        <ele>48.684</ele>
        <time>2013-04-17T18:29:35Z</time>
      </trkpt>
      <trkpt lat="59.9960276" lon="17.7361256">
        <ele>49.1646</ele>
        <time>2013-04-17T18:29:36Z</time>
      </trkpt>
      <trkpt lat="59.9959561" lon="17.7361246">
        <ele>49.1646</ele>
        <time>2013-04-17T18:29:37Z</time>
      </trkpt>
      <trkpt lat="59.9958916" lon="17.7361217">
        <ele>49.6453</ele>
        <time>2013-04-17T18:29:38Z</time>
      </trkpt>
      <trkpt lat="59.995823" lon="17.7361329">
        <ele>50.126</ele>
        <time>2013-04-17T18:29:39Z</time>
      </trkpt>
      <trkpt lat="59.9957631" lon="17.7361349">
        <ele>50.6066</ele>
        <time>2013-04-17T18:29:40Z</time>
      </trkpt>
      <trkpt lat="59.9956919" lon="17.7361422">
        <ele>51.0872</ele>
        <time>2013-04-17T18:29:41Z</time>
      </trkpt>
      <trkpt lat="59.9956288" lon="17.7361426">
        <ele>51.5679</ele>
        <time>2013-04-17T18:29:42Z</time>
      </trkpt>
      <trkpt lat="59.9955699" lon="17.736137">
        <ele>52.5292</ele>
        <time>2013-04-17T18:29:43Z</time>
      </trkpt>
      <trkpt lat="59.9954972" lon="17.7361364">
        <ele>53.0098</ele>
        <time>2013-04-17T18:29:44Z</time>
      </trkpt>
      <trkpt lat="59.9954248" lon="17.7361338">
        <ele>53.0098</ele>
        <time>2013-04-17T18:29:45Z</time>
      </trkpt>
      <trkpt lat="59.9953446" lon="17.7361386">
        <ele>52.5292</ele>
        <time>2013-04-17T18:29:46Z</time>
      </trkpt>
      <trkpt lat="59.9952574" lon="17.7361378">
        <ele>52.5292</ele>
        <time>2013-04-17T18:29:47Z</time>
      </trkpt>
      <trkpt lat="59.9951753" lon="17.7361257">
        <ele>52.5292</ele>
        <time>2013-04-17T18:29:48Z</time>
      </trkpt>
      <trkpt lat="59.995084" lon="17.7361141">
        <ele>52.5292</ele>
        <time>2013-04-17T18:29:49Z</time>
      </trkpt>
      <trkpt lat="59.9950016" lon="17.7360969">
        <ele>52.5292</ele>
        <time>2013-04-17T18:29:50Z</time>
      </trkpt>
      <trkpt lat="59.9949218" lon="17.7360736">
        <ele>52.5292</ele>
        <time>2013-04-17T18:29:51Z</time>
      </trkpt>
      <trkpt lat="59.9948489" lon="17.7360386">
        <ele>52.0486</ele>
        <time>2013-04-17T18:29:52Z</time>
      </trkpt>
      <trkpt lat="59.9947836" lon="17.7359956">
        <ele>51.5679</ele>
        <time>2013-04-17T18:29:53Z</time>
      </trkpt>
      <trkpt lat="59.9947152" lon="17.7359506">
        <ele>51.0872</ele>
        <time>2013-04-17T18:29:54Z</time>
      </trkpt>
      <trkpt lat="59.994649" lon="17.7359026">
        <ele>51.0872</ele>
        <time>2013-04-17T18:29:55Z</time>
      </trkpt>
      <trkpt lat="59.9945824" lon="17.7358558">
        <ele>51.0872</ele>
        <time>2013-04-17T18:29:56Z</time>
      </trkpt>
      <trkpt lat="59.9945153" lon="17.7358136">
        <ele>51.0872</ele>
        <time>2013-04-17T18:29:57Z</time>
      </trkpt>
      <trkpt lat="59.9944498" lon="17.7357747">
        <ele>50.6066</ele>
        <time>2013-04-17T18:29:58Z</time>
      </trkpt>
      <trkpt lat="59.9943853" lon="17.7357423">
        <ele>50.6066</ele>
        <time>2013-04-17T18:29:59Z</time>
      </trkpt>
      <trkpt lat="59.9943206" lon="17.7357146">
        <ele>50.6066</ele>
        <time>2013-04-17T18:30:00Z</time>
      </trkpt>
      <trkpt lat="59.9942541" lon="17.7356888">
        <ele>50.6066</ele>
        <time>2013-04-17T18:30:01Z</time>
      </trkpt>
      <trkpt lat="59.9941863" lon="17.7356629">
        <ele>51.0872</ele>
        <time>2013-04-17T18:30:02Z</time>
      </trkpt>
      <trkpt lat="59.9941218" lon="17.7356402">
        <ele>51.5679</ele>
        <time>2013-04-17T18:30:03Z</time>
      </trkpt>
      <trkpt lat="59.9940563" lon="17.7356292">
        <ele>52.5292</ele>
        <time>2013-04-17T18:30:04Z</time>
      </trkpt>
      <trkpt lat="59.9939892" lon="17.7356226">
        <ele>53.0098</ele>
        <time>2013-04-17T18:30:05Z</time>
      </trkpt>
      <trkpt lat="59.9939267" lon="17.7356146">
        <ele>53.4905</ele>
        <time>2013-04-17T18:30:06Z</time>
      </trkpt>
      <trkpt lat="59.9938636" lon="17.7356096">
        <ele>54.4518</ele>
        <time>2013-04-17T18:30:07Z</time>
      </trkpt>
      <trkpt lat="59.9938088" lon="17.7355993">
        <ele>55.4131</ele>
        <time>2013-04-17T18:30:08Z</time>
      </trkpt>
      <trkpt lat="59.9937546" lon="17.7355864">
        <ele>55.8938</ele>
        <time>2013-04-17T18:30:09Z</time>
      </trkpt>
      <trkpt lat="59.9937" lon="17.7355786">
        <ele>56.3745</ele>
        <time>2013-04-17T18:30:10Z</time>
      </trkpt>
      <trkpt lat="59.9936481" lon="17.7355827">
        <ele>57.8165</ele>
        <time>2013-04-17T18:30:11Z</time>
      </trkpt>
      <trkpt lat="59.9935977" lon="17.735596">
        <ele>58.7777</ele>
        <time>2013-04-17T18:30:12Z</time>
      </trkpt>
      <trkpt lat="59.9935529" lon="17.7356146">
        <ele>59.7391</ele>
        <time>2013-04-17T18:30:13Z</time>
      </trkpt>
      <trkpt lat="59.9935154" lon="17.7356387">
        <ele>60.7003</ele>
        <time>2013-04-17T18:30:14Z</time>
      </trkpt>
      <trkpt lat="59.9934689" lon="17.7356838">
        <ele>62.1423</ele>
        <time>2013-04-17T18:30:15Z</time>
      </trkpt>
      <trkpt lat="59.9934257" lon="17.735732">
        <ele>63.1036</ele>
        <time>2013-04-17T18:30:16Z</time>
      </trkpt>
      <trkpt lat="59.9933787" lon="17.7357925">
        <ele>64.0651</ele>
        <time>2013-04-17T18:30:17Z</time>
      </trkpt>
      <trkpt lat="59.9933399" lon="17.7358484">
        <ele>65.5071</ele>
        <time>2013-04-17T18:30:18Z</time>
      </trkpt>
      <trkpt lat="59.9932972" lon="17.7359095">
        <ele>67.4297</ele>
        <time>2013-04-17T18:30:19Z</time>
      </trkpt>
      <trkpt lat="59.9932678" lon="17.7359629">
        <ele>68.8716</ele>
        <time>2013-04-17T18:30:20Z</time>
      </trkpt>
      <trkpt lat="59.9932373" lon="17.7360207">
        <ele>70.3135</ele>
        <time>2013-04-17T18:30:21Z</time>
      </trkpt>
      <trkpt lat="59.9932067" lon="17.7360826">
        <ele>71.7555</ele>
        <time>2013-04-17T18:30:22Z</time>
      </trkpt>
      <trkpt lat="59.9931793" lon="17.7361493">
        <ele>73.1976</ele>
        <time>2013-04-17T18:30:23Z</time>
      </trkpt>
      <trkpt lat="59.9931566" lon="17.7362053">
        <ele>74.1588</ele>
        <time>2013-04-17T18:30:24Z</time>
      </trkpt>
      <trkpt lat="59.9931305" lon="17.736266">
        <ele>74.6395</ele>
        <time>2013-04-17T18:30:25Z</time>
      </trkpt>
      <trkpt lat="59.9931026" lon="17.7363347">
        <ele>75.1202</ele>
        <time>2013-04-17T18:30:26Z</time>
      </trkpt>
      <trkpt lat="59.9930705" lon="17.7364005">
        <ele>75.6008</ele>
        <time>2013-04-17T18:30:27Z</time>
      </trkpt>
      <trkpt lat="59.9930337" lon="17.73647">
        <ele>74.6395</ele>
        <time>2013-04-17T18:30:28Z</time>
      </trkpt>
      <trkpt lat="59.9929954" lon="17.736543">
        <ele>73.6782</ele>
        <time>2013-04-17T18:30:29Z</time>
      </trkpt>
      <trkpt lat="59.9929581" lon="17.7366177">
        <ele>73.1976</ele>
        <time>2013-04-17T18:30:30Z</time>
      </trkpt>
      <trkpt lat="59.9929182" lon="17.7366981">
        <ele>72.7169</ele>
        <time>2013-04-17T18:30:31Z</time>
      </trkpt>
      <trkpt lat="59.9928854" lon="17.7367706">
        <ele>72.2362</ele>
        <time>2013-04-17T18:30:32Z</time>
      </trkpt>
      <trkpt lat="59.9928536" lon="17.736832">
        <ele>72.2362</ele>
        <time>2013-04-17T18:30:33Z</time>
      </trkpt>
      <trkpt lat="59.9928176" lon="17.7368967">
        <ele>72.2362</ele>
        <time>2013-04-17T18:30:34Z</time>
      </trkpt>
      <trkpt lat="59.9927788" lon="17.7369574">
        <ele>72.2362</ele>
        <time>2013-04-17T18:30:35Z</time>
      </trkpt>
      <trkpt lat="59.992741" lon="17.737014">
        <ele>72.2362</ele>
        <time>2013-04-17T18:30:36Z</time>
      </trkpt>
      <trkpt lat="59.9927032" lon="17.7370705">
        <ele>73.1976</ele>
        <time>2013-04-17T18:30:37Z</time>
      </trkpt>
      <trkpt lat="59.9926699" lon="17.7371122">
        <ele>72.2362</ele>
        <time>2013-04-17T18:30:38Z</time>
      </trkpt>
      <trkpt lat="59.992638" lon="17.7371507">
        <ele>72.2362</ele>
        <time>2013-04-17T18:30:39Z</time>
      </trkpt>
      <trkpt lat="59.9925948" lon="17.7371997">
        <ele>72.2362</ele>
        <time>2013-04-17T18:30:40Z</time>
      </trkpt>
      <trkpt lat="59.9925504" lon="17.7372445">
        <ele>72.2362</ele>
        <time>2013-04-17T18:30:41Z</time>
      </trkpt>
      <trkpt lat="59.9925067" lon="17.7372879">
        <ele>72.2362</ele>
        <time>2013-04-17T18:30:42Z</time>
      </trkpt>
      <trkpt lat="59.9924597" lon="17.7373316">
        <ele>72.2362</ele>
        <time>2013-04-17T18:30:43Z</time>
      </trkpt>
      <trkpt lat="59.9924059" lon="17.737375">
        <ele>71.7555</ele>
        <time>2013-04-17T18:30:44Z</time>
      </trkpt>
      <trkpt lat="59.9923528" lon="17.7374056">
        <ele>70.7942</ele>
        <time>2013-04-17T18:30:45Z</time>
      </trkpt>
      <trkpt lat="59.9923032" lon="17.7374299">
        <ele>70.7942</ele>
        <time>2013-04-17T18:30:46Z</time>
      </trkpt>
      <trkpt lat="59.992254" lon="17.7374489">
        <ele>70.7942</ele>
        <time>2013-04-17T18:30:47Z</time>
      </trkpt>
      <trkpt lat="59.9921894" lon="17.7374833">
        <ele>70.3135</ele>
        <time>2013-04-17T18:30:48Z</time>
      </trkpt>
      <trkpt lat="59.9921358" lon="17.737504">
        <ele>69.8329</ele>
        <time>2013-04-17T18:30:49Z</time>
      </trkpt>
      <trkpt lat="59.9920852" lon="17.7375174">
        <ele>69.8329</ele>
        <time>2013-04-17T18:30:50Z</time>
      </trkpt>
      <trkpt lat="59.9920325" lon="17.7375258">
        <ele>69.8329</ele>
        <time>2013-04-17T18:30:51Z</time>
      </trkpt>
      <trkpt lat="59.9919794" lon="17.7375361">
        <ele>69.3523</ele>
        <time>2013-04-17T18:30:52Z</time>
      </trkpt>
      <trkpt lat="59.9919211" lon="17.7375532">
        <ele>69.8329</ele>
        <time>2013-04-17T18:30:53Z</time>
      </trkpt>
      <trkpt lat="59.9918716" lon="17.7375651">
        <ele>69.3523</ele>
        <time>2013-04-17T18:30:54Z</time>
      </trkpt>
      <trkpt lat="59.9918065" lon="17.7375781">
        <ele>69.3523</ele>
        <time>2013-04-17T18:30:55Z</time>
      </trkpt>
      <trkpt lat="59.9917512" lon="17.737576">
        <ele>69.3523</ele>
        <time>2013-04-17T18:30:56Z</time>
      </trkpt>
      <trkpt lat="59.9916956" lon="17.7375832">
        <ele>69.8329</ele>
        <time>2013-04-17T18:30:57Z</time>
      </trkpt>
      <trkpt lat="59.9916494" lon="17.7375863">
        <ele>69.3523</ele>
        <time>2013-04-17T18:30:58Z</time>
      </trkpt>
      <trkpt lat="59.9915948" lon="17.737587">
        <ele>68.3909</ele>
        <time>2013-04-17T18:30:59Z</time>
      </trkpt>
      <trkpt lat="59.9915268" lon="17.7375931">
        <ele>67.9103</ele>
        <time>2013-04-17T18:31:00Z</time>
      </trkpt>
      <trkpt lat="59.9914593" lon="17.7376015">
        <ele>66.949</ele>
        <time>2013-04-17T18:31:01Z</time>
      </trkpt>
      <trkpt lat="59.9914004" lon="17.7376155">
        <ele>66.949</ele>
        <time>2013-04-17T18:31:02Z</time>
      </trkpt>
      <trkpt lat="59.9913429" lon="17.7376313">
        <ele>66.949</ele>
        <time>2013-04-17T18:31:03Z</time>
      </trkpt>
      <trkpt lat="59.9912838" lon="17.7376527">
        <ele>65.9877</ele>
        <time>2013-04-17T18:31:04Z</time>
      </trkpt>
      <trkpt lat="59.9912196" lon="17.7376828">
        <ele>65.5071</ele>
        <time>2013-04-17T18:31:05Z</time>
      </trkpt>
      <trkpt lat="59.9911573" lon="17.7377153">
        <ele>65.0264</ele>
        <time>2013-04-17T18:31:06Z</time>
      </trkpt>
      <trkpt lat="59.9910949" lon="17.7377542">
        <ele>65.0264</ele>
        <time>2013-04-17T18:31:07Z</time>
      </trkpt>
      <trkpt lat="59.9910336" lon="17.7377878">
        <ele>65.0264</ele>
        <time>2013-04-17T18:31:08Z</time>
      </trkpt>
      <trkpt lat="59.9909713" lon="17.7378163">
        <ele>64.5457</ele>
        <time>2013-04-17T18:31:09Z</time>
      </trkpt>
      <trkpt lat="59.9909148" lon="17.7378438">
        <ele>64.0651</ele>
        <time>2013-04-17T18:31:10Z</time>
      </trkpt>
      <trkpt lat="59.9908581" lon="17.7378769">
        <ele>63.1036</ele>
        <time>2013-04-17T18:31:11Z</time>
      </trkpt>
      <trkpt lat="59.9907969" lon="17.7379063">
        <ele>63.1036</ele>
        <time>2013-04-17T18:31:12Z</time>
      </trkpt>
      <trkpt lat="59.9907357" lon="17.7379268">
        <ele>63.1036</ele>
        <time>2013-04-17T18:31:13Z</time>
      </trkpt>
      <trkpt lat="59.9906763" lon="17.7379482">
        <ele>62.6229</ele>
        <time>2013-04-17T18:31:14Z</time>
      </trkpt>
      <trkpt lat="59.9906203" lon="17.7379644">
        <ele>63.1036</ele>
        <time>2013-04-17T18:31:15Z</time>
      </trkpt>
      <trkpt lat="59.9905533" lon="17.7379928">
        <ele>62.6229</ele>
        <time>2013-04-17T18:31:16Z</time>
      </trkpt>
      <trkpt lat="59.9904908" lon="17.7380172">
        <ele>62.1423</ele>
        <time>2013-04-17T18:31:17Z</time>
      </trkpt>
      <trkpt lat="59.9904276" lon="17.7380495">
        <ele>61.181</ele>
        <time>2013-04-17T18:31:18Z</time>
      </trkpt>
      <trkpt lat="59.9903609" lon="17.738079">
        <ele>60.2197</ele>
        <time>2013-04-17T18:31:19Z</time>
      </trkpt>
      <trkpt lat="59.9902956" lon="17.7381049">
        <ele>59.7391</ele>
        <time>2013-04-17T18:31:20Z</time>
      </trkpt>
      <trkpt lat="59.9902314" lon="17.7381399">
        <ele>59.2584</ele>
        <time>2013-04-17T18:31:21Z</time>
      </trkpt>
      <trkpt lat="59.9901655" lon="17.7381728">
        <ele>59.7391</ele>
        <time>2013-04-17T18:31:22Z</time>
      </trkpt>
      <trkpt lat="59.9901048" lon="17.7382127">
        <ele>59.7391</ele>
        <time>2013-04-17T18:31:23Z</time>
      </trkpt>
      <trkpt lat="59.9900355" lon="17.7382498">
        <ele>60.7003</ele>
        <time>2013-04-17T18:31:24Z</time>
      </trkpt>
      <trkpt lat="59.9899669" lon="17.738271">
        <ele>61.181</ele>
        <time>2013-04-17T18:31:25Z</time>
      </trkpt>
      <trkpt lat="59.9898687" lon="17.7383139">
        <ele>62.6229</ele>
        <time>2013-04-17T18:31:26Z</time>
      </trkpt>
      <trkpt lat="59.9897785" lon="17.7383452">
        <ele>63.5844</ele>
        <time>2013-04-17T18:31:27Z</time>
      </trkpt>
      <trkpt lat="59.9897138" lon="17.7383633">
        <ele>64.0651</ele>
        <time>2013-04-17T18:31:28Z</time>
      </trkpt>
      <trkpt lat="59.9896377" lon="17.7383789">
        <ele>64.5457</ele>
        <time>2013-04-17T18:31:29Z</time>
      </trkpt>
      <trkpt lat="59.9895662" lon="17.7384016">
        <ele>65.5071</ele>
        <time>2013-04-17T18:31:30Z</time>
      </trkpt>
      <trkpt lat="59.9894931" lon="17.7384353">
        <ele>65.9877</ele>
        <time>2013-04-17T18:31:31Z</time>
      </trkpt>
      <trkpt lat="59.9894373" lon="17.7384591">
        <ele>65.9877</ele>
        <time>2013-04-17T18:31:32Z</time>
      </trkpt>
      <trkpt lat="59.9893843" lon="17.7384844">
        <ele>65.9877</ele>
        <time>2013-04-17T18:31:33Z</time>
      </trkpt>
      <trkpt lat="59.9893341" lon="17.738512">
        <ele>65.9877</ele>
        <time>2013-04-17T18:31:34Z</time>
      </trkpt>
      <trkpt lat="59.9892878" lon="17.7385441">
        <ele>65.9877</ele>
        <time>2013-04-17T18:31:35Z</time>
      </trkpt>
      <trkpt lat="59.9892445" lon="17.7385722">
        <ele>66.4683</ele>
        <time>2013-04-17T18:31:36Z</time>
      </trkpt>
      <trkpt lat="59.9891987" lon="17.7385985">
        <ele>65.9877</ele>
        <time>2013-04-17T18:31:37Z</time>
      </trkpt>
      <trkpt lat="59.989147" lon="17.7386256">
        <ele>65.9877</ele>
        <time>2013-04-17T18:31:38Z</time>
      </trkpt>
      <trkpt lat="59.9890978" lon="17.7386659">
        <ele>65.5071</ele>
        <time>2013-04-17T18:31:39Z</time>
      </trkpt>
      <trkpt lat="59.9890454" lon="17.7387135">
        <ele>65.0264</ele>
        <time>2013-04-17T18:31:40Z</time>
      </trkpt>
      <trkpt lat="59.9889939" lon="17.7387553">
        <ele>64.5457</ele>
        <time>2013-04-17T18:31:41Z</time>
      </trkpt>
      <trkpt lat="59.9889443" lon="17.7387919">
        <ele>64.5457</ele>
        <time>2013-04-17T18:31:42Z</time>
      </trkpt>
      <trkpt lat="59.9888916" lon="17.7388259">
        <ele>63.5844</ele>
        <time>2013-04-17T18:31:43Z</time>
      </trkpt>
      <trkpt lat="59.9888362" lon="17.7388652">
        <ele>63.5844</ele>
        <time>2013-04-17T18:31:44Z</time>
      </trkpt>
      <trkpt lat="59.9887814" lon="17.7389069">
        <ele>62.6229</ele>
        <time>2013-04-17T18:31:45Z</time>
      </trkpt>
      <trkpt lat="59.9887283" lon="17.7389445">
        <ele>62.6229</ele>
        <time>2013-04-17T18:31:46Z</time>
      </trkpt>
      <trkpt lat="59.9886761" lon="17.7389777">
        <ele>62.1423</ele>
        <time>2013-04-17T18:31:47Z</time>
      </trkpt>
      <trkpt lat="59.9886182" lon="17.7390081">
        <ele>61.6617</ele>
        <time>2013-04-17T18:31:48Z</time>
      </trkpt>
      <trkpt lat="59.9885512" lon="17.7390322">
        <ele>61.181</ele>
        <time>2013-04-17T18:31:49Z</time>
      </trkpt>
      <trkpt lat="59.9884807" lon="17.7390528">
        <ele>60.7003</ele>
        <time>2013-04-17T18:31:50Z</time>
      </trkpt>
      <trkpt lat="59.9884052" lon="17.7390725">
        <ele>59.7391</ele>
        <time>2013-04-17T18:31:51Z</time>
      </trkpt>
      <trkpt lat="59.9883281" lon="17.7391003">
        <ele>60.2197</ele>
        <time>2013-04-17T18:31:52Z</time>
      </trkpt>
      <trkpt lat="59.9882541" lon="17.7391259">
        <ele>59.7391</ele>
        <time>2013-04-17T18:31:53Z</time>
      </trkpt>
      <trkpt lat="59.9881831" lon="17.7391523">
        <ele>60.2197</ele>
        <time>2013-04-17T18:31:54Z</time>
      </trkpt>
      <trkpt lat="59.9881124" lon="17.7391697">
        <ele>59.7391</ele>
        <time>2013-04-17T18:31:55Z</time>
      </trkpt>
      <trkpt lat="59.9880432" lon="17.7391832">
        <ele>59.7391</ele>
        <time>2013-04-17T18:31:56Z</time>
      </trkpt>
      <trkpt lat="59.9879603" lon="17.7391999">
        <ele>59.7391</ele>
        <time>2013-04-17T18:31:57Z</time>
      </trkpt>
      <trkpt lat="59.9878784" lon="17.7392191">
        <ele>59.7391</ele>
        <time>2013-04-17T18:31:58Z</time>
      </trkpt>
      <trkpt lat="59.9877894" lon="17.7392309">
        <ele>59.2584</ele>
        <time>2013-04-17T18:31:59Z</time>
      </trkpt>
      <trkpt lat="59.987699" lon="17.7392414">
        <ele>59.2584</ele>
        <time>2013-04-17T18:32:00Z</time>
      </trkpt>
      <trkpt lat="59.9876066" lon="17.7392564">
        <ele>59.7391</ele>
        <time>2013-04-17T18:32:01Z</time>
      </trkpt>
      <trkpt lat="59.9875151" lon="17.7392704">
        <ele>59.2584</ele>
        <time>2013-04-17T18:32:02Z</time>
      </trkpt>
      <trkpt lat="59.9874231" lon="17.7392886">
        <ele>58.7777</ele>
        <time>2013-04-17T18:32:03Z</time>
      </trkpt>
      <trkpt lat="59.9873325" lon="17.7392959">
        <ele>58.7777</ele>
        <time>2013-04-17T18:32:04Z</time>
      </trkpt>
      <trkpt lat="59.9872459" lon="17.739299">
        <ele>58.2971</ele>
        <time>2013-04-17T18:32:05Z</time>
      </trkpt>
      <trkpt lat="59.987162" lon="17.7392807">
        <ele>58.2971</ele>
        <time>2013-04-17T18:32:06Z</time>
      </trkpt>
      <trkpt lat="59.9870791" lon="17.7392528">
        <ele>58.2971</ele>
        <time>2013-04-17T18:32:07Z</time>
      </trkpt>
      <trkpt lat="59.9870028" lon="17.7392065">
        <ele>58.2971</ele>
        <time>2013-04-17T18:32:08Z</time>
      </trkpt>
      <trkpt lat="59.9869289" lon="17.7391501">
        <ele>57.8165</ele>
        <time>2013-04-17T18:32:09Z</time>
      </trkpt>
      <trkpt lat="59.9868559" lon="17.7390889">
        <ele>57.3358</ele>
        <time>2013-04-17T18:32:10Z</time>
      </trkpt>
      <trkpt lat="59.9867737" lon="17.7390342">
        <ele>57.8165</ele>
        <time>2013-04-17T18:32:11Z</time>
      </trkpt>
      <trkpt lat="59.9866948" lon="17.7389728">
        <ele>57.8165</ele>
        <time>2013-04-17T18:32:12Z</time>
      </trkpt>
      <trkpt lat="59.9866202" lon="17.7389098">
        <ele>57.3358</ele>
        <time>2013-04-17T18:32:13Z</time>
      </trkpt>
      <trkpt lat="59.986544" lon="17.7388508">
        <ele>56.8551</ele>
        <time>2013-04-17T18:32:14Z</time>
      </trkpt>
      <trkpt lat="59.9864597" lon="17.7388012">
        <ele>56.8551</ele>
        <time>2013-04-17T18:32:15Z</time>
      </trkpt>
      <trkpt lat="59.9863826" lon="17.7387444">
        <ele>56.8551</ele>
        <time>2013-04-17T18:32:16Z</time>
      </trkpt>
      <trkpt lat="59.9863023" lon="17.7386902">
        <ele>56.8551</ele>
        <time>2013-04-17T18:32:17Z</time>
      </trkpt>
      <trkpt lat="59.9862311" lon="17.7386289">
        <ele>56.3745</ele>
        <time>2013-04-17T18:32:18Z</time>
      </trkpt>
      <trkpt lat="59.9861571" lon="17.7385747">
        <ele>55.4131</ele>
        <time>2013-04-17T18:32:19Z</time>
      </trkpt>
      <trkpt lat="59.9860804" lon="17.7385285">
        <ele>54.9324</ele>
        <time>2013-04-17T18:32:20Z</time>
      </trkpt>
      <trkpt lat="59.9860031" lon="17.7384851">
        <ele>54.4518</ele>
        <time>2013-04-17T18:32:21Z</time>
      </trkpt>
      <trkpt lat="59.9859245" lon="17.7384469">
        <ele>54.4518</ele>
        <time>2013-04-17T18:32:22Z</time>
      </trkpt>
      <trkpt lat="59.9858468" lon="17.7384084">
        <ele>53.9712</ele>
        <time>2013-04-17T18:32:23Z</time>
      </trkpt>
      <trkpt lat="59.9857698" lon="17.738374">
        <ele>53.4905</ele>
        <time>2013-04-17T18:32:24Z</time>
      </trkpt>
      <trkpt lat="59.9856919" lon="17.7383426">
        <ele>53.0098</ele>
        <time>2013-04-17T18:32:25Z</time>
      </trkpt>
      <trkpt lat="59.9856118" lon="17.7383139">
        <ele>52.5292</ele>
        <time>2013-04-17T18:32:26Z</time>
      </trkpt>
      <trkpt lat="59.985534" lon="17.738282">
        <ele>52.0486</ele>
        <time>2013-04-17T18:32:27Z</time>
      </trkpt>
      <trkpt lat="59.9854557" lon="17.738251">
        <ele>51.5679</ele>
        <time>2013-04-17T18:32:28Z</time>
      </trkpt>
      <trkpt lat="59.9853782" lon="17.7382217">
        <ele>51.5679</ele>
        <time>2013-04-17T18:32:29Z</time>
      </trkpt>
      <trkpt lat="59.9853013" lon="17.7381992">
        <ele>51.0872</ele>
        <time>2013-04-17T18:32:30Z</time>
      </trkpt>
      <trkpt lat="59.9852243" lon="17.7381834">
        <ele>51.0872</ele>
        <time>2013-04-17T18:32:31Z</time>
      </trkpt>
      <trkpt lat="59.9851478" lon="17.7381717">
        <ele>50.6066</ele>
        <time>2013-04-17T18:32:32Z</time>
      </trkpt>
      <trkpt lat="59.9850713" lon="17.7381589">
        <ele>50.6066</ele>
        <time>2013-04-17T18:32:33Z</time>
      </trkpt>
      <trkpt lat="59.9849928" lon="17.7381454">
        <ele>50.126</ele>
        <time>2013-04-17T18:32:34Z</time>
      </trkpt>
      <trkpt lat="59.9849132" lon="17.7381282">
        <ele>50.126</ele>
        <time>2013-04-17T18:32:35Z</time>
      </trkpt>
      <trkpt lat="59.9848348" lon="17.7381076">
        <ele>49.6453</ele>
        <time>2013-04-17T18:32:36Z</time>
      </trkpt>
      <trkpt lat="59.984745" lon="17.7380943">
        <ele>50.126</ele>
        <time>2013-04-17T18:32:37Z</time>
      </trkpt>
      <trkpt lat="59.9846521" lon="17.738082">
        <ele>51.0872</ele>
        <time>2013-04-17T18:32:38Z</time>
      </trkpt>
      <trkpt lat="59.9845618" lon="17.73807">
        <ele>51.0872</ele>
        <time>2013-04-17T18:32:39Z</time>
      </trkpt>
      <trkpt lat="59.9844737" lon="17.7380514">
        <ele>51.5679</ele>
        <time>2013-04-17T18:32:40Z</time>
      </trkpt>
      <trkpt lat="59.9843841" lon="17.7380324">
        <ele>52.5292</ele>
        <time>2013-04-17T18:32:41Z</time>
      </trkpt>
      <trkpt lat="59.9843038" lon="17.7379926">
        <ele>53.0098</ele>
        <time>2013-04-17T18:32:42Z</time>
      </trkpt>
      <trkpt lat="59.9842271" lon="17.7379707">
        <ele>53.0098</ele>
        <time>2013-04-17T18:32:43Z</time>
      </trkpt>
      <trkpt lat="59.9841228" lon="17.7379983">
        <ele>53.0098</ele>
        <time>2013-04-17T18:32:44Z</time>
      </trkpt>
      <trkpt lat="59.9840354" lon="17.738023">
        <ele>53.4905</ele>
        <time>2013-04-17T18:32:45Z</time>
      </trkpt>
      <trkpt lat="59.983965" lon="17.7380235">
        <ele>53.9712</ele>
        <time>2013-04-17T18:32:46Z</time>
      </trkpt>
      <trkpt lat="59.9838857" lon="17.7380353">
        <ele>54.4518</ele>
        <time>2013-04-17T18:32:47Z</time>
      </trkpt>
      <trkpt lat="59.9838012" lon="17.7380608">
        <ele>54.4518</ele>
        <time>2013-04-17T18:32:48Z</time>
      </trkpt>
      <trkpt lat="59.983713" lon="17.7380871">
        <ele>55.4131</ele>
        <time>2013-04-17T18:32:49Z</time>
      </trkpt>
      <trkpt lat="59.9836301" lon="17.7381008">
        <ele>55.8938</ele>
        <time>2013-04-17T18:32:50Z</time>
      </trkpt>
      <trkpt lat="59.9835491" lon="17.7381102">
        <ele>56.3745</ele>
        <time>2013-04-17T18:32:51Z</time>
      </trkpt>
      <trkpt lat="59.9834624" lon="17.7381252">
        <ele>55.8938</ele>
        <time>2013-04-17T18:32:52Z</time>
      </trkpt>
      <trkpt lat="59.9833781" lon="17.7381385">
        <ele>55.8938</ele>
        <time>2013-04-17T18:32:53Z</time>
      </trkpt>
      <trkpt lat="59.9832941" lon="17.7381484">
        <ele>55.8938</ele>
        <time>2013-04-17T18:32:54Z</time>
      </trkpt>
      <trkpt lat="59.9832169" lon="17.7381585">
        <ele>55.8938</ele>
        <time>2013-04-17T18:32:55Z</time>
      </trkpt>
      <trkpt lat="59.9831386" lon="17.7381607">
        <ele>55.8938</ele>
        <time>2013-04-17T18:32:56Z</time>
      </trkpt>
      <trkpt lat="59.9830615" lon="17.738165">
        <ele>55.4131</ele>
        <time>2013-04-17T18:32:57Z</time>
      </trkpt>
      <trkpt lat="59.9829904" lon="17.7381572">
        <ele>55.4131</ele>
        <time>2013-04-17T18:32:58Z</time>
      </trkpt>
      <trkpt lat="59.982919" lon="17.7381411">
        <ele>55.4131</ele>
        <time>2013-04-17T18:32:59Z</time>
      </trkpt>
      <trkpt lat="59.9828455" lon="17.7381189">
        <ele>54.9324</ele>
        <time>2013-04-17T18:33:00Z</time>
      </trkpt>
      <trkpt lat="59.9827802" lon="17.7380925">
        <ele>54.4518</ele>
        <time>2013-04-17T18:33:01Z</time>
      </trkpt>
      <trkpt lat="59.9827111" lon="17.7380773">
        <ele>53.9712</ele>
        <time>2013-04-17T18:33:02Z</time>
      </trkpt>
      <trkpt lat="59.9826393" lon="17.7380682">
        <ele>53.4905</ele>
        <time>2013-04-17T18:33:03Z</time>
      </trkpt>
      <trkpt lat="59.9825616" lon="17.738069">
        <ele>52.5292</ele>
        <time>2013-04-17T18:33:04Z</time>
      </trkpt>
      <trkpt lat="59.9824866" lon="17.7380767">
        <ele>52.0486</ele>
        <time>2013-04-17T18:33:05Z</time>
      </trkpt>
      <trkpt lat="59.9824164" lon="17.7380791">
        <ele>52.0486</ele>
        <time>2013-04-17T18:33:06Z</time>
      </trkpt>
      <trkpt lat="59.9823444" lon="17.738092">
        <ele>52.5292</ele>
        <time>2013-04-17T18:33:07Z</time>
      </trkpt>
      <trkpt lat="59.9822713" lon="17.7381136">
        <ele>52.5292</ele>
        <time>2013-04-17T18:33:08Z</time>
      </trkpt>
      <trkpt lat="59.9821962" lon="17.7381378">
        <ele>52.0486</ele>
        <time>2013-04-17T18:33:09Z</time>
      </trkpt>
      <trkpt lat="59.9821244" lon="17.7381619">
        <ele>51.0872</ele>
        <time>2013-04-17T18:33:10Z</time>
      </trkpt>
      <trkpt lat="59.9820513" lon="17.7381898">
        <ele>51.0872</ele>
        <time>2013-04-17T18:33:11Z</time>
      </trkpt>
      <trkpt lat="59.9819799" lon="17.7382203">
        <ele>51.0872</ele>
        <time>2013-04-17T18:33:12Z</time>
      </trkpt>
      <trkpt lat="59.9819123" lon="17.7382536">
        <ele>51.0872</ele>
        <time>2013-04-17T18:33:13Z</time>
      </trkpt>
      <trkpt lat="59.9818466" lon="17.7382855">
        <ele>51.0872</ele>
        <time>2013-04-17T18:33:14Z</time>
      </trkpt>
      <trkpt lat="59.9817788" lon="17.7383179">
        <ele>51.5679</ele>
        <time>2013-04-17T18:33:15Z</time>
      </trkpt>
      <trkpt lat="59.9817109" lon="17.7383458">
        <ele>51.5679</ele>
        <time>2013-04-17T18:33:16Z</time>
      </trkpt>
      <trkpt lat="59.9816425" lon="17.7383721">
        <ele>51.0872</ele>
        <time>2013-04-17T18:33:17Z</time>
      </trkpt>
      <trkpt lat="59.9815747" lon="17.738397">
        <ele>50.6066</ele>
        <time>2013-04-17T18:33:18Z</time>
      </trkpt>
      <trkpt lat="59.9814987" lon="17.7384178">
        <ele>50.126</ele>
        <time>2013-04-17T18:33:19Z</time>
      </trkpt>
      <trkpt lat="59.9814169" lon="17.7384375">
        <ele>49.6453</ele>
        <time>2013-04-17T18:33:20Z</time>
      </trkpt>
      <trkpt lat="59.9813413" lon="17.7384627">
        <ele>49.1646</ele>
        <time>2013-04-17T18:33:21Z</time>
      </trkpt>
      <trkpt lat="59.9812464" lon="17.7385023">
        <ele>49.6453</ele>
        <time>2013-04-17T18:33:22Z</time>
      </trkpt>
      <trkpt lat="59.9811621" lon="17.7385227">
        <ele>48.684</ele>
        <time>2013-04-17T18:33:23Z</time>
      </trkpt>
      <trkpt lat="59.9810749" lon="17.738547">
        <ele>48.2034</ele>
        <time>2013-04-17T18:33:24Z</time>
      </trkpt>
      <trkpt lat="59.9809875" lon="17.7385712">
        <ele>47.2418</ele>
        <time>2013-04-17T18:33:25Z</time>
      </trkpt>
      <trkpt lat="59.9808981" lon="17.7386017">
        <ele>46.2806</ele>
        <time>2013-04-17T18:33:26Z</time>
      </trkpt>
      <trkpt lat="59.9808098" lon="17.7386326">
        <ele>46.2806</ele>
        <time>2013-04-17T18:33:27Z</time>
      </trkpt>
      <trkpt lat="59.9807223" lon="17.7386607">
        <ele>45.3192</ele>
        <time>2013-04-17T18:33:28Z</time>
      </trkpt>
      <trkpt lat="59.9806361" lon="17.7386855">
        <ele>44.8386</ele>
        <time>2013-04-17T18:33:29Z</time>
      </trkpt>
      <trkpt lat="59.9805479" lon="17.738709">
        <ele>44.8386</ele>
        <time>2013-04-17T18:33:30Z</time>
      </trkpt>
      <trkpt lat="59.9804624" lon="17.7387242">
        <ele>44.358</ele>
        <time>2013-04-17T18:33:31Z</time>
      </trkpt>
      <trkpt lat="59.9803796" lon="17.7387364">
        <ele>43.8773</ele>
        <time>2013-04-17T18:33:32Z</time>
      </trkpt>
      <trkpt lat="59.980298" lon="17.7387421">
        <ele>43.3966</ele>
        <time>2013-04-17T18:33:33Z</time>
      </trkpt>
      <trkpt lat="59.9802185" lon="17.7387372">
        <ele>43.3966</ele>
        <time>2013-04-17T18:33:34Z</time>
      </trkpt>
      <trkpt lat="59.9801434" lon="17.7387284">
        <ele>42.4354</ele>
        <time>2013-04-17T18:33:35Z</time>
      </trkpt>
      <trkpt lat="59.9800648" lon="17.7387265">
        <ele>41.9547</ele>
        <time>2013-04-17T18:33:36Z</time>
      </trkpt>
      <trkpt lat="59.9799807" lon="17.7387315">
        <ele>41.9547</ele>
        <time>2013-04-17T18:33:37Z</time>
      </trkpt>
      <trkpt lat="59.9798948" lon="17.7387501">
        <ele>41.474</ele>
        <time>2013-04-17T18:33:38Z</time>
      </trkpt>
      <trkpt lat="59.9798106" lon="17.7387798">
        <ele>40.9934</ele>
        <time>2013-04-17T18:33:39Z</time>
      </trkpt>
      <trkpt lat="59.9797282" lon="17.738813">
        <ele>40.5128</ele>
        <time>2013-04-17T18:33:40Z</time>
      </trkpt>
      <trkpt lat="59.9796452" lon="17.7388465">
        <ele>40.0321</ele>
        <time>2013-04-17T18:33:41Z</time>
      </trkpt>
      <trkpt lat="59.9795654" lon="17.7388834">
        <ele>39.5513</ele>
        <time>2013-04-17T18:33:42Z</time>
      </trkpt>
      <trkpt lat="59.9794891" lon="17.7389258">
        <ele>38.5901</ele>
        <time>2013-04-17T18:33:43Z</time>
      </trkpt>
      <trkpt lat="59.9794126" lon="17.7389726">
        <ele>38.1094</ele>
        <time>2013-04-17T18:33:44Z</time>
      </trkpt>
      <trkpt lat="59.9793214" lon="17.7390273">
        <ele>37.6287</ele>
        <time>2013-04-17T18:33:45Z</time>
      </trkpt>
      <trkpt lat="59.9792359" lon="17.7390811">
        <ele>37.1481</ele>
        <time>2013-04-17T18:33:46Z</time>
      </trkpt>
      <trkpt lat="59.9791542" lon="17.739132">
        <ele>37.1481</ele>
        <time>2013-04-17T18:33:47Z</time>
      </trkpt>
      <trkpt lat="59.9790759" lon="17.7391796">
        <ele>36.6675</ele>
        <time>2013-04-17T18:33:48Z</time>
      </trkpt>
      <trkpt lat="59.9789944" lon="17.7392213">
        <ele>36.6675</ele>
        <time>2013-04-17T18:33:49Z</time>
      </trkpt>
      <trkpt lat="59.9789147" lon="17.7392466">
        <ele>36.1868</ele>
        <time>2013-04-17T18:33:50Z</time>
      </trkpt>
      <trkpt lat="59.9788323" lon="17.7392619">
        <ele>36.1868</ele>
        <time>2013-04-17T18:33:51Z</time>
      </trkpt>
      <trkpt lat="59.9787455" lon="17.7392671">
        <ele>36.1868</ele>
        <time>2013-04-17T18:33:52Z</time>
      </trkpt>
      <trkpt lat="59.9786647" lon="17.739248">
        <ele>36.1868</ele>
        <time>2013-04-17T18:33:53Z</time>
      </trkpt>
      <trkpt lat="59.9785896" lon="17.7392342">
        <ele>36.1868</ele>
        <time>2013-04-17T18:33:54Z</time>
      </trkpt>
      <trkpt lat="59.9785159" lon="17.7392248">
        <ele>36.1868</ele>
        <time>2013-04-17T18:33:55Z</time>
      </trkpt>
      <trkpt lat="59.9784455" lon="17.7392155">
        <ele>36.6675</ele>
        <time>2013-04-17T18:33:56Z</time>
      </trkpt>
      <trkpt lat="59.9783766" lon="17.7392156">
        <ele>36.6675</ele>
        <time>2013-04-17T18:33:57Z</time>
      </trkpt>
      <trkpt lat="59.9783087" lon="17.7392108">
        <ele>36.6675</ele>
        <time>2013-04-17T18:33:58Z</time>
      </trkpt>
      <trkpt lat="59.9782419" lon="17.7391993">
        <ele>36.6675</ele>
        <time>2013-04-17T18:33:59Z</time>
      </trkpt>
      <trkpt lat="59.978175" lon="17.7391855">
        <ele>36.6675</ele>
        <time>2013-04-17T18:34:00Z</time>
      </trkpt>
      <trkpt lat="59.9781077" lon="17.7391698">
        <ele>36.6675</ele>
        <time>2013-04-17T18:34:01Z</time>
      </trkpt>
      <trkpt lat="59.9780402" lon="17.739143">
        <ele>36.6675</ele>
        <time>2013-04-17T18:34:02Z</time>
      </trkpt>
      <trkpt lat="59.977973" lon="17.7391077">
        <ele>36.6675</ele>
        <time>2013-04-17T18:34:03Z</time>
      </trkpt>
      <trkpt lat="59.9779058" lon="17.7390658">
        <ele>36.1868</ele>
        <time>2013-04-17T18:34:04Z</time>
      </trkpt>
      <trkpt lat="59.9778378" lon="17.7390273">
        <ele>36.1868</ele>
        <time>2013-04-17T18:34:05Z</time>
      </trkpt>
      <trkpt lat="59.9777695" lon="17.7389963">
        <ele>35.7061</ele>
        <time>2013-04-17T18:34:06Z</time>
      </trkpt>
      <trkpt lat="59.9777017" lon="17.7389731">
        <ele>35.2255</ele>
        <time>2013-04-17T18:34:07Z</time>
      </trkpt>
      <trkpt lat="59.9776311" lon="17.7389618">
        <ele>34.7449</ele>
        <time>2013-04-17T18:34:08Z</time>
      </trkpt>
      <trkpt lat="59.9775556" lon="17.7389669">
        <ele>34.2642</ele>
        <time>2013-04-17T18:34:09Z</time>
      </trkpt>
      <trkpt lat="59.9774784" lon="17.7389863">
        <ele>33.7834</ele>
        <time>2013-04-17T18:34:10Z</time>
      </trkpt>
      <trkpt lat="59.9774013" lon="17.7390131">
        <ele>33.3029</ele>
        <time>2013-04-17T18:34:11Z</time>
      </trkpt>
      <trkpt lat="59.9773236" lon="17.7390466">
        <ele>32.8223</ele>
        <time>2013-04-17T18:34:12Z</time>
      </trkpt>
      <trkpt lat="59.9772448" lon="17.7390896">
        <ele>32.3416</ele>
        <time>2013-04-17T18:34:13Z</time>
      </trkpt>
      <trkpt lat="59.9771663" lon="17.7391357">
        <ele>32.3416</ele>
        <time>2013-04-17T18:34:14Z</time>
      </trkpt>
      <trkpt lat="59.9770879" lon="17.7391769">
        <ele>31.8607</ele>
        <time>2013-04-17T18:34:15Z</time>
      </trkpt>
      <trkpt lat="59.9770092" lon="17.7392145">
        <ele>31.3801</ele>
        <time>2013-04-17T18:34:16Z</time>
      </trkpt>
      <trkpt lat="59.9769319" lon="17.7392557">
        <ele>30.8995</ele>
        <time>2013-04-17T18:34:17Z</time>
      </trkpt>
      <trkpt lat="59.9768536" lon="17.7392894">
        <ele>30.4188</ele>
        <time>2013-04-17T18:34:18Z</time>
      </trkpt>
      <trkpt lat="59.9767761" lon="17.7393228">
        <ele>30.4188</ele>
        <time>2013-04-17T18:34:19Z</time>
      </trkpt>
      <trkpt lat="59.9766972" lon="17.739357">
        <ele>29.9381</ele>
        <time>2013-04-17T18:34:20Z</time>
      </trkpt>
      <trkpt lat="59.9766164" lon="17.7394029">
        <ele>29.4575</ele>
        <time>2013-04-17T18:34:21Z</time>
      </trkpt>
      <trkpt lat="59.976537" lon="17.7394727">
        <ele>28.9769</ele>
        <time>2013-04-17T18:34:22Z</time>
      </trkpt>
      <trkpt lat="59.9764641" lon="17.7395665">
        <ele>28.4962</ele>
        <time>2013-04-17T18:34:23Z</time>
      </trkpt>
      <trkpt lat="59.9763968" lon="17.7396805">
        <ele>28.4962</ele>
        <time>2013-04-17T18:34:24Z</time>
      </trkpt>
      <trkpt lat="59.9763356" lon="17.7398096">
        <ele>28.4962</ele>
        <time>2013-04-17T18:34:25Z</time>
      </trkpt>
      <trkpt lat="59.9762797" lon="17.7399509">
        <ele>28.4962</ele>
        <time>2013-04-17T18:34:26Z</time>
      </trkpt>
      <trkpt lat="59.9762294" lon="17.7400976">
        <ele>28.4962</ele>
        <time>2013-04-17T18:34:27Z</time>
      </trkpt>
      <trkpt lat="59.9761822" lon="17.7402443">
        <ele>28.9769</ele>
        <time>2013-04-17T18:34:28Z</time>
      </trkpt>
      <trkpt lat="59.976136" lon="17.7403856">
        <ele>28.9769</ele>
        <time>2013-04-17T18:34:29Z</time>
      </trkpt>
      <trkpt lat="59.9760885" lon="17.7405235">
        <ele>28.9769</ele>
        <time>2013-04-17T18:34:30Z</time>
      </trkpt>
      <trkpt lat="59.9760408" lon="17.7406626">
        <ele>29.4575</ele>
        <time>2013-04-17T18:34:31Z</time>
      </trkpt>
      <trkpt lat="59.9759957" lon="17.7408053">
        <ele>29.4575</ele>
        <time>2013-04-17T18:34:32Z</time>
      </trkpt>
      <trkpt lat="59.9759544" lon="17.7409532">
        <ele>29.4575</ele>
        <time>2013-04-17T18:34:33Z</time>
      </trkpt>
      <trkpt lat="59.9759176" lon="17.7411047">
        <ele>29.9381</ele>
        <time>2013-04-17T18:34:34Z</time>
      </trkpt>
      <trkpt lat="59.975882" lon="17.7412568">
        <ele>29.9381</ele>
        <time>2013-04-17T18:34:35Z</time>
      </trkpt>
      <trkpt lat="59.9758462" lon="17.7414077">
        <ele>29.9381</ele>
        <time>2013-04-17T18:34:36Z</time>
      </trkpt>
      <trkpt lat="59.97581" lon="17.7415569">
        <ele>30.4188</ele>
        <time>2013-04-17T18:34:37Z</time>
      </trkpt>
      <trkpt lat="59.9757737" lon="17.7417049">
        <ele>30.4188</ele>
        <time>2013-04-17T18:34:38Z</time>
      </trkpt>
      <trkpt lat="59.9757372" lon="17.7418504">
        <ele>30.8995</ele>
        <time>2013-04-17T18:34:39Z</time>
      </trkpt>
      <trkpt lat="59.9756995" lon="17.7419952">
        <ele>30.8995</ele>
        <time>2013-04-17T18:34:40Z</time>
      </trkpt>
      <trkpt lat="59.9756616" lon="17.7421401">
        <ele>30.8995</ele>
        <time>2013-04-17T18:34:41Z</time>
      </trkpt>
      <trkpt lat="59.9756244" lon="17.7422851">
        <ele>31.3801</ele>
        <time>2013-04-17T18:34:42Z</time>
      </trkpt>
      <trkpt lat="59.9755888" lon="17.7424301">
        <ele>31.3801</ele>
        <time>2013-04-17T18:34:43Z</time>
      </trkpt>
      <trkpt lat="59.9755533" lon="17.7425747">
        <ele>31.8607</ele>
        <time>2013-04-17T18:34:44Z</time>
      </trkpt>
      <trkpt lat="59.9755171" lon="17.7427192">
        <ele>31.8607</ele>
        <time>2013-04-17T18:34:45Z</time>
      </trkpt>
      <trkpt lat="59.9754794" lon="17.7428607">
        <ele>31.8607</ele>
        <time>2013-04-17T18:34:46Z</time>
      </trkpt>
      <trkpt lat="59.9754425" lon="17.7430021">
        <ele>31.8607</ele>
        <time>2013-04-17T18:34:47Z</time>
      </trkpt>
      <trkpt lat="59.9754075" lon="17.743147">
        <ele>32.3416</ele>
        <time>2013-04-17T18:34:48Z</time>
      </trkpt>
      <trkpt lat="59.9753758" lon="17.7432937">
        <ele>32.3416</ele>
        <time>2013-04-17T18:34:49Z</time>
      </trkpt>
      <trkpt lat="59.9753458" lon="17.7434426">
        <ele>32.3416</ele>
        <time>2013-04-17T18:34:50Z</time>
      </trkpt>
      <trkpt lat="59.9753179" lon="17.7435943">
        <ele>32.3416</ele>
        <time>2013-04-17T18:34:51Z</time>
      </trkpt>
      <trkpt lat="59.9752914" lon="17.7437465">
        <ele>32.3416</ele>
        <time>2013-04-17T18:34:52Z</time>
      </trkpt>
      <trkpt lat="59.9752639" lon="17.7439">
        <ele>32.8223</ele>
        <time>2013-04-17T18:34:53Z</time>
      </trkpt>
      <trkpt lat="59.9752354" lon="17.7440542">
        <ele>32.8223</ele>
        <time>2013-04-17T18:34:54Z</time>
      </trkpt>
      <trkpt lat="59.9752062" lon="17.7442079">
        <ele>32.8223</ele>
        <time>2013-04-17T18:34:55Z</time>
      </trkpt>
      <trkpt lat="59.9751744" lon="17.7443597">
        <ele>32.8223</ele>
        <time>2013-04-17T18:34:56Z</time>
      </trkpt>
      <trkpt lat="59.9751385" lon="17.7445079">
        <ele>32.8223</ele>
        <time>2013-04-17T18:34:57Z</time>
      </trkpt>
      <trkpt lat="59.9750987" lon="17.744653">
        <ele>32.8223</ele>
        <time>2013-04-17T18:34:58Z</time>
      </trkpt>
      <trkpt lat="59.9750577" lon="17.7447955">
        <ele>32.8223</ele>
        <time>2013-04-17T18:34:59Z</time>
      </trkpt>
      <trkpt lat="59.9750168" lon="17.7449355">
        <ele>33.3029</ele>
        <time>2013-04-17T18:35:00Z</time>
      </trkpt>
      <trkpt lat="59.9749749" lon="17.7450726">
        <ele>33.3029</ele>
        <time>2013-04-17T18:35:01Z</time>
      </trkpt>
      <trkpt lat="59.9749313" lon="17.7452068">
        <ele>33.3029</ele>
        <time>2013-04-17T18:35:02Z</time>
      </trkpt>
      <trkpt lat="59.9748874" lon="17.7453353">
        <ele>33.3029</ele>
        <time>2013-04-17T18:35:03Z</time>
      </trkpt>
      <trkpt lat="59.9748412" lon="17.7454614">
        <ele>33.7834</ele>
        <time>2013-04-17T18:35:04Z</time>
      </trkpt>
      <trkpt lat="59.9747935" lon="17.7455827">
        <ele>34.2642</ele>
        <time>2013-04-17T18:35:05Z</time>
      </trkpt>
      <trkpt lat="59.9747423" lon="17.7456978">
        <ele>34.2642</ele>
        <time>2013-04-17T18:35:06Z</time>
      </trkpt>
      <trkpt lat="59.9746901" lon="17.7458047">
        <ele>34.2642</ele>
        <time>2013-04-17T18:35:07Z</time>
      </trkpt>
      <trkpt lat="59.9746372" lon="17.7459051">
        <ele>34.2642</ele>
        <time>2013-04-17T18:35:08Z</time>
      </trkpt>
      <trkpt lat="59.974576" lon="17.7460059">
        <ele>33.7834</ele>
        <time>2013-04-17T18:35:09Z</time>
      </trkpt>
      <trkpt lat="59.9745162" lon="17.7460977">
        <ele>33.7834</ele>
        <time>2013-04-17T18:35:10Z</time>
      </trkpt>
      <trkpt lat="59.974457" lon="17.7461889">
        <ele>33.3029</ele>
        <time>2013-04-17T18:35:11Z</time>
      </trkpt>
      <trkpt lat="59.9743914" lon="17.7462769">
        <ele>32.8223</ele>
        <time>2013-04-17T18:35:12Z</time>
      </trkpt>
      <trkpt lat="59.9743237" lon="17.7463719">
        <ele>32.3416</ele>
        <time>2013-04-17T18:35:13Z</time>
      </trkpt>
      <trkpt lat="59.9742641" lon="17.7464638">
        <ele>32.3416</ele>
        <time>2013-04-17T18:35:14Z</time>
      </trkpt>
      <trkpt lat="59.9741967" lon="17.7465584">
        <ele>31.8607</ele>
        <time>2013-04-17T18:35:15Z</time>
      </trkpt>
      <trkpt lat="59.974135" lon="17.7466406">
        <ele>31.8607</ele>
        <time>2013-04-17T18:35:16Z</time>
      </trkpt>
      <trkpt lat="59.9740631" lon="17.7467308">
        <ele>31.3801</ele>
        <time>2013-04-17T18:35:17Z</time>
      </trkpt>
      <trkpt lat="59.9739856" lon="17.746828">
        <ele>31.3801</ele>
        <time>2013-04-17T18:35:18Z</time>
      </trkpt>
      <trkpt lat="59.973914" lon="17.7469199">
        <ele>31.3801</ele>
        <time>2013-04-17T18:35:19Z</time>
      </trkpt>
      <trkpt lat="59.9738425" lon="17.747011">
        <ele>31.3801</ele>
        <time>2013-04-17T18:35:20Z</time>
      </trkpt>
      <trkpt lat="59.9737741" lon="17.7470955">
        <ele>31.3801</ele>
        <time>2013-04-17T18:35:21Z</time>
      </trkpt>
      <trkpt lat="59.9736957" lon="17.7471856">
        <ele>31.8607</ele>
        <time>2013-04-17T18:35:22Z</time>
      </trkpt>
      <trkpt lat="59.9736144" lon="17.7472741">
        <ele>32.3416</ele>
        <time>2013-04-17T18:35:23Z</time>
      </trkpt>
      <trkpt lat="59.9735306" lon="17.747362">
        <ele>32.3416</ele>
        <time>2013-04-17T18:35:24Z</time>
      </trkpt>
      <trkpt lat="59.9734519" lon="17.7474601">
        <ele>32.3416</ele>
        <time>2013-04-17T18:35:25Z</time>
      </trkpt>
      <trkpt lat="59.9733685" lon="17.7475508">
        <ele>31.8607</ele>
        <time>2013-04-17T18:35:26Z</time>
      </trkpt>
      <trkpt lat="59.9732937" lon="17.7476259">
        <ele>31.3801</ele>
        <time>2013-04-17T18:35:27Z</time>
      </trkpt>
      <trkpt lat="59.9732204" lon="17.7477046">
        <ele>31.3801</ele>
        <time>2013-04-17T18:35:28Z</time>
      </trkpt>
      <trkpt lat="59.9731452" lon="17.7477885">
        <ele>30.8995</ele>
        <time>2013-04-17T18:35:29Z</time>
      </trkpt>
      <trkpt lat="59.9730732" lon="17.747872">
        <ele>30.8995</ele>
        <time>2013-04-17T18:35:30Z</time>
      </trkpt>
      <trkpt lat="59.9730012" lon="17.7479589">
        <ele>30.8995</ele>
        <time>2013-04-17T18:35:31Z</time>
      </trkpt>
      <trkpt lat="59.9729309" lon="17.7480533">
        <ele>30.8995</ele>
        <time>2013-04-17T18:35:32Z</time>
      </trkpt>
      <trkpt lat="59.9728636" lon="17.7481561">
        <ele>30.8995</ele>
        <time>2013-04-17T18:35:33Z</time>
      </trkpt>
      <trkpt lat="59.972799" lon="17.7482811">
        <ele>31.3801</ele>
        <time>2013-04-17T18:35:34Z</time>
      </trkpt>
      <trkpt lat="59.9727417" lon="17.7483947">
        <ele>31.3801</ele>
        <time>2013-04-17T18:35:35Z</time>
      </trkpt>
      <trkpt lat="59.9726876" lon="17.7485196">
        <ele>31.8607</ele>
        <time>2013-04-17T18:35:36Z</time>
      </trkpt>
      <trkpt lat="59.972645" lon="17.7486257">
        <ele>31.3801</ele>
        <time>2013-04-17T18:35:37Z</time>
      </trkpt>
      <trkpt lat="59.9725975" lon="17.7487377">
        <ele>31.3801</ele>
        <time>2013-04-17T18:35:38Z</time>
      </trkpt>
      <trkpt lat="59.972545" lon="17.7488596">
        <ele>31.8607</ele>
        <time>2013-04-17T18:35:39Z</time>
      </trkpt>
      <trkpt lat="59.9724925" lon="17.7489706">
        <ele>31.8607</ele>
        <time>2013-04-17T18:35:40Z</time>
      </trkpt>
      <trkpt lat="59.9724444" lon="17.7490858">
        <ele>31.8607</ele>
        <time>2013-04-17T18:35:41Z</time>
      </trkpt>
      <trkpt lat="59.9724003" lon="17.7491944">
        <ele>31.8607</ele>
        <time>2013-04-17T18:35:42Z</time>
      </trkpt>
      <trkpt lat="59.9723495" lon="17.7493047">
        <ele>31.8607</ele>
        <time>2013-04-17T18:35:43Z</time>
      </trkpt>
      <trkpt lat="59.9723003" lon="17.7494178">
        <ele>31.8607</ele>
        <time>2013-04-17T18:35:44Z</time>
      </trkpt>
      <trkpt lat="59.9722486" lon="17.749528">
        <ele>32.3416</ele>
        <time>2013-04-17T18:35:45Z</time>
      </trkpt>
      <trkpt lat="59.9721992" lon="17.7496275">
        <ele>32.8223</ele>
        <time>2013-04-17T18:35:46Z</time>
      </trkpt>
      <trkpt lat="59.9721531" lon="17.7497326">
        <ele>32.8223</ele>
        <time>2013-04-17T18:35:47Z</time>
      </trkpt>
      <trkpt lat="59.9721082" lon="17.7498395">
        <ele>33.3029</ele>
        <time>2013-04-17T18:35:48Z</time>
      </trkpt>
      <trkpt lat="59.9720603" lon="17.7499518">
        <ele>33.3029</ele>
        <time>2013-04-17T18:35:49Z</time>
      </trkpt>
      <trkpt lat="59.9720108" lon="17.7500653">
        <ele>33.7834</ele>
        <time>2013-04-17T18:35:50Z</time>
      </trkpt>
      <trkpt lat="59.9719606" lon="17.7501766">
        <ele>33.7834</ele>
        <time>2013-04-17T18:35:51Z</time>
      </trkpt>
      <trkpt lat="59.9719034" lon="17.7502969">
        <ele>33.7834</ele>
        <time>2013-04-17T18:35:52Z</time>
      </trkpt>
      <trkpt lat="59.9718417" lon="17.7504189">
        <ele>33.3029</ele>
        <time>2013-04-17T18:35:53Z</time>
      </trkpt>
      <trkpt lat="59.9717791" lon="17.7505312">
        <ele>33.3029</ele>
        <time>2013-04-17T18:35:54Z</time>
      </trkpt>
      <trkpt lat="59.9717176" lon="17.7506376">
        <ele>32.8223</ele>
        <time>2013-04-17T18:35:55Z</time>
      </trkpt>
      <trkpt lat="59.971653" lon="17.7507441">
        <ele>32.3416</ele>
        <time>2013-04-17T18:35:56Z</time>
      </trkpt>
      <trkpt lat="59.9715861" lon="17.7508514">
        <ele>31.8607</ele>
        <time>2013-04-17T18:35:57Z</time>
      </trkpt>
      <trkpt lat="59.9715159" lon="17.7509553">
        <ele>31.8607</ele>
        <time>2013-04-17T18:35:58Z</time>
      </trkpt>
      <trkpt lat="59.9714436" lon="17.7510526">
        <ele>31.3801</ele>
        <time>2013-04-17T18:35:59Z</time>
      </trkpt>
      <trkpt lat="59.9713708" lon="17.7511423">
        <ele>30.8995</ele>
        <time>2013-04-17T18:36:00Z</time>
      </trkpt>
      <trkpt lat="59.9712984" lon="17.7512318">
        <ele>30.4188</ele>
        <time>2013-04-17T18:36:01Z</time>
      </trkpt>
      <trkpt lat="59.971226" lon="17.7513166">
        <ele>29.9381</ele>
        <time>2013-04-17T18:36:02Z</time>
      </trkpt>
      <trkpt lat="59.9711552" lon="17.7513986">
        <ele>29.9381</ele>
        <time>2013-04-17T18:36:03Z</time>
      </trkpt>
      <trkpt lat="59.9710862" lon="17.7514809">
        <ele>29.9381</ele>
        <time>2013-04-17T18:36:04Z</time>
      </trkpt>
      <trkpt lat="59.9710178" lon="17.7515632">
        <ele>29.9381</ele>
        <time>2013-04-17T18:36:05Z</time>
      </trkpt>
      <trkpt lat="59.9709428" lon="17.7516569">
        <ele>29.9381</ele>
        <time>2013-04-17T18:36:06Z</time>
      </trkpt>
      <trkpt lat="59.9708751" lon="17.7517537">
        <ele>29.4575</ele>
        <time>2013-04-17T18:36:07Z</time>
      </trkpt>
      <trkpt lat="59.9708137" lon="17.7518503">
        <ele>28.9769</ele>
        <time>2013-04-17T18:36:08Z</time>
      </trkpt>
      <trkpt lat="59.9707529" lon="17.7519486">
        <ele>28.9769</ele>
        <time>2013-04-17T18:36:09Z</time>
      </trkpt>
      <trkpt lat="59.9706919" lon="17.7520506">
        <ele>28.9769</ele>
        <time>2013-04-17T18:36:10Z</time>
      </trkpt>
      <trkpt lat="59.9706327" lon="17.7521562">
        <ele>28.4962</ele>
        <time>2013-04-17T18:36:11Z</time>
      </trkpt>
      <trkpt lat="59.9705785" lon="17.7522671">
        <ele>28.4962</ele>
        <time>2013-04-17T18:36:12Z</time>
      </trkpt>
      <trkpt lat="59.9705226" lon="17.7523798">
        <ele>28.4962</ele>
        <time>2013-04-17T18:36:13Z</time>
      </trkpt>
      <trkpt lat="59.9704718" lon="17.7524997">
        <ele>28.4962</ele>
        <time>2013-04-17T18:36:14Z</time>
      </trkpt>
      <trkpt lat="59.9704255" lon="17.7526245">
        <ele>28.4962</ele>
        <time>2013-04-17T18:36:15Z</time>
      </trkpt>
      <trkpt lat="59.9703794" lon="17.7527494">
        <ele>28.4962</ele>
        <time>2013-04-17T18:36:16Z</time>
      </trkpt>
      <trkpt lat="59.970335" lon="17.752875">
        <ele>28.4962</ele>
        <time>2013-04-17T18:36:17Z</time>
      </trkpt>
      <trkpt lat="59.9702925" lon="17.7530026">
        <ele>28.0155</ele>
        <time>2013-04-17T18:36:18Z</time>
      </trkpt>
      <trkpt lat="59.970247" lon="17.7531343">
        <ele>28.4962</ele>
        <time>2013-04-17T18:36:19Z</time>
      </trkpt>
      <trkpt lat="59.9702004" lon="17.7532639">
        <ele>28.4962</ele>
        <time>2013-04-17T18:36:20Z</time>
      </trkpt>
      <trkpt lat="59.9701543" lon="17.7533919">
        <ele>28.4962</ele>
        <time>2013-04-17T18:36:21Z</time>
      </trkpt>
      <trkpt lat="59.9701074" lon="17.7535219">
        <ele>28.4962</ele>
        <time>2013-04-17T18:36:22Z</time>
      </trkpt>
      <trkpt lat="59.97006" lon="17.7536504">
        <ele>28.4962</ele>
        <time>2013-04-17T18:36:23Z</time>
      </trkpt>
      <trkpt lat="59.9700107" lon="17.7537763">
        <ele>28.4962</ele>
        <time>2013-04-17T18:36:24Z</time>
      </trkpt>
      <trkpt lat="59.9699582" lon="17.7539001">
        <ele>28.4962</ele>
        <time>2013-04-17T18:36:25Z</time>
      </trkpt>
      <trkpt lat="59.9699034" lon="17.754021">
        <ele>28.4962</ele>
        <time>2013-04-17T18:36:26Z</time>
      </trkpt>
      <trkpt lat="59.9698479" lon="17.7541383">
        <ele>28.4962</ele>
        <time>2013-04-17T18:36:27Z</time>
      </trkpt>
      <trkpt lat="59.9697932" lon="17.7542537">
        <ele>28.9769</ele>
        <time>2013-04-17T18:36:28Z</time>
      </trkpt>
      <trkpt lat="59.9697372" lon="17.7543719">
        <ele>28.9769</ele>
        <time>2013-04-17T18:36:29Z</time>
      </trkpt>
      <trkpt lat="59.9696828" lon="17.7544797">
        <ele>28.9769</ele>
        <time>2013-04-17T18:36:30Z</time>
      </trkpt>
      <trkpt lat="59.9696285" lon="17.7545875">
        <ele>28.9769</ele>
        <time>2013-04-17T18:36:31Z</time>
      </trkpt>
      <trkpt lat="59.9695745" lon="17.7546963">
        <ele>28.9769</ele>
        <time>2013-04-17T18:36:32Z</time>
      </trkpt>
      <trkpt lat="59.9695207" lon="17.7548096">
        <ele>28.9769</ele>
        <time>2013-04-17T18:36:33Z</time>
      </trkpt>
      <trkpt lat="59.9694674" lon="17.7549232">
        <ele>28.9769</ele>
        <time>2013-04-17T18:36:34Z</time>
      </trkpt>
      <trkpt lat="59.9694146" lon="17.7550376">
        <ele>28.9769</ele>
        <time>2013-04-17T18:36:35Z</time>
      </trkpt>
      <trkpt lat="59.9693612" lon="17.7551498">
        <ele>28.9769</ele>
        <time>2013-04-17T18:36:36Z</time>
      </trkpt>
      <trkpt lat="59.9693072" lon="17.7552629">
        <ele>28.9769</ele>
        <time>2013-04-17T18:36:37Z</time>
      </trkpt>
      <trkpt lat="59.9692539" lon="17.7553779">
        <ele>28.9769</ele>
        <time>2013-04-17T18:36:38Z</time>
      </trkpt>
      <trkpt lat="59.9692009" lon="17.7554949">
        <ele>28.9769</ele>
        <time>2013-04-17T18:36:39Z</time>
      </trkpt>
      <trkpt lat="59.9691475" lon="17.755611">
        <ele>28.9769</ele>
        <time>2013-04-17T18:36:40Z</time>
      </trkpt>
      <trkpt lat="59.9690934" lon="17.7557254">
        <ele>28.9769</ele>
        <time>2013-04-17T18:36:41Z</time>
      </trkpt>
      <trkpt lat="59.9690386" lon="17.755837">
        <ele>28.9769</ele>
        <time>2013-04-17T18:36:42Z</time>
      </trkpt>
      <trkpt lat="59.9689836" lon="17.7559462">
        <ele>29.4575</ele>
        <time>2013-04-17T18:36:43Z</time>
      </trkpt>
      <trkpt lat="59.9689303" lon="17.756055">
        <ele>29.4575</ele>
        <time>2013-04-17T18:36:44Z</time>
      </trkpt>
      <trkpt lat="59.9688792" lon="17.7561636">
        <ele>29.4575</ele>
        <time>2013-04-17T18:36:45Z</time>
      </trkpt>
      <trkpt lat="59.9688283" lon="17.7562685">
        <ele>29.4575</ele>
        <time>2013-04-17T18:36:46Z</time>
      </trkpt>
      <trkpt lat="59.9687779" lon="17.7563678">
        <ele>29.4575</ele>
        <time>2013-04-17T18:36:47Z</time>
      </trkpt>
      <trkpt lat="59.9687257" lon="17.7564645">
        <ele>29.4575</ele>
        <time>2013-04-17T18:36:48Z</time>
      </trkpt>
      <trkpt lat="59.9686712" lon="17.7565609">
        <ele>29.4575</ele>
        <time>2013-04-17T18:36:49Z</time>
      </trkpt>
      <trkpt lat="59.9686163" lon="17.7566549">
        <ele>28.9769</ele>
        <time>2013-04-17T18:36:50Z</time>
      </trkpt>
      <trkpt lat="59.9685589" lon="17.7567486">
        <ele>28.9769</ele>
        <time>2013-04-17T18:36:51Z</time>
      </trkpt>
      <trkpt lat="59.9684997" lon="17.7568411">
        <ele>28.9769</ele>
        <time>2013-04-17T18:36:52Z</time>
      </trkpt>
      <trkpt lat="59.9684402" lon="17.7569294">
        <ele>28.9769</ele>
        <time>2013-04-17T18:36:53Z</time>
      </trkpt>
      <trkpt lat="59.9683802" lon="17.7570136">
        <ele>28.4962</ele>
        <time>2013-04-17T18:36:54Z</time>
      </trkpt>
      <trkpt lat="59.968321" lon="17.757096">
        <ele>28.4962</ele>
        <time>2013-04-17T18:36:55Z</time>
      </trkpt>
      <trkpt lat="59.9682624" lon="17.7571785">
        <ele>28.4962</ele>
        <time>2013-04-17T18:36:56Z</time>
      </trkpt>
      <trkpt lat="59.9682039" lon="17.7572619">
        <ele>28.4962</ele>
        <time>2013-04-17T18:36:57Z</time>
      </trkpt>
      <trkpt lat="59.9681468" lon="17.7573416">
        <ele>28.0155</ele>
        <time>2013-04-17T18:36:58Z</time>
      </trkpt>
      <trkpt lat="59.9680837" lon="17.7574241">
        <ele>27.5349</ele>
        <time>2013-04-17T18:36:59Z</time>
      </trkpt>
      <trkpt lat="59.9680176" lon="17.7575078">
        <ele>27.0543</ele>
        <time>2013-04-17T18:37:00Z</time>
      </trkpt>
      <trkpt lat="59.9679507" lon="17.7575904">
        <ele>26.5736</ele>
        <time>2013-04-17T18:37:01Z</time>
      </trkpt>
      <trkpt lat="59.9678879" lon="17.757667">
        <ele>26.0929</ele>
        <time>2013-04-17T18:37:02Z</time>
      </trkpt>
      <trkpt lat="59.967822" lon="17.7577437">
        <ele>26.0929</ele>
        <time>2013-04-17T18:37:03Z</time>
      </trkpt>
      <trkpt lat="59.9677551" lon="17.757815">
        <ele>25.6123</ele>
        <time>2013-04-17T18:37:04Z</time>
      </trkpt>
      <trkpt lat="59.9676899" lon="17.757889">
        <ele>25.6123</ele>
        <time>2013-04-17T18:37:05Z</time>
      </trkpt>
      <trkpt lat="59.9676251" lon="17.7579633">
        <ele>24.651</ele>
        <time>2013-04-17T18:37:06Z</time>
      </trkpt>
      <trkpt lat="59.9675574" lon="17.7580351">
        <ele>24.651</ele>
        <time>2013-04-17T18:37:07Z</time>
      </trkpt>
      <trkpt lat="59.9674873" lon="17.7581082">
        <ele>24.651</ele>
        <time>2013-04-17T18:37:08Z</time>
      </trkpt>
      <trkpt lat="59.9674176" lon="17.7581825">
        <ele>24.1703</ele>
        <time>2013-04-17T18:37:09Z</time>
      </trkpt>
      <trkpt lat="59.9673472" lon="17.7582549">
        <ele>23.6896</ele>
        <time>2013-04-17T18:37:10Z</time>
      </trkpt>
      <trkpt lat="59.9672745" lon="17.7583232">
        <ele>23.6896</ele>
        <time>2013-04-17T18:37:11Z</time>
      </trkpt>
      <trkpt lat="59.9671999" lon="17.7583861">
        <ele>23.6896</ele>
        <time>2013-04-17T18:37:12Z</time>
      </trkpt>
      <trkpt lat="59.9671243" lon="17.7584501">
        <ele>23.209</ele>
        <time>2013-04-17T18:37:13Z</time>
      </trkpt>
      <trkpt lat="59.9670473" lon="17.758515">
        <ele>23.209</ele>
        <time>2013-04-17T18:37:14Z</time>
      </trkpt>
      <trkpt lat="59.9669691" lon="17.7585795">
        <ele>23.209</ele>
        <time>2013-04-17T18:37:15Z</time>
      </trkpt>
      <trkpt lat="59.9668908" lon="17.7586484">
        <ele>23.209</ele>
        <time>2013-04-17T18:37:16Z</time>
      </trkpt>
      <trkpt lat="59.9668108" lon="17.7587187">
        <ele>23.209</ele>
        <time>2013-04-17T18:37:17Z</time>
      </trkpt>
      <trkpt lat="59.9667276" lon="17.758795">
        <ele>23.209</ele>
        <time>2013-04-17T18:37:18Z</time>
      </trkpt>
      <trkpt lat="59.9666524" lon="17.7588684">
        <ele>23.209</ele>
        <time>2013-04-17T18:37:19Z</time>
      </trkpt>
      <trkpt lat="59.9665779" lon="17.7589452">
        <ele>23.6896</ele>
        <time>2013-04-17T18:37:20Z</time>
      </trkpt>
      <trkpt lat="59.9665053" lon="17.7590263">
        <ele>23.6896</ele>
        <time>2013-04-17T18:37:21Z</time>
      </trkpt>
      <trkpt lat="59.9664328" lon="17.7591175">
        <ele>23.6896</ele>
        <time>2013-04-17T18:37:22Z</time>
      </trkpt>
      <trkpt lat="59.9663609" lon="17.7592162">
        <ele>24.1703</ele>
        <time>2013-04-17T18:37:23Z</time>
      </trkpt>
      <trkpt lat="59.9662939" lon="17.7593169">
        <ele>24.1703</ele>
        <time>2013-04-17T18:37:24Z</time>
      </trkpt>
      <trkpt lat="59.9662284" lon="17.7594205">
        <ele>24.1703</ele>
        <time>2013-04-17T18:37:25Z</time>
      </trkpt>
      <trkpt lat="59.966164" lon="17.7595278">
        <ele>24.1703</ele>
        <time>2013-04-17T18:37:26Z</time>
      </trkpt>
      <trkpt lat="59.9660968" lon="17.7596436">
        <ele>24.1703</ele>
        <time>2013-04-17T18:37:27Z</time>
      </trkpt>
      <trkpt lat="59.9660283" lon="17.7597604">
        <ele>24.1703</ele>
        <time>2013-04-17T18:37:28Z</time>
      </trkpt>
      <trkpt lat="59.965963" lon="17.7598763">
        <ele>24.1703</ele>
        <time>2013-04-17T18:37:29Z</time>
      </trkpt>
      <trkpt lat="59.965897" lon="17.7599917">
        <ele>24.1703</ele>
        <time>2013-04-17T18:37:30Z</time>
      </trkpt>
      <trkpt lat="59.9658297" lon="17.7601094">
        <ele>24.1703</ele>
        <time>2013-04-17T18:37:31Z</time>
      </trkpt>
      <trkpt lat="59.9657626" lon="17.7602264">
        <ele>24.1703</ele>
        <time>2013-04-17T18:37:32Z</time>
      </trkpt>
      <trkpt lat="59.9656937" lon="17.7603432">
        <ele>24.1703</ele>
        <time>2013-04-17T18:37:33Z</time>
      </trkpt>
      <trkpt lat="59.9656267" lon="17.7604591">
        <ele>24.1703</ele>
        <time>2013-04-17T18:37:34Z</time>
      </trkpt>
      <trkpt lat="59.9655595" lon="17.7605673">
        <ele>24.1703</ele>
        <time>2013-04-17T18:37:35Z</time>
      </trkpt>
      <trkpt lat="59.9654916" lon="17.7606678">
        <ele>24.1703</ele>
        <time>2013-04-17T18:37:36Z</time>
      </trkpt>
      <trkpt lat="59.965427" lon="17.7607797">
        <ele>24.1703</ele>
        <time>2013-04-17T18:37:37Z</time>
      </trkpt>
      <trkpt lat="59.9653692" lon="17.7609033">
        <ele>24.1703</ele>
        <time>2013-04-17T18:37:38Z</time>
      </trkpt>
      <trkpt lat="59.9653143" lon="17.761034">
        <ele>23.6896</ele>
        <time>2013-04-17T18:37:39Z</time>
      </trkpt>
      <trkpt lat="59.9652616" lon="17.7611654">
        <ele>23.6896</ele>
        <time>2013-04-17T18:37:40Z</time>
      </trkpt>
      <trkpt lat="59.9652104" lon="17.7612965">
        <ele>23.6896</ele>
        <time>2013-04-17T18:37:41Z</time>
      </trkpt>
      <trkpt lat="59.9651596" lon="17.761424">
        <ele>23.6896</ele>
        <time>2013-04-17T18:37:42Z</time>
      </trkpt>
      <trkpt lat="59.9651108" lon="17.76155">
        <ele>23.6896</ele>
        <time>2013-04-17T18:37:43Z</time>
      </trkpt>
      <trkpt lat="59.9650642" lon="17.7616747">
        <ele>23.6896</ele>
        <time>2013-04-17T18:37:44Z</time>
      </trkpt>
      <trkpt lat="59.9650182" lon="17.7617959">
        <ele>23.6896</ele>
        <time>2013-04-17T18:37:45Z</time>
      </trkpt>
      <trkpt lat="59.9649736" lon="17.7619161">
        <ele>23.6896</ele>
        <time>2013-04-17T18:37:46Z</time>
      </trkpt>
      <trkpt lat="59.9649296" lon="17.7620321">
        <ele>23.6896</ele>
        <time>2013-04-17T18:37:47Z</time>
      </trkpt>
      <trkpt lat="59.9648844" lon="17.7621513">
        <ele>23.6896</ele>
        <time>2013-04-17T18:37:48Z</time>
      </trkpt>
      <trkpt lat="59.9648416" lon="17.7622684">
        <ele>23.209</ele>
        <time>2013-04-17T18:37:49Z</time>
      </trkpt>
      <trkpt lat="59.9648017" lon="17.7623833">
        <ele>23.209</ele>
        <time>2013-04-17T18:37:50Z</time>
      </trkpt>
      <trkpt lat="59.9647631" lon="17.7624999">
        <ele>23.209</ele>
        <time>2013-04-17T18:37:51Z</time>
      </trkpt>
      <trkpt lat="59.9647237" lon="17.7626196">
        <ele>23.6896</ele>
        <time>2013-04-17T18:37:52Z</time>
      </trkpt>
      <trkpt lat="59.9646847" lon="17.7627403">
        <ele>23.6896</ele>
        <time>2013-04-17T18:37:53Z</time>
      </trkpt>
      <trkpt lat="59.9646481" lon="17.7628617">
        <ele>23.6896</ele>
        <time>2013-04-17T18:37:54Z</time>
      </trkpt>
      <trkpt lat="59.9646141" lon="17.7629857">
        <ele>23.6896</ele>
        <time>2013-04-17T18:37:55Z</time>
      </trkpt>
      <trkpt lat="59.964581" lon="17.7631108">
        <ele>23.6896</ele>
        <time>2013-04-17T18:37:56Z</time>
      </trkpt>
      <trkpt lat="59.96455" lon="17.7632376">
        <ele>23.6896</ele>
        <time>2013-04-17T18:37:57Z</time>
      </trkpt>
      <trkpt lat="59.9645214" lon="17.7633675">
        <ele>24.1703</ele>
        <time>2013-04-17T18:37:58Z</time>
      </trkpt>
      <trkpt lat="59.9644914" lon="17.763495">
        <ele>24.1703</ele>
        <time>2013-04-17T18:37:59Z</time>
      </trkpt>
      <trkpt lat="59.9644601" lon="17.7636215">
        <ele>24.1703</ele>
        <time>2013-04-17T18:38:00Z</time>
      </trkpt>
      <trkpt lat="59.9644287" lon="17.7637495">
        <ele>24.1703</ele>
        <time>2013-04-17T18:38:01Z</time>
      </trkpt>
      <trkpt lat="59.964397" lon="17.7638759">
        <ele>24.1703</ele>
        <time>2013-04-17T18:38:02Z</time>
      </trkpt>
      <trkpt lat="59.9643645" lon="17.7640023">
        <ele>24.1703</ele>
        <time>2013-04-17T18:38:03Z</time>
      </trkpt>
      <trkpt lat="59.9643314" lon="17.7641292">
        <ele>24.1703</ele>
        <time>2013-04-17T18:38:04Z</time>
      </trkpt>
      <trkpt lat="59.9642983" lon="17.7642578">
        <ele>24.1703</ele>
        <time>2013-04-17T18:38:05Z</time>
      </trkpt>
      <trkpt lat="59.964265" lon="17.7643871">
        <ele>24.1703</ele>
        <time>2013-04-17T18:38:06Z</time>
      </trkpt>
      <trkpt lat="59.9642324" lon="17.7645157">
        <ele>24.651</ele>
        <time>2013-04-17T18:38:07Z</time>
      </trkpt>
      <trkpt lat="59.9642012" lon="17.7646415">
        <ele>24.651</ele>
        <time>2013-04-17T18:38:08Z</time>
      </trkpt>
      <trkpt lat="59.9641721" lon="17.7647677">
        <ele>24.651</ele>
        <time>2013-04-17T18:38:09Z</time>
      </trkpt>
      <trkpt lat="59.9641457" lon="17.7648907">
        <ele>25.1317</ele>
        <time>2013-04-17T18:38:10Z</time>
      </trkpt>
      <trkpt lat="59.9641204" lon="17.7650129">
        <ele>25.1317</ele>
        <time>2013-04-17T18:38:11Z</time>
      </trkpt>
      <trkpt lat="59.964097" lon="17.7651375">
        <ele>25.1317</ele>
        <time>2013-04-17T18:38:12Z</time>
      </trkpt>
      <trkpt lat="59.9640783" lon="17.7652642">
        <ele>25.1317</ele>
        <time>2013-04-17T18:38:13Z</time>
      </trkpt>
      <trkpt lat="59.964063" lon="17.7653935">
        <ele>25.6123</ele>
        <time>2013-04-17T18:38:14Z</time>
      </trkpt>
      <trkpt lat="59.9640499" lon="17.7655207">
        <ele>26.5736</ele>
        <time>2013-04-17T18:38:15Z</time>
      </trkpt>
      <trkpt lat="59.9640374" lon="17.765648">
        <ele>27.0543</ele>
        <time>2013-04-17T18:38:16Z</time>
      </trkpt>
      <trkpt lat="59.9640303" lon="17.7657768">
        <ele>27.5349</ele>
        <time>2013-04-17T18:38:17Z</time>
      </trkpt>
      <trkpt lat="59.9640286" lon="17.7659016">
        <ele>28.0155</ele>
        <time>2013-04-17T18:38:18Z</time>
      </trkpt>
      <trkpt lat="59.9640278" lon="17.7660194">
        <ele>28.9769</ele>
        <time>2013-04-17T18:38:19Z</time>
      </trkpt>
      <trkpt lat="59.964024" lon="17.7661388">
        <ele>29.9381</ele>
        <time>2013-04-17T18:38:20Z</time>
      </trkpt>
      <trkpt lat="59.9640231" lon="17.7662535">
        <ele>30.4188</ele>
        <time>2013-04-17T18:38:21Z</time>
      </trkpt>
      <trkpt lat="59.9640278" lon="17.7663669">
        <ele>30.8995</ele>
        <time>2013-04-17T18:38:22Z</time>
      </trkpt>
      <trkpt lat="59.9640339" lon="17.766466">
        <ele>31.3801</ele>
        <time>2013-04-17T18:38:23Z</time>
      </trkpt>
      <trkpt lat="59.9640417" lon="17.7665607">
        <ele>32.3416</ele>
        <time>2013-04-17T18:38:24Z</time>
      </trkpt>
      <trkpt lat="59.9640469" lon="17.7666597">
        <ele>32.8223</ele>
        <time>2013-04-17T18:38:25Z</time>
      </trkpt>
      <trkpt lat="59.9640511" lon="17.7667599">
        <ele>33.3029</ele>
        <time>2013-04-17T18:38:26Z</time>
      </trkpt>
      <trkpt lat="59.9640519" lon="17.7668638">
        <ele>34.2642</ele>
        <time>2013-04-17T18:38:27Z</time>
      </trkpt>
      <trkpt lat="59.9640481" lon="17.7669706">
        <ele>34.2642</ele>
        <time>2013-04-17T18:38:28Z</time>
      </trkpt>
      <trkpt lat="59.9640424" lon="17.7670804">
        <ele>34.2642</ele>
        <time>2013-04-17T18:38:29Z</time>
      </trkpt>
      <trkpt lat="59.9640339" lon="17.7671911">
        <ele>34.2642</ele>
        <time>2013-04-17T18:38:30Z</time>
      </trkpt>
      <trkpt lat="59.964022" lon="17.7673004">
        <ele>34.2642</ele>
        <time>2013-04-17T18:38:31Z</time>
      </trkpt>
      <trkpt lat="59.964006" lon="17.7674066">
        <ele>34.2642</ele>
        <time>2013-04-17T18:38:32Z</time>
      </trkpt>
      <trkpt lat="59.9639894" lon="17.7675116">
        <ele>34.2642</ele>
        <time>2013-04-17T18:38:33Z</time>
      </trkpt>
      <trkpt lat="59.9639713" lon="17.7676143">
        <ele>34.2642</ele>
        <time>2013-04-17T18:38:34Z</time>
      </trkpt>
      <trkpt lat="59.9639511" lon="17.7677149">
        <ele>34.2642</ele>
        <time>2013-04-17T18:38:35Z</time>
      </trkpt>
      <trkpt lat="59.9639293" lon="17.7678151">
        <ele>34.2642</ele>
        <time>2013-04-17T18:38:36Z</time>
      </trkpt>
      <trkpt lat="59.9639064" lon="17.7679153">
        <ele>33.7834</ele>
        <time>2013-04-17T18:38:37Z</time>
      </trkpt>
      <trkpt lat="59.9638826" lon="17.7680158">
        <ele>33.7834</ele>
        <time>2013-04-17T18:38:38Z</time>
      </trkpt>
      <trkpt lat="59.9638579" lon="17.7681193">
        <ele>33.7834</ele>
        <time>2013-04-17T18:38:39Z</time>
      </trkpt>
      <trkpt lat="59.9638313" lon="17.7682234">
        <ele>33.3029</ele>
        <time>2013-04-17T18:38:40Z</time>
      </trkpt>
      <trkpt lat="59.9638048" lon="17.7683287">
        <ele>33.3029</ele>
        <time>2013-04-17T18:38:41Z</time>
      </trkpt>
      <trkpt lat="59.963777" lon="17.7684338">
        <ele>32.8223</ele>
        <time>2013-04-17T18:38:42Z</time>
      </trkpt>
      <trkpt lat="59.9637479" lon="17.7685383">
        <ele>32.8223</ele>
        <time>2013-04-17T18:38:43Z</time>
      </trkpt>
      <trkpt lat="59.9637188" lon="17.7686419">
        <ele>32.8223</ele>
        <time>2013-04-17T18:38:44Z</time>
      </trkpt>
      <trkpt lat="59.9636901" lon="17.7687436">
        <ele>32.8223</ele>
        <time>2013-04-17T18:38:45Z</time>
      </trkpt>
      <trkpt lat="59.963661" lon="17.7688415">
        <ele>32.8223</ele>
        <time>2013-04-17T18:38:46Z</time>
      </trkpt>
      <trkpt lat="59.963632" lon="17.7689384">
        <ele>32.8223</ele>
        <time>2013-04-17T18:38:47Z</time>
      </trkpt>
      <trkpt lat="59.9636043" lon="17.7690369">
        <ele>32.8223</ele>
        <time>2013-04-17T18:38:48Z</time>
      </trkpt>
      <trkpt lat="59.963576" lon="17.7691368">
        <ele>32.8223</ele>
        <time>2013-04-17T18:38:49Z</time>
      </trkpt>
      <trkpt lat="59.9635487" lon="17.7692366">
        <ele>32.8223</ele>
        <time>2013-04-17T18:38:50Z</time>
      </trkpt>
      <trkpt lat="59.9635228" lon="17.7693392">
        <ele>32.8223</ele>
        <time>2013-04-17T18:38:51Z</time>
      </trkpt>
      <trkpt lat="59.9634968" lon="17.769441">
        <ele>32.8223</ele>
        <time>2013-04-17T18:38:52Z</time>
      </trkpt>
      <trkpt lat="59.9634745" lon="17.7695465">
        <ele>33.3029</ele>
        <time>2013-04-17T18:38:53Z</time>
      </trkpt>
      <trkpt lat="59.963456" lon="17.7696547">
        <ele>33.3029</ele>
        <time>2013-04-17T18:38:54Z</time>
      </trkpt>
      <trkpt lat="59.9634438" lon="17.769767">
        <ele>33.3029</ele>
        <time>2013-04-17T18:38:55Z</time>
      </trkpt>
      <trkpt lat="59.9634371" lon="17.7698801">
        <ele>33.3029</ele>
        <time>2013-04-17T18:38:56Z</time>
      </trkpt>
      <trkpt lat="59.9634351" lon="17.7699916">
        <ele>33.3029</ele>
        <time>2013-04-17T18:38:57Z</time>
      </trkpt>
      <trkpt lat="59.9634387" lon="17.7701018">
        <ele>33.7834</ele>
        <time>2013-04-17T18:38:58Z</time>
      </trkpt>
      <trkpt lat="59.9634417" lon="17.770219">
        <ele>33.7834</ele>
        <time>2013-04-17T18:38:59Z</time>
      </trkpt>
      <trkpt lat="59.963447" lon="17.7703409">
        <ele>33.7834</ele>
        <time>2013-04-17T18:39:00Z</time>
      </trkpt>
      <trkpt lat="59.9634541" lon="17.770467">
        <ele>33.3029</ele>
        <time>2013-04-17T18:39:01Z</time>
      </trkpt>
      <trkpt lat="59.9634647" lon="17.7706015">
        <ele>33.3029</ele>
        <time>2013-04-17T18:39:02Z</time>
      </trkpt>
      <trkpt lat="59.9634787" lon="17.7707406">
        <ele>33.3029</ele>
        <time>2013-04-17T18:39:03Z</time>
      </trkpt>
      <trkpt lat="59.9634978" lon="17.7708799">
        <ele>33.3029</ele>
        <time>2013-04-17T18:39:04Z</time>
      </trkpt>
      <trkpt lat="59.9635212" lon="17.7710192">
        <ele>33.3029</ele>
        <time>2013-04-17T18:39:05Z</time>
      </trkpt>
      <trkpt lat="59.9635479" lon="17.7711582">
        <ele>33.3029</ele>
        <time>2013-04-17T18:39:06Z</time>
      </trkpt>
      <trkpt lat="59.9635767" lon="17.7712969">
        <ele>33.3029</ele>
        <time>2013-04-17T18:39:07Z</time>
      </trkpt>
      <trkpt lat="59.9636066" lon="17.7714336">
        <ele>32.8223</ele>
        <time>2013-04-17T18:39:08Z</time>
      </trkpt>
      <trkpt lat="59.9636387" lon="17.7715672">
        <ele>32.8223</ele>
        <time>2013-04-17T18:39:09Z</time>
      </trkpt>
      <trkpt lat="59.9636714" lon="17.7716988">
        <ele>32.8223</ele>
        <time>2013-04-17T18:39:10Z</time>
      </trkpt>
      <trkpt lat="59.9637035" lon="17.7718303">
        <ele>32.8223</ele>
        <time>2013-04-17T18:39:11Z</time>
      </trkpt>
      <trkpt lat="59.9637349" lon="17.7719628">
        <ele>32.8223</ele>
        <time>2013-04-17T18:39:12Z</time>
      </trkpt>
      <trkpt lat="59.9637656" lon="17.7720971">
        <ele>32.3416</ele>
        <time>2013-04-17T18:39:13Z</time>
      </trkpt>
      <trkpt lat="59.9637953" lon="17.7722346">
        <ele>32.3416</ele>
        <time>2013-04-17T18:39:14Z</time>
      </trkpt>
      <trkpt lat="59.9638227" lon="17.7723764">
        <ele>32.3416</ele>
        <time>2013-04-17T18:39:15Z</time>
      </trkpt>
      <trkpt lat="59.963847" lon="17.7725236">
        <ele>31.8607</ele>
        <time>2013-04-17T18:39:16Z</time>
      </trkpt>
      <trkpt lat="59.9638661" lon="17.7726757">
        <ele>31.8607</ele>
        <time>2013-04-17T18:39:17Z</time>
      </trkpt>
      <trkpt lat="59.9638786" lon="17.7728302">
        <ele>32.3416</ele>
        <time>2013-04-17T18:39:18Z</time>
      </trkpt>
      <trkpt lat="59.963883" lon="17.7729841">
        <ele>32.3416</ele>
        <time>2013-04-17T18:39:19Z</time>
      </trkpt>
      <trkpt lat="59.9638785" lon="17.7731353">
        <ele>32.3416</ele>
        <time>2013-04-17T18:39:20Z</time>
      </trkpt>
      <trkpt lat="59.9638672" lon="17.7732855">
        <ele>32.3416</ele>
        <time>2013-04-17T18:39:21Z</time>
      </trkpt>
      <trkpt lat="59.9638507" lon="17.773435">
        <ele>32.3416</ele>
        <time>2013-04-17T18:39:22Z</time>
      </trkpt>
      <trkpt lat="59.9638312" lon="17.773586">
        <ele>32.3416</ele>
        <time>2013-04-17T18:39:23Z</time>
      </trkpt>
      <trkpt lat="59.9638082" lon="17.7737379">
        <ele>32.8223</ele>
        <time>2013-04-17T18:39:24Z</time>
      </trkpt>
      <trkpt lat="59.963782" lon="17.7738874">
        <ele>32.8223</ele>
        <time>2013-04-17T18:39:25Z</time>
      </trkpt>
      <trkpt lat="59.9637536" lon="17.7740331">
        <ele>33.3029</ele>
        <time>2013-04-17T18:39:26Z</time>
      </trkpt>
      <trkpt lat="59.9637268" lon="17.774177">
        <ele>33.3029</ele>
        <time>2013-04-17T18:39:27Z</time>
      </trkpt>
      <trkpt lat="59.9637041" lon="17.7743222">
        <ele>33.3029</ele>
        <time>2013-04-17T18:39:28Z</time>
      </trkpt>
      <trkpt lat="59.9636846" lon="17.7744702">
        <ele>33.3029</ele>
        <time>2013-04-17T18:39:29Z</time>
      </trkpt>
      <trkpt lat="59.9636654" lon="17.7746189">
        <ele>33.3029</ele>
        <time>2013-04-17T18:39:30Z</time>
      </trkpt>
      <trkpt lat="59.963643" lon="17.774767">
        <ele>33.7834</ele>
        <time>2013-04-17T18:39:31Z</time>
      </trkpt>
      <trkpt lat="59.9636148" lon="17.7749127">
        <ele>33.7834</ele>
        <time>2013-04-17T18:39:32Z</time>
      </trkpt>
      <trkpt lat="59.9635821" lon="17.7750555">
        <ele>33.3029</ele>
        <time>2013-04-17T18:39:33Z</time>
      </trkpt>
      <trkpt lat="59.9635475" lon="17.775197">
        <ele>33.7834</ele>
        <time>2013-04-17T18:39:34Z</time>
      </trkpt>
      <trkpt lat="59.9635097" lon="17.7753359">
        <ele>33.7834</ele>
        <time>2013-04-17T18:39:35Z</time>
      </trkpt>
      <trkpt lat="59.9634689" lon="17.7754692">
        <ele>33.7834</ele>
        <time>2013-04-17T18:39:36Z</time>
      </trkpt>
      <trkpt lat="59.9634258" lon="17.7755973">
        <ele>34.2642</ele>
        <time>2013-04-17T18:39:37Z</time>
      </trkpt>
      <trkpt lat="59.9633822" lon="17.7757227">
        <ele>34.2642</ele>
        <time>2013-04-17T18:39:38Z</time>
      </trkpt>
      <trkpt lat="59.9633394" lon="17.7758481">
        <ele>34.7449</ele>
        <time>2013-04-17T18:39:39Z</time>
      </trkpt>
      <trkpt lat="59.9632982" lon="17.7759746">
        <ele>34.7449</ele>
        <time>2013-04-17T18:39:40Z</time>
      </trkpt>
      <trkpt lat="59.9632581" lon="17.7761014">
        <ele>35.2255</ele>
        <time>2013-04-17T18:39:41Z</time>
      </trkpt>
      <trkpt lat="59.9632198" lon="17.7762288">
        <ele>35.2255</ele>
        <time>2013-04-17T18:39:42Z</time>
      </trkpt>
      <trkpt lat="59.9631821" lon="17.7763561">
        <ele>35.2255</ele>
        <time>2013-04-17T18:39:43Z</time>
      </trkpt>
      <trkpt lat="59.9631441" lon="17.7764825">
        <ele>35.2255</ele>
        <time>2013-04-17T18:39:44Z</time>
      </trkpt>
      <trkpt lat="59.963107" lon="17.7766092">
        <ele>35.2255</ele>
        <time>2013-04-17T18:39:45Z</time>
      </trkpt>
      <trkpt lat="59.96307" lon="17.7767387">
        <ele>35.2255</ele>
        <time>2013-04-17T18:39:46Z</time>
      </trkpt>
      <trkpt lat="59.9630316" lon="17.77687">
        <ele>35.2255</ele>
        <time>2013-04-17T18:39:47Z</time>
      </trkpt>
      <trkpt lat="59.9629881" lon="17.7769992">
        <ele>35.2255</ele>
        <time>2013-04-17T18:39:48Z</time>
      </trkpt>
      <trkpt lat="59.9629405" lon="17.7771258">
        <ele>34.7449</ele>
        <time>2013-04-17T18:39:49Z</time>
      </trkpt>
      <trkpt lat="59.9628896" lon="17.7772474">
        <ele>34.7449</ele>
        <time>2013-04-17T18:39:50Z</time>
      </trkpt>
      <trkpt lat="59.9628363" lon="17.7773648">
        <ele>34.2642</ele>
        <time>2013-04-17T18:39:51Z</time>
      </trkpt>
      <trkpt lat="59.9627818" lon="17.7774803">
        <ele>34.2642</ele>
        <time>2013-04-17T18:39:52Z</time>
      </trkpt>
      <trkpt lat="59.9627276" lon="17.777595">
        <ele>34.2642</ele>
        <time>2013-04-17T18:39:53Z</time>
      </trkpt>
      <trkpt lat="59.9626737" lon="17.7777086">
        <ele>34.2642</ele>
        <time>2013-04-17T18:39:54Z</time>
      </trkpt>
      <trkpt lat="59.9626196" lon="17.7778202">
        <ele>34.2642</ele>
        <time>2013-04-17T18:39:55Z</time>
      </trkpt>
      <trkpt lat="59.9625642" lon="17.7779303">
        <ele>33.7834</ele>
        <time>2013-04-17T18:39:56Z</time>
      </trkpt>
      <trkpt lat="59.96251" lon="17.7780404">
        <ele>33.7834</ele>
        <time>2013-04-17T18:39:57Z</time>
      </trkpt>
      <trkpt lat="59.9624587" lon="17.7781513">
        <ele>33.7834</ele>
        <time>2013-04-17T18:39:58Z</time>
      </trkpt>
      <trkpt lat="59.9624096" lon="17.7782614">
        <ele>33.7834</ele>
        <time>2013-04-17T18:39:59Z</time>
      </trkpt>
      <trkpt lat="59.9623629" lon="17.7783706">
        <ele>33.7834</ele>
        <time>2013-04-17T18:40:00Z</time>
      </trkpt>
      <trkpt lat="59.9623178" lon="17.7784784">
        <ele>33.7834</ele>
        <time>2013-04-17T18:40:01Z</time>
      </trkpt>
      <trkpt lat="59.9622741" lon="17.7785843">
        <ele>33.7834</ele>
        <time>2013-04-17T18:40:02Z</time>
      </trkpt>
      <trkpt lat="59.9622296" lon="17.7786863">
        <ele>33.7834</ele>
        <time>2013-04-17T18:40:03Z</time>
      </trkpt>
      <trkpt lat="59.9621845" lon="17.7787863">
        <ele>33.7834</ele>
        <time>2013-04-17T18:40:04Z</time>
      </trkpt>
      <trkpt lat="59.96214" lon="17.7788877">
        <ele>33.7834</ele>
        <time>2013-04-17T18:40:05Z</time>
      </trkpt>
      <trkpt lat="59.9620945" lon="17.7789886">
        <ele>33.7834</ele>
        <time>2013-04-17T18:40:06Z</time>
      </trkpt>
      <trkpt lat="59.9620487" lon="17.7790879">
        <ele>33.7834</ele>
        <time>2013-04-17T18:40:07Z</time>
      </trkpt>
      <trkpt lat="59.9620033" lon="17.779187">
        <ele>33.7834</ele>
        <time>2013-04-17T18:40:08Z</time>
      </trkpt>
      <trkpt lat="59.9619588" lon="17.7792854">
        <ele>34.2642</ele>
        <time>2013-04-17T18:40:09Z</time>
      </trkpt>
      <trkpt lat="59.9619144" lon="17.779382">
        <ele>34.2642</ele>
        <time>2013-04-17T18:40:10Z</time>
      </trkpt>
      <trkpt lat="59.9618703" lon="17.7794774">
        <ele>34.2642</ele>
        <time>2013-04-17T18:40:11Z</time>
      </trkpt>
      <trkpt lat="59.9618271" lon="17.7795731">
        <ele>34.7449</ele>
        <time>2013-04-17T18:40:12Z</time>
      </trkpt>
      <trkpt lat="59.9617842" lon="17.7796688">
        <ele>34.7449</ele>
        <time>2013-04-17T18:40:13Z</time>
      </trkpt>
      <trkpt lat="59.9617426" lon="17.7797668">
        <ele>34.7449</ele>
        <time>2013-04-17T18:40:14Z</time>
      </trkpt>
      <trkpt lat="59.9617015" lon="17.7798685">
        <ele>34.7449</ele>
        <time>2013-04-17T18:40:15Z</time>
      </trkpt>
      <trkpt lat="59.9616597" lon="17.7799733">
        <ele>34.7449</ele>
        <time>2013-04-17T18:40:16Z</time>
      </trkpt>
      <trkpt lat="59.9616162" lon="17.7800776">
        <ele>34.7449</ele>
        <time>2013-04-17T18:40:17Z</time>
      </trkpt>
      <trkpt lat="59.9615713" lon="17.7801782">
        <ele>34.7449</ele>
        <time>2013-04-17T18:40:18Z</time>
      </trkpt>
      <trkpt lat="59.9615263" lon="17.7802746">
        <ele>35.2255</ele>
        <time>2013-04-17T18:40:19Z</time>
      </trkpt>
      <trkpt lat="59.9614807" lon="17.7803651">
        <ele>35.2255</ele>
        <time>2013-04-17T18:40:20Z</time>
      </trkpt>
      <trkpt lat="59.9614367" lon="17.7804528">
        <ele>35.2255</ele>
        <time>2013-04-17T18:40:21Z</time>
      </trkpt>
      <trkpt lat="59.9613947" lon="17.7805396">
        <ele>35.2255</ele>
        <time>2013-04-17T18:40:22Z</time>
      </trkpt>
      <trkpt lat="59.9613527" lon="17.7806219">
        <ele>35.2255</ele>
        <time>2013-04-17T18:40:23Z</time>
      </trkpt>
      <trkpt lat="59.9613095" lon="17.7806994">
        <ele>35.2255</ele>
        <time>2013-04-17T18:40:24Z</time>
      </trkpt>
      <trkpt lat="59.9612657" lon="17.7807738">
        <ele>35.2255</ele>
        <time>2013-04-17T18:40:25Z</time>
      </trkpt>
      <trkpt lat="59.9612222" lon="17.7808459">
        <ele>34.7449</ele>
        <time>2013-04-17T18:40:26Z</time>
      </trkpt>
      <trkpt lat="59.9611813" lon="17.7809141">
        <ele>34.7449</ele>
        <time>2013-04-17T18:40:27Z</time>
      </trkpt>
      <trkpt lat="59.9611462" lon="17.7809743">
        <ele>34.7449</ele>
        <time>2013-04-17T18:40:28Z</time>
      </trkpt>
      <trkpt lat="59.9611165" lon="17.7810257">
        <ele>34.7449</ele>
        <time>2013-04-17T18:40:29Z</time>
      </trkpt>
      <trkpt lat="59.9612558" lon="17.7807962">
        <ele>32.3416</ele>
        <time>2013-04-17T18:40:42Z</time>
      </trkpt>
      <trkpt lat="59.9612883" lon="17.780735">
        <ele>31.8607</ele>
        <time>2013-04-17T18:40:43Z</time>
      </trkpt>
    </trkseg>
  </trk>
</gpx>